<?xml version="1.0" encoding="UTF-8" standalone="no" ?>
<gpx xmlns="http://www.topografix.com/GPX/1/1" xmlns:xsi="http://www.w3.org/2001/XMLSchema-instance" xsi:schemaLocation="http://www.topografix.com/GPX/1/1 http://www.topografix.com/GPX/1/1/gpx.xsd" version="1.1" creator="VisuGPX - https://www.visugpx.com">
  <metadata>
    <name>Pornichet 25/11/2021</name>
    <desc><![CDATA[Sortie vtt jeudi 25 novembre 2021]]></desc>
  </metadata>
  <trk>
    <name><![CDATA[Pornichet Cyclisme]]></name>
    <trkseg>
      <trkpt lat="47.26371" lon="-2.31641">
        <ele>8.3</ele>
        <time>2021-11-25T08:19:38.000Z</time>
      </trkpt>
      <trkpt lat="47.26377" lon="-2.31657">
        <ele>8.2</ele>
        <time>2021-11-25T08:19:41.000Z</time>
      </trkpt>
      <trkpt lat="47.26378" lon="-2.31663">
        <ele>-0.40000000596046</ele>
        <time>2021-11-25T08:19:42.000Z</time>
      </trkpt>
      <trkpt lat="47.26379" lon="-2.31669">
        <ele>-0.40000000596046</ele>
        <time>2021-11-25T08:19:43.000Z</time>
      </trkpt>
      <trkpt lat="47.26377" lon="-2.31685">
        <ele>-0.40000000596046</ele>
        <time>2021-11-25T08:19:47.000Z</time>
      </trkpt>
      <trkpt lat="47.26374" lon="-2.31688">
        <ele>-0.40000000596046</ele>
        <time>2021-11-25T08:19:48.000Z</time>
      </trkpt>
      <trkpt lat="47.26364" lon="-2.31696">
        <ele>-0.40000000596046</ele>
        <time>2021-11-25T08:19:51.000Z</time>
      </trkpt>
      <trkpt lat="47.26357" lon="-2.31702">
        <ele>-0.40000000596046</ele>
        <time>2021-11-25T08:19:53.000Z</time>
      </trkpt>
      <trkpt lat="47.26341" lon="-2.31712">
        <ele>-0.80000001192093</ele>
        <time>2021-11-25T08:19:58.000Z</time>
      </trkpt>
      <trkpt lat="47.26338" lon="-2.31715">
        <ele>-1.2000000476837</ele>
        <time>2021-11-25T08:19:59.000Z</time>
      </trkpt>
      <trkpt lat="47.26334" lon="-2.31717">
        <ele>-1.6000000238419</ele>
        <time>2021-11-25T08:20:00.000Z</time>
      </trkpt>
      <trkpt lat="47.2633" lon="-2.31719">
        <ele>-2</ele>
        <time>2021-11-25T08:20:01.000Z</time>
      </trkpt>
      <trkpt lat="47.26326" lon="-2.31721">
        <ele>-2.5999999046326</ele>
        <time>2021-11-25T08:20:02.000Z</time>
      </trkpt>
      <trkpt lat="47.26313" lon="-2.31729">
        <ele>-2.5999999046326</ele>
        <time>2021-11-25T08:20:05.000Z</time>
      </trkpt>
      <trkpt lat="47.26294" lon="-2.31741">
        <ele>-2.5999999046326</ele>
        <time>2021-11-25T08:20:09.000Z</time>
      </trkpt>
      <trkpt lat="47.26291" lon="-2.31746">
        <ele>-3</ele>
        <time>2021-11-25T08:20:10.000Z</time>
      </trkpt>
      <trkpt lat="47.26289" lon="-2.3175">
        <ele>-3.4000000953674</ele>
        <time>2021-11-25T08:20:11.000Z</time>
      </trkpt>
      <trkpt lat="47.26287" lon="-2.31755">
        <ele>-3.7999999523163</ele>
        <time>2021-11-25T08:20:12.000Z</time>
      </trkpt>
      <trkpt lat="47.26287" lon="-2.31761">
        <ele>-4.1999998092651</ele>
        <time>2021-11-25T08:20:13.000Z</time>
      </trkpt>
      <trkpt lat="47.26288" lon="-2.31766">
        <ele>-4.5999999046326</ele>
        <time>2021-11-25T08:20:14.000Z</time>
      </trkpt>
      <trkpt lat="47.26289" lon="-2.31772">
        <ele>-4.5999999046326</ele>
        <time>2021-11-25T08:20:15.000Z</time>
      </trkpt>
      <trkpt lat="47.26292" lon="-2.31806">
        <ele>-4.5999999046326</ele>
        <time>2021-11-25T08:20:21.000Z</time>
      </trkpt>
      <trkpt lat="47.26292" lon="-2.31835">
        <ele>-4.5999999046326</ele>
        <time>2021-11-25T08:20:25.000Z</time>
      </trkpt>
      <trkpt lat="47.26291" lon="-2.31841">
        <ele>-4.5999999046326</ele>
        <time>2021-11-25T08:20:26.000Z</time>
      </trkpt>
      <trkpt lat="47.26285" lon="-2.3189">
        <ele>-4.5999999046326</ele>
        <time>2021-11-25T08:20:34.000Z</time>
      </trkpt>
      <trkpt lat="47.2628" lon="-2.3191">
        <ele>-4.5999999046326</ele>
        <time>2021-11-25T08:20:39.000Z</time>
      </trkpt>
      <trkpt lat="47.26266" lon="-2.31926">
        <ele>-4.5999999046326</ele>
        <time>2021-11-25T08:20:44.000Z</time>
      </trkpt>
      <trkpt lat="47.26248" lon="-2.31952">
        <ele>-4.5999999046326</ele>
        <time>2021-11-25T08:20:50.000Z</time>
      </trkpt>
      <trkpt lat="47.26246" lon="-2.31956">
        <ele>-5.4000000953674</ele>
        <time>2021-11-25T08:20:51.000Z</time>
      </trkpt>
      <trkpt lat="47.26243" lon="-2.31961">
        <ele>-5.8000001907349</ele>
        <time>2021-11-25T08:20:52.000Z</time>
      </trkpt>
      <trkpt lat="47.26241" lon="-2.31965">
        <ele>-6.1999998092651</ele>
        <time>2021-11-25T08:20:53.000Z</time>
      </trkpt>
      <trkpt lat="47.26239" lon="-2.31968">
        <ele>-6.5999999046326</ele>
        <time>2021-11-25T08:20:54.000Z</time>
      </trkpt>
      <trkpt lat="47.26237" lon="-2.31973">
        <ele>-6.5999999046326</ele>
        <time>2021-11-25T08:20:55.000Z</time>
      </trkpt>
      <trkpt lat="47.26221" lon="-2.31991">
        <ele>-6.5999999046326</ele>
        <time>2021-11-25T08:21:01.000Z</time>
      </trkpt>
      <trkpt lat="47.26211" lon="-2.32003">
        <ele>-6.5999999046326</ele>
        <time>2021-11-25T08:21:05.000Z</time>
      </trkpt>
      <trkpt lat="47.26208" lon="-2.32006">
        <ele>-6.5999999046326</ele>
        <time>2021-11-25T08:21:06.000Z</time>
      </trkpt>
      <trkpt lat="47.26191" lon="-2.32021">
        <ele>-6.5999999046326</ele>
        <time>2021-11-25T08:21:12.000Z</time>
      </trkpt>
      <trkpt lat="47.26185" lon="-2.32034">
        <ele>-6.5999999046326</ele>
        <time>2021-11-25T08:21:17.000Z</time>
      </trkpt>
      <trkpt lat="47.26184" lon="-2.32035">
        <ele>-6.5999999046326</ele>
        <time>2021-11-25T08:21:18.000Z</time>
      </trkpt>
      <trkpt lat="47.26179" lon="-2.32035">
        <ele>-6.5999999046326</ele>
        <time>2021-11-25T08:21:21.000Z</time>
      </trkpt>
      <trkpt lat="47.26165" lon="-2.32041">
        <ele>-6.5999999046326</ele>
        <time>2021-11-25T08:21:26.000Z</time>
      </trkpt>
      <trkpt lat="47.26158" lon="-2.32046">
        <ele>-6.5999999046326</ele>
        <time>2021-11-25T08:21:28.000Z</time>
      </trkpt>
      <trkpt lat="47.26147" lon="-2.32059">
        <ele>-6.5999999046326</ele>
        <time>2021-11-25T08:21:31.000Z</time>
      </trkpt>
      <trkpt lat="47.2614" lon="-2.32076">
        <ele>-6.5999999046326</ele>
        <time>2021-11-25T08:21:34.000Z</time>
      </trkpt>
      <trkpt lat="47.26137" lon="-2.32088">
        <ele>-6.5999999046326</ele>
        <time>2021-11-25T08:21:36.000Z</time>
      </trkpt>
      <trkpt lat="47.26128" lon="-2.32123">
        <ele>-6.5999999046326</ele>
        <time>2021-11-25T08:21:42.000Z</time>
      </trkpt>
      <trkpt lat="47.26118" lon="-2.32159">
        <ele>-6.5999999046326</ele>
        <time>2021-11-25T08:21:48.000Z</time>
      </trkpt>
      <trkpt lat="47.26114" lon="-2.3217">
        <ele>-6.5999999046326</ele>
        <time>2021-11-25T08:21:50.000Z</time>
      </trkpt>
      <trkpt lat="47.26106" lon="-2.32193">
        <ele>-6.5999999046326</ele>
        <time>2021-11-25T08:21:54.000Z</time>
      </trkpt>
      <trkpt lat="47.261" lon="-2.32211">
        <ele>-6.5999999046326</ele>
        <time>2021-11-25T08:21:57.000Z</time>
      </trkpt>
      <trkpt lat="47.26086" lon="-2.32237">
        <ele>-6.5999999046326</ele>
        <time>2021-11-25T08:22:02.000Z</time>
      </trkpt>
      <trkpt lat="47.26079" lon="-2.32248">
        <ele>-6.5999999046326</ele>
        <time>2021-11-25T08:22:04.000Z</time>
      </trkpt>
      <trkpt lat="47.26053" lon="-2.3228">
        <ele>-6.5999999046326</ele>
        <time>2021-11-25T08:22:11.000Z</time>
      </trkpt>
      <trkpt lat="47.26023" lon="-2.32317">
        <ele>-6.5999999046326</ele>
        <time>2021-11-25T08:22:19.000Z</time>
      </trkpt>
      <trkpt lat="47.25996" lon="-2.32355">
        <ele>-6.5999999046326</ele>
        <time>2021-11-25T08:22:29.000Z</time>
      </trkpt>
      <trkpt lat="47.2597" lon="-2.32389">
        <ele>-6.5999999046326</ele>
        <time>2021-11-25T08:22:37.000Z</time>
      </trkpt>
      <trkpt lat="47.25964" lon="-2.32399">
        <ele>-6.5999999046326</ele>
        <time>2021-11-25T08:22:39.000Z</time>
      </trkpt>
      <trkpt lat="47.25945" lon="-2.32427">
        <ele>-6.5999999046326</ele>
        <time>2021-11-25T08:22:45.000Z</time>
      </trkpt>
      <trkpt lat="47.25922" lon="-2.32457">
        <ele>-6.5999999046326</ele>
        <time>2021-11-25T08:22:52.000Z</time>
      </trkpt>
      <trkpt lat="47.25912" lon="-2.32476">
        <ele>-6.5999999046326</ele>
        <time>2021-11-25T08:22:57.000Z</time>
      </trkpt>
      <trkpt lat="47.25921" lon="-2.32484">
        <ele>-6.5999999046326</ele>
        <time>2021-11-25T08:23:00.000Z</time>
      </trkpt>
      <trkpt lat="47.25924" lon="-2.32488">
        <ele>-6.5999999046326</ele>
        <time>2021-11-25T08:23:01.000Z</time>
      </trkpt>
      <trkpt lat="47.25927" lon="-2.32492">
        <ele>-6.5999999046326</ele>
        <time>2021-11-25T08:23:02.000Z</time>
      </trkpt>
      <trkpt lat="47.25932" lon="-2.32503">
        <ele>-6.5999999046326</ele>
        <time>2021-11-25T08:23:04.000Z</time>
      </trkpt>
      <trkpt lat="47.25935" lon="-2.32516">
        <ele>-6.5999999046326</ele>
        <time>2021-11-25T08:23:06.000Z</time>
      </trkpt>
      <trkpt lat="47.25945" lon="-2.32545">
        <ele>-6.5999999046326</ele>
        <time>2021-11-25T08:23:11.000Z</time>
      </trkpt>
      <trkpt lat="47.25954" lon="-2.32587">
        <ele>-6.5999999046326</ele>
        <time>2021-11-25T08:23:18.000Z</time>
      </trkpt>
      <trkpt lat="47.25959" lon="-2.32612">
        <ele>-7</ele>
        <time>2021-11-25T08:23:22.000Z</time>
      </trkpt>
      <trkpt lat="47.25961" lon="-2.32617">
        <ele>-7.4000000953674</ele>
        <time>2021-11-25T08:23:23.000Z</time>
      </trkpt>
      <trkpt lat="47.25962" lon="-2.32622">
        <ele>-7.8000001907349</ele>
        <time>2021-11-25T08:23:24.000Z</time>
      </trkpt>
      <trkpt lat="47.25963" lon="-2.32628">
        <ele>-8.1999998092651</ele>
        <time>2021-11-25T08:23:25.000Z</time>
      </trkpt>
      <trkpt lat="47.25964" lon="-2.32634">
        <ele>-8.6000003814697</ele>
        <time>2021-11-25T08:23:26.000Z</time>
      </trkpt>
      <trkpt lat="47.25964" lon="-2.3264">
        <ele>-8.6000003814697</ele>
        <time>2021-11-25T08:23:27.000Z</time>
      </trkpt>
      <trkpt lat="47.25963" lon="-2.32656">
        <ele>-8.6000003814697</ele>
        <time>2021-11-25T08:23:30.000Z</time>
      </trkpt>
      <trkpt lat="47.25964" lon="-2.32661">
        <ele>-8.6000003814697</ele>
        <time>2021-11-25T08:23:31.000Z</time>
      </trkpt>
      <trkpt lat="47.25969" lon="-2.32666">
        <ele>-8.6000003814697</ele>
        <time>2021-11-25T08:23:33.000Z</time>
      </trkpt>
      <trkpt lat="47.2598" lon="-2.32665">
        <ele>-8.6000003814697</ele>
        <time>2021-11-25T08:23:36.000Z</time>
      </trkpt>
      <trkpt lat="47.25987" lon="-2.32668">
        <ele>-8.6000003814697</ele>
        <time>2021-11-25T08:23:38.000Z</time>
      </trkpt>
      <trkpt lat="47.25995" lon="-2.32669">
        <ele>-8.6000003814697</ele>
        <time>2021-11-25T08:23:40.000Z</time>
      </trkpt>
      <trkpt lat="47.26015" lon="-2.3266">
        <ele>-8.6000003814697</ele>
        <time>2021-11-25T08:23:45.000Z</time>
      </trkpt>
      <trkpt lat="47.26027" lon="-2.32656">
        <ele>-8.6000003814697</ele>
        <time>2021-11-25T08:23:48.000Z</time>
      </trkpt>
      <trkpt lat="47.26035" lon="-2.32653">
        <ele>-8.6000003814697</ele>
        <time>2021-11-25T08:23:50.000Z</time>
      </trkpt>
      <trkpt lat="47.26044" lon="-2.32652">
        <ele>-8.6000003814697</ele>
        <time>2021-11-25T08:23:52.000Z</time>
      </trkpt>
      <trkpt lat="47.26064" lon="-2.32647">
        <ele>-8.6000003814697</ele>
        <time>2021-11-25T08:23:57.000Z</time>
      </trkpt>
      <trkpt lat="47.26081" lon="-2.32644">
        <ele>-8.1999998092651</ele>
        <time>2021-11-25T08:24:01.000Z</time>
      </trkpt>
      <trkpt lat="47.26085" lon="-2.32643">
        <ele>-7.8000001907349</ele>
        <time>2021-11-25T08:24:02.000Z</time>
      </trkpt>
      <trkpt lat="47.26089" lon="-2.32642">
        <ele>-7.4000000953674</ele>
        <time>2021-11-25T08:24:03.000Z</time>
      </trkpt>
      <trkpt lat="47.26094" lon="-2.32641">
        <ele>-7</ele>
        <time>2021-11-25T08:24:04.000Z</time>
      </trkpt>
      <trkpt lat="47.26098" lon="-2.3264">
        <ele>-6.4000000953674</ele>
        <time>2021-11-25T08:24:05.000Z</time>
      </trkpt>
      <trkpt lat="47.2611" lon="-2.32638">
        <ele>-6.4000000953674</ele>
        <time>2021-11-25T08:24:08.000Z</time>
      </trkpt>
      <trkpt lat="47.26131" lon="-2.32638">
        <ele>-6.4000000953674</ele>
        <time>2021-11-25T08:24:13.000Z</time>
      </trkpt>
      <trkpt lat="47.26144" lon="-2.3264">
        <ele>-6.4000000953674</ele>
        <time>2021-11-25T08:24:16.000Z</time>
      </trkpt>
      <trkpt lat="47.26177" lon="-2.32653">
        <ele>-6.4000000953674</ele>
        <time>2021-11-25T08:24:24.000Z</time>
      </trkpt>
      <trkpt lat="47.26185" lon="-2.32658">
        <ele>-6.4000000953674</ele>
        <time>2021-11-25T08:24:26.000Z</time>
      </trkpt>
      <trkpt lat="47.26197" lon="-2.32667">
        <ele>-6.4000000953674</ele>
        <time>2021-11-25T08:24:29.000Z</time>
      </trkpt>
      <trkpt lat="47.26203" lon="-2.32674">
        <ele>-6.4000000953674</ele>
        <time>2021-11-25T08:24:31.000Z</time>
      </trkpt>
      <trkpt lat="47.26235" lon="-2.32714">
        <ele>-6.4000000953674</ele>
        <time>2021-11-25T08:24:40.000Z</time>
      </trkpt>
      <trkpt lat="47.26262" lon="-2.32757">
        <ele>-6.4000000953674</ele>
        <time>2021-11-25T08:24:47.000Z</time>
      </trkpt>
      <trkpt lat="47.26284" lon="-2.32806">
        <ele>-6.4000000953674</ele>
        <time>2021-11-25T08:24:54.000Z</time>
      </trkpt>
      <trkpt lat="47.26289" lon="-2.32828">
        <ele>-6.4000000953674</ele>
        <time>2021-11-25T08:24:57.000Z</time>
      </trkpt>
      <trkpt lat="47.26293" lon="-2.3285">
        <ele>-6.4000000953674</ele>
        <time>2021-11-25T08:25:00.000Z</time>
      </trkpt>
      <trkpt lat="47.26306" lon="-2.32862">
        <ele>-6.4000000953674</ele>
        <time>2021-11-25T08:25:03.000Z</time>
      </trkpt>
      <trkpt lat="47.26325" lon="-2.32878">
        <ele>-6.4000000953674</ele>
        <time>2021-11-25T08:25:07.000Z</time>
      </trkpt>
      <trkpt lat="47.26332" lon="-2.32898">
        <ele>-6.4000000953674</ele>
        <time>2021-11-25T08:25:10.000Z</time>
      </trkpt>
      <trkpt lat="47.26335" lon="-2.32905">
        <ele>-6.4000000953674</ele>
        <time>2021-11-25T08:25:11.000Z</time>
      </trkpt>
      <trkpt lat="47.26354" lon="-2.32966">
        <ele>-6.4000000953674</ele>
        <time>2021-11-25T08:25:20.000Z</time>
      </trkpt>
      <trkpt lat="47.26361" lon="-2.32978">
        <ele>-6.4000000953674</ele>
        <time>2021-11-25T08:25:22.000Z</time>
      </trkpt>
      <trkpt lat="47.2637" lon="-2.32993">
        <ele>-6.4000000953674</ele>
        <time>2021-11-25T08:25:25.000Z</time>
      </trkpt>
      <trkpt lat="47.26371" lon="-2.33014">
        <ele>-6.4000000953674</ele>
        <time>2021-11-25T08:25:28.000Z</time>
      </trkpt>
      <trkpt lat="47.26373" lon="-2.33042">
        <ele>-6.4000000953674</ele>
        <time>2021-11-25T08:25:32.000Z</time>
      </trkpt>
      <trkpt lat="47.26373" lon="-2.33049">
        <ele>-6.4000000953674</ele>
        <time>2021-11-25T08:25:33.000Z</time>
      </trkpt>
      <trkpt lat="47.26374" lon="-2.33071">
        <ele>-6.4000000953674</ele>
        <time>2021-11-25T08:25:36.000Z</time>
      </trkpt>
      <trkpt lat="47.26378" lon="-2.3312">
        <ele>-6.4000000953674</ele>
        <time>2021-11-25T08:25:43.000Z</time>
      </trkpt>
      <trkpt lat="47.26382" lon="-2.33182">
        <ele>-6.4000000953674</ele>
        <time>2021-11-25T08:25:52.000Z</time>
      </trkpt>
      <trkpt lat="47.26382" lon="-2.33203">
        <ele>-6.8000001907349</ele>
        <time>2021-11-25T08:25:55.000Z</time>
      </trkpt>
      <trkpt lat="47.26383" lon="-2.3321">
        <ele>-7.1999998092651</ele>
        <time>2021-11-25T08:25:56.000Z</time>
      </trkpt>
      <trkpt lat="47.26383" lon="-2.33217">
        <ele>-7.8000001907349</ele>
        <time>2021-11-25T08:25:57.000Z</time>
      </trkpt>
      <trkpt lat="47.26383" lon="-2.33224">
        <ele>-8.1999998092651</ele>
        <time>2021-11-25T08:25:58.000Z</time>
      </trkpt>
      <trkpt lat="47.26383" lon="-2.33231">
        <ele>-8.6000003814697</ele>
        <time>2021-11-25T08:25:59.000Z</time>
      </trkpt>
      <trkpt lat="47.26383" lon="-2.33244">
        <ele>-8.6000003814697</ele>
        <time>2021-11-25T08:26:01.000Z</time>
      </trkpt>
      <trkpt lat="47.26385" lon="-2.3325">
        <ele>-8.6000003814697</ele>
        <time>2021-11-25T08:26:02.000Z</time>
      </trkpt>
      <trkpt lat="47.26392" lon="-2.33266">
        <ele>-8.6000003814697</ele>
        <time>2021-11-25T08:26:05.000Z</time>
      </trkpt>
      <trkpt lat="47.26406" lon="-2.33271">
        <ele>-8.6000003814697</ele>
        <time>2021-11-25T08:26:08.000Z</time>
      </trkpt>
      <trkpt lat="47.26438" lon="-2.33274">
        <ele>-8.6000003814697</ele>
        <time>2021-11-25T08:26:15.000Z</time>
      </trkpt>
      <trkpt lat="47.26478" lon="-2.3328">
        <ele>-8.6000003814697</ele>
        <time>2021-11-25T08:26:24.000Z</time>
      </trkpt>
      <trkpt lat="47.26503" lon="-2.33284">
        <ele>-8.6000003814697</ele>
        <time>2021-11-25T08:26:30.000Z</time>
      </trkpt>
      <trkpt lat="47.26507" lon="-2.33287">
        <ele>-8.6000003814697</ele>
        <time>2021-11-25T08:26:31.000Z</time>
      </trkpt>
      <trkpt lat="47.26524" lon="-2.33291">
        <ele>-8.6000003814697</ele>
        <time>2021-11-25T08:26:35.000Z</time>
      </trkpt>
      <trkpt lat="47.26528" lon="-2.3329">
        <ele>-8.6000003814697</ele>
        <time>2021-11-25T08:26:36.000Z</time>
      </trkpt>
      <trkpt lat="47.26532" lon="-2.33293">
        <ele>-8.6000003814697</ele>
        <time>2021-11-25T08:26:37.000Z</time>
      </trkpt>
      <trkpt lat="47.26538" lon="-2.33299">
        <ele>-8.6000003814697</ele>
        <time>2021-11-25T08:26:39.000Z</time>
      </trkpt>
      <trkpt lat="47.26545" lon="-2.33299">
        <ele>-8.6000003814697</ele>
        <time>2021-11-25T08:26:41.000Z</time>
      </trkpt>
      <trkpt lat="47.26548" lon="-2.33296">
        <ele>-8.6000003814697</ele>
        <time>2021-11-25T08:26:42.000Z</time>
      </trkpt>
      <trkpt lat="47.26564" lon="-2.33277">
        <ele>-8.6000003814697</ele>
        <time>2021-11-25T08:26:47.000Z</time>
      </trkpt>
      <trkpt lat="47.26587" lon="-2.33252">
        <ele>-8.6000003814697</ele>
        <time>2021-11-25T08:26:53.000Z</time>
      </trkpt>
      <trkpt lat="47.26591" lon="-2.33248">
        <ele>-8.6000003814697</ele>
        <time>2021-11-25T08:26:54.000Z</time>
      </trkpt>
      <trkpt lat="47.2662" lon="-2.33218">
        <ele>-8.6000003814697</ele>
        <time>2021-11-25T08:27:01.000Z</time>
      </trkpt>
      <trkpt lat="47.26648" lon="-2.3319">
        <ele>-8.6000003814697</ele>
        <time>2021-11-25T08:27:08.000Z</time>
      </trkpt>
      <trkpt lat="47.26678" lon="-2.33161">
        <ele>-8.6000003814697</ele>
        <time>2021-11-25T08:27:16.000Z</time>
      </trkpt>
      <trkpt lat="47.26708" lon="-2.33131">
        <ele>-8.6000003814697</ele>
        <time>2021-11-25T08:27:24.000Z</time>
      </trkpt>
      <trkpt lat="47.26739" lon="-2.33099">
        <ele>-8.6000003814697</ele>
        <time>2021-11-25T08:27:33.000Z</time>
      </trkpt>
      <trkpt lat="47.26754" lon="-2.33088">
        <ele>-8.6000003814697</ele>
        <time>2021-11-25T08:27:38.000Z</time>
      </trkpt>
      <trkpt lat="47.26759" lon="-2.33091">
        <ele>-8.6000003814697</ele>
        <time>2021-11-25T08:27:39.000Z</time>
      </trkpt>
      <trkpt lat="47.26765" lon="-2.3311">
        <ele>-8.6000003814697</ele>
        <time>2021-11-25T08:27:42.000Z</time>
      </trkpt>
      <trkpt lat="47.26765" lon="-2.33139">
        <ele>-8.6000003814697</ele>
        <time>2021-11-25T08:27:46.000Z</time>
      </trkpt>
      <trkpt lat="47.2676" lon="-2.33158">
        <ele>-8.6000003814697</ele>
        <time>2021-11-25T08:27:49.000Z</time>
      </trkpt>
      <trkpt lat="47.26757" lon="-2.33171">
        <ele>-8.6000003814697</ele>
        <time>2021-11-25T08:27:51.000Z</time>
      </trkpt>
      <trkpt lat="47.26754" lon="-2.33177">
        <ele>-8.6000003814697</ele>
        <time>2021-11-25T08:27:52.000Z</time>
      </trkpt>
      <trkpt lat="47.26745" lon="-2.33206">
        <ele>-8.6000003814697</ele>
        <time>2021-11-25T08:27:57.000Z</time>
      </trkpt>
      <trkpt lat="47.26731" lon="-2.33251">
        <ele>-8.6000003814697</ele>
        <time>2021-11-25T08:28:04.000Z</time>
      </trkpt>
      <trkpt lat="47.26731" lon="-2.33258">
        <ele>-8.6000003814697</ele>
        <time>2021-11-25T08:28:05.000Z</time>
      </trkpt>
      <trkpt lat="47.26733" lon="-2.33287">
        <ele>-8.6000003814697</ele>
        <time>2021-11-25T08:28:09.000Z</time>
      </trkpt>
      <trkpt lat="47.26735" lon="-2.33294">
        <ele>-8.6000003814697</ele>
        <time>2021-11-25T08:28:10.000Z</time>
      </trkpt>
      <trkpt lat="47.26747" lon="-2.33336">
        <ele>-8.6000003814697</ele>
        <time>2021-11-25T08:28:16.000Z</time>
      </trkpt>
      <trkpt lat="47.2675" lon="-2.33351">
        <ele>-8.6000003814697</ele>
        <time>2021-11-25T08:28:18.000Z</time>
      </trkpt>
      <trkpt lat="47.26752" lon="-2.33379">
        <ele>-8.6000003814697</ele>
        <time>2021-11-25T08:28:22.000Z</time>
      </trkpt>
      <trkpt lat="47.26756" lon="-2.33428">
        <ele>-8.6000003814697</ele>
        <time>2021-11-25T08:28:29.000Z</time>
      </trkpt>
      <trkpt lat="47.26762" lon="-2.33469">
        <ele>-8.6000003814697</ele>
        <time>2021-11-25T08:28:35.000Z</time>
      </trkpt>
      <trkpt lat="47.26764" lon="-2.33482">
        <ele>-8.6000003814697</ele>
        <time>2021-11-25T08:28:37.000Z</time>
      </trkpt>
      <trkpt lat="47.26768" lon="-2.33508">
        <ele>-8.6000003814697</ele>
        <time>2021-11-25T08:28:41.000Z</time>
      </trkpt>
      <trkpt lat="47.26773" lon="-2.33534">
        <ele>-8.6000003814697</ele>
        <time>2021-11-25T08:28:45.000Z</time>
      </trkpt>
      <trkpt lat="47.26777" lon="-2.33581">
        <ele>-8.6000003814697</ele>
        <time>2021-11-25T08:28:52.000Z</time>
      </trkpt>
      <trkpt lat="47.26777" lon="-2.33631">
        <ele>-8.6000003814697</ele>
        <time>2021-11-25T08:29:00.000Z</time>
      </trkpt>
      <trkpt lat="47.26778" lon="-2.33648">
        <ele>-8</ele>
        <time>2021-11-25T08:29:03.000Z</time>
      </trkpt>
      <trkpt lat="47.26778" lon="-2.33653">
        <ele>-7.5999999046326</ele>
        <time>2021-11-25T08:29:04.000Z</time>
      </trkpt>
      <trkpt lat="47.26779" lon="-2.33659">
        <ele>-6.8000001907349</ele>
        <time>2021-11-25T08:29:05.000Z</time>
      </trkpt>
      <trkpt lat="47.26779" lon="-2.33665">
        <ele>-6.4000000953674</ele>
        <time>2021-11-25T08:29:06.000Z</time>
      </trkpt>
      <trkpt lat="47.26779" lon="-2.3367">
        <ele>-6.4000000953674</ele>
        <time>2021-11-25T08:29:07.000Z</time>
      </trkpt>
      <trkpt lat="47.26784" lon="-2.33702">
        <ele>-6.4000000953674</ele>
        <time>2021-11-25T08:29:13.000Z</time>
      </trkpt>
      <trkpt lat="47.2679" lon="-2.33712">
        <ele>-6.4000000953674</ele>
        <time>2021-11-25T08:29:15.000Z</time>
      </trkpt>
      <trkpt lat="47.268" lon="-2.33723">
        <ele>-6.4000000953674</ele>
        <time>2021-11-25T08:29:18.000Z</time>
      </trkpt>
      <trkpt lat="47.26814" lon="-2.33738">
        <ele>-6</ele>
        <time>2021-11-25T08:29:22.000Z</time>
      </trkpt>
      <trkpt lat="47.26817" lon="-2.33742">
        <ele>-5.5999999046326</ele>
        <time>2021-11-25T08:29:23.000Z</time>
      </trkpt>
      <trkpt lat="47.26821" lon="-2.33745">
        <ele>-5.1999998092651</ele>
        <time>2021-11-25T08:29:24.000Z</time>
      </trkpt>
      <trkpt lat="47.26824" lon="-2.33749">
        <ele>-4.8000001907349</ele>
        <time>2021-11-25T08:29:25.000Z</time>
      </trkpt>
      <trkpt lat="47.26828" lon="-2.33753">
        <ele>-4.4000000953674</ele>
        <time>2021-11-25T08:29:26.000Z</time>
      </trkpt>
      <trkpt lat="47.26831" lon="-2.33757">
        <ele>-4.4000000953674</ele>
        <time>2021-11-25T08:29:27.000Z</time>
      </trkpt>
      <trkpt lat="47.26848" lon="-2.33774">
        <ele>-4.4000000953674</ele>
        <time>2021-11-25T08:29:32.000Z</time>
      </trkpt>
      <trkpt lat="47.26857" lon="-2.33777">
        <ele>-4.4000000953674</ele>
        <time>2021-11-25T08:29:34.000Z</time>
      </trkpt>
      <trkpt lat="47.2689" lon="-2.33793">
        <ele>-4.4000000953674</ele>
        <time>2021-11-25T08:29:42.000Z</time>
      </trkpt>
      <trkpt lat="47.26901" lon="-2.33808">
        <ele>-4.4000000953674</ele>
        <time>2021-11-25T08:29:46.000Z</time>
      </trkpt>
      <trkpt lat="47.26907" lon="-2.33839">
        <ele>-4.4000000953674</ele>
        <time>2021-11-25T08:29:51.000Z</time>
      </trkpt>
      <trkpt lat="47.26919" lon="-2.33894">
        <ele>-4.4000000953674</ele>
        <time>2021-11-25T08:30:00.000Z</time>
      </trkpt>
      <trkpt lat="47.26929" lon="-2.33941">
        <ele>-4.4000000953674</ele>
        <time>2021-11-25T08:30:08.000Z</time>
      </trkpt>
      <trkpt lat="47.26933" lon="-2.33959">
        <ele>-4.4000000953674</ele>
        <time>2021-11-25T08:30:11.000Z</time>
      </trkpt>
      <trkpt lat="47.26937" lon="-2.33976">
        <ele>-4.4000000953674</ele>
        <time>2021-11-25T08:30:14.000Z</time>
      </trkpt>
      <trkpt lat="47.26943" lon="-2.34">
        <ele>-4</ele>
        <time>2021-11-25T08:30:18.000Z</time>
      </trkpt>
      <trkpt lat="47.26945" lon="-2.34007">
        <ele>-3.2000000476837</ele>
        <time>2021-11-25T08:30:19.000Z</time>
      </trkpt>
      <trkpt lat="47.26946" lon="-2.34013">
        <ele>-2.7999999523163</ele>
        <time>2021-11-25T08:30:20.000Z</time>
      </trkpt>
      <trkpt lat="47.26947" lon="-2.34019">
        <ele>-2.4000000953674</ele>
        <time>2021-11-25T08:30:21.000Z</time>
      </trkpt>
      <trkpt lat="47.26948" lon="-2.34025">
        <ele>-2.4000000953674</ele>
        <time>2021-11-25T08:30:22.000Z</time>
      </trkpt>
      <trkpt lat="47.26959" lon="-2.34074">
        <ele>-2.4000000953674</ele>
        <time>2021-11-25T08:30:30.000Z</time>
      </trkpt>
      <trkpt lat="47.2696" lon="-2.3408">
        <ele>-2.4000000953674</ele>
        <time>2021-11-25T08:30:31.000Z</time>
      </trkpt>
      <trkpt lat="47.26969" lon="-2.34118">
        <ele>-2.4000000953674</ele>
        <time>2021-11-25T08:30:37.000Z</time>
      </trkpt>
      <trkpt lat="47.26972" lon="-2.3413">
        <ele>-2.4000000953674</ele>
        <time>2021-11-25T08:30:39.000Z</time>
      </trkpt>
      <trkpt lat="47.26983" lon="-2.34179">
        <ele>-2.4000000953674</ele>
        <time>2021-11-25T08:30:47.000Z</time>
      </trkpt>
      <trkpt lat="47.26995" lon="-2.34226">
        <ele>-2.4000000953674</ele>
        <time>2021-11-25T08:30:55.000Z</time>
      </trkpt>
      <trkpt lat="47.27005" lon="-2.34273">
        <ele>-2.4000000953674</ele>
        <time>2021-11-25T08:31:03.000Z</time>
      </trkpt>
      <trkpt lat="47.27006" lon="-2.34307">
        <ele>-2.4000000953674</ele>
        <time>2021-11-25T08:31:09.000Z</time>
      </trkpt>
      <trkpt lat="47.27009" lon="-2.34315">
        <ele>-2.4000000953674</ele>
        <time>2021-11-25T08:31:11.000Z</time>
      </trkpt>
      <trkpt lat="47.27014" lon="-2.34321">
        <ele>-2.4000000953674</ele>
        <time>2021-11-25T08:31:13.000Z</time>
      </trkpt>
      <trkpt lat="47.27027" lon="-2.34321">
        <ele>-2.4000000953674</ele>
        <time>2021-11-25T08:31:17.000Z</time>
      </trkpt>
      <trkpt lat="47.2703" lon="-2.34321">
        <ele>-2.4000000953674</ele>
        <time>2021-11-25T08:31:18.000Z</time>
      </trkpt>
      <trkpt lat="47.27041" lon="-2.34333">
        <ele>-2.4000000953674</ele>
        <time>2021-11-25T08:31:22.000Z</time>
      </trkpt>
      <trkpt lat="47.27042" lon="-2.3434">
        <ele>-2.4000000953674</ele>
        <time>2021-11-25T08:31:23.000Z</time>
      </trkpt>
      <trkpt lat="47.27046" lon="-2.34358">
        <ele>-2.4000000953674</ele>
        <time>2021-11-25T08:31:26.000Z</time>
      </trkpt>
      <trkpt lat="47.27057" lon="-2.34408">
        <ele>-2.4000000953674</ele>
        <time>2021-11-25T08:31:34.000Z</time>
      </trkpt>
      <trkpt lat="47.27068" lon="-2.34452">
        <ele>-2.4000000953674</ele>
        <time>2021-11-25T08:31:41.000Z</time>
      </trkpt>
      <trkpt lat="47.27079" lon="-2.34501">
        <ele>-2.4000000953674</ele>
        <time>2021-11-25T08:31:49.000Z</time>
      </trkpt>
      <trkpt lat="47.27085" lon="-2.34526">
        <ele>-2</ele>
        <time>2021-11-25T08:31:53.000Z</time>
      </trkpt>
      <trkpt lat="47.27087" lon="-2.34532">
        <ele>-1.6000000238419</ele>
        <time>2021-11-25T08:31:54.000Z</time>
      </trkpt>
      <trkpt lat="47.27088" lon="-2.34538">
        <ele>-1.2000000476837</ele>
        <time>2021-11-25T08:31:55.000Z</time>
      </trkpt>
      <trkpt lat="47.2709" lon="-2.34544">
        <ele>-0.80000001192093</ele>
        <time>2021-11-25T08:31:56.000Z</time>
      </trkpt>
      <trkpt lat="47.27091" lon="-2.3455">
        <ele>-0.40000000596046</ele>
        <time>2021-11-25T08:31:57.000Z</time>
      </trkpt>
      <trkpt lat="47.27104" lon="-2.34606">
        <ele>-0.40000000596046</ele>
        <time>2021-11-25T08:32:06.000Z</time>
      </trkpt>
      <trkpt lat="47.27115" lon="-2.34657">
        <ele>-0.40000000596046</ele>
        <time>2021-11-25T08:32:13.000Z</time>
      </trkpt>
      <trkpt lat="47.27128" lon="-2.34715">
        <ele>-0.40000000596046</ele>
        <time>2021-11-25T08:32:21.000Z</time>
      </trkpt>
      <trkpt lat="47.27138" lon="-2.34757">
        <ele>-0.40000000596046</ele>
        <time>2021-11-25T08:32:27.000Z</time>
      </trkpt>
      <trkpt lat="47.27144" lon="-2.34791">
        <ele>-0.40000000596046</ele>
        <time>2021-11-25T08:32:32.000Z</time>
      </trkpt>
      <trkpt lat="47.27147" lon="-2.34806">
        <ele>-0.40000000596046</ele>
        <time>2021-11-25T08:32:34.000Z</time>
      </trkpt>
      <trkpt lat="47.27164" lon="-2.34881">
        <ele>-0.40000000596046</ele>
        <time>2021-11-25T08:32:45.000Z</time>
      </trkpt>
      <trkpt lat="47.27178" lon="-2.34925">
        <ele>-0.40000000596046</ele>
        <time>2021-11-25T08:32:52.000Z</time>
      </trkpt>
      <trkpt lat="47.27195" lon="-2.34977">
        <ele>-0.40000000596046</ele>
        <time>2021-11-25T08:33:00.000Z</time>
      </trkpt>
      <trkpt lat="47.27208" lon="-2.35016">
        <ele>-0.40000000596046</ele>
        <time>2021-11-25T08:33:07.000Z</time>
      </trkpt>
      <trkpt lat="47.27211" lon="-2.35022">
        <ele>11.7</ele>
        <time>2021-11-25T08:33:08.000Z</time>
      </trkpt>
      <trkpt lat="47.27213" lon="-2.35027">
        <ele>0.40000000596046</ele>
        <time>2021-11-25T08:33:09.000Z</time>
      </trkpt>
      <trkpt lat="47.27215" lon="-2.35033">
        <ele>0.80000001192093</ele>
        <time>2021-11-25T08:33:10.000Z</time>
      </trkpt>
      <trkpt lat="47.27217" lon="-2.35039">
        <ele>1.3999999761581</ele>
        <time>2021-11-25T08:33:11.000Z</time>
      </trkpt>
      <trkpt lat="47.2722" lon="-2.35046">
        <ele>1.7999999523163</ele>
        <time>2021-11-25T08:33:12.000Z</time>
      </trkpt>
      <trkpt lat="47.27227" lon="-2.35065">
        <ele>1.7999999523163</ele>
        <time>2021-11-25T08:33:15.000Z</time>
      </trkpt>
      <trkpt lat="47.27249" lon="-2.35111">
        <ele>1.7999999523163</ele>
        <time>2021-11-25T08:33:23.000Z</time>
      </trkpt>
      <trkpt lat="47.27257" lon="-2.35125">
        <ele>1.7999999523163</ele>
        <time>2021-11-25T08:33:26.000Z</time>
      </trkpt>
      <trkpt lat="47.27264" lon="-2.35124">
        <ele>1.7999999523163</ele>
        <time>2021-11-25T08:33:28.000Z</time>
      </trkpt>
      <trkpt lat="47.27272" lon="-2.35119">
        <ele>1.7999999523163</ele>
        <time>2021-11-25T08:33:30.000Z</time>
      </trkpt>
      <trkpt lat="47.27291" lon="-2.35109">
        <ele>1.7999999523163</ele>
        <time>2021-11-25T08:33:35.000Z</time>
      </trkpt>
      <trkpt lat="47.27302" lon="-2.35108">
        <ele>1.7999999523163</ele>
        <time>2021-11-25T08:33:39.000Z</time>
      </trkpt>
      <trkpt lat="47.27303" lon="-2.35111">
        <ele>1.7999999523163</ele>
        <time>2021-11-25T08:33:40.000Z</time>
      </trkpt>
      <trkpt lat="47.27311" lon="-2.35122">
        <ele>1.7999999523163</ele>
        <time>2021-11-25T08:33:43.000Z</time>
      </trkpt>
      <trkpt lat="47.27313" lon="-2.35127">
        <ele>1.7999999523163</ele>
        <time>2021-11-25T08:33:44.000Z</time>
      </trkpt>
      <trkpt lat="47.27317" lon="-2.35145">
        <ele>1.7999999523163</ele>
        <time>2021-11-25T08:33:47.000Z</time>
      </trkpt>
      <trkpt lat="47.27329" lon="-2.35198">
        <ele>1.7999999523163</ele>
        <time>2021-11-25T08:33:55.000Z</time>
      </trkpt>
      <trkpt lat="47.27339" lon="-2.35243">
        <ele>1.7999999523163</ele>
        <time>2021-11-25T08:34:01.000Z</time>
      </trkpt>
      <trkpt lat="47.27348" lon="-2.35284">
        <ele>1.7999999523163</ele>
        <time>2021-11-25T08:34:07.000Z</time>
      </trkpt>
      <trkpt lat="47.27355" lon="-2.35313">
        <ele>1.7999999523163</ele>
        <time>2021-11-25T08:34:11.000Z</time>
      </trkpt>
      <trkpt lat="47.27358" lon="-2.35329">
        <ele>1.7999999523163</ele>
        <time>2021-11-25T08:34:13.000Z</time>
      </trkpt>
      <trkpt lat="47.2737" lon="-2.35378">
        <ele>1.7999999523163</ele>
        <time>2021-11-25T08:34:19.000Z</time>
      </trkpt>
      <trkpt lat="47.27376" lon="-2.35412">
        <ele>1.3999999761581</ele>
        <time>2021-11-25T08:34:23.000Z</time>
      </trkpt>
      <trkpt lat="47.27378" lon="-2.3542">
        <ele>1</ele>
        <time>2021-11-25T08:34:24.000Z</time>
      </trkpt>
      <trkpt lat="47.2738" lon="-2.35429">
        <ele>0.60000002384186</ele>
        <time>2021-11-25T08:34:25.000Z</time>
      </trkpt>
      <trkpt lat="47.27382" lon="-2.35438">
        <ele>-0.20000000298023</ele>
        <time>2021-11-25T08:34:26.000Z</time>
      </trkpt>
      <trkpt lat="47.27384" lon="-2.35447">
        <ele>-0.20000000298023</ele>
        <time>2021-11-25T08:34:27.000Z</time>
      </trkpt>
      <trkpt lat="47.27398" lon="-2.35513">
        <ele>-0.20000000298023</ele>
        <time>2021-11-25T08:34:35.000Z</time>
      </trkpt>
      <trkpt lat="47.27401" lon="-2.35529">
        <ele>-0.60000002384186</ele>
        <time>2021-11-25T08:34:37.000Z</time>
      </trkpt>
      <trkpt lat="47.27402" lon="-2.35536">
        <ele>-1.2000000476837</ele>
        <time>2021-11-25T08:34:38.000Z</time>
      </trkpt>
      <trkpt lat="47.27404" lon="-2.35544">
        <ele>-1.6000000238419</ele>
        <time>2021-11-25T08:34:39.000Z</time>
      </trkpt>
      <trkpt lat="47.27405" lon="-2.35553">
        <ele>-2</ele>
        <time>2021-11-25T08:34:40.000Z</time>
      </trkpt>
      <trkpt lat="47.27406" lon="-2.35561">
        <ele>-2.4000000953674</ele>
        <time>2021-11-25T08:34:41.000Z</time>
      </trkpt>
      <trkpt lat="47.27415" lon="-2.35637">
        <ele>-3.2000000476837</ele>
        <time>2021-11-25T08:34:50.000Z</time>
      </trkpt>
      <trkpt lat="47.27416" lon="-2.35645">
        <ele>-3.5999999046326</ele>
        <time>2021-11-25T08:34:51.000Z</time>
      </trkpt>
      <trkpt lat="47.2742" lon="-2.35652">
        <ele>-4</ele>
        <time>2021-11-25T08:34:52.000Z</time>
      </trkpt>
      <trkpt lat="47.27423" lon="-2.35658">
        <ele>-4.4000000953674</ele>
        <time>2021-11-25T08:34:53.000Z</time>
      </trkpt>
      <trkpt lat="47.27427" lon="-2.35663">
        <ele>-4.4000000953674</ele>
        <time>2021-11-25T08:34:54.000Z</time>
      </trkpt>
      <trkpt lat="47.27442" lon="-2.35671">
        <ele>-4.4000000953674</ele>
        <time>2021-11-25T08:34:57.000Z</time>
      </trkpt>
      <trkpt lat="47.27448" lon="-2.35672">
        <ele>-4.4000000953674</ele>
        <time>2021-11-25T08:34:58.000Z</time>
      </trkpt>
      <trkpt lat="47.27476" lon="-2.35677">
        <ele>-4.4000000953674</ele>
        <time>2021-11-25T08:35:03.000Z</time>
      </trkpt>
      <trkpt lat="47.27519" lon="-2.35685">
        <ele>-4.4000000953674</ele>
        <time>2021-11-25T08:35:11.000Z</time>
      </trkpt>
      <trkpt lat="47.2755" lon="-2.35693">
        <ele>-4.4000000953674</ele>
        <time>2021-11-25T08:35:17.000Z</time>
      </trkpt>
      <trkpt lat="47.27587" lon="-2.35701">
        <ele>-4</ele>
        <time>2021-11-25T08:35:25.000Z</time>
      </trkpt>
      <trkpt lat="47.27591" lon="-2.35703">
        <ele>-3.5999999046326</ele>
        <time>2021-11-25T08:35:26.000Z</time>
      </trkpt>
      <trkpt lat="47.27596" lon="-2.35704">
        <ele>-3.2000000476837</ele>
        <time>2021-11-25T08:35:27.000Z</time>
      </trkpt>
      <trkpt lat="47.276" lon="-2.35705">
        <ele>-2.7999999523163</ele>
        <time>2021-11-25T08:35:28.000Z</time>
      </trkpt>
      <trkpt lat="47.27605" lon="-2.35706">
        <ele>-2.4000000953674</ele>
        <time>2021-11-25T08:35:29.000Z</time>
      </trkpt>
      <trkpt lat="47.27618" lon="-2.35709">
        <ele>-2.4000000953674</ele>
        <time>2021-11-25T08:35:32.000Z</time>
      </trkpt>
      <trkpt lat="47.27627" lon="-2.35711">
        <ele>-2.4000000953674</ele>
        <time>2021-11-25T08:35:34.000Z</time>
      </trkpt>
      <trkpt lat="47.27644" lon="-2.35713">
        <ele>-2.4000000953674</ele>
        <time>2021-11-25T08:35:38.000Z</time>
      </trkpt>
      <trkpt lat="47.27668" lon="-2.35722">
        <ele>-2.4000000953674</ele>
        <time>2021-11-25T08:35:44.000Z</time>
      </trkpt>
      <trkpt lat="47.27677" lon="-2.35724">
        <ele>-2</ele>
        <time>2021-11-25T08:35:46.000Z</time>
      </trkpt>
      <trkpt lat="47.27681" lon="-2.35725">
        <ele>-1.6000000238419</ele>
        <time>2021-11-25T08:35:47.000Z</time>
      </trkpt>
      <trkpt lat="47.27685" lon="-2.35726">
        <ele>-1.2000000476837</ele>
        <time>2021-11-25T08:35:48.000Z</time>
      </trkpt>
      <trkpt lat="47.27689" lon="-2.35726">
        <ele>-0.80000001192093</ele>
        <time>2021-11-25T08:35:49.000Z</time>
      </trkpt>
      <trkpt lat="47.27693" lon="-2.35725">
        <ele>-0.20000000298023</ele>
        <time>2021-11-25T08:35:50.000Z</time>
      </trkpt>
      <trkpt lat="47.27696" lon="-2.35724">
        <ele>-0.20000000298023</ele>
        <time>2021-11-25T08:35:51.000Z</time>
      </trkpt>
      <trkpt lat="47.27711" lon="-2.35713">
        <ele>-0.20000000298023</ele>
        <time>2021-11-25T08:35:55.000Z</time>
      </trkpt>
      <trkpt lat="47.27727" lon="-2.35692">
        <ele>-0.20000000298023</ele>
        <time>2021-11-25T08:36:00.000Z</time>
      </trkpt>
      <trkpt lat="47.2773" lon="-2.35688">
        <ele>0.20000000298023</ele>
        <time>2021-11-25T08:36:01.000Z</time>
      </trkpt>
      <trkpt lat="47.27732" lon="-2.35684">
        <ele>0.60000002384186</ele>
        <time>2021-11-25T08:36:02.000Z</time>
      </trkpt>
      <trkpt lat="47.27735" lon="-2.3568">
        <ele>1</ele>
        <time>2021-11-25T08:36:03.000Z</time>
      </trkpt>
      <trkpt lat="47.27738" lon="-2.35676">
        <ele>1.3999999761581</ele>
        <time>2021-11-25T08:36:04.000Z</time>
      </trkpt>
      <trkpt lat="47.27741" lon="-2.35672">
        <ele>1.7999999523163</ele>
        <time>2021-11-25T08:36:05.000Z</time>
      </trkpt>
      <trkpt lat="47.27749" lon="-2.35658">
        <ele>1.7999999523163</ele>
        <time>2021-11-25T08:36:08.000Z</time>
      </trkpt>
      <trkpt lat="47.27756" lon="-2.35649">
        <ele>1.7999999523163</ele>
        <time>2021-11-25T08:36:10.000Z</time>
      </trkpt>
      <trkpt lat="47.27769" lon="-2.35634">
        <ele>1.7999999523163</ele>
        <time>2021-11-25T08:36:14.000Z</time>
      </trkpt>
      <trkpt lat="47.2778" lon="-2.35624">
        <ele>1.7999999523163</ele>
        <time>2021-11-25T08:36:17.000Z</time>
      </trkpt>
      <trkpt lat="47.27792" lon="-2.35618">
        <ele>1.7999999523163</ele>
        <time>2021-11-25T08:36:20.000Z</time>
      </trkpt>
      <trkpt lat="47.27796" lon="-2.35616">
        <ele>2.2000000476837</ele>
        <time>2021-11-25T08:36:21.000Z</time>
      </trkpt>
      <trkpt lat="47.278" lon="-2.35614">
        <ele>2.5999999046326</ele>
        <time>2021-11-25T08:36:22.000Z</time>
      </trkpt>
      <trkpt lat="47.27805" lon="-2.35612">
        <ele>3</ele>
        <time>2021-11-25T08:36:23.000Z</time>
      </trkpt>
      <trkpt lat="47.27809" lon="-2.35611">
        <ele>3.4000000953674</ele>
        <time>2021-11-25T08:36:24.000Z</time>
      </trkpt>
      <trkpt lat="47.27813" lon="-2.3561">
        <ele>3.7999999523163</ele>
        <time>2021-11-25T08:36:25.000Z</time>
      </trkpt>
      <trkpt lat="47.27829" lon="-2.35606">
        <ele>3.7999999523163</ele>
        <time>2021-11-25T08:36:29.000Z</time>
      </trkpt>
      <trkpt lat="47.27853" lon="-2.35599">
        <ele>3.7999999523163</ele>
        <time>2021-11-25T08:36:35.000Z</time>
      </trkpt>
      <trkpt lat="47.27865" lon="-2.35596">
        <ele>4.1999998092651</ele>
        <time>2021-11-25T08:36:38.000Z</time>
      </trkpt>
      <trkpt lat="47.27869" lon="-2.35595">
        <ele>4.5999999046326</ele>
        <time>2021-11-25T08:36:39.000Z</time>
      </trkpt>
      <trkpt lat="47.27873" lon="-2.35594">
        <ele>5</ele>
        <time>2021-11-25T08:36:40.000Z</time>
      </trkpt>
      <trkpt lat="47.27877" lon="-2.35594">
        <ele>5.5999999046326</ele>
        <time>2021-11-25T08:36:41.000Z</time>
      </trkpt>
      <trkpt lat="47.27881" lon="-2.35593">
        <ele>6</ele>
        <time>2021-11-25T08:36:42.000Z</time>
      </trkpt>
      <trkpt lat="47.27889" lon="-2.35591">
        <ele>6</ele>
        <time>2021-11-25T08:36:44.000Z</time>
      </trkpt>
      <trkpt lat="47.27915" lon="-2.35593">
        <ele>6</ele>
        <time>2021-11-25T08:36:51.000Z</time>
      </trkpt>
      <trkpt lat="47.27926" lon="-2.35591">
        <ele>6.8000001907349</ele>
        <time>2021-11-25T08:36:54.000Z</time>
      </trkpt>
      <trkpt lat="47.27929" lon="-2.35591">
        <ele>7.1999998092651</ele>
        <time>2021-11-25T08:36:55.000Z</time>
      </trkpt>
      <trkpt lat="47.27933" lon="-2.35592">
        <ele>7.5999999046326</ele>
        <time>2021-11-25T08:36:56.000Z</time>
      </trkpt>
      <trkpt lat="47.27937" lon="-2.35591">
        <ele>8</ele>
        <time>2021-11-25T08:36:57.000Z</time>
      </trkpt>
      <trkpt lat="47.27958" lon="-2.35585">
        <ele>8</ele>
        <time>2021-11-25T08:37:03.000Z</time>
      </trkpt>
      <trkpt lat="47.2798" lon="-2.35584">
        <ele>8</ele>
        <time>2021-11-25T08:37:09.000Z</time>
      </trkpt>
      <trkpt lat="47.27999" lon="-2.35582">
        <ele>8</ele>
        <time>2021-11-25T08:37:14.000Z</time>
      </trkpt>
      <trkpt lat="47.28018" lon="-2.35577">
        <ele>8.8000001907349</ele>
        <time>2021-11-25T08:37:19.000Z</time>
      </trkpt>
      <trkpt lat="47.28021" lon="-2.35576">
        <ele>9.1999998092651</ele>
        <time>2021-11-25T08:37:20.000Z</time>
      </trkpt>
      <trkpt lat="47.28025" lon="-2.35576">
        <ele>9.6000003814697</ele>
        <time>2021-11-25T08:37:21.000Z</time>
      </trkpt>
      <trkpt lat="47.28029" lon="-2.35576">
        <ele>10</ele>
        <time>2021-11-25T08:37:22.000Z</time>
      </trkpt>
      <trkpt lat="47.28047" lon="-2.35578">
        <ele>10</ele>
        <time>2021-11-25T08:37:27.000Z</time>
      </trkpt>
      <trkpt lat="47.28066" lon="-2.35582">
        <ele>10</ele>
        <time>2021-11-25T08:37:33.000Z</time>
      </trkpt>
      <trkpt lat="47.28076" lon="-2.35594">
        <ele>10</ele>
        <time>2021-11-25T08:37:38.000Z</time>
      </trkpt>
      <trkpt lat="47.28078" lon="-2.35609">
        <ele>10.39999961853</ele>
        <time>2021-11-25T08:37:42.000Z</time>
      </trkpt>
      <trkpt lat="47.28079" lon="-2.35613">
        <ele>10.800000190735</ele>
        <time>2021-11-25T08:37:43.000Z</time>
      </trkpt>
      <trkpt lat="47.2808" lon="-2.35615">
        <ele>11.60000038147</ele>
        <time>2021-11-25T08:37:44.000Z</time>
      </trkpt>
      <trkpt lat="47.28081" lon="-2.35617">
        <ele>12</ele>
        <time>2021-11-25T08:37:45.000Z</time>
      </trkpt>
      <trkpt lat="47.28084" lon="-2.3562">
        <ele>12</ele>
        <time>2021-11-25T08:37:47.000Z</time>
      </trkpt>
      <trkpt lat="47.28086" lon="-2.3562">
        <ele>12</ele>
        <time>2021-11-25T08:37:49.000Z</time>
      </trkpt>
      <trkpt lat="47.28087" lon="-2.35618">
        <ele>12</ele>
        <time>2021-11-25T08:37:54.000Z</time>
      </trkpt>
      <trkpt lat="47.28085" lon="-2.35613">
        <ele>12</ele>
        <time>2021-11-25T08:40:07.000Z</time>
      </trkpt>
      <trkpt lat="47.28075" lon="-2.35598">
        <ele>12</ele>
        <time>2021-11-25T08:40:13.000Z</time>
      </trkpt>
      <trkpt lat="47.28074" lon="-2.35593">
        <ele>12</ele>
        <time>2021-11-25T08:40:14.000Z</time>
      </trkpt>
      <trkpt lat="47.28075" lon="-2.35587">
        <ele>12</ele>
        <time>2021-11-25T08:40:16.000Z</time>
      </trkpt>
      <trkpt lat="47.28083" lon="-2.35573">
        <ele>12</ele>
        <time>2021-11-25T08:40:21.000Z</time>
      </trkpt>
      <trkpt lat="47.28096" lon="-2.35567">
        <ele>12</ele>
        <time>2021-11-25T08:40:26.000Z</time>
      </trkpt>
      <trkpt lat="47.28116" lon="-2.35566">
        <ele>12</ele>
        <time>2021-11-25T08:40:32.000Z</time>
      </trkpt>
      <trkpt lat="47.28135" lon="-2.35569">
        <ele>12</ele>
        <time>2021-11-25T08:40:38.000Z</time>
      </trkpt>
      <trkpt lat="47.28154" lon="-2.35572">
        <ele>12.39999961853</ele>
        <time>2021-11-25T08:40:44.000Z</time>
      </trkpt>
      <trkpt lat="47.28157" lon="-2.35573">
        <ele>12.800000190735</ele>
        <time>2021-11-25T08:40:45.000Z</time>
      </trkpt>
      <trkpt lat="47.2816" lon="-2.35575">
        <ele>13.199999809265</ele>
        <time>2021-11-25T08:40:46.000Z</time>
      </trkpt>
      <trkpt lat="47.28163" lon="-2.35576">
        <ele>13.60000038147</ele>
        <time>2021-11-25T08:40:47.000Z</time>
      </trkpt>
      <trkpt lat="47.28166" lon="-2.35578">
        <ele>14</ele>
        <time>2021-11-25T08:40:48.000Z</time>
      </trkpt>
      <trkpt lat="47.28172" lon="-2.35581">
        <ele>14</ele>
        <time>2021-11-25T08:40:50.000Z</time>
      </trkpt>
      <trkpt lat="47.28187" lon="-2.35592">
        <ele>14</ele>
        <time>2021-11-25T08:40:55.000Z</time>
      </trkpt>
      <trkpt lat="47.28202" lon="-2.35613">
        <ele>14</ele>
        <time>2021-11-25T08:41:01.000Z</time>
      </trkpt>
      <trkpt lat="47.2822" lon="-2.3564">
        <ele>14</ele>
        <time>2021-11-25T08:41:08.000Z</time>
      </trkpt>
      <trkpt lat="47.28228" lon="-2.3565">
        <ele>14.39999961853</ele>
        <time>2021-11-25T08:41:11.000Z</time>
      </trkpt>
      <trkpt lat="47.28231" lon="-2.35654">
        <ele>14.800000190735</ele>
        <time>2021-11-25T08:41:12.000Z</time>
      </trkpt>
      <trkpt lat="47.28234" lon="-2.35658">
        <ele>15.199999809265</ele>
        <time>2021-11-25T08:41:13.000Z</time>
      </trkpt>
      <trkpt lat="47.28237" lon="-2.35661">
        <ele>15.60000038147</ele>
        <time>2021-11-25T08:41:14.000Z</time>
      </trkpt>
      <trkpt lat="47.2824" lon="-2.35665">
        <ele>16.200000762939</ele>
        <time>2021-11-25T08:41:15.000Z</time>
      </trkpt>
      <trkpt lat="47.28259" lon="-2.35689">
        <ele>16.200000762939</ele>
        <time>2021-11-25T08:41:21.000Z</time>
      </trkpt>
      <trkpt lat="47.28275" lon="-2.35707">
        <ele>16.200000762939</ele>
        <time>2021-11-25T08:41:26.000Z</time>
      </trkpt>
      <trkpt lat="47.2829" lon="-2.35723">
        <ele>16.200000762939</ele>
        <time>2021-11-25T08:41:31.000Z</time>
      </trkpt>
      <trkpt lat="47.28293" lon="-2.35726">
        <ele>16.60000038147</ele>
        <time>2021-11-25T08:41:32.000Z</time>
      </trkpt>
      <trkpt lat="47.28297" lon="-2.3573">
        <ele>17</ele>
        <time>2021-11-25T08:41:33.000Z</time>
      </trkpt>
      <trkpt lat="47.283" lon="-2.35733">
        <ele>17.39999961853</ele>
        <time>2021-11-25T08:41:34.000Z</time>
      </trkpt>
      <trkpt lat="47.28304" lon="-2.35736">
        <ele>17.799999237061</ele>
        <time>2021-11-25T08:41:35.000Z</time>
      </trkpt>
      <trkpt lat="47.28308" lon="-2.35739">
        <ele>18.200000762939</ele>
        <time>2021-11-25T08:41:36.000Z</time>
      </trkpt>
      <trkpt lat="47.28312" lon="-2.35742">
        <ele>18.200000762939</ele>
        <time>2021-11-25T08:41:37.000Z</time>
      </trkpt>
      <trkpt lat="47.2834" lon="-2.3576">
        <ele>18.200000762939</ele>
        <time>2021-11-25T08:41:44.000Z</time>
      </trkpt>
      <trkpt lat="47.28359" lon="-2.35769">
        <ele>18.200000762939</ele>
        <time>2021-11-25T08:41:49.000Z</time>
      </trkpt>
      <trkpt lat="47.2838" lon="-2.35777">
        <ele>18.200000762939</ele>
        <time>2021-11-25T08:41:55.000Z</time>
      </trkpt>
      <trkpt lat="47.28397" lon="-2.35783">
        <ele>18.200000762939</ele>
        <time>2021-11-25T08:41:59.000Z</time>
      </trkpt>
      <trkpt lat="47.28401" lon="-2.35785">
        <ele>18.60000038147</ele>
        <time>2021-11-25T08:42:00.000Z</time>
      </trkpt>
      <trkpt lat="47.28405" lon="-2.35787">
        <ele>19</ele>
        <time>2021-11-25T08:42:01.000Z</time>
      </trkpt>
      <trkpt lat="47.28409" lon="-2.35789">
        <ele>19.39999961853</ele>
        <time>2021-11-25T08:42:02.000Z</time>
      </trkpt>
      <trkpt lat="47.28413" lon="-2.35791">
        <ele>19.799999237061</ele>
        <time>2021-11-25T08:42:03.000Z</time>
      </trkpt>
      <trkpt lat="47.28418" lon="-2.35793">
        <ele>20.200000762939</ele>
        <time>2021-11-25T08:42:04.000Z</time>
      </trkpt>
      <trkpt lat="47.28434" lon="-2.35799">
        <ele>20.200000762939</ele>
        <time>2021-11-25T08:42:08.000Z</time>
      </trkpt>
      <trkpt lat="47.2846" lon="-2.35809">
        <ele>20.200000762939</ele>
        <time>2021-11-25T08:42:14.000Z</time>
      </trkpt>
      <trkpt lat="47.28485" lon="-2.35819">
        <ele>20.200000762939</ele>
        <time>2021-11-25T08:42:20.000Z</time>
      </trkpt>
      <trkpt lat="47.28505" lon="-2.35828">
        <ele>20.200000762939</ele>
        <time>2021-11-25T08:42:25.000Z</time>
      </trkpt>
      <trkpt lat="47.28529" lon="-2.35836">
        <ele>20.200000762939</ele>
        <time>2021-11-25T08:42:31.000Z</time>
      </trkpt>
      <trkpt lat="47.28547" lon="-2.3585">
        <ele>20.200000762939</ele>
        <time>2021-11-25T08:42:37.000Z</time>
      </trkpt>
      <trkpt lat="47.28562" lon="-2.35871">
        <ele>20.60000038147</ele>
        <time>2021-11-25T08:42:43.000Z</time>
      </trkpt>
      <trkpt lat="47.28564" lon="-2.35875">
        <ele>21</ele>
        <time>2021-11-25T08:42:44.000Z</time>
      </trkpt>
      <trkpt lat="47.28567" lon="-2.3588">
        <ele>21.39999961853</ele>
        <time>2021-11-25T08:42:45.000Z</time>
      </trkpt>
      <trkpt lat="47.28569" lon="-2.35885">
        <ele>21.799999237061</ele>
        <time>2021-11-25T08:42:46.000Z</time>
      </trkpt>
      <trkpt lat="47.28571" lon="-2.3589">
        <ele>22.200000762939</ele>
        <time>2021-11-25T08:42:47.000Z</time>
      </trkpt>
      <trkpt lat="47.28574" lon="-2.35895">
        <ele>22.200000762939</ele>
        <time>2021-11-25T08:42:48.000Z</time>
      </trkpt>
      <trkpt lat="47.28585" lon="-2.35922">
        <ele>22.200000762939</ele>
        <time>2021-11-25T08:42:53.000Z</time>
      </trkpt>
      <trkpt lat="47.28588" lon="-2.35927">
        <ele>22.200000762939</ele>
        <time>2021-11-25T08:42:54.000Z</time>
      </trkpt>
      <trkpt lat="47.28604" lon="-2.35958">
        <ele>22.200000762939</ele>
        <time>2021-11-25T08:43:00.000Z</time>
      </trkpt>
      <trkpt lat="47.28607" lon="-2.35962">
        <ele>22.200000762939</ele>
        <time>2021-11-25T08:43:01.000Z</time>
      </trkpt>
      <trkpt lat="47.2861" lon="-2.35968">
        <ele>22.200000762939</ele>
        <time>2021-11-25T08:43:02.000Z</time>
      </trkpt>
      <trkpt lat="47.28619" lon="-2.35989">
        <ele>22.200000762939</ele>
        <time>2021-11-25T08:43:06.000Z</time>
      </trkpt>
      <trkpt lat="47.2862" lon="-2.35995">
        <ele>22.60000038147</ele>
        <time>2021-11-25T08:43:07.000Z</time>
      </trkpt>
      <trkpt lat="47.28622" lon="-2.36">
        <ele>23</ele>
        <time>2021-11-25T08:43:08.000Z</time>
      </trkpt>
      <trkpt lat="47.28624" lon="-2.36005">
        <ele>23.39999961853</ele>
        <time>2021-11-25T08:43:09.000Z</time>
      </trkpt>
      <trkpt lat="47.28626" lon="-2.3601">
        <ele>23.799999237061</ele>
        <time>2021-11-25T08:43:10.000Z</time>
      </trkpt>
      <trkpt lat="47.28628" lon="-2.36015">
        <ele>24.200000762939</ele>
        <time>2021-11-25T08:43:11.000Z</time>
      </trkpt>
      <trkpt lat="47.2863" lon="-2.36021">
        <ele>24.200000762939</ele>
        <time>2021-11-25T08:43:12.000Z</time>
      </trkpt>
      <trkpt lat="47.28632" lon="-2.36026">
        <ele>24.200000762939</ele>
        <time>2021-11-25T08:43:13.000Z</time>
      </trkpt>
      <trkpt lat="47.28641" lon="-2.36047">
        <ele>24.200000762939</ele>
        <time>2021-11-25T08:43:17.000Z</time>
      </trkpt>
      <trkpt lat="47.2865" lon="-2.36072">
        <ele>24.200000762939</ele>
        <time>2021-11-25T08:43:22.000Z</time>
      </trkpt>
      <trkpt lat="47.28652" lon="-2.36077">
        <ele>24.60000038147</ele>
        <time>2021-11-25T08:43:23.000Z</time>
      </trkpt>
      <trkpt lat="47.28654" lon="-2.36081">
        <ele>25.200000762939</ele>
        <time>2021-11-25T08:43:24.000Z</time>
      </trkpt>
      <trkpt lat="47.28657" lon="-2.36085">
        <ele>25.60000038147</ele>
        <time>2021-11-25T08:43:25.000Z</time>
      </trkpt>
      <trkpt lat="47.2866" lon="-2.36089">
        <ele>26</ele>
        <time>2021-11-25T08:43:26.000Z</time>
      </trkpt>
      <trkpt lat="47.28663" lon="-2.36095">
        <ele>26.39999961853</ele>
        <time>2021-11-25T08:43:27.000Z</time>
      </trkpt>
      <trkpt lat="47.28671" lon="-2.36112">
        <ele>26.39999961853</ele>
        <time>2021-11-25T08:43:30.000Z</time>
      </trkpt>
      <trkpt lat="47.28677" lon="-2.36129">
        <ele>26.39999961853</ele>
        <time>2021-11-25T08:43:33.000Z</time>
      </trkpt>
      <trkpt lat="47.28684" lon="-2.36158">
        <ele>26.39999961853</ele>
        <time>2021-11-25T08:43:39.000Z</time>
      </trkpt>
      <trkpt lat="47.28687" lon="-2.36164">
        <ele>26.39999961853</ele>
        <time>2021-11-25T08:43:43.000Z</time>
      </trkpt>
      <trkpt lat="47.28694" lon="-2.36173">
        <ele>26.39999961853</ele>
        <time>2021-11-25T08:43:48.000Z</time>
      </trkpt>
      <trkpt lat="47.28699" lon="-2.3618">
        <ele>26.39999961853</ele>
        <time>2021-11-25T08:43:50.000Z</time>
      </trkpt>
      <trkpt lat="47.28703" lon="-2.36194">
        <ele>26.39999961853</ele>
        <time>2021-11-25T08:43:53.000Z</time>
      </trkpt>
      <trkpt lat="47.28714" lon="-2.36221">
        <ele>26.39999961853</ele>
        <time>2021-11-25T08:43:59.000Z</time>
      </trkpt>
      <trkpt lat="47.28725" lon="-2.36236">
        <ele>26.39999961853</ele>
        <time>2021-11-25T08:44:04.000Z</time>
      </trkpt>
      <trkpt lat="47.28736" lon="-2.36228">
        <ele>26.39999961853</ele>
        <time>2021-11-25T08:44:08.000Z</time>
      </trkpt>
      <trkpt lat="47.28752" lon="-2.36213">
        <ele>26.39999961853</ele>
        <time>2021-11-25T08:44:14.000Z</time>
      </trkpt>
      <trkpt lat="47.2877" lon="-2.362">
        <ele>26.39999961853</ele>
        <time>2021-11-25T08:44:18.000Z</time>
      </trkpt>
      <trkpt lat="47.28775" lon="-2.36197">
        <ele>26.39999961853</ele>
        <time>2021-11-25T08:44:19.000Z</time>
      </trkpt>
      <trkpt lat="47.28801" lon="-2.36184">
        <ele>26.39999961853</ele>
        <time>2021-11-25T08:44:24.000Z</time>
      </trkpt>
      <trkpt lat="47.28817" lon="-2.36172">
        <ele>26.39999961853</ele>
        <time>2021-11-25T08:44:27.000Z</time>
      </trkpt>
      <trkpt lat="47.2883" lon="-2.36156">
        <ele>26.39999961853</ele>
        <time>2021-11-25T08:44:30.000Z</time>
      </trkpt>
      <trkpt lat="47.28858" lon="-2.36121">
        <ele>26.39999961853</ele>
        <time>2021-11-25T08:44:37.000Z</time>
      </trkpt>
      <trkpt lat="47.28897" lon="-2.36083">
        <ele>26.39999961853</ele>
        <time>2021-11-25T08:44:46.000Z</time>
      </trkpt>
      <trkpt lat="47.28934" lon="-2.36054">
        <ele>26.39999961853</ele>
        <time>2021-11-25T08:44:54.000Z</time>
      </trkpt>
      <trkpt lat="47.28977" lon="-2.36022">
        <ele>26.39999961853</ele>
        <time>2021-11-25T08:45:03.000Z</time>
      </trkpt>
      <trkpt lat="47.29016" lon="-2.35983">
        <ele>26.39999961853</ele>
        <time>2021-11-25T08:45:12.000Z</time>
      </trkpt>
      <trkpt lat="47.2905" lon="-2.35946">
        <ele>26.39999961853</ele>
        <time>2021-11-25T08:45:20.000Z</time>
      </trkpt>
      <trkpt lat="47.29084" lon="-2.35907">
        <ele>26.39999961853</ele>
        <time>2021-11-25T08:45:28.000Z</time>
      </trkpt>
      <trkpt lat="47.29116" lon="-2.35868">
        <ele>26.39999961853</ele>
        <time>2021-11-25T08:45:36.000Z</time>
      </trkpt>
      <trkpt lat="47.29154" lon="-2.35828">
        <ele>26.39999961853</ele>
        <time>2021-11-25T08:45:45.000Z</time>
      </trkpt>
      <trkpt lat="47.29188" lon="-2.35806">
        <ele>26.39999961853</ele>
        <time>2021-11-25T08:45:52.000Z</time>
      </trkpt>
      <trkpt lat="47.29223" lon="-2.35777">
        <ele>26.39999961853</ele>
        <time>2021-11-25T08:46:00.000Z</time>
      </trkpt>
      <trkpt lat="47.29247" lon="-2.35749">
        <ele>26.39999961853</ele>
        <time>2021-11-25T08:46:07.000Z</time>
      </trkpt>
      <trkpt lat="47.29252" lon="-2.35735">
        <ele>26.39999961853</ele>
        <time>2021-11-25T08:46:11.000Z</time>
      </trkpt>
      <trkpt lat="47.29251" lon="-2.35731">
        <ele>26.39999961853</ele>
        <time>2021-11-25T08:46:12.000Z</time>
      </trkpt>
      <trkpt lat="47.29246" lon="-2.3572">
        <ele>26.39999961853</ele>
        <time>2021-11-25T08:46:15.000Z</time>
      </trkpt>
      <trkpt lat="47.2924" lon="-2.35714">
        <ele>26.39999961853</ele>
        <time>2021-11-25T08:46:17.000Z</time>
      </trkpt>
      <trkpt lat="47.29232" lon="-2.35703">
        <ele>26.39999961853</ele>
        <time>2021-11-25T08:46:20.000Z</time>
      </trkpt>
      <trkpt lat="47.29224" lon="-2.35691">
        <ele>26.39999961853</ele>
        <time>2021-11-25T08:46:23.000Z</time>
      </trkpt>
      <trkpt lat="47.29225" lon="-2.35685">
        <ele>26.39999961853</ele>
        <time>2021-11-25T08:46:24.000Z</time>
      </trkpt>
      <trkpt lat="47.29234" lon="-2.35672">
        <ele>26.39999961853</ele>
        <time>2021-11-25T08:46:27.000Z</time>
      </trkpt>
      <trkpt lat="47.29249" lon="-2.35665">
        <ele>26.39999961853</ele>
        <time>2021-11-25T08:46:30.000Z</time>
      </trkpt>
      <trkpt lat="47.2926" lon="-2.35661">
        <ele>26.39999961853</ele>
        <time>2021-11-25T08:46:32.000Z</time>
      </trkpt>
      <trkpt lat="47.29297" lon="-2.35647">
        <ele>26.39999961853</ele>
        <time>2021-11-25T08:46:39.000Z</time>
      </trkpt>
      <trkpt lat="47.2934" lon="-2.35635">
        <ele>26.39999961853</ele>
        <time>2021-11-25T08:46:47.000Z</time>
      </trkpt>
      <trkpt lat="47.29374" lon="-2.35625">
        <ele>26</ele>
        <time>2021-11-25T08:46:54.000Z</time>
      </trkpt>
      <trkpt lat="47.29378" lon="-2.35624">
        <ele>25.60000038147</ele>
        <time>2021-11-25T08:46:55.000Z</time>
      </trkpt>
      <trkpt lat="47.29382" lon="-2.35623">
        <ele>25.200000762939</ele>
        <time>2021-11-25T08:46:56.000Z</time>
      </trkpt>
      <trkpt lat="47.29387" lon="-2.35621">
        <ele>24.799999237061</ele>
        <time>2021-11-25T08:46:57.000Z</time>
      </trkpt>
      <trkpt lat="47.29391" lon="-2.3562">
        <ele>24.39999961853</ele>
        <time>2021-11-25T08:46:58.000Z</time>
      </trkpt>
      <trkpt lat="47.2942" lon="-2.35614">
        <ele>24.39999961853</ele>
        <time>2021-11-25T08:47:04.000Z</time>
      </trkpt>
      <trkpt lat="47.2945" lon="-2.35606">
        <ele>24.39999961853</ele>
        <time>2021-11-25T08:47:10.000Z</time>
      </trkpt>
      <trkpt lat="47.29472" lon="-2.35605">
        <ele>24.39999961853</ele>
        <time>2021-11-25T08:47:14.000Z</time>
      </trkpt>
      <trkpt lat="47.29482" lon="-2.35607">
        <ele>24.39999961853</ele>
        <time>2021-11-25T08:47:16.000Z</time>
      </trkpt>
      <trkpt lat="47.29491" lon="-2.35611">
        <ele>24.39999961853</ele>
        <time>2021-11-25T08:47:18.000Z</time>
      </trkpt>
      <trkpt lat="47.29495" lon="-2.35613">
        <ele>24.39999961853</ele>
        <time>2021-11-25T08:47:19.000Z</time>
      </trkpt>
      <trkpt lat="47.29509" lon="-2.35617">
        <ele>24.39999961853</ele>
        <time>2021-11-25T08:47:22.000Z</time>
      </trkpt>
      <trkpt lat="47.29531" lon="-2.35624">
        <ele>24.39999961853</ele>
        <time>2021-11-25T08:47:27.000Z</time>
      </trkpt>
      <trkpt lat="47.29535" lon="-2.35623">
        <ele>24.39999961853</ele>
        <time>2021-11-25T08:47:28.000Z</time>
      </trkpt>
      <trkpt lat="47.29554" lon="-2.35613">
        <ele>24.39999961853</ele>
        <time>2021-11-25T08:47:33.000Z</time>
      </trkpt>
      <trkpt lat="47.29575" lon="-2.35616">
        <ele>24.39999961853</ele>
        <time>2021-11-25T08:47:38.000Z</time>
      </trkpt>
      <trkpt lat="47.29582" lon="-2.35634">
        <ele>24.39999961853</ele>
        <time>2021-11-25T08:47:41.000Z</time>
      </trkpt>
      <trkpt lat="47.29596" lon="-2.35673">
        <ele>24.39999961853</ele>
        <time>2021-11-25T08:47:48.000Z</time>
      </trkpt>
      <trkpt lat="47.29608" lon="-2.35701">
        <ele>24.39999961853</ele>
        <time>2021-11-25T08:47:56.000Z</time>
      </trkpt>
      <trkpt lat="47.2962" lon="-2.35734">
        <ele>24.39999961853</ele>
        <time>2021-11-25T08:48:04.000Z</time>
      </trkpt>
      <trkpt lat="47.29631" lon="-2.35776">
        <ele>24.39999961853</ele>
        <time>2021-11-25T08:48:12.000Z</time>
      </trkpt>
      <trkpt lat="47.29634" lon="-2.35788">
        <ele>24.39999961853</ele>
        <time>2021-11-25T08:48:14.000Z</time>
      </trkpt>
      <trkpt lat="47.29642" lon="-2.35804">
        <ele>24.39999961853</ele>
        <time>2021-11-25T08:48:17.000Z</time>
      </trkpt>
      <trkpt lat="47.29645" lon="-2.35809">
        <ele>24.39999961853</ele>
        <time>2021-11-25T08:48:18.000Z</time>
      </trkpt>
      <trkpt lat="47.29657" lon="-2.35829">
        <ele>24.39999961853</ele>
        <time>2021-11-25T08:48:22.000Z</time>
      </trkpt>
      <trkpt lat="47.29661" lon="-2.35833">
        <ele>24.39999961853</ele>
        <time>2021-11-25T08:48:23.000Z</time>
      </trkpt>
      <trkpt lat="47.29681" lon="-2.35839">
        <ele>24.39999961853</ele>
        <time>2021-11-25T08:48:27.000Z</time>
      </trkpt>
      <trkpt lat="47.29707" lon="-2.35833">
        <ele>24.39999961853</ele>
        <time>2021-11-25T08:48:32.000Z</time>
      </trkpt>
      <trkpt lat="47.29712" lon="-2.3583">
        <ele>24.39999961853</ele>
        <time>2021-11-25T08:48:33.000Z</time>
      </trkpt>
      <trkpt lat="47.29727" lon="-2.35821">
        <ele>24.799999237061</ele>
        <time>2021-11-25T08:48:36.000Z</time>
      </trkpt>
      <trkpt lat="47.29731" lon="-2.35819">
        <ele>25.200000762939</ele>
        <time>2021-11-25T08:48:37.000Z</time>
      </trkpt>
      <trkpt lat="47.29736" lon="-2.35816">
        <ele>25.60000038147</ele>
        <time>2021-11-25T08:48:38.000Z</time>
      </trkpt>
      <trkpt lat="47.29741" lon="-2.35813">
        <ele>26</ele>
        <time>2021-11-25T08:48:39.000Z</time>
      </trkpt>
      <trkpt lat="47.29745" lon="-2.35811">
        <ele>26.39999961853</ele>
        <time>2021-11-25T08:48:40.000Z</time>
      </trkpt>
      <trkpt lat="47.29763" lon="-2.35803">
        <ele>26.799999237061</ele>
        <time>2021-11-25T08:48:44.000Z</time>
      </trkpt>
      <trkpt lat="47.29767" lon="-2.35801">
        <ele>27.39999961853</ele>
        <time>2021-11-25T08:48:45.000Z</time>
      </trkpt>
      <trkpt lat="47.29772" lon="-2.35799">
        <ele>27.799999237061</ele>
        <time>2021-11-25T08:48:46.000Z</time>
      </trkpt>
      <trkpt lat="47.29778" lon="-2.35797">
        <ele>28.200000762939</ele>
        <time>2021-11-25T08:48:47.000Z</time>
      </trkpt>
      <trkpt lat="47.29782" lon="-2.35796">
        <ele>28.60000038147</ele>
        <time>2021-11-25T08:48:48.000Z</time>
      </trkpt>
      <trkpt lat="47.29812" lon="-2.35786">
        <ele>28.60000038147</ele>
        <time>2021-11-25T08:48:54.000Z</time>
      </trkpt>
      <trkpt lat="47.29851" lon="-2.35772">
        <ele>28.60000038147</ele>
        <time>2021-11-25T08:49:01.000Z</time>
      </trkpt>
      <trkpt lat="47.29888" lon="-2.35758">
        <ele>28.200000762939</ele>
        <time>2021-11-25T08:49:08.000Z</time>
      </trkpt>
      <trkpt lat="47.29891" lon="-2.35756">
        <ele>27.799999237061</ele>
        <time>2021-11-25T08:49:09.000Z</time>
      </trkpt>
      <trkpt lat="47.29893" lon="-2.35754">
        <ele>27.39999961853</ele>
        <time>2021-11-25T08:49:10.000Z</time>
      </trkpt>
      <trkpt lat="47.29895" lon="-2.35752">
        <ele>27</ele>
        <time>2021-11-25T08:49:11.000Z</time>
      </trkpt>
      <trkpt lat="47.29896" lon="-2.3575">
        <ele>26.60000038147</ele>
        <time>2021-11-25T08:49:12.000Z</time>
      </trkpt>
      <trkpt lat="47.29898" lon="-2.35744">
        <ele>26.60000038147</ele>
        <time>2021-11-25T08:49:16.000Z</time>
      </trkpt>
      <trkpt lat="47.29897" lon="-2.35741">
        <ele>26.60000038147</ele>
        <time>2021-11-25T08:49:18.000Z</time>
      </trkpt>
      <trkpt lat="47.29895" lon="-2.3574">
        <ele>26.60000038147</ele>
        <time>2021-11-25T08:49:20.000Z</time>
      </trkpt>
      <trkpt lat="47.29895" lon="-2.3574">
        <ele>26.60000038147</ele>
        <time>2021-11-25T08:49:21.000Z</time>
      </trkpt>
      <trkpt lat="47.29894" lon="-2.35738">
        <ele>26.60000038147</ele>
        <time>2021-11-25T08:49:22.000Z</time>
      </trkpt>
      <trkpt lat="47.29893" lon="-2.35733">
        <ele>26.60000038147</ele>
        <time>2021-11-25T08:49:25.000Z</time>
      </trkpt>
      <trkpt lat="47.29891" lon="-2.35727">
        <ele>26.60000038147</ele>
        <time>2021-11-25T08:49:28.000Z</time>
      </trkpt>
      <trkpt lat="47.29891" lon="-2.35725">
        <ele>26.60000038147</ele>
        <time>2021-11-25T08:49:30.000Z</time>
      </trkpt>
      <trkpt lat="47.29891" lon="-2.35728">
        <ele>26.60000038147</ele>
        <time>2021-11-25T08:49:32.000Z</time>
      </trkpt>
      <trkpt lat="47.29892" lon="-2.3573">
        <ele>26.60000038147</ele>
        <time>2021-11-25T08:49:33.000Z</time>
      </trkpt>
      <trkpt lat="47.299" lon="-2.35749">
        <ele>26.60000038147</ele>
        <time>2021-11-25T08:49:39.000Z</time>
      </trkpt>
      <trkpt lat="47.29903" lon="-2.35749">
        <ele>26.60000038147</ele>
        <time>2021-11-25T08:49:40.000Z</time>
      </trkpt>
      <trkpt lat="47.29908" lon="-2.35747">
        <ele>26.60000038147</ele>
        <time>2021-11-25T08:49:42.000Z</time>
      </trkpt>
      <trkpt lat="47.29926" lon="-2.35732">
        <ele>26.60000038147</ele>
        <time>2021-11-25T08:49:48.000Z</time>
      </trkpt>
      <trkpt lat="47.29954" lon="-2.35711">
        <ele>26.60000038147</ele>
        <time>2021-11-25T08:49:55.000Z</time>
      </trkpt>
      <trkpt lat="47.29963" lon="-2.35706">
        <ele>26.60000038147</ele>
        <time>2021-11-25T08:49:57.000Z</time>
      </trkpt>
      <trkpt lat="47.2998" lon="-2.35695">
        <ele>26.60000038147</ele>
        <time>2021-11-25T08:50:01.000Z</time>
      </trkpt>
      <trkpt lat="47.30006" lon="-2.35678">
        <ele>27</ele>
        <time>2021-11-25T08:50:07.000Z</time>
      </trkpt>
      <trkpt lat="47.30011" lon="-2.35675">
        <ele>27.39999961853</ele>
        <time>2021-11-25T08:50:08.000Z</time>
      </trkpt>
      <trkpt lat="47.30015" lon="-2.35673">
        <ele>27.799999237061</ele>
        <time>2021-11-25T08:50:09.000Z</time>
      </trkpt>
      <trkpt lat="47.3002" lon="-2.3567">
        <ele>28.200000762939</ele>
        <time>2021-11-25T08:50:10.000Z</time>
      </trkpt>
      <trkpt lat="47.30024" lon="-2.35668">
        <ele>28.60000038147</ele>
        <time>2021-11-25T08:50:11.000Z</time>
      </trkpt>
      <trkpt lat="47.30041" lon="-2.35657">
        <ele>28.60000038147</ele>
        <time>2021-11-25T08:50:15.000Z</time>
      </trkpt>
      <trkpt lat="47.30072" lon="-2.35638">
        <ele>28.60000038147</ele>
        <time>2021-11-25T08:50:22.000Z</time>
      </trkpt>
      <trkpt lat="47.30109" lon="-2.35615">
        <ele>28.60000038147</ele>
        <time>2021-11-25T08:50:31.000Z</time>
      </trkpt>
      <trkpt lat="47.30121" lon="-2.35605">
        <ele>28.60000038147</ele>
        <time>2021-11-25T08:50:34.000Z</time>
      </trkpt>
      <trkpt lat="47.30129" lon="-2.35597">
        <ele>28.60000038147</ele>
        <time>2021-11-25T08:50:36.000Z</time>
      </trkpt>
      <trkpt lat="47.30144" lon="-2.35594">
        <ele>28.60000038147</ele>
        <time>2021-11-25T08:50:39.000Z</time>
      </trkpt>
      <trkpt lat="47.30149" lon="-2.35593">
        <ele>28.60000038147</ele>
        <time>2021-11-25T08:50:40.000Z</time>
      </trkpt>
      <trkpt lat="47.30154" lon="-2.35591">
        <ele>28.60000038147</ele>
        <time>2021-11-25T08:50:41.000Z</time>
      </trkpt>
      <trkpt lat="47.30173" lon="-2.3558">
        <ele>28.60000038147</ele>
        <time>2021-11-25T08:50:45.000Z</time>
      </trkpt>
      <trkpt lat="47.30204" lon="-2.35572">
        <ele>28.60000038147</ele>
        <time>2021-11-25T08:50:51.000Z</time>
      </trkpt>
      <trkpt lat="47.3024" lon="-2.35574">
        <ele>28.60000038147</ele>
        <time>2021-11-25T08:50:58.000Z</time>
      </trkpt>
      <trkpt lat="47.30267" lon="-2.35578">
        <ele>28.60000038147</ele>
        <time>2021-11-25T08:51:03.000Z</time>
      </trkpt>
      <trkpt lat="47.30273" lon="-2.35579">
        <ele>28.60000038147</ele>
        <time>2021-11-25T08:51:04.000Z</time>
      </trkpt>
      <trkpt lat="47.30307" lon="-2.35587">
        <ele>28.60000038147</ele>
        <time>2021-11-25T08:51:11.000Z</time>
      </trkpt>
      <trkpt lat="47.30325" lon="-2.35588">
        <ele>28.60000038147</ele>
        <time>2021-11-25T08:51:16.000Z</time>
      </trkpt>
      <trkpt lat="47.30347" lon="-2.3559">
        <ele>28.60000038147</ele>
        <time>2021-11-25T08:51:23.000Z</time>
      </trkpt>
      <trkpt lat="47.30364" lon="-2.3559">
        <ele>28.60000038147</ele>
        <time>2021-11-25T08:51:30.000Z</time>
      </trkpt>
      <trkpt lat="47.30373" lon="-2.3559">
        <ele>28.60000038147</ele>
        <time>2021-11-25T08:51:36.000Z</time>
      </trkpt>
      <trkpt lat="47.3039" lon="-2.35591">
        <ele>28.60000038147</ele>
        <time>2021-11-25T08:51:43.000Z</time>
      </trkpt>
      <trkpt lat="47.30399" lon="-2.35596">
        <ele>28.60000038147</ele>
        <time>2021-11-25T08:51:49.000Z</time>
      </trkpt>
      <trkpt lat="47.304" lon="-2.35599">
        <ele>28.60000038147</ele>
        <time>2021-11-25T08:51:52.000Z</time>
      </trkpt>
      <trkpt lat="47.304" lon="-2.35601">
        <ele>28.60000038147</ele>
        <time>2021-11-25T08:54:05.000Z</time>
      </trkpt>
      <trkpt lat="47.30401" lon="-2.35604">
        <ele>28.60000038147</ele>
        <time>2021-11-25T08:54:06.000Z</time>
      </trkpt>
      <trkpt lat="47.30411" lon="-2.35623">
        <ele>28.60000038147</ele>
        <time>2021-11-25T08:54:12.000Z</time>
      </trkpt>
      <trkpt lat="47.30423" lon="-2.35642">
        <ele>28.60000038147</ele>
        <time>2021-11-25T08:54:17.000Z</time>
      </trkpt>
      <trkpt lat="47.30444" lon="-2.35657">
        <ele>28.60000038147</ele>
        <time>2021-11-25T08:54:23.000Z</time>
      </trkpt>
      <trkpt lat="47.30469" lon="-2.35677">
        <ele>28.60000038147</ele>
        <time>2021-11-25T08:54:30.000Z</time>
      </trkpt>
      <trkpt lat="47.30489" lon="-2.357">
        <ele>28.60000038147</ele>
        <time>2021-11-25T08:54:36.000Z</time>
      </trkpt>
      <trkpt lat="47.30515" lon="-2.35734">
        <ele>28.60000038147</ele>
        <time>2021-11-25T08:54:43.000Z</time>
      </trkpt>
      <trkpt lat="47.30546" lon="-2.35776">
        <ele>28.60000038147</ele>
        <time>2021-11-25T08:54:51.000Z</time>
      </trkpt>
      <trkpt lat="47.30576" lon="-2.35815">
        <ele>28.60000038147</ele>
        <time>2021-11-25T08:54:59.000Z</time>
      </trkpt>
      <trkpt lat="47.30609" lon="-2.35857">
        <ele>28.60000038147</ele>
        <time>2021-11-25T08:55:08.000Z</time>
      </trkpt>
      <trkpt lat="47.30642" lon="-2.35891">
        <ele>28.60000038147</ele>
        <time>2021-11-25T08:55:17.000Z</time>
      </trkpt>
      <trkpt lat="47.30656" lon="-2.35899">
        <ele>28.60000038147</ele>
        <time>2021-11-25T08:55:22.000Z</time>
      </trkpt>
      <trkpt lat="47.30666" lon="-2.35907">
        <ele>28.60000038147</ele>
        <time>2021-11-25T08:55:27.000Z</time>
      </trkpt>
      <trkpt lat="47.30668" lon="-2.3591">
        <ele>28.60000038147</ele>
        <time>2021-11-25T08:55:29.000Z</time>
      </trkpt>
      <trkpt lat="47.30666" lon="-2.35915">
        <ele>28.60000038147</ele>
        <time>2021-11-25T08:55:31.000Z</time>
      </trkpt>
      <trkpt lat="47.30661" lon="-2.35913">
        <ele>28.60000038147</ele>
        <time>2021-11-25T08:55:34.000Z</time>
      </trkpt>
      <trkpt lat="47.30659" lon="-2.35912">
        <ele>28.60000038147</ele>
        <time>2021-11-25T08:55:35.000Z</time>
      </trkpt>
      <trkpt lat="47.30651" lon="-2.35906">
        <ele>28.60000038147</ele>
        <time>2021-11-25T08:55:41.000Z</time>
      </trkpt>
      <trkpt lat="47.30651" lon="-2.35906">
        <ele>28.60000038147</ele>
        <time>2021-11-25T08:55:42.000Z</time>
      </trkpt>
      <trkpt lat="47.30652" lon="-2.35903">
        <ele>28.60000038147</ele>
        <time>2021-11-25T08:56:11.000Z</time>
      </trkpt>
      <trkpt lat="47.30654" lon="-2.35899">
        <ele>28.60000038147</ele>
        <time>2021-11-25T08:56:13.000Z</time>
      </trkpt>
      <trkpt lat="47.30663" lon="-2.35896">
        <ele>29</ele>
        <time>2021-11-25T08:56:18.000Z</time>
      </trkpt>
      <trkpt lat="47.30666" lon="-2.35895">
        <ele>29.39999961853</ele>
        <time>2021-11-25T08:56:19.000Z</time>
      </trkpt>
      <trkpt lat="47.30668" lon="-2.35893">
        <ele>29.799999237061</ele>
        <time>2021-11-25T08:56:20.000Z</time>
      </trkpt>
      <trkpt lat="47.3067" lon="-2.3589">
        <ele>30.200000762939</ele>
        <time>2021-11-25T08:56:21.000Z</time>
      </trkpt>
      <trkpt lat="47.30672" lon="-2.35887">
        <ele>30.799999237061</ele>
        <time>2021-11-25T08:56:22.000Z</time>
      </trkpt>
      <trkpt lat="47.30674" lon="-2.35883">
        <ele>30.799999237061</ele>
        <time>2021-11-25T08:56:23.000Z</time>
      </trkpt>
      <trkpt lat="47.30692" lon="-2.35862">
        <ele>30.799999237061</ele>
        <time>2021-11-25T08:56:30.000Z</time>
      </trkpt>
      <trkpt lat="47.30719" lon="-2.3583">
        <ele>30.799999237061</ele>
        <time>2021-11-25T08:56:39.000Z</time>
      </trkpt>
      <trkpt lat="47.30745" lon="-2.35801">
        <ele>30.799999237061</ele>
        <time>2021-11-25T08:56:47.000Z</time>
      </trkpt>
      <trkpt lat="47.3075" lon="-2.35798">
        <ele>30.799999237061</ele>
        <time>2021-11-25T08:56:48.000Z</time>
      </trkpt>
      <trkpt lat="47.3077" lon="-2.35796">
        <ele>30.799999237061</ele>
        <time>2021-11-25T08:56:52.000Z</time>
      </trkpt>
      <trkpt lat="47.30785" lon="-2.35804">
        <ele>30.799999237061</ele>
        <time>2021-11-25T08:56:55.000Z</time>
      </trkpt>
      <trkpt lat="47.30795" lon="-2.35811">
        <ele>30.799999237061</ele>
        <time>2021-11-25T08:56:57.000Z</time>
      </trkpt>
      <trkpt lat="47.30828" lon="-2.35835">
        <ele>30.799999237061</ele>
        <time>2021-11-25T08:57:04.000Z</time>
      </trkpt>
      <trkpt lat="47.30861" lon="-2.35856">
        <ele>30.799999237061</ele>
        <time>2021-11-25T08:57:11.000Z</time>
      </trkpt>
      <trkpt lat="47.30888" lon="-2.35864">
        <ele>30.799999237061</ele>
        <time>2021-11-25T08:57:16.000Z</time>
      </trkpt>
      <trkpt lat="47.30893" lon="-2.35865">
        <ele>30.799999237061</ele>
        <time>2021-11-25T08:57:17.000Z</time>
      </trkpt>
      <trkpt lat="47.30904" lon="-2.35864">
        <ele>30.799999237061</ele>
        <time>2021-11-25T08:57:19.000Z</time>
      </trkpt>
      <trkpt lat="47.30919" lon="-2.35857">
        <ele>30.799999237061</ele>
        <time>2021-11-25T08:57:22.000Z</time>
      </trkpt>
      <trkpt lat="47.30954" lon="-2.3584">
        <ele>30.799999237061</ele>
        <time>2021-11-25T08:57:29.000Z</time>
      </trkpt>
      <trkpt lat="47.30992" lon="-2.3582">
        <ele>30.799999237061</ele>
        <time>2021-11-25T08:57:36.000Z</time>
      </trkpt>
      <trkpt lat="47.31036" lon="-2.35802">
        <ele>30.799999237061</ele>
        <time>2021-11-25T08:57:44.000Z</time>
      </trkpt>
      <trkpt lat="47.31077" lon="-2.35791">
        <ele>30.799999237061</ele>
        <time>2021-11-25T08:57:51.000Z</time>
      </trkpt>
      <trkpt lat="47.31124" lon="-2.35779">
        <ele>30.799999237061</ele>
        <time>2021-11-25T08:57:59.000Z</time>
      </trkpt>
      <trkpt lat="47.31153" lon="-2.35771">
        <ele>30.799999237061</ele>
        <time>2021-11-25T08:58:04.000Z</time>
      </trkpt>
      <trkpt lat="47.31163" lon="-2.35763">
        <ele>30.799999237061</ele>
        <time>2021-11-25T08:58:06.000Z</time>
      </trkpt>
      <trkpt lat="47.31177" lon="-2.35737">
        <ele>30.799999237061</ele>
        <time>2021-11-25T08:58:10.000Z</time>
      </trkpt>
      <trkpt lat="47.31181" lon="-2.35713">
        <ele>30.799999237061</ele>
        <time>2021-11-25T08:58:13.000Z</time>
      </trkpt>
      <trkpt lat="47.31183" lon="-2.35698">
        <ele>30.799999237061</ele>
        <time>2021-11-25T08:58:15.000Z</time>
      </trkpt>
      <trkpt lat="47.31187" lon="-2.35671">
        <ele>30.799999237061</ele>
        <time>2021-11-25T08:58:20.000Z</time>
      </trkpt>
      <trkpt lat="47.31189" lon="-2.3567">
        <ele>30.799999237061</ele>
        <time>2021-11-25T08:58:21.000Z</time>
      </trkpt>
      <trkpt lat="47.31194" lon="-2.35668">
        <ele>30.200000762939</ele>
        <time>2021-11-25T08:58:24.000Z</time>
      </trkpt>
      <trkpt lat="47.31195" lon="-2.35667">
        <ele>29.799999237061</ele>
        <time>2021-11-25T08:58:25.000Z</time>
      </trkpt>
      <trkpt lat="47.31198" lon="-2.35666">
        <ele>29.39999961853</ele>
        <time>2021-11-25T08:58:26.000Z</time>
      </trkpt>
      <trkpt lat="47.312" lon="-2.35665">
        <ele>29</ele>
        <time>2021-11-25T08:58:27.000Z</time>
      </trkpt>
      <trkpt lat="47.31201" lon="-2.35663">
        <ele>28.60000038147</ele>
        <time>2021-11-25T08:58:28.000Z</time>
      </trkpt>
      <trkpt lat="47.31207" lon="-2.35658">
        <ele>28.60000038147</ele>
        <time>2021-11-25T08:58:31.000Z</time>
      </trkpt>
      <trkpt lat="47.31224" lon="-2.35642">
        <ele>28.60000038147</ele>
        <time>2021-11-25T08:58:39.000Z</time>
      </trkpt>
      <trkpt lat="47.31238" lon="-2.3563">
        <ele>28.60000038147</ele>
        <time>2021-11-25T08:58:45.000Z</time>
      </trkpt>
      <trkpt lat="47.31257" lon="-2.35614">
        <ele>28.60000038147</ele>
        <time>2021-11-25T08:58:53.000Z</time>
      </trkpt>
      <trkpt lat="47.31277" lon="-2.35595">
        <ele>28.60000038147</ele>
        <time>2021-11-25T08:59:02.000Z</time>
      </trkpt>
      <trkpt lat="47.31301" lon="-2.35574">
        <ele>28.60000038147</ele>
        <time>2021-11-25T08:59:11.000Z</time>
      </trkpt>
      <trkpt lat="47.31321" lon="-2.3556">
        <ele>28.60000038147</ele>
        <time>2021-11-25T08:59:18.000Z</time>
      </trkpt>
      <trkpt lat="47.31332" lon="-2.35549">
        <ele>28.200000762939</ele>
        <time>2021-11-25T08:59:24.000Z</time>
      </trkpt>
      <trkpt lat="47.31333" lon="-2.35547">
        <ele>27.799999237061</ele>
        <time>2021-11-25T08:59:25.000Z</time>
      </trkpt>
      <trkpt lat="47.31334" lon="-2.35547">
        <ele>27.39999961853</ele>
        <time>2021-11-25T08:59:26.000Z</time>
      </trkpt>
      <trkpt lat="47.31334" lon="-2.35547">
        <ele>27</ele>
        <time>2021-11-25T08:59:27.000Z</time>
      </trkpt>
      <trkpt lat="47.31336" lon="-2.35545">
        <ele>26.60000038147</ele>
        <time>2021-11-25T08:59:29.000Z</time>
      </trkpt>
      <trkpt lat="47.31339" lon="-2.35545">
        <ele>26.60000038147</ele>
        <time>2021-11-25T08:59:30.000Z</time>
      </trkpt>
      <trkpt lat="47.31353" lon="-2.3554">
        <ele>26.60000038147</ele>
        <time>2021-11-25T08:59:34.000Z</time>
      </trkpt>
      <trkpt lat="47.31361" lon="-2.35535">
        <ele>26.60000038147</ele>
        <time>2021-11-25T08:59:36.000Z</time>
      </trkpt>
      <trkpt lat="47.31374" lon="-2.35531">
        <ele>26.60000038147</ele>
        <time>2021-11-25T08:59:39.000Z</time>
      </trkpt>
      <trkpt lat="47.31387" lon="-2.35526">
        <ele>26.60000038147</ele>
        <time>2021-11-25T08:59:42.000Z</time>
      </trkpt>
      <trkpt lat="47.31397" lon="-2.35527">
        <ele>26.60000038147</ele>
        <time>2021-11-25T08:59:44.000Z</time>
      </trkpt>
      <trkpt lat="47.31433" lon="-2.35526">
        <ele>26.60000038147</ele>
        <time>2021-11-25T08:59:51.000Z</time>
      </trkpt>
      <trkpt lat="47.31448" lon="-2.35525">
        <ele>26.60000038147</ele>
        <time>2021-11-25T08:59:54.000Z</time>
      </trkpt>
      <trkpt lat="47.31461" lon="-2.35522">
        <ele>26.60000038147</ele>
        <time>2021-11-25T08:59:57.000Z</time>
      </trkpt>
      <trkpt lat="47.31465" lon="-2.35521">
        <ele>26.60000038147</ele>
        <time>2021-11-25T08:59:58.000Z</time>
      </trkpt>
      <trkpt lat="47.31479" lon="-2.3551">
        <ele>26.60000038147</ele>
        <time>2021-11-25T09:00:02.000Z</time>
      </trkpt>
      <trkpt lat="47.31485" lon="-2.35483">
        <ele>26.60000038147</ele>
        <time>2021-11-25T09:00:06.000Z</time>
      </trkpt>
      <trkpt lat="47.31488" lon="-2.35463">
        <ele>26.60000038147</ele>
        <time>2021-11-25T09:00:09.000Z</time>
      </trkpt>
      <trkpt lat="47.31491" lon="-2.35449">
        <ele>26.60000038147</ele>
        <time>2021-11-25T09:00:11.000Z</time>
      </trkpt>
      <trkpt lat="47.31493" lon="-2.35442">
        <ele>26.60000038147</ele>
        <time>2021-11-25T09:00:12.000Z</time>
      </trkpt>
      <trkpt lat="47.31496" lon="-2.35436">
        <ele>26.200000762939</ele>
        <time>2021-11-25T09:00:13.000Z</time>
      </trkpt>
      <trkpt lat="47.315" lon="-2.35431">
        <ele>25.799999237061</ele>
        <time>2021-11-25T09:00:14.000Z</time>
      </trkpt>
      <trkpt lat="47.31503" lon="-2.35425">
        <ele>25.39999961853</ele>
        <time>2021-11-25T09:00:15.000Z</time>
      </trkpt>
      <trkpt lat="47.31507" lon="-2.35421">
        <ele>25</ele>
        <time>2021-11-25T09:00:16.000Z</time>
      </trkpt>
      <trkpt lat="47.31512" lon="-2.35417">
        <ele>24.60000038147</ele>
        <time>2021-11-25T09:00:17.000Z</time>
      </trkpt>
      <trkpt lat="47.31527" lon="-2.35406">
        <ele>24.60000038147</ele>
        <time>2021-11-25T09:00:20.000Z</time>
      </trkpt>
      <trkpt lat="47.31532" lon="-2.35403">
        <ele>24.60000038147</ele>
        <time>2021-11-25T09:00:21.000Z</time>
      </trkpt>
      <trkpt lat="47.31566" lon="-2.35384">
        <ele>24.60000038147</ele>
        <time>2021-11-25T09:00:27.000Z</time>
      </trkpt>
      <trkpt lat="47.31605" lon="-2.35365">
        <ele>24.60000038147</ele>
        <time>2021-11-25T09:00:34.000Z</time>
      </trkpt>
      <trkpt lat="47.31617" lon="-2.35363">
        <ele>24.60000038147</ele>
        <time>2021-11-25T09:00:36.000Z</time>
      </trkpt>
      <trkpt lat="47.31634" lon="-2.35366">
        <ele>24.60000038147</ele>
        <time>2021-11-25T09:00:39.000Z</time>
      </trkpt>
      <trkpt lat="47.31657" lon="-2.35373">
        <ele>24.60000038147</ele>
        <time>2021-11-25T09:00:43.000Z</time>
      </trkpt>
      <trkpt lat="47.31676" lon="-2.35373">
        <ele>24.60000038147</ele>
        <time>2021-11-25T09:00:46.000Z</time>
      </trkpt>
      <trkpt lat="47.31709" lon="-2.35373">
        <ele>24.60000038147</ele>
        <time>2021-11-25T09:00:52.000Z</time>
      </trkpt>
      <trkpt lat="47.3173" lon="-2.35369">
        <ele>24</ele>
        <time>2021-11-25T09:00:56.000Z</time>
      </trkpt>
      <trkpt lat="47.31736" lon="-2.35367">
        <ele>23.60000038147</ele>
        <time>2021-11-25T09:00:57.000Z</time>
      </trkpt>
      <trkpt lat="47.31741" lon="-2.35366">
        <ele>23.200000762939</ele>
        <time>2021-11-25T09:00:58.000Z</time>
      </trkpt>
      <trkpt lat="47.31747" lon="-2.35363">
        <ele>22.799999237061</ele>
        <time>2021-11-25T09:00:59.000Z</time>
      </trkpt>
      <trkpt lat="47.31753" lon="-2.3536">
        <ele>22.200000762939</ele>
        <time>2021-11-25T09:01:00.000Z</time>
      </trkpt>
      <trkpt lat="47.31781" lon="-2.35344">
        <ele>22.200000762939</ele>
        <time>2021-11-25T09:01:05.000Z</time>
      </trkpt>
      <trkpt lat="47.31786" lon="-2.3534">
        <ele>21.799999237061</ele>
        <time>2021-11-25T09:01:06.000Z</time>
      </trkpt>
      <trkpt lat="47.31792" lon="-2.35336">
        <ele>21.39999961853</ele>
        <time>2021-11-25T09:01:07.000Z</time>
      </trkpt>
      <trkpt lat="47.31797" lon="-2.35333">
        <ele>21</ele>
        <time>2021-11-25T09:01:08.000Z</time>
      </trkpt>
      <trkpt lat="47.31802" lon="-2.3533">
        <ele>20.60000038147</ele>
        <time>2021-11-25T09:01:09.000Z</time>
      </trkpt>
      <trkpt lat="47.31807" lon="-2.35328">
        <ele>20.200000762939</ele>
        <time>2021-11-25T09:01:10.000Z</time>
      </trkpt>
      <trkpt lat="47.31819" lon="-2.35322">
        <ele>20.200000762939</ele>
        <time>2021-11-25T09:01:12.000Z</time>
      </trkpt>
      <trkpt lat="47.31836" lon="-2.35313">
        <ele>19.799999237061</ele>
        <time>2021-11-25T09:01:15.000Z</time>
      </trkpt>
      <trkpt lat="47.31842" lon="-2.3531">
        <ele>19.39999961853</ele>
        <time>2021-11-25T09:01:16.000Z</time>
      </trkpt>
      <trkpt lat="47.31848" lon="-2.35307">
        <ele>19</ele>
        <time>2021-11-25T09:01:17.000Z</time>
      </trkpt>
      <trkpt lat="47.31854" lon="-2.35304">
        <ele>18.39999961853</ele>
        <time>2021-11-25T09:01:18.000Z</time>
      </trkpt>
      <trkpt lat="47.31859" lon="-2.353">
        <ele>18</ele>
        <time>2021-11-25T09:01:19.000Z</time>
      </trkpt>
      <trkpt lat="47.3187" lon="-2.35291">
        <ele>18</ele>
        <time>2021-11-25T09:01:21.000Z</time>
      </trkpt>
      <trkpt lat="47.31902" lon="-2.35268">
        <ele>17.60000038147</ele>
        <time>2021-11-25T09:01:27.000Z</time>
      </trkpt>
      <trkpt lat="47.31907" lon="-2.35263">
        <ele>17.200000762939</ele>
        <time>2021-11-25T09:01:28.000Z</time>
      </trkpt>
      <trkpt lat="47.31911" lon="-2.35259">
        <ele>16.799999237061</ele>
        <time>2021-11-25T09:01:29.000Z</time>
      </trkpt>
      <trkpt lat="47.31915" lon="-2.35255">
        <ele>16.200000762939</ele>
        <time>2021-11-25T09:01:30.000Z</time>
      </trkpt>
      <trkpt lat="47.31919" lon="-2.35252">
        <ele>15.800000190735</ele>
        <time>2021-11-25T09:01:31.000Z</time>
      </trkpt>
      <trkpt lat="47.31928" lon="-2.35244">
        <ele>15.800000190735</ele>
        <time>2021-11-25T09:01:33.000Z</time>
      </trkpt>
      <trkpt lat="47.31958" lon="-2.35217">
        <ele>15.800000190735</ele>
        <time>2021-11-25T09:01:40.000Z</time>
      </trkpt>
      <trkpt lat="47.31962" lon="-2.35213">
        <ele>15.800000190735</ele>
        <time>2021-11-25T09:01:41.000Z</time>
      </trkpt>
      <trkpt lat="47.31984" lon="-2.3519">
        <ele>15.800000190735</ele>
        <time>2021-11-25T09:01:46.000Z</time>
      </trkpt>
      <trkpt lat="47.32002" lon="-2.35173">
        <ele>15.39999961853</ele>
        <time>2021-11-25T09:01:50.000Z</time>
      </trkpt>
      <trkpt lat="47.32007" lon="-2.3517">
        <ele>15</ele>
        <time>2021-11-25T09:01:51.000Z</time>
      </trkpt>
      <trkpt lat="47.32012" lon="-2.35166">
        <ele>14.60000038147</ele>
        <time>2021-11-25T09:01:52.000Z</time>
      </trkpt>
      <trkpt lat="47.32016" lon="-2.35161">
        <ele>14.199999809265</ele>
        <time>2021-11-25T09:01:53.000Z</time>
      </trkpt>
      <trkpt lat="47.3202" lon="-2.35156">
        <ele>13.800000190735</ele>
        <time>2021-11-25T09:01:54.000Z</time>
      </trkpt>
      <trkpt lat="47.32038" lon="-2.35139">
        <ele>13.800000190735</ele>
        <time>2021-11-25T09:01:58.000Z</time>
      </trkpt>
      <trkpt lat="47.32043" lon="-2.35133">
        <ele>13.800000190735</ele>
        <time>2021-11-25T09:01:59.000Z</time>
      </trkpt>
      <trkpt lat="47.32048" lon="-2.35113">
        <ele>13.800000190735</ele>
        <time>2021-11-25T09:02:02.000Z</time>
      </trkpt>
      <trkpt lat="47.32045" lon="-2.35095">
        <ele>13.800000190735</ele>
        <time>2021-11-25T09:02:05.000Z</time>
      </trkpt>
      <trkpt lat="47.32045" lon="-2.35089">
        <ele>13.800000190735</ele>
        <time>2021-11-25T09:02:06.000Z</time>
      </trkpt>
      <trkpt lat="47.32059" lon="-2.35078">
        <ele>13.800000190735</ele>
        <time>2021-11-25T09:02:09.000Z</time>
      </trkpt>
      <trkpt lat="47.32065" lon="-2.35077">
        <ele>13.800000190735</ele>
        <time>2021-11-25T09:02:10.000Z</time>
      </trkpt>
      <trkpt lat="47.32081" lon="-2.35074">
        <ele>13.800000190735</ele>
        <time>2021-11-25T09:02:14.000Z</time>
      </trkpt>
      <trkpt lat="47.32111" lon="-2.35069">
        <ele>13.800000190735</ele>
        <time>2021-11-25T09:02:20.000Z</time>
      </trkpt>
      <trkpt lat="47.32152" lon="-2.35066">
        <ele>13.800000190735</ele>
        <time>2021-11-25T09:02:28.000Z</time>
      </trkpt>
      <trkpt lat="47.32185" lon="-2.35063">
        <ele>13.800000190735</ele>
        <time>2021-11-25T09:02:35.000Z</time>
      </trkpt>
      <trkpt lat="47.32209" lon="-2.35059">
        <ele>13.800000190735</ele>
        <time>2021-11-25T09:02:40.000Z</time>
      </trkpt>
      <trkpt lat="47.32242" lon="-2.35056">
        <ele>13.800000190735</ele>
        <time>2021-11-25T09:02:46.000Z</time>
      </trkpt>
      <trkpt lat="47.32282" lon="-2.35052">
        <ele>13.800000190735</ele>
        <time>2021-11-25T09:02:54.000Z</time>
      </trkpt>
      <trkpt lat="47.32292" lon="-2.35054">
        <ele>13.800000190735</ele>
        <time>2021-11-25T09:02:56.000Z</time>
      </trkpt>
      <trkpt lat="47.32302" lon="-2.35054">
        <ele>14.199999809265</ele>
        <time>2021-11-25T09:02:58.000Z</time>
      </trkpt>
      <trkpt lat="47.32306" lon="-2.35055">
        <ele>14.800000190735</ele>
        <time>2021-11-25T09:02:59.000Z</time>
      </trkpt>
      <trkpt lat="47.32311" lon="-2.35055">
        <ele>15.199999809265</ele>
        <time>2021-11-25T09:03:00.000Z</time>
      </trkpt>
      <trkpt lat="47.32316" lon="-2.35054">
        <ele>15.60000038147</ele>
        <time>2021-11-25T09:03:01.000Z</time>
      </trkpt>
      <trkpt lat="47.32321" lon="-2.35054">
        <ele>16</ele>
        <time>2021-11-25T09:03:02.000Z</time>
      </trkpt>
      <trkpt lat="47.32336" lon="-2.35054">
        <ele>16</ele>
        <time>2021-11-25T09:03:05.000Z</time>
      </trkpt>
      <trkpt lat="47.32356" lon="-2.35053">
        <ele>16</ele>
        <time>2021-11-25T09:03:09.000Z</time>
      </trkpt>
      <trkpt lat="47.32365" lon="-2.35054">
        <ele>16</ele>
        <time>2021-11-25T09:03:11.000Z</time>
      </trkpt>
      <trkpt lat="47.32369" lon="-2.35054">
        <ele>16</ele>
        <time>2021-11-25T09:03:12.000Z</time>
      </trkpt>
      <trkpt lat="47.32383" lon="-2.35054">
        <ele>16</ele>
        <time>2021-11-25T09:03:15.000Z</time>
      </trkpt>
      <trkpt lat="47.32388" lon="-2.35053">
        <ele>16.799999237061</ele>
        <time>2021-11-25T09:03:16.000Z</time>
      </trkpt>
      <trkpt lat="47.32392" lon="-2.35052">
        <ele>17.200000762939</ele>
        <time>2021-11-25T09:03:17.000Z</time>
      </trkpt>
      <trkpt lat="47.32397" lon="-2.35052">
        <ele>17.60000038147</ele>
        <time>2021-11-25T09:03:18.000Z</time>
      </trkpt>
      <trkpt lat="47.32403" lon="-2.35052">
        <ele>18</ele>
        <time>2021-11-25T09:03:19.000Z</time>
      </trkpt>
      <trkpt lat="47.32427" lon="-2.35049">
        <ele>18</ele>
        <time>2021-11-25T09:03:23.000Z</time>
      </trkpt>
      <trkpt lat="47.32456" lon="-2.35043">
        <ele>18</ele>
        <time>2021-11-25T09:03:29.000Z</time>
      </trkpt>
      <trkpt lat="47.32495" lon="-2.35034">
        <ele>18</ele>
        <time>2021-11-25T09:03:36.000Z</time>
      </trkpt>
      <trkpt lat="47.32533" lon="-2.35026">
        <ele>18</ele>
        <time>2021-11-25T09:03:43.000Z</time>
      </trkpt>
      <trkpt lat="47.32565" lon="-2.35015">
        <ele>18</ele>
        <time>2021-11-25T09:03:49.000Z</time>
      </trkpt>
      <trkpt lat="47.32589" lon="-2.35004">
        <ele>17.60000038147</ele>
        <time>2021-11-25T09:03:54.000Z</time>
      </trkpt>
      <trkpt lat="47.32593" lon="-2.35002">
        <ele>17.200000762939</ele>
        <time>2021-11-25T09:03:55.000Z</time>
      </trkpt>
      <trkpt lat="47.32597" lon="-2.35">
        <ele>16.799999237061</ele>
        <time>2021-11-25T09:03:56.000Z</time>
      </trkpt>
      <trkpt lat="47.32602" lon="-2.34997">
        <ele>16.39999961853</ele>
        <time>2021-11-25T09:03:57.000Z</time>
      </trkpt>
      <trkpt lat="47.32607" lon="-2.34994">
        <ele>16</ele>
        <time>2021-11-25T09:03:58.000Z</time>
      </trkpt>
      <trkpt lat="47.32628" lon="-2.34982">
        <ele>16</ele>
        <time>2021-11-25T09:04:03.000Z</time>
      </trkpt>
      <trkpt lat="47.32648" lon="-2.34969">
        <ele>16</ele>
        <time>2021-11-25T09:04:09.000Z</time>
      </trkpt>
      <trkpt lat="47.32665" lon="-2.34957">
        <ele>16</ele>
        <time>2021-11-25T09:04:14.000Z</time>
      </trkpt>
      <trkpt lat="47.32693" lon="-2.34936">
        <ele>16</ele>
        <time>2021-11-25T09:04:20.000Z</time>
      </trkpt>
      <trkpt lat="47.32698" lon="-2.34933">
        <ele>15.60000038147</ele>
        <time>2021-11-25T09:04:21.000Z</time>
      </trkpt>
      <trkpt lat="47.32703" lon="-2.3493">
        <ele>15.199999809265</ele>
        <time>2021-11-25T09:04:22.000Z</time>
      </trkpt>
      <trkpt lat="47.32708" lon="-2.34926">
        <ele>14.800000190735</ele>
        <time>2021-11-25T09:04:23.000Z</time>
      </trkpt>
      <trkpt lat="47.32713" lon="-2.34923">
        <ele>14.39999961853</ele>
        <time>2021-11-25T09:04:24.000Z</time>
      </trkpt>
      <trkpt lat="47.32718" lon="-2.34919">
        <ele>14</ele>
        <time>2021-11-25T09:04:25.000Z</time>
      </trkpt>
      <trkpt lat="47.32739" lon="-2.34903">
        <ele>14</ele>
        <time>2021-11-25T09:04:29.000Z</time>
      </trkpt>
      <trkpt lat="47.32777" lon="-2.34876">
        <ele>14</ele>
        <time>2021-11-25T09:04:36.000Z</time>
      </trkpt>
      <trkpt lat="47.32813" lon="-2.3485">
        <ele>14</ele>
        <time>2021-11-25T09:04:43.000Z</time>
      </trkpt>
      <trkpt lat="47.32834" lon="-2.34834">
        <ele>13.60000038147</ele>
        <time>2021-11-25T09:04:47.000Z</time>
      </trkpt>
      <trkpt lat="47.3284" lon="-2.3483">
        <ele>13.199999809265</ele>
        <time>2021-11-25T09:04:48.000Z</time>
      </trkpt>
      <trkpt lat="47.32845" lon="-2.34826">
        <ele>12.800000190735</ele>
        <time>2021-11-25T09:04:49.000Z</time>
      </trkpt>
      <trkpt lat="47.32851" lon="-2.34822">
        <ele>12.39999961853</ele>
        <time>2021-11-25T09:04:50.000Z</time>
      </trkpt>
      <trkpt lat="47.32856" lon="-2.34819">
        <ele>12</ele>
        <time>2021-11-25T09:04:51.000Z</time>
      </trkpt>
      <trkpt lat="47.3289" lon="-2.34793">
        <ele>12</ele>
        <time>2021-11-25T09:04:58.000Z</time>
      </trkpt>
      <trkpt lat="47.32908" lon="-2.34784">
        <ele>12</ele>
        <time>2021-11-25T09:05:02.000Z</time>
      </trkpt>
      <trkpt lat="47.32911" lon="-2.34788">
        <ele>12</ele>
        <time>2021-11-25T09:05:03.000Z</time>
      </trkpt>
      <trkpt lat="47.32914" lon="-2.34791">
        <ele>11.60000038147</ele>
        <time>2021-11-25T09:05:04.000Z</time>
      </trkpt>
      <trkpt lat="47.32917" lon="-2.34796">
        <ele>11.199999809265</ele>
        <time>2021-11-25T09:05:05.000Z</time>
      </trkpt>
      <trkpt lat="47.32919" lon="-2.34801">
        <ele>10.800000190735</ele>
        <time>2021-11-25T09:05:06.000Z</time>
      </trkpt>
      <trkpt lat="47.32921" lon="-2.34806">
        <ele>10.39999961853</ele>
        <time>2021-11-25T09:05:07.000Z</time>
      </trkpt>
      <trkpt lat="47.32923" lon="-2.3481">
        <ele>10</ele>
        <time>2021-11-25T09:05:08.000Z</time>
      </trkpt>
      <trkpt lat="47.32931" lon="-2.34829">
        <ele>10</ele>
        <time>2021-11-25T09:05:12.000Z</time>
      </trkpt>
      <trkpt lat="47.32939" lon="-2.34854">
        <ele>10</ele>
        <time>2021-11-25T09:05:17.000Z</time>
      </trkpt>
      <trkpt lat="47.32944" lon="-2.34865">
        <ele>10</ele>
        <time>2021-11-25T09:05:19.000Z</time>
      </trkpt>
      <trkpt lat="47.32951" lon="-2.34879">
        <ele>10</ele>
        <time>2021-11-25T09:05:22.000Z</time>
      </trkpt>
      <trkpt lat="47.32955" lon="-2.34891">
        <ele>10</ele>
        <time>2021-11-25T09:05:24.000Z</time>
      </trkpt>
      <trkpt lat="47.32963" lon="-2.34911">
        <ele>10</ele>
        <time>2021-11-25T09:05:27.000Z</time>
      </trkpt>
      <trkpt lat="47.32978" lon="-2.3495">
        <ele>10</ele>
        <time>2021-11-25T09:05:33.000Z</time>
      </trkpt>
      <trkpt lat="47.3298" lon="-2.34956">
        <ele>10</ele>
        <time>2021-11-25T09:05:34.000Z</time>
      </trkpt>
      <trkpt lat="47.32985" lon="-2.34971">
        <ele>10</ele>
        <time>2021-11-25T09:05:37.000Z</time>
      </trkpt>
      <trkpt lat="47.32994" lon="-2.34985">
        <ele>10.39999961853</ele>
        <time>2021-11-25T09:05:41.000Z</time>
      </trkpt>
      <trkpt lat="47.32996" lon="-2.34988">
        <ele>10.800000190735</ele>
        <time>2021-11-25T09:05:42.000Z</time>
      </trkpt>
      <trkpt lat="47.32997" lon="-2.34992">
        <ele>11.199999809265</ele>
        <time>2021-11-25T09:05:43.000Z</time>
      </trkpt>
      <trkpt lat="47.32999" lon="-2.34997">
        <ele>12</ele>
        <time>2021-11-25T09:05:44.000Z</time>
      </trkpt>
      <trkpt lat="47.33004" lon="-2.35008">
        <ele>12</ele>
        <time>2021-11-25T09:05:47.000Z</time>
      </trkpt>
      <trkpt lat="47.33008" lon="-2.35036">
        <ele>12</ele>
        <time>2021-11-25T09:05:52.000Z</time>
      </trkpt>
      <trkpt lat="47.33012" lon="-2.35058">
        <ele>12</ele>
        <time>2021-11-25T09:05:56.000Z</time>
      </trkpt>
      <trkpt lat="47.33017" lon="-2.35076">
        <ele>12.39999961853</ele>
        <time>2021-11-25T09:05:59.000Z</time>
      </trkpt>
      <trkpt lat="47.33018" lon="-2.35082">
        <ele>12.800000190735</ele>
        <time>2021-11-25T09:06:00.000Z</time>
      </trkpt>
      <trkpt lat="47.33017" lon="-2.35089">
        <ele>13.199999809265</ele>
        <time>2021-11-25T09:06:01.000Z</time>
      </trkpt>
      <trkpt lat="47.33018" lon="-2.35095">
        <ele>13.60000038147</ele>
        <time>2021-11-25T09:06:02.000Z</time>
      </trkpt>
      <trkpt lat="47.33018" lon="-2.35101">
        <ele>14</ele>
        <time>2021-11-25T09:06:03.000Z</time>
      </trkpt>
      <trkpt lat="47.33024" lon="-2.35126">
        <ele>14</ele>
        <time>2021-11-25T09:06:07.000Z</time>
      </trkpt>
      <trkpt lat="47.33026" lon="-2.3516">
        <ele>14</ele>
        <time>2021-11-25T09:06:12.000Z</time>
      </trkpt>
      <trkpt lat="47.33027" lon="-2.35166">
        <ele>14</ele>
        <time>2021-11-25T09:06:13.000Z</time>
      </trkpt>
      <trkpt lat="47.33028" lon="-2.35173">
        <ele>14</ele>
        <time>2021-11-25T09:06:14.000Z</time>
      </trkpt>
      <trkpt lat="47.33028" lon="-2.35201">
        <ele>14</ele>
        <time>2021-11-25T09:06:18.000Z</time>
      </trkpt>
      <trkpt lat="47.33029" lon="-2.35221">
        <ele>14</ele>
        <time>2021-11-25T09:06:21.000Z</time>
      </trkpt>
      <trkpt lat="47.33029" lon="-2.35227">
        <ele>14.39999961853</ele>
        <time>2021-11-25T09:06:22.000Z</time>
      </trkpt>
      <trkpt lat="47.3303" lon="-2.35234">
        <ele>14.800000190735</ele>
        <time>2021-11-25T09:06:23.000Z</time>
      </trkpt>
      <trkpt lat="47.33031" lon="-2.3524">
        <ele>15.199999809265</ele>
        <time>2021-11-25T09:06:24.000Z</time>
      </trkpt>
      <trkpt lat="47.33029" lon="-2.35247">
        <ele>15.60000038147</ele>
        <time>2021-11-25T09:06:25.000Z</time>
      </trkpt>
      <trkpt lat="47.33028" lon="-2.35254">
        <ele>16</ele>
        <time>2021-11-25T09:06:26.000Z</time>
      </trkpt>
      <trkpt lat="47.33027" lon="-2.35269">
        <ele>16</ele>
        <time>2021-11-25T09:06:28.000Z</time>
      </trkpt>
      <trkpt lat="47.33026" lon="-2.35321">
        <ele>16</ele>
        <time>2021-11-25T09:06:35.000Z</time>
      </trkpt>
      <trkpt lat="47.33031" lon="-2.35379">
        <ele>16</ele>
        <time>2021-11-25T09:06:42.000Z</time>
      </trkpt>
      <trkpt lat="47.33032" lon="-2.35416">
        <ele>16</ele>
        <time>2021-11-25T09:06:48.000Z</time>
      </trkpt>
      <trkpt lat="47.33032" lon="-2.35428">
        <ele>15.60000038147</ele>
        <time>2021-11-25T09:06:50.000Z</time>
      </trkpt>
      <trkpt lat="47.33033" lon="-2.35434">
        <ele>15.199999809265</ele>
        <time>2021-11-25T09:06:51.000Z</time>
      </trkpt>
      <trkpt lat="47.33034" lon="-2.35441">
        <ele>14.800000190735</ele>
        <time>2021-11-25T09:06:52.000Z</time>
      </trkpt>
      <trkpt lat="47.33034" lon="-2.35448">
        <ele>14.39999961853</ele>
        <time>2021-11-25T09:06:53.000Z</time>
      </trkpt>
      <trkpt lat="47.33034" lon="-2.35456">
        <ele>14</ele>
        <time>2021-11-25T09:06:54.000Z</time>
      </trkpt>
      <trkpt lat="47.3303" lon="-2.35508">
        <ele>14</ele>
        <time>2021-11-25T09:07:00.000Z</time>
      </trkpt>
      <trkpt lat="47.33027" lon="-2.35543">
        <ele>13.60000038147</ele>
        <time>2021-11-25T09:07:04.000Z</time>
      </trkpt>
      <trkpt lat="47.33027" lon="-2.35553">
        <ele>13.199999809265</ele>
        <time>2021-11-25T09:07:05.000Z</time>
      </trkpt>
      <trkpt lat="47.33027" lon="-2.35562">
        <ele>12.800000190735</ele>
        <time>2021-11-25T09:07:06.000Z</time>
      </trkpt>
      <trkpt lat="47.33026" lon="-2.35571">
        <ele>12.39999961853</ele>
        <time>2021-11-25T09:07:07.000Z</time>
      </trkpt>
      <trkpt lat="47.33026" lon="-2.3558">
        <ele>12</ele>
        <time>2021-11-25T09:07:08.000Z</time>
      </trkpt>
      <trkpt lat="47.33022" lon="-2.3562">
        <ele>11.60000038147</ele>
        <time>2021-11-25T09:07:13.000Z</time>
      </trkpt>
      <trkpt lat="47.33022" lon="-2.35628">
        <ele>11</ele>
        <time>2021-11-25T09:07:14.000Z</time>
      </trkpt>
      <trkpt lat="47.33021" lon="-2.35636">
        <ele>10.60000038147</ele>
        <time>2021-11-25T09:07:15.000Z</time>
      </trkpt>
      <trkpt lat="47.3302" lon="-2.35644">
        <ele>10.199999809265</ele>
        <time>2021-11-25T09:07:16.000Z</time>
      </trkpt>
      <trkpt lat="47.33018" lon="-2.35654">
        <ele>9.6000003814697</ele>
        <time>2021-11-25T09:07:17.000Z</time>
      </trkpt>
      <trkpt lat="47.33017" lon="-2.35663">
        <ele>9.6000003814697</ele>
        <time>2021-11-25T09:07:18.000Z</time>
      </trkpt>
      <trkpt lat="47.3301" lon="-2.35717">
        <ele>9.6000003814697</ele>
        <time>2021-11-25T09:07:23.000Z</time>
      </trkpt>
      <trkpt lat="47.33013" lon="-2.35772">
        <ele>9.6000003814697</ele>
        <time>2021-11-25T09:07:28.000Z</time>
      </trkpt>
      <trkpt lat="47.33025" lon="-2.35797">
        <ele>9.6000003814697</ele>
        <time>2021-11-25T09:07:31.000Z</time>
      </trkpt>
      <trkpt lat="47.33042" lon="-2.35809">
        <ele>9.6000003814697</ele>
        <time>2021-11-25T09:07:34.000Z</time>
      </trkpt>
      <trkpt lat="47.3305" lon="-2.35808">
        <ele>9.6000003814697</ele>
        <time>2021-11-25T09:07:35.000Z</time>
      </trkpt>
      <trkpt lat="47.33062" lon="-2.35807">
        <ele>9.6000003814697</ele>
        <time>2021-11-25T09:07:37.000Z</time>
      </trkpt>
      <trkpt lat="47.33075" lon="-2.35806">
        <ele>9.6000003814697</ele>
        <time>2021-11-25T09:07:39.000Z</time>
      </trkpt>
      <trkpt lat="47.33091" lon="-2.35806">
        <ele>9.6000003814697</ele>
        <time>2021-11-25T09:07:42.000Z</time>
      </trkpt>
      <trkpt lat="47.33096" lon="-2.35806">
        <ele>9.6000003814697</ele>
        <time>2021-11-25T09:07:43.000Z</time>
      </trkpt>
      <trkpt lat="47.33121" lon="-2.35806">
        <ele>10.199999809265</ele>
        <time>2021-11-25T09:07:48.000Z</time>
      </trkpt>
      <trkpt lat="47.33126" lon="-2.35806">
        <ele>10.60000038147</ele>
        <time>2021-11-25T09:07:49.000Z</time>
      </trkpt>
      <trkpt lat="47.33131" lon="-2.35807">
        <ele>11</ele>
        <time>2021-11-25T09:07:50.000Z</time>
      </trkpt>
      <trkpt lat="47.33137" lon="-2.35808">
        <ele>11.39999961853</ele>
        <time>2021-11-25T09:07:51.000Z</time>
      </trkpt>
      <trkpt lat="47.33142" lon="-2.35808">
        <ele>11.800000190735</ele>
        <time>2021-11-25T09:07:52.000Z</time>
      </trkpt>
      <trkpt lat="47.33152" lon="-2.35808">
        <ele>11.800000190735</ele>
        <time>2021-11-25T09:07:54.000Z</time>
      </trkpt>
      <trkpt lat="47.33187" lon="-2.35814">
        <ele>11.800000190735</ele>
        <time>2021-11-25T09:08:01.000Z</time>
      </trkpt>
      <trkpt lat="47.33215" lon="-2.35821">
        <ele>11.800000190735</ele>
        <time>2021-11-25T09:08:06.000Z</time>
      </trkpt>
      <trkpt lat="47.3322" lon="-2.35822">
        <ele>11.800000190735</ele>
        <time>2021-11-25T09:08:07.000Z</time>
      </trkpt>
      <trkpt lat="47.33225" lon="-2.35824">
        <ele>12.199999809265</ele>
        <time>2021-11-25T09:08:08.000Z</time>
      </trkpt>
      <trkpt lat="47.3323" lon="-2.35827">
        <ele>12.60000038147</ele>
        <time>2021-11-25T09:08:09.000Z</time>
      </trkpt>
      <trkpt lat="47.33235" lon="-2.35829">
        <ele>13</ele>
        <time>2021-11-25T09:08:10.000Z</time>
      </trkpt>
      <trkpt lat="47.3324" lon="-2.35832">
        <ele>14</ele>
        <time>2021-11-25T09:08:11.000Z</time>
      </trkpt>
      <trkpt lat="47.33245" lon="-2.35835">
        <ele>14</ele>
        <time>2021-11-25T09:08:12.000Z</time>
      </trkpt>
      <trkpt lat="47.33249" lon="-2.35838">
        <ele>14</ele>
        <time>2021-11-25T09:08:13.000Z</time>
      </trkpt>
      <trkpt lat="47.33253" lon="-2.35841">
        <ele>14.39999961853</ele>
        <time>2021-11-25T09:08:14.000Z</time>
      </trkpt>
      <trkpt lat="47.33257" lon="-2.35845">
        <ele>14.800000190735</ele>
        <time>2021-11-25T09:08:15.000Z</time>
      </trkpt>
      <trkpt lat="47.3326" lon="-2.35849">
        <ele>15.199999809265</ele>
        <time>2021-11-25T09:08:16.000Z</time>
      </trkpt>
      <trkpt lat="47.33264" lon="-2.35854">
        <ele>15.60000038147</ele>
        <time>2021-11-25T09:08:17.000Z</time>
      </trkpt>
      <trkpt lat="47.33267" lon="-2.35858">
        <ele>16</ele>
        <time>2021-11-25T09:08:18.000Z</time>
      </trkpt>
      <trkpt lat="47.33274" lon="-2.35866">
        <ele>16.39999961853</ele>
        <time>2021-11-25T09:08:20.000Z</time>
      </trkpt>
      <trkpt lat="47.33278" lon="-2.3587">
        <ele>16.799999237061</ele>
        <time>2021-11-25T09:08:21.000Z</time>
      </trkpt>
      <trkpt lat="47.33282" lon="-2.35874">
        <ele>17.200000762939</ele>
        <time>2021-11-25T09:08:22.000Z</time>
      </trkpt>
      <trkpt lat="47.33286" lon="-2.35877">
        <ele>17.60000038147</ele>
        <time>2021-11-25T09:08:23.000Z</time>
      </trkpt>
      <trkpt lat="47.3329" lon="-2.3588">
        <ele>18</ele>
        <time>2021-11-25T09:08:24.000Z</time>
      </trkpt>
      <trkpt lat="47.33302" lon="-2.35888">
        <ele>18</ele>
        <time>2021-11-25T09:08:27.000Z</time>
      </trkpt>
      <trkpt lat="47.33309" lon="-2.35896">
        <ele>18</ele>
        <time>2021-11-25T09:08:29.000Z</time>
      </trkpt>
      <trkpt lat="47.33319" lon="-2.35917">
        <ele>18.39999961853</ele>
        <time>2021-11-25T09:08:33.000Z</time>
      </trkpt>
      <trkpt lat="47.33321" lon="-2.35923">
        <ele>18.799999237061</ele>
        <time>2021-11-25T09:08:34.000Z</time>
      </trkpt>
      <trkpt lat="47.33322" lon="-2.35929">
        <ele>19.200000762939</ele>
        <time>2021-11-25T09:08:35.000Z</time>
      </trkpt>
      <trkpt lat="47.33324" lon="-2.35935">
        <ele>20.200000762939</ele>
        <time>2021-11-25T09:08:36.000Z</time>
      </trkpt>
      <trkpt lat="47.33324" lon="-2.35955">
        <ele>20.200000762939</ele>
        <time>2021-11-25T09:08:39.000Z</time>
      </trkpt>
      <trkpt lat="47.33323" lon="-2.35969">
        <ele>20.200000762939</ele>
        <time>2021-11-25T09:08:41.000Z</time>
      </trkpt>
      <trkpt lat="47.33318" lon="-2.36">
        <ele>20.200000762939</ele>
        <time>2021-11-25T09:08:45.000Z</time>
      </trkpt>
      <trkpt lat="47.33314" lon="-2.36047">
        <ele>20.200000762939</ele>
        <time>2021-11-25T09:08:51.000Z</time>
      </trkpt>
      <trkpt lat="47.33312" lon="-2.36105">
        <ele>20.200000762939</ele>
        <time>2021-11-25T09:08:58.000Z</time>
      </trkpt>
      <trkpt lat="47.33311" lon="-2.36171">
        <ele>20.200000762939</ele>
        <time>2021-11-25T09:09:06.000Z</time>
      </trkpt>
      <trkpt lat="47.33311" lon="-2.36179">
        <ele>20.200000762939</ele>
        <time>2021-11-25T09:09:07.000Z</time>
      </trkpt>
      <trkpt lat="47.33311" lon="-2.3621">
        <ele>20.200000762939</ele>
        <time>2021-11-25T09:09:11.000Z</time>
      </trkpt>
      <trkpt lat="47.33316" lon="-2.36219">
        <ele>20.200000762939</ele>
        <time>2021-11-25T09:09:13.000Z</time>
      </trkpt>
      <trkpt lat="47.33329" lon="-2.36211">
        <ele>20.200000762939</ele>
        <time>2021-11-25T09:09:16.000Z</time>
      </trkpt>
      <trkpt lat="47.3336" lon="-2.36187">
        <ele>20.200000762939</ele>
        <time>2021-11-25T09:09:23.000Z</time>
      </trkpt>
      <trkpt lat="47.3339" lon="-2.3617">
        <ele>20.200000762939</ele>
        <time>2021-11-25T09:09:29.000Z</time>
      </trkpt>
      <trkpt lat="47.33403" lon="-2.36162">
        <ele>20.200000762939</ele>
        <time>2021-11-25T09:09:32.000Z</time>
      </trkpt>
      <trkpt lat="47.33407" lon="-2.36162">
        <ele>20.200000762939</ele>
        <time>2021-11-25T09:09:33.000Z</time>
      </trkpt>
      <trkpt lat="47.33414" lon="-2.36176">
        <ele>20.200000762939</ele>
        <time>2021-11-25T09:09:36.000Z</time>
      </trkpt>
      <trkpt lat="47.33416" lon="-2.36191">
        <ele>20.200000762939</ele>
        <time>2021-11-25T09:09:38.000Z</time>
      </trkpt>
      <trkpt lat="47.33415" lon="-2.36214">
        <ele>20.200000762939</ele>
        <time>2021-11-25T09:09:41.000Z</time>
      </trkpt>
      <trkpt lat="47.33412" lon="-2.36232">
        <ele>20.200000762939</ele>
        <time>2021-11-25T09:09:43.000Z</time>
      </trkpt>
      <trkpt lat="47.33411" lon="-2.3625">
        <ele>20.200000762939</ele>
        <time>2021-11-25T09:09:45.000Z</time>
      </trkpt>
      <trkpt lat="47.33416" lon="-2.36294">
        <ele>20.200000762939</ele>
        <time>2021-11-25T09:09:50.000Z</time>
      </trkpt>
      <trkpt lat="47.33419" lon="-2.36311">
        <ele>20.200000762939</ele>
        <time>2021-11-25T09:09:52.000Z</time>
      </trkpt>
      <trkpt lat="47.33426" lon="-2.36334">
        <ele>20.200000762939</ele>
        <time>2021-11-25T09:09:55.000Z</time>
      </trkpt>
      <trkpt lat="47.33429" lon="-2.36342">
        <ele>19.60000038147</ele>
        <time>2021-11-25T09:09:56.000Z</time>
      </trkpt>
      <trkpt lat="47.33431" lon="-2.36349">
        <ele>19.200000762939</ele>
        <time>2021-11-25T09:09:57.000Z</time>
      </trkpt>
      <trkpt lat="47.33434" lon="-2.36357">
        <ele>18.799999237061</ele>
        <time>2021-11-25T09:09:58.000Z</time>
      </trkpt>
      <trkpt lat="47.33437" lon="-2.36365">
        <ele>18.39999961853</ele>
        <time>2021-11-25T09:09:59.000Z</time>
      </trkpt>
      <trkpt lat="47.3344" lon="-2.36373">
        <ele>18</ele>
        <time>2021-11-25T09:10:00.000Z</time>
      </trkpt>
      <trkpt lat="47.33448" lon="-2.36397">
        <ele>18</ele>
        <time>2021-11-25T09:10:04.000Z</time>
      </trkpt>
      <trkpt lat="47.33451" lon="-2.36405">
        <ele>17.60000038147</ele>
        <time>2021-11-25T09:10:06.000Z</time>
      </trkpt>
      <trkpt lat="47.33452" lon="-2.36409">
        <ele>17.200000762939</ele>
        <time>2021-11-25T09:10:07.000Z</time>
      </trkpt>
      <trkpt lat="47.33454" lon="-2.36412">
        <ele>16.60000038147</ele>
        <time>2021-11-25T09:10:08.000Z</time>
      </trkpt>
      <trkpt lat="47.33457" lon="-2.36414">
        <ele>16.200000762939</ele>
        <time>2021-11-25T09:10:09.000Z</time>
      </trkpt>
      <trkpt lat="47.33461" lon="-2.36415">
        <ele>15.800000190735</ele>
        <time>2021-11-25T09:10:10.000Z</time>
      </trkpt>
      <trkpt lat="47.33468" lon="-2.36416">
        <ele>15.800000190735</ele>
        <time>2021-11-25T09:10:12.000Z</time>
      </trkpt>
      <trkpt lat="47.33472" lon="-2.36417">
        <ele>15.800000190735</ele>
        <time>2021-11-25T09:10:13.000Z</time>
      </trkpt>
      <trkpt lat="47.33475" lon="-2.36424">
        <ele>15.800000190735</ele>
        <time>2021-11-25T09:10:15.000Z</time>
      </trkpt>
      <trkpt lat="47.33474" lon="-2.36452">
        <ele>15.800000190735</ele>
        <time>2021-11-25T09:10:20.000Z</time>
      </trkpt>
      <trkpt lat="47.33474" lon="-2.36493">
        <ele>15.800000190735</ele>
        <time>2021-11-25T09:10:26.000Z</time>
      </trkpt>
      <trkpt lat="47.33473" lon="-2.3653">
        <ele>15.39999961853</ele>
        <time>2021-11-25T09:10:31.000Z</time>
      </trkpt>
      <trkpt lat="47.33474" lon="-2.36537">
        <ele>15</ele>
        <time>2021-11-25T09:10:32.000Z</time>
      </trkpt>
      <trkpt lat="47.33474" lon="-2.36544">
        <ele>14.60000038147</ele>
        <time>2021-11-25T09:10:33.000Z</time>
      </trkpt>
      <trkpt lat="47.33474" lon="-2.36551">
        <ele>14.199999809265</ele>
        <time>2021-11-25T09:10:34.000Z</time>
      </trkpt>
      <trkpt lat="47.33474" lon="-2.36558">
        <ele>13.800000190735</ele>
        <time>2021-11-25T09:10:35.000Z</time>
      </trkpt>
      <trkpt lat="47.33474" lon="-2.36565">
        <ele>13.800000190735</ele>
        <time>2021-11-25T09:10:36.000Z</time>
      </trkpt>
      <trkpt lat="47.33478" lon="-2.36585">
        <ele>13.800000190735</ele>
        <time>2021-11-25T09:10:40.000Z</time>
      </trkpt>
      <trkpt lat="47.33481" lon="-2.36588">
        <ele>13.800000190735</ele>
        <time>2021-11-25T09:10:41.000Z</time>
      </trkpt>
      <trkpt lat="47.3349" lon="-2.3659">
        <ele>13.800000190735</ele>
        <time>2021-11-25T09:10:43.000Z</time>
      </trkpt>
      <trkpt lat="47.33507" lon="-2.366">
        <ele>13.800000190735</ele>
        <time>2021-11-25T09:10:47.000Z</time>
      </trkpt>
      <trkpt lat="47.33515" lon="-2.36606">
        <ele>13.800000190735</ele>
        <time>2021-11-25T09:10:49.000Z</time>
      </trkpt>
      <trkpt lat="47.33523" lon="-2.36611">
        <ele>13.39999961853</ele>
        <time>2021-11-25T09:10:51.000Z</time>
      </trkpt>
      <trkpt lat="47.33526" lon="-2.36615">
        <ele>12.800000190735</ele>
        <time>2021-11-25T09:10:52.000Z</time>
      </trkpt>
      <trkpt lat="47.33529" lon="-2.36618">
        <ele>12.39999961853</ele>
        <time>2021-11-25T09:10:53.000Z</time>
      </trkpt>
      <trkpt lat="47.33532" lon="-2.3662">
        <ele>12</ele>
        <time>2021-11-25T09:10:54.000Z</time>
      </trkpt>
      <trkpt lat="47.33534" lon="-2.36623">
        <ele>11.60000038147</ele>
        <time>2021-11-25T09:10:55.000Z</time>
      </trkpt>
      <trkpt lat="47.33536" lon="-2.36626">
        <ele>11</ele>
        <time>2021-11-25T09:10:56.000Z</time>
      </trkpt>
      <trkpt lat="47.33539" lon="-2.3663">
        <ele>10.60000038147</ele>
        <time>2021-11-25T09:10:57.000Z</time>
      </trkpt>
      <trkpt lat="47.3354" lon="-2.36635">
        <ele>10.199999809265</ele>
        <time>2021-11-25T09:10:58.000Z</time>
      </trkpt>
      <trkpt lat="47.33539" lon="-2.3664">
        <ele>9.3999996185303</ele>
        <time>2021-11-25T09:10:59.000Z</time>
      </trkpt>
      <trkpt lat="47.33537" lon="-2.36645">
        <ele>8.8000001907349</ele>
        <time>2021-11-25T09:11:00.000Z</time>
      </trkpt>
      <trkpt lat="47.33535" lon="-2.36651">
        <ele>8.1999998092651</ele>
        <time>2021-11-25T09:11:01.000Z</time>
      </trkpt>
      <trkpt lat="47.33532" lon="-2.36656">
        <ele>7.5999999046326</ele>
        <time>2021-11-25T09:11:02.000Z</time>
      </trkpt>
      <trkpt lat="47.33529" lon="-2.36661">
        <ele>7</ele>
        <time>2021-11-25T09:11:03.000Z</time>
      </trkpt>
      <trkpt lat="47.33525" lon="-2.36665">
        <ele>7</ele>
        <time>2021-11-25T09:11:04.000Z</time>
      </trkpt>
      <trkpt lat="47.33516" lon="-2.36681">
        <ele>7</ele>
        <time>2021-11-25T09:11:07.000Z</time>
      </trkpt>
      <trkpt lat="47.33511" lon="-2.3669">
        <ele>7</ele>
        <time>2021-11-25T09:11:09.000Z</time>
      </trkpt>
      <trkpt lat="47.33494" lon="-2.36722">
        <ele>7</ele>
        <time>2021-11-25T09:11:16.000Z</time>
      </trkpt>
      <trkpt lat="47.33483" lon="-2.36748">
        <ele>7</ele>
        <time>2021-11-25T09:11:22.000Z</time>
      </trkpt>
      <trkpt lat="47.33478" lon="-2.3676">
        <ele>7</ele>
        <time>2021-11-25T09:11:24.000Z</time>
      </trkpt>
      <trkpt lat="47.33472" lon="-2.36778">
        <ele>7</ele>
        <time>2021-11-25T09:11:27.000Z</time>
      </trkpt>
      <trkpt lat="47.3347" lon="-2.36785">
        <ele>7</ele>
        <time>2021-11-25T09:11:28.000Z</time>
      </trkpt>
      <trkpt lat="47.33467" lon="-2.36811">
        <ele>7</ele>
        <time>2021-11-25T09:11:32.000Z</time>
      </trkpt>
      <trkpt lat="47.33462" lon="-2.36845">
        <ele>7</ele>
        <time>2021-11-25T09:11:38.000Z</time>
      </trkpt>
      <trkpt lat="47.33451" lon="-2.36864">
        <ele>7</ele>
        <time>2021-11-25T09:11:43.000Z</time>
      </trkpt>
      <trkpt lat="47.33449" lon="-2.36874">
        <ele>7.4000000953674</ele>
        <time>2021-11-25T09:11:46.000Z</time>
      </trkpt>
      <trkpt lat="47.33449" lon="-2.36878">
        <ele>7.8000001907349</ele>
        <time>2021-11-25T09:11:47.000Z</time>
      </trkpt>
      <trkpt lat="47.33448" lon="-2.36883">
        <ele>8.1999998092651</ele>
        <time>2021-11-25T09:11:48.000Z</time>
      </trkpt>
      <trkpt lat="47.33448" lon="-2.36888">
        <ele>8.6000003814697</ele>
        <time>2021-11-25T09:11:49.000Z</time>
      </trkpt>
      <trkpt lat="47.33449" lon="-2.36892">
        <ele>9</ele>
        <time>2021-11-25T09:11:50.000Z</time>
      </trkpt>
      <trkpt lat="47.33452" lon="-2.36908">
        <ele>9</ele>
        <time>2021-11-25T09:11:53.000Z</time>
      </trkpt>
      <trkpt lat="47.33454" lon="-2.36942">
        <ele>9</ele>
        <time>2021-11-25T09:11:59.000Z</time>
      </trkpt>
      <trkpt lat="47.33455" lon="-2.36951">
        <ele>9</ele>
        <time>2021-11-25T09:12:00.000Z</time>
      </trkpt>
      <trkpt lat="47.33458" lon="-2.36965">
        <ele>9</ele>
        <time>2021-11-25T09:12:02.000Z</time>
      </trkpt>
      <trkpt lat="47.33469" lon="-2.36986">
        <ele>9</ele>
        <time>2021-11-25T09:12:06.000Z</time>
      </trkpt>
      <trkpt lat="47.33476" lon="-2.37004">
        <ele>9</ele>
        <time>2021-11-25T09:12:10.000Z</time>
      </trkpt>
      <trkpt lat="47.33476" lon="-2.37025">
        <ele>9</ele>
        <time>2021-11-25T09:12:13.000Z</time>
      </trkpt>
      <trkpt lat="47.33475" lon="-2.37039">
        <ele>9</ele>
        <time>2021-11-25T09:12:15.000Z</time>
      </trkpt>
      <trkpt lat="47.33474" lon="-2.37065">
        <ele>9</ele>
        <time>2021-11-25T09:12:18.000Z</time>
      </trkpt>
      <trkpt lat="47.33475" lon="-2.37089">
        <ele>9</ele>
        <time>2021-11-25T09:12:21.000Z</time>
      </trkpt>
      <trkpt lat="47.33478" lon="-2.37111">
        <ele>9</ele>
        <time>2021-11-25T09:12:24.000Z</time>
      </trkpt>
      <trkpt lat="47.33479" lon="-2.37117">
        <ele>9.3999996185303</ele>
        <time>2021-11-25T09:12:25.000Z</time>
      </trkpt>
      <trkpt lat="47.3348" lon="-2.37123">
        <ele>9.8000001907349</ele>
        <time>2021-11-25T09:12:26.000Z</time>
      </trkpt>
      <trkpt lat="47.33481" lon="-2.3713">
        <ele>10.199999809265</ele>
        <time>2021-11-25T09:12:27.000Z</time>
      </trkpt>
      <trkpt lat="47.33481" lon="-2.37136">
        <ele>10.60000038147</ele>
        <time>2021-11-25T09:12:28.000Z</time>
      </trkpt>
      <trkpt lat="47.33482" lon="-2.37143">
        <ele>11.199999809265</ele>
        <time>2021-11-25T09:12:29.000Z</time>
      </trkpt>
      <trkpt lat="47.33486" lon="-2.37162">
        <ele>11.199999809265</ele>
        <time>2021-11-25T09:12:32.000Z</time>
      </trkpt>
      <trkpt lat="47.33486" lon="-2.37169">
        <ele>11.199999809265</ele>
        <time>2021-11-25T09:12:33.000Z</time>
      </trkpt>
      <trkpt lat="47.3349" lon="-2.37196">
        <ele>11.60000038147</ele>
        <time>2021-11-25T09:12:37.000Z</time>
      </trkpt>
      <trkpt lat="47.33491" lon="-2.37203">
        <ele>12</ele>
        <time>2021-11-25T09:12:38.000Z</time>
      </trkpt>
      <trkpt lat="47.33493" lon="-2.3721">
        <ele>12.39999961853</ele>
        <time>2021-11-25T09:12:39.000Z</time>
      </trkpt>
      <trkpt lat="47.33495" lon="-2.37216">
        <ele>12.800000190735</ele>
        <time>2021-11-25T09:12:40.000Z</time>
      </trkpt>
      <trkpt lat="47.33496" lon="-2.37221">
        <ele>13.199999809265</ele>
        <time>2021-11-25T09:12:41.000Z</time>
      </trkpt>
      <trkpt lat="47.33499" lon="-2.37225">
        <ele>13.199999809265</ele>
        <time>2021-11-25T09:12:42.000Z</time>
      </trkpt>
      <trkpt lat="47.3351" lon="-2.3723">
        <ele>13.199999809265</ele>
        <time>2021-11-25T09:12:45.000Z</time>
      </trkpt>
      <trkpt lat="47.33525" lon="-2.37231">
        <ele>13.60000038147</ele>
        <time>2021-11-25T09:12:49.000Z</time>
      </trkpt>
      <trkpt lat="47.33529" lon="-2.37231">
        <ele>14</ele>
        <time>2021-11-25T09:12:50.000Z</time>
      </trkpt>
      <trkpt lat="47.33532" lon="-2.37231">
        <ele>14.60000038147</ele>
        <time>2021-11-25T09:12:51.000Z</time>
      </trkpt>
      <trkpt lat="47.33535" lon="-2.37231">
        <ele>15</ele>
        <time>2021-11-25T09:12:52.000Z</time>
      </trkpt>
      <trkpt lat="47.33538" lon="-2.3723">
        <ele>15.39999961853</ele>
        <time>2021-11-25T09:12:53.000Z</time>
      </trkpt>
      <trkpt lat="47.33549" lon="-2.37229">
        <ele>15.39999961853</ele>
        <time>2021-11-25T09:12:56.000Z</time>
      </trkpt>
      <trkpt lat="47.33569" lon="-2.37231">
        <ele>15.800000190735</ele>
        <time>2021-11-25T09:13:02.000Z</time>
      </trkpt>
      <trkpt lat="47.33571" lon="-2.37231">
        <ele>16.200000762939</ele>
        <time>2021-11-25T09:13:03.000Z</time>
      </trkpt>
      <trkpt lat="47.33574" lon="-2.37232">
        <ele>16.60000038147</ele>
        <time>2021-11-25T09:13:04.000Z</time>
      </trkpt>
      <trkpt lat="47.33577" lon="-2.37232">
        <ele>17</ele>
        <time>2021-11-25T09:13:05.000Z</time>
      </trkpt>
      <trkpt lat="47.3358" lon="-2.37232">
        <ele>17.39999961853</ele>
        <time>2021-11-25T09:13:06.000Z</time>
      </trkpt>
      <trkpt lat="47.33591" lon="-2.3723">
        <ele>17.39999961853</ele>
        <time>2021-11-25T09:13:10.000Z</time>
      </trkpt>
      <trkpt lat="47.33596" lon="-2.37226">
        <ele>17.39999961853</ele>
        <time>2021-11-25T09:13:12.000Z</time>
      </trkpt>
      <trkpt lat="47.33596" lon="-2.37222">
        <ele>17.39999961853</ele>
        <time>2021-11-25T09:13:13.000Z</time>
      </trkpt>
      <trkpt lat="47.33596" lon="-2.37201">
        <ele>17.39999961853</ele>
        <time>2021-11-25T09:13:17.000Z</time>
      </trkpt>
      <trkpt lat="47.33597" lon="-2.37195">
        <ele>17.39999961853</ele>
        <time>2021-11-25T09:13:18.000Z</time>
      </trkpt>
      <trkpt lat="47.336" lon="-2.37163">
        <ele>17.39999961853</ele>
        <time>2021-11-25T09:13:23.000Z</time>
      </trkpt>
      <trkpt lat="47.33601" lon="-2.37156">
        <ele>17.39999961853</ele>
        <time>2021-11-25T09:13:24.000Z</time>
      </trkpt>
      <trkpt lat="47.33602" lon="-2.37109">
        <ele>17.39999961853</ele>
        <time>2021-11-25T09:13:31.000Z</time>
      </trkpt>
      <trkpt lat="47.33602" lon="-2.37082">
        <ele>17.39999961853</ele>
        <time>2021-11-25T09:13:35.000Z</time>
      </trkpt>
      <trkpt lat="47.33603" lon="-2.37061">
        <ele>17.39999961853</ele>
        <time>2021-11-25T09:13:38.000Z</time>
      </trkpt>
      <trkpt lat="47.33602" lon="-2.36996">
        <ele>17.39999961853</ele>
        <time>2021-11-25T09:13:47.000Z</time>
      </trkpt>
      <trkpt lat="47.33604" lon="-2.36967">
        <ele>17.39999961853</ele>
        <time>2021-11-25T09:13:51.000Z</time>
      </trkpt>
      <trkpt lat="47.33607" lon="-2.36951">
        <ele>17.39999961853</ele>
        <time>2021-11-25T09:13:53.000Z</time>
      </trkpt>
      <trkpt lat="47.3362" lon="-2.36925">
        <ele>17.39999961853</ele>
        <time>2021-11-25T09:13:57.000Z</time>
      </trkpt>
      <trkpt lat="47.33629" lon="-2.36915">
        <ele>17.39999961853</ele>
        <time>2021-11-25T09:13:59.000Z</time>
      </trkpt>
      <trkpt lat="47.33653" lon="-2.36884">
        <ele>17.39999961853</ele>
        <time>2021-11-25T09:14:05.000Z</time>
      </trkpt>
      <trkpt lat="47.33684" lon="-2.36845">
        <ele>17.39999961853</ele>
        <time>2021-11-25T09:14:13.000Z</time>
      </trkpt>
      <trkpt lat="47.33711" lon="-2.36818">
        <ele>17.39999961853</ele>
        <time>2021-11-25T09:14:20.000Z</time>
      </trkpt>
      <trkpt lat="47.33728" lon="-2.3681">
        <ele>17.39999961853</ele>
        <time>2021-11-25T09:14:24.000Z</time>
      </trkpt>
      <trkpt lat="47.33741" lon="-2.36806">
        <ele>17.39999961853</ele>
        <time>2021-11-25T09:14:27.000Z</time>
      </trkpt>
      <trkpt lat="47.33776" lon="-2.36794">
        <ele>17.39999961853</ele>
        <time>2021-11-25T09:14:34.000Z</time>
      </trkpt>
      <trkpt lat="47.33822" lon="-2.3678">
        <ele>17.39999961853</ele>
        <time>2021-11-25T09:14:42.000Z</time>
      </trkpt>
      <trkpt lat="47.33844" lon="-2.36773">
        <ele>17.39999961853</ele>
        <time>2021-11-25T09:14:46.000Z</time>
      </trkpt>
      <trkpt lat="47.33859" lon="-2.36769">
        <ele>17.39999961853</ele>
        <time>2021-11-25T09:14:49.000Z</time>
      </trkpt>
      <trkpt lat="47.33892" lon="-2.36761">
        <ele>17.39999961853</ele>
        <time>2021-11-25T09:14:56.000Z</time>
      </trkpt>
      <trkpt lat="47.3391" lon="-2.36755">
        <ele>17.39999961853</ele>
        <time>2021-11-25T09:15:02.000Z</time>
      </trkpt>
      <trkpt lat="47.33914" lon="-2.36751">
        <ele>17.39999961853</ele>
        <time>2021-11-25T09:15:06.000Z</time>
      </trkpt>
      <trkpt lat="47.33916" lon="-2.36752">
        <ele>17.39999961853</ele>
        <time>2021-11-25T09:15:07.000Z</time>
      </trkpt>
      <trkpt lat="47.33926" lon="-2.36758">
        <ele>17.39999961853</ele>
        <time>2021-11-25T09:15:11.000Z</time>
      </trkpt>
      <trkpt lat="47.33937" lon="-2.36756">
        <ele>17.39999961853</ele>
        <time>2021-11-25T09:15:14.000Z</time>
      </trkpt>
      <trkpt lat="47.33941" lon="-2.36755">
        <ele>17.39999961853</ele>
        <time>2021-11-25T09:15:15.000Z</time>
      </trkpt>
      <trkpt lat="47.3397" lon="-2.36748">
        <ele>17.39999961853</ele>
        <time>2021-11-25T09:15:21.000Z</time>
      </trkpt>
      <trkpt lat="47.33993" lon="-2.36741">
        <ele>17</ele>
        <time>2021-11-25T09:15:25.000Z</time>
      </trkpt>
      <trkpt lat="47.33998" lon="-2.36738">
        <ele>16.60000038147</ele>
        <time>2021-11-25T09:15:26.000Z</time>
      </trkpt>
      <trkpt lat="47.34005" lon="-2.36736">
        <ele>16.200000762939</ele>
        <time>2021-11-25T09:15:27.000Z</time>
      </trkpt>
      <trkpt lat="47.34011" lon="-2.36734">
        <ele>15.800000190735</ele>
        <time>2021-11-25T09:15:28.000Z</time>
      </trkpt>
      <trkpt lat="47.34017" lon="-2.36731">
        <ele>15.39999961853</ele>
        <time>2021-11-25T09:15:29.000Z</time>
      </trkpt>
      <trkpt lat="47.3404" lon="-2.36717">
        <ele>15.39999961853</ele>
        <time>2021-11-25T09:15:33.000Z</time>
      </trkpt>
      <trkpt lat="47.34056" lon="-2.36708">
        <ele>15</ele>
        <time>2021-11-25T09:15:36.000Z</time>
      </trkpt>
      <trkpt lat="47.34062" lon="-2.36705">
        <ele>14.199999809265</ele>
        <time>2021-11-25T09:15:37.000Z</time>
      </trkpt>
      <trkpt lat="47.34067" lon="-2.36702">
        <ele>13.60000038147</ele>
        <time>2021-11-25T09:15:38.000Z</time>
      </trkpt>
      <trkpt lat="47.34072" lon="-2.36701">
        <ele>13.199999809265</ele>
        <time>2021-11-25T09:15:39.000Z</time>
      </trkpt>
      <trkpt lat="47.34084" lon="-2.36709">
        <ele>13.199999809265</ele>
        <time>2021-11-25T09:15:42.000Z</time>
      </trkpt>
      <trkpt lat="47.34089" lon="-2.3673">
        <ele>13.199999809265</ele>
        <time>2021-11-25T09:15:45.000Z</time>
      </trkpt>
      <trkpt lat="47.34091" lon="-2.36738">
        <ele>13.199999809265</ele>
        <time>2021-11-25T09:15:46.000Z</time>
      </trkpt>
      <trkpt lat="47.34101" lon="-2.368">
        <ele>13.199999809265</ele>
        <time>2021-11-25T09:15:53.000Z</time>
      </trkpt>
      <trkpt lat="47.34107" lon="-2.36828">
        <ele>12.800000190735</ele>
        <time>2021-11-25T09:15:56.000Z</time>
      </trkpt>
      <trkpt lat="47.34109" lon="-2.36838">
        <ele>12.39999961853</ele>
        <time>2021-11-25T09:15:57.000Z</time>
      </trkpt>
      <trkpt lat="47.34111" lon="-2.36848">
        <ele>12</ele>
        <time>2021-11-25T09:15:58.000Z</time>
      </trkpt>
      <trkpt lat="47.34113" lon="-2.36858">
        <ele>11.60000038147</ele>
        <time>2021-11-25T09:15:59.000Z</time>
      </trkpt>
      <trkpt lat="47.34116" lon="-2.36868">
        <ele>11.199999809265</ele>
        <time>2021-11-25T09:16:00.000Z</time>
      </trkpt>
      <trkpt lat="47.3412" lon="-2.36877">
        <ele>11.199999809265</ele>
        <time>2021-11-25T09:16:01.000Z</time>
      </trkpt>
      <trkpt lat="47.34141" lon="-2.36914">
        <ele>11.199999809265</ele>
        <time>2021-11-25T09:16:06.000Z</time>
      </trkpt>
      <trkpt lat="47.34164" lon="-2.36954">
        <ele>11.199999809265</ele>
        <time>2021-11-25T09:16:12.000Z</time>
      </trkpt>
      <trkpt lat="47.34183" lon="-2.3698">
        <ele>11.199999809265</ele>
        <time>2021-11-25T09:16:18.000Z</time>
      </trkpt>
      <trkpt lat="47.34192" lon="-2.36992">
        <ele>11.199999809265</ele>
        <time>2021-11-25T09:16:23.000Z</time>
      </trkpt>
      <trkpt lat="47.34193" lon="-2.36994">
        <ele>11.60000038147</ele>
        <time>2021-11-25T09:16:24.000Z</time>
      </trkpt>
      <trkpt lat="47.34193" lon="-2.36996">
        <ele>12</ele>
        <time>2021-11-25T09:16:25.000Z</time>
      </trkpt>
      <trkpt lat="47.34194" lon="-2.36998">
        <ele>12.800000190735</ele>
        <time>2021-11-25T09:16:26.000Z</time>
      </trkpt>
      <trkpt lat="47.34195" lon="-2.37">
        <ele>13.199999809265</ele>
        <time>2021-11-25T09:16:27.000Z</time>
      </trkpt>
      <trkpt lat="47.34196" lon="-2.37001">
        <ele>13.199999809265</ele>
        <time>2021-11-25T09:16:28.000Z</time>
      </trkpt>
      <trkpt lat="47.34197" lon="-2.37003">
        <ele>13.199999809265</ele>
        <time>2021-11-25T09:16:29.000Z</time>
      </trkpt>
      <trkpt lat="47.34211" lon="-2.3702">
        <ele>13.199999809265</ele>
        <time>2021-11-25T09:16:35.000Z</time>
      </trkpt>
      <trkpt lat="47.34221" lon="-2.37037">
        <ele>13.60000038147</ele>
        <time>2021-11-25T09:16:39.000Z</time>
      </trkpt>
      <trkpt lat="47.34223" lon="-2.37041">
        <ele>14</ele>
        <time>2021-11-25T09:16:40.000Z</time>
      </trkpt>
      <trkpt lat="47.34226" lon="-2.37046">
        <ele>14.39999961853</ele>
        <time>2021-11-25T09:16:41.000Z</time>
      </trkpt>
      <trkpt lat="47.34228" lon="-2.3705">
        <ele>14.800000190735</ele>
        <time>2021-11-25T09:16:42.000Z</time>
      </trkpt>
      <trkpt lat="47.3423" lon="-2.37055">
        <ele>15.39999961853</ele>
        <time>2021-11-25T09:16:43.000Z</time>
      </trkpt>
      <trkpt lat="47.34236" lon="-2.3706">
        <ele>15.39999961853</ele>
        <time>2021-11-25T09:16:45.000Z</time>
      </trkpt>
      <trkpt lat="47.34239" lon="-2.3706">
        <ele>15.39999961853</ele>
        <time>2021-11-25T09:16:46.000Z</time>
      </trkpt>
      <trkpt lat="47.34258" lon="-2.37049">
        <ele>15.39999961853</ele>
        <time>2021-11-25T09:16:51.000Z</time>
      </trkpt>
      <trkpt lat="47.34286" lon="-2.37023">
        <ele>15.39999961853</ele>
        <time>2021-11-25T09:16:58.000Z</time>
      </trkpt>
      <trkpt lat="47.34315" lon="-2.36988">
        <ele>15.39999961853</ele>
        <time>2021-11-25T09:17:05.000Z</time>
      </trkpt>
      <trkpt lat="47.3434" lon="-2.36951">
        <ele>15.39999961853</ele>
        <time>2021-11-25T09:17:12.000Z</time>
      </trkpt>
      <trkpt lat="47.34366" lon="-2.36908">
        <ele>15.39999961853</ele>
        <time>2021-11-25T09:17:19.000Z</time>
      </trkpt>
      <trkpt lat="47.34387" lon="-2.36872">
        <ele>15.39999961853</ele>
        <time>2021-11-25T09:17:25.000Z</time>
      </trkpt>
      <trkpt lat="47.34425" lon="-2.36811">
        <ele>15.39999961853</ele>
        <time>2021-11-25T09:17:35.000Z</time>
      </trkpt>
      <trkpt lat="47.34461" lon="-2.36755">
        <ele>15.39999961853</ele>
        <time>2021-11-25T09:17:44.000Z</time>
      </trkpt>
      <trkpt lat="47.34488" lon="-2.36705">
        <ele>15.39999961853</ele>
        <time>2021-11-25T09:17:51.000Z</time>
      </trkpt>
      <trkpt lat="47.34492" lon="-2.36698">
        <ele>14.800000190735</ele>
        <time>2021-11-25T09:17:52.000Z</time>
      </trkpt>
      <trkpt lat="47.34496" lon="-2.3669">
        <ele>14.39999961853</ele>
        <time>2021-11-25T09:17:53.000Z</time>
      </trkpt>
      <trkpt lat="47.34499" lon="-2.36682">
        <ele>14</ele>
        <time>2021-11-25T09:17:54.000Z</time>
      </trkpt>
      <trkpt lat="47.34503" lon="-2.36674">
        <ele>13.60000038147</ele>
        <time>2021-11-25T09:17:55.000Z</time>
      </trkpt>
      <trkpt lat="47.34506" lon="-2.36666">
        <ele>13.199999809265</ele>
        <time>2021-11-25T09:17:56.000Z</time>
      </trkpt>
      <trkpt lat="47.3451" lon="-2.36658">
        <ele>13.199999809265</ele>
        <time>2021-11-25T09:17:57.000Z</time>
      </trkpt>
      <trkpt lat="47.34532" lon="-2.36605">
        <ele>12.800000190735</ele>
        <time>2021-11-25T09:18:03.000Z</time>
      </trkpt>
      <trkpt lat="47.34535" lon="-2.36596">
        <ele>12</ele>
        <time>2021-11-25T09:18:04.000Z</time>
      </trkpt>
      <trkpt lat="47.34538" lon="-2.36588">
        <ele>11.60000038147</ele>
        <time>2021-11-25T09:18:05.000Z</time>
      </trkpt>
      <trkpt lat="47.34541" lon="-2.36579">
        <ele>11.199999809265</ele>
        <time>2021-11-25T09:18:06.000Z</time>
      </trkpt>
      <trkpt lat="47.34563" lon="-2.36518">
        <ele>11.199999809265</ele>
        <time>2021-11-25T09:18:13.000Z</time>
      </trkpt>
      <trkpt lat="47.34573" lon="-2.36492">
        <ele>10.800000190735</ele>
        <time>2021-11-25T09:18:16.000Z</time>
      </trkpt>
      <trkpt lat="47.34576" lon="-2.36483">
        <ele>10.199999809265</ele>
        <time>2021-11-25T09:18:17.000Z</time>
      </trkpt>
      <trkpt lat="47.34579" lon="-2.36475">
        <ele>9.8000001907349</ele>
        <time>2021-11-25T09:18:18.000Z</time>
      </trkpt>
      <trkpt lat="47.34582" lon="-2.36467">
        <ele>9.3999996185303</ele>
        <time>2021-11-25T09:18:19.000Z</time>
      </trkpt>
      <trkpt lat="47.34585" lon="-2.3646">
        <ele>9</ele>
        <time>2021-11-25T09:18:20.000Z</time>
      </trkpt>
      <trkpt lat="47.34588" lon="-2.36454">
        <ele>9</ele>
        <time>2021-11-25T09:18:21.000Z</time>
      </trkpt>
      <trkpt lat="47.3459" lon="-2.36448">
        <ele>9</ele>
        <time>2021-11-25T09:18:22.000Z</time>
      </trkpt>
      <trkpt lat="47.34588" lon="-2.36435">
        <ele>9</ele>
        <time>2021-11-25T09:18:24.000Z</time>
      </trkpt>
      <trkpt lat="47.34578" lon="-2.36417">
        <ele>9</ele>
        <time>2021-11-25T09:18:27.000Z</time>
      </trkpt>
      <trkpt lat="47.34574" lon="-2.36411">
        <ele>9</ele>
        <time>2021-11-25T09:18:28.000Z</time>
      </trkpt>
      <trkpt lat="47.34551" lon="-2.36373">
        <ele>9</ele>
        <time>2021-11-25T09:18:33.000Z</time>
      </trkpt>
      <trkpt lat="47.34547" lon="-2.36364">
        <ele>8.6000003814697</ele>
        <time>2021-11-25T09:18:34.000Z</time>
      </trkpt>
      <trkpt lat="47.34544" lon="-2.36355">
        <ele>8.1999998092651</ele>
        <time>2021-11-25T09:18:35.000Z</time>
      </trkpt>
      <trkpt lat="47.34541" lon="-2.36345">
        <ele>7.8000001907349</ele>
        <time>2021-11-25T09:18:36.000Z</time>
      </trkpt>
      <trkpt lat="47.34538" lon="-2.36336">
        <ele>7.4000000953674</ele>
        <time>2021-11-25T09:18:37.000Z</time>
      </trkpt>
      <trkpt lat="47.34535" lon="-2.36326">
        <ele>7</ele>
        <time>2021-11-25T09:18:38.000Z</time>
      </trkpt>
      <trkpt lat="47.34516" lon="-2.36272">
        <ele>7</ele>
        <time>2021-11-25T09:18:44.000Z</time>
      </trkpt>
      <trkpt lat="47.345" lon="-2.36226">
        <ele>7</ele>
        <time>2021-11-25T09:18:49.000Z</time>
      </trkpt>
      <trkpt lat="47.34495" lon="-2.36218">
        <ele>7</ele>
        <time>2021-11-25T09:18:50.000Z</time>
      </trkpt>
      <trkpt lat="47.34465" lon="-2.36162">
        <ele>7</ele>
        <time>2021-11-25T09:18:57.000Z</time>
      </trkpt>
      <trkpt lat="47.34462" lon="-2.36154">
        <ele>7</ele>
        <time>2021-11-25T09:18:58.000Z</time>
      </trkpt>
      <trkpt lat="47.34454" lon="-2.36133">
        <ele>7</ele>
        <time>2021-11-25T09:19:01.000Z</time>
      </trkpt>
      <trkpt lat="47.34448" lon="-2.36117">
        <ele>7</ele>
        <time>2021-11-25T09:19:03.000Z</time>
      </trkpt>
      <trkpt lat="47.3444" lon="-2.36097">
        <ele>7</ele>
        <time>2021-11-25T09:19:06.000Z</time>
      </trkpt>
      <trkpt lat="47.34432" lon="-2.36076">
        <ele>7</ele>
        <time>2021-11-25T09:19:09.000Z</time>
      </trkpt>
      <trkpt lat="47.34428" lon="-2.36062">
        <ele>7</ele>
        <time>2021-11-25T09:19:11.000Z</time>
      </trkpt>
      <trkpt lat="47.34416" lon="-2.36021">
        <ele>7</ele>
        <time>2021-11-25T09:19:17.000Z</time>
      </trkpt>
      <trkpt lat="47.3441" lon="-2.36003">
        <ele>7</ele>
        <time>2021-11-25T09:19:20.000Z</time>
      </trkpt>
      <trkpt lat="47.34412" lon="-2.35997">
        <ele>7</ele>
        <time>2021-11-25T09:19:21.000Z</time>
      </trkpt>
      <trkpt lat="47.34421" lon="-2.35986">
        <ele>7</ele>
        <time>2021-11-25T09:19:24.000Z</time>
      </trkpt>
      <trkpt lat="47.34426" lon="-2.35982">
        <ele>7</ele>
        <time>2021-11-25T09:19:25.000Z</time>
      </trkpt>
      <trkpt lat="47.34445" lon="-2.35967">
        <ele>7</ele>
        <time>2021-11-25T09:19:29.000Z</time>
      </trkpt>
      <trkpt lat="47.34481" lon="-2.3594">
        <ele>7</ele>
        <time>2021-11-25T09:19:36.000Z</time>
      </trkpt>
      <trkpt lat="47.34511" lon="-2.35927">
        <ele>6.5999999046326</ele>
        <time>2021-11-25T09:19:41.000Z</time>
      </trkpt>
      <trkpt lat="47.34517" lon="-2.35925">
        <ele>6.1999998092651</ele>
        <time>2021-11-25T09:19:42.000Z</time>
      </trkpt>
      <trkpt lat="47.34522" lon="-2.35922">
        <ele>5.8000001907349</ele>
        <time>2021-11-25T09:19:43.000Z</time>
      </trkpt>
      <trkpt lat="47.34528" lon="-2.3592">
        <ele>5.4000000953674</ele>
        <time>2021-11-25T09:19:44.000Z</time>
      </trkpt>
      <trkpt lat="47.34534" lon="-2.35917">
        <ele>4.8000001907349</ele>
        <time>2021-11-25T09:19:45.000Z</time>
      </trkpt>
      <trkpt lat="47.34564" lon="-2.35904">
        <ele>4.8000001907349</ele>
        <time>2021-11-25T09:19:50.000Z</time>
      </trkpt>
      <trkpt lat="47.34576" lon="-2.35896">
        <ele>4.4000000953674</ele>
        <time>2021-11-25T09:19:52.000Z</time>
      </trkpt>
      <trkpt lat="47.34582" lon="-2.35892">
        <ele>4</ele>
        <time>2021-11-25T09:19:53.000Z</time>
      </trkpt>
      <trkpt lat="47.34588" lon="-2.35887">
        <ele>3.5999999046326</ele>
        <time>2021-11-25T09:19:54.000Z</time>
      </trkpt>
      <trkpt lat="47.34593" lon="-2.35883">
        <ele>3.2000000476837</ele>
        <time>2021-11-25T09:19:55.000Z</time>
      </trkpt>
      <trkpt lat="47.34599" lon="-2.35878">
        <ele>2.7999999523163</ele>
        <time>2021-11-25T09:19:56.000Z</time>
      </trkpt>
      <trkpt lat="47.34633" lon="-2.35851">
        <ele>2.7999999523163</ele>
        <time>2021-11-25T09:20:03.000Z</time>
      </trkpt>
      <trkpt lat="47.34648" lon="-2.35837">
        <ele>2.7999999523163</ele>
        <time>2021-11-25T09:20:07.000Z</time>
      </trkpt>
      <trkpt lat="47.34675" lon="-2.35815">
        <ele>2.7999999523163</ele>
        <time>2021-11-25T09:20:13.000Z</time>
      </trkpt>
      <trkpt lat="47.34706" lon="-2.3579">
        <ele>2.7999999523163</ele>
        <time>2021-11-25T09:20:20.000Z</time>
      </trkpt>
      <trkpt lat="47.34731" lon="-2.35767">
        <ele>2.7999999523163</ele>
        <time>2021-11-25T09:20:26.000Z</time>
      </trkpt>
      <trkpt lat="47.34753" lon="-2.35754">
        <ele>2.7999999523163</ele>
        <time>2021-11-25T09:20:32.000Z</time>
      </trkpt>
      <trkpt lat="47.34776" lon="-2.35744">
        <ele>2.7999999523163</ele>
        <time>2021-11-25T09:20:38.000Z</time>
      </trkpt>
      <trkpt lat="47.348" lon="-2.35733">
        <ele>2.7999999523163</ele>
        <time>2021-11-25T09:20:44.000Z</time>
      </trkpt>
      <trkpt lat="47.34813" lon="-2.35727">
        <ele>2.7999999523163</ele>
        <time>2021-11-25T09:20:47.000Z</time>
      </trkpt>
      <trkpt lat="47.34825" lon="-2.35721">
        <ele>2.7999999523163</ele>
        <time>2021-11-25T09:20:50.000Z</time>
      </trkpt>
      <trkpt lat="47.3484" lon="-2.35713">
        <ele>2.7999999523163</ele>
        <time>2021-11-25T09:20:54.000Z</time>
      </trkpt>
      <trkpt lat="47.34843" lon="-2.35709">
        <ele>2.7999999523163</ele>
        <time>2021-11-25T09:20:55.000Z</time>
      </trkpt>
      <trkpt lat="47.34852" lon="-2.35685">
        <ele>2.7999999523163</ele>
        <time>2021-11-25T09:20:59.000Z</time>
      </trkpt>
      <trkpt lat="47.34856" lon="-2.35664">
        <ele>2.7999999523163</ele>
        <time>2021-11-25T09:21:04.000Z</time>
      </trkpt>
      <trkpt lat="47.34847" lon="-2.3566">
        <ele>2.7999999523163</ele>
        <time>2021-11-25T09:21:07.000Z</time>
      </trkpt>
      <trkpt lat="47.34826" lon="-2.35647">
        <ele>2.7999999523163</ele>
        <time>2021-11-25T09:21:12.000Z</time>
      </trkpt>
      <trkpt lat="47.34793" lon="-2.35618">
        <ele>2.7999999523163</ele>
        <time>2021-11-25T09:21:19.000Z</time>
      </trkpt>
      <trkpt lat="47.34759" lon="-2.35578">
        <ele>2.7999999523163</ele>
        <time>2021-11-25T09:21:26.000Z</time>
      </trkpt>
      <trkpt lat="47.34728" lon="-2.35533">
        <ele>2.7999999523163</ele>
        <time>2021-11-25T09:21:32.000Z</time>
      </trkpt>
      <trkpt lat="47.34694" lon="-2.35473">
        <ele>2.7999999523163</ele>
        <time>2021-11-25T09:21:40.000Z</time>
      </trkpt>
      <trkpt lat="47.34673" lon="-2.35441">
        <ele>2.4000000953674</ele>
        <time>2021-11-25T09:21:45.000Z</time>
      </trkpt>
      <trkpt lat="47.34669" lon="-2.35435">
        <ele>2</ele>
        <time>2021-11-25T09:21:46.000Z</time>
      </trkpt>
      <trkpt lat="47.34665" lon="-2.35429">
        <ele>1.6000000238419</ele>
        <time>2021-11-25T09:21:47.000Z</time>
      </trkpt>
      <trkpt lat="47.34662" lon="-2.35425">
        <ele>1.2000000476837</ele>
        <time>2021-11-25T09:21:48.000Z</time>
      </trkpt>
      <trkpt lat="47.34658" lon="-2.3542">
        <ele>0.80000001192093</ele>
        <time>2021-11-25T09:21:49.000Z</time>
      </trkpt>
      <trkpt lat="47.3465" lon="-2.35408">
        <ele>0.80000001192093</ele>
        <time>2021-11-25T09:21:52.000Z</time>
      </trkpt>
      <trkpt lat="47.34654" lon="-2.35404">
        <ele>0.80000001192093</ele>
        <time>2021-11-25T09:21:54.000Z</time>
      </trkpt>
      <trkpt lat="47.34665" lon="-2.35402">
        <ele>0.80000001192093</ele>
        <time>2021-11-25T09:21:58.000Z</time>
      </trkpt>
      <trkpt lat="47.34678" lon="-2.35399">
        <ele>0.80000001192093</ele>
        <time>2021-11-25T09:22:02.000Z</time>
      </trkpt>
      <trkpt lat="47.34682" lon="-2.35399">
        <ele>0.80000001192093</ele>
        <time>2021-11-25T09:22:03.000Z</time>
      </trkpt>
      <trkpt lat="47.34698" lon="-2.35397">
        <ele>0.80000001192093</ele>
        <time>2021-11-25T09:22:08.000Z</time>
      </trkpt>
      <trkpt lat="47.34711" lon="-2.35383">
        <ele>1.2000000476837</ele>
        <time>2021-11-25T09:22:14.000Z</time>
      </trkpt>
      <trkpt lat="47.34713" lon="-2.3538">
        <ele>1.6000000238419</ele>
        <time>2021-11-25T09:22:15.000Z</time>
      </trkpt>
      <trkpt lat="47.34714" lon="-2.35378">
        <ele>2</ele>
        <time>2021-11-25T09:22:16.000Z</time>
      </trkpt>
      <trkpt lat="47.34716" lon="-2.35375">
        <ele>2.4000000953674</ele>
        <time>2021-11-25T09:22:17.000Z</time>
      </trkpt>
      <trkpt lat="47.34717" lon="-2.35372">
        <ele>2.7999999523163</ele>
        <time>2021-11-25T09:22:18.000Z</time>
      </trkpt>
      <trkpt lat="47.34718" lon="-2.3537">
        <ele>2.7999999523163</ele>
        <time>2021-11-25T09:22:19.000Z</time>
      </trkpt>
      <trkpt lat="47.34719" lon="-2.35363">
        <ele>2.7999999523163</ele>
        <time>2021-11-25T09:22:21.000Z</time>
      </trkpt>
      <trkpt lat="47.34721" lon="-2.35357">
        <ele>2.7999999523163</ele>
        <time>2021-11-25T09:22:23.000Z</time>
      </trkpt>
      <trkpt lat="47.34723" lon="-2.35339">
        <ele>2.7999999523163</ele>
        <time>2021-11-25T09:22:29.000Z</time>
      </trkpt>
      <trkpt lat="47.34728" lon="-2.35317">
        <ele>2.7999999523163</ele>
        <time>2021-11-25T09:22:35.000Z</time>
      </trkpt>
      <trkpt lat="47.34736" lon="-2.35292">
        <ele>2.7999999523163</ele>
        <time>2021-11-25T09:22:40.000Z</time>
      </trkpt>
      <trkpt lat="47.34737" lon="-2.35285">
        <ele>2.7999999523163</ele>
        <time>2021-11-25T09:22:41.000Z</time>
      </trkpt>
      <trkpt lat="47.34739" lon="-2.35273">
        <ele>2.4000000953674</ele>
        <time>2021-11-25T09:22:43.000Z</time>
      </trkpt>
      <trkpt lat="47.3474" lon="-2.35265">
        <ele>2</ele>
        <time>2021-11-25T09:22:44.000Z</time>
      </trkpt>
      <trkpt lat="47.34741" lon="-2.35258">
        <ele>1.3999999761581</ele>
        <time>2021-11-25T09:22:45.000Z</time>
      </trkpt>
      <trkpt lat="47.34743" lon="-2.35251">
        <ele>1</ele>
        <time>2021-11-25T09:22:46.000Z</time>
      </trkpt>
      <trkpt lat="47.34745" lon="-2.35244">
        <ele>0.60000002384186</ele>
        <time>2021-11-25T09:22:47.000Z</time>
      </trkpt>
      <trkpt lat="47.34749" lon="-2.35223">
        <ele>0.60000002384186</ele>
        <time>2021-11-25T09:22:50.000Z</time>
      </trkpt>
      <trkpt lat="47.34751" lon="-2.35204">
        <ele>0.60000002384186</ele>
        <time>2021-11-25T09:22:53.000Z</time>
      </trkpt>
      <trkpt lat="47.34753" lon="-2.35197">
        <ele>0.60000002384186</ele>
        <time>2021-11-25T09:22:54.000Z</time>
      </trkpt>
      <trkpt lat="47.34755" lon="-2.35174">
        <ele>0.60000002384186</ele>
        <time>2021-11-25T09:22:57.000Z</time>
      </trkpt>
      <trkpt lat="47.34754" lon="-2.35167">
        <ele>0.60000002384186</ele>
        <time>2021-11-25T09:22:58.000Z</time>
      </trkpt>
      <trkpt lat="47.34749" lon="-2.35146">
        <ele>0.60000002384186</ele>
        <time>2021-11-25T09:23:02.000Z</time>
      </trkpt>
      <trkpt lat="47.34742" lon="-2.35131">
        <ele>0.60000002384186</ele>
        <time>2021-11-25T09:23:06.000Z</time>
      </trkpt>
      <trkpt lat="47.3474" lon="-2.35127">
        <ele>0.60000002384186</ele>
        <time>2021-11-25T09:23:07.000Z</time>
      </trkpt>
      <trkpt lat="47.34734" lon="-2.35112">
        <ele>0.60000002384186</ele>
        <time>2021-11-25T09:23:10.000Z</time>
      </trkpt>
      <trkpt lat="47.3473" lon="-2.35101">
        <ele>0.60000002384186</ele>
        <time>2021-11-25T09:23:12.000Z</time>
      </trkpt>
      <trkpt lat="47.34726" lon="-2.35097">
        <ele>0.60000002384186</ele>
        <time>2021-11-25T09:23:13.000Z</time>
      </trkpt>
      <trkpt lat="47.34716" lon="-2.35086">
        <ele>0.60000002384186</ele>
        <time>2021-11-25T09:23:16.000Z</time>
      </trkpt>
      <trkpt lat="47.34712" lon="-2.35082">
        <ele>0.60000002384186</ele>
        <time>2021-11-25T09:23:17.000Z</time>
      </trkpt>
      <trkpt lat="47.34702" lon="-2.35068">
        <ele>0.60000002384186</ele>
        <time>2021-11-25T09:23:20.000Z</time>
      </trkpt>
      <trkpt lat="47.34699" lon="-2.35062">
        <ele>0.60000002384186</ele>
        <time>2021-11-25T09:23:21.000Z</time>
      </trkpt>
      <trkpt lat="47.34693" lon="-2.35053">
        <ele>0.60000002384186</ele>
        <time>2021-11-25T09:23:23.000Z</time>
      </trkpt>
      <trkpt lat="47.34684" lon="-2.35044">
        <ele>0.60000002384186</ele>
        <time>2021-11-25T09:23:26.000Z</time>
      </trkpt>
      <trkpt lat="47.34679" lon="-2.35044">
        <ele>0.60000002384186</ele>
        <time>2021-11-25T09:23:27.000Z</time>
      </trkpt>
      <trkpt lat="47.34667" lon="-2.35042">
        <ele>0.60000002384186</ele>
        <time>2021-11-25T09:23:30.000Z</time>
      </trkpt>
      <trkpt lat="47.34651" lon="-2.35037">
        <ele>0.60000002384186</ele>
        <time>2021-11-25T09:23:34.000Z</time>
      </trkpt>
      <trkpt lat="47.34637" lon="-2.35021">
        <ele>0.60000002384186</ele>
        <time>2021-11-25T09:23:38.000Z</time>
      </trkpt>
      <trkpt lat="47.3463" lon="-2.35011">
        <ele>0.60000002384186</ele>
        <time>2021-11-25T09:23:40.000Z</time>
      </trkpt>
      <trkpt lat="47.3462" lon="-2.34993">
        <ele>0.60000002384186</ele>
        <time>2021-11-25T09:23:43.000Z</time>
      </trkpt>
      <trkpt lat="47.34606" lon="-2.34967">
        <ele>0.60000002384186</ele>
        <time>2021-11-25T09:23:47.000Z</time>
      </trkpt>
      <trkpt lat="47.346" lon="-2.34955">
        <ele>0.60000002384186</ele>
        <time>2021-11-25T09:23:49.000Z</time>
      </trkpt>
      <trkpt lat="47.34598" lon="-2.34949">
        <ele>0.60000002384186</ele>
        <time>2021-11-25T09:23:50.000Z</time>
      </trkpt>
      <trkpt lat="47.34589" lon="-2.34929">
        <ele>0.60000002384186</ele>
        <time>2021-11-25T09:23:54.000Z</time>
      </trkpt>
      <trkpt lat="47.34582" lon="-2.34904">
        <ele>0.60000002384186</ele>
        <time>2021-11-25T09:23:59.000Z</time>
      </trkpt>
      <trkpt lat="47.34588" lon="-2.34878">
        <ele>0.60000002384186</ele>
        <time>2021-11-25T09:24:03.000Z</time>
      </trkpt>
      <trkpt lat="47.3459" lon="-2.34872">
        <ele>0.60000002384186</ele>
        <time>2021-11-25T09:24:04.000Z</time>
      </trkpt>
      <trkpt lat="47.34608" lon="-2.34828">
        <ele>0.60000002384186</ele>
        <time>2021-11-25T09:24:10.000Z</time>
      </trkpt>
      <trkpt lat="47.34629" lon="-2.34774">
        <ele>0.60000002384186</ele>
        <time>2021-11-25T09:24:17.000Z</time>
      </trkpt>
      <trkpt lat="47.34634" lon="-2.34748">
        <ele>0.60000002384186</ele>
        <time>2021-11-25T09:24:20.000Z</time>
      </trkpt>
      <trkpt lat="47.34635" lon="-2.34731">
        <ele>0.60000002384186</ele>
        <time>2021-11-25T09:24:22.000Z</time>
      </trkpt>
      <trkpt lat="47.34632" lon="-2.34679">
        <ele>0.60000002384186</ele>
        <time>2021-11-25T09:24:28.000Z</time>
      </trkpt>
      <trkpt lat="47.34622" lon="-2.34636">
        <ele>1.2000000476837</ele>
        <time>2021-11-25T09:24:34.000Z</time>
      </trkpt>
      <trkpt lat="47.34621" lon="-2.34629">
        <ele>1.6000000238419</ele>
        <time>2021-11-25T09:24:35.000Z</time>
      </trkpt>
      <trkpt lat="47.3462" lon="-2.34623">
        <ele>2</ele>
        <time>2021-11-25T09:24:36.000Z</time>
      </trkpt>
      <trkpt lat="47.3462" lon="-2.34616">
        <ele>2.4000000953674</ele>
        <time>2021-11-25T09:24:37.000Z</time>
      </trkpt>
      <trkpt lat="47.34619" lon="-2.3461">
        <ele>2.7999999523163</ele>
        <time>2021-11-25T09:24:38.000Z</time>
      </trkpt>
      <trkpt lat="47.34617" lon="-2.34595">
        <ele>2.7999999523163</ele>
        <time>2021-11-25T09:24:40.000Z</time>
      </trkpt>
      <trkpt lat="47.34616" lon="-2.34589">
        <ele>3.4000000953674</ele>
        <time>2021-11-25T09:24:41.000Z</time>
      </trkpt>
      <trkpt lat="47.34614" lon="-2.34582">
        <ele>3.7999999523163</ele>
        <time>2021-11-25T09:24:42.000Z</time>
      </trkpt>
      <trkpt lat="47.34613" lon="-2.34575">
        <ele>4.1999998092651</ele>
        <time>2021-11-25T09:24:43.000Z</time>
      </trkpt>
      <trkpt lat="47.34612" lon="-2.34568">
        <ele>4.5999999046326</ele>
        <time>2021-11-25T09:24:44.000Z</time>
      </trkpt>
      <trkpt lat="47.3461" lon="-2.34561">
        <ele>5</ele>
        <time>2021-11-25T09:24:45.000Z</time>
      </trkpt>
      <trkpt lat="47.34607" lon="-2.3454">
        <ele>5</ele>
        <time>2021-11-25T09:24:48.000Z</time>
      </trkpt>
      <trkpt lat="47.34597" lon="-2.3448">
        <ele>5</ele>
        <time>2021-11-25T09:24:56.000Z</time>
      </trkpt>
      <trkpt lat="47.34597" lon="-2.34435">
        <ele>5</ele>
        <time>2021-11-25T09:25:02.000Z</time>
      </trkpt>
      <trkpt lat="47.34598" lon="-2.34427">
        <ele>5</ele>
        <time>2021-11-25T09:25:03.000Z</time>
      </trkpt>
      <trkpt lat="47.34601" lon="-2.34405">
        <ele>5</ele>
        <time>2021-11-25T09:25:06.000Z</time>
      </trkpt>
      <trkpt lat="47.34603" lon="-2.34398">
        <ele>5</ele>
        <time>2021-11-25T09:25:07.000Z</time>
      </trkpt>
      <trkpt lat="47.34614" lon="-2.34355">
        <ele>5</ele>
        <time>2021-11-25T09:25:13.000Z</time>
      </trkpt>
      <trkpt lat="47.34632" lon="-2.34294">
        <ele>5</ele>
        <time>2021-11-25T09:25:21.000Z</time>
      </trkpt>
      <trkpt lat="47.34635" lon="-2.34287">
        <ele>5</ele>
        <time>2021-11-25T09:25:22.000Z</time>
      </trkpt>
      <trkpt lat="47.34649" lon="-2.3427">
        <ele>5</ele>
        <time>2021-11-25T09:25:25.000Z</time>
      </trkpt>
      <trkpt lat="47.34678" lon="-2.34257">
        <ele>5</ele>
        <time>2021-11-25T09:25:30.000Z</time>
      </trkpt>
      <trkpt lat="47.34684" lon="-2.34257">
        <ele>5</ele>
        <time>2021-11-25T09:25:31.000Z</time>
      </trkpt>
      <trkpt lat="47.34719" lon="-2.34253">
        <ele>5</ele>
        <time>2021-11-25T09:25:37.000Z</time>
      </trkpt>
      <trkpt lat="47.34758" lon="-2.34245">
        <ele>5</ele>
        <time>2021-11-25T09:25:45.000Z</time>
      </trkpt>
      <trkpt lat="47.34785" lon="-2.34237">
        <ele>5</ele>
        <time>2021-11-25T09:25:51.000Z</time>
      </trkpt>
      <trkpt lat="47.34803" lon="-2.34233">
        <ele>5</ele>
        <time>2021-11-25T09:25:55.000Z</time>
      </trkpt>
      <trkpt lat="47.34812" lon="-2.34231">
        <ele>5</ele>
        <time>2021-11-25T09:25:57.000Z</time>
      </trkpt>
      <trkpt lat="47.34828" lon="-2.34229">
        <ele>5.4000000953674</ele>
        <time>2021-11-25T09:26:01.000Z</time>
      </trkpt>
      <trkpt lat="47.34832" lon="-2.34229">
        <ele>5.8000001907349</ele>
        <time>2021-11-25T09:26:02.000Z</time>
      </trkpt>
      <trkpt lat="47.34836" lon="-2.34228">
        <ele>6.1999998092651</ele>
        <time>2021-11-25T09:26:03.000Z</time>
      </trkpt>
      <trkpt lat="47.34839" lon="-2.34227">
        <ele>6.5999999046326</ele>
        <time>2021-11-25T09:26:04.000Z</time>
      </trkpt>
      <trkpt lat="47.34842" lon="-2.34227">
        <ele>7</ele>
        <time>2021-11-25T09:26:05.000Z</time>
      </trkpt>
      <trkpt lat="47.34849" lon="-2.34229">
        <ele>7</ele>
        <time>2021-11-25T09:26:07.000Z</time>
      </trkpt>
      <trkpt lat="47.34855" lon="-2.34234">
        <ele>7.4000000953674</ele>
        <time>2021-11-25T09:26:09.000Z</time>
      </trkpt>
      <trkpt lat="47.34857" lon="-2.34235">
        <ele>8</ele>
        <time>2021-11-25T09:26:10.000Z</time>
      </trkpt>
      <trkpt lat="47.34859" lon="-2.34235">
        <ele>8.3999996185303</ele>
        <time>2021-11-25T09:26:11.000Z</time>
      </trkpt>
      <trkpt lat="47.34861" lon="-2.34235">
        <ele>8.8000001907349</ele>
        <time>2021-11-25T09:26:12.000Z</time>
      </trkpt>
      <trkpt lat="47.34864" lon="-2.34234">
        <ele>9.1999998092651</ele>
        <time>2021-11-25T09:26:13.000Z</time>
      </trkpt>
      <trkpt lat="47.34866" lon="-2.34231">
        <ele>9.1999998092651</ele>
        <time>2021-11-25T09:26:14.000Z</time>
      </trkpt>
      <trkpt lat="47.34868" lon="-2.34229">
        <ele>9.8000001907349</ele>
        <time>2021-11-25T09:26:15.000Z</time>
      </trkpt>
      <trkpt lat="47.3487" lon="-2.34226">
        <ele>10.199999809265</ele>
        <time>2021-11-25T09:26:16.000Z</time>
      </trkpt>
      <trkpt lat="47.34871" lon="-2.34224">
        <ele>10.60000038147</ele>
        <time>2021-11-25T09:26:17.000Z</time>
      </trkpt>
      <trkpt lat="47.34873" lon="-2.34222">
        <ele>11</ele>
        <time>2021-11-25T09:26:18.000Z</time>
      </trkpt>
      <trkpt lat="47.34875" lon="-2.34219">
        <ele>11.39999961853</ele>
        <time>2021-11-25T09:26:19.000Z</time>
      </trkpt>
      <trkpt lat="47.3488" lon="-2.34211">
        <ele>11.800000190735</ele>
        <time>2021-11-25T09:26:22.000Z</time>
      </trkpt>
      <trkpt lat="47.34881" lon="-2.34209">
        <ele>12.199999809265</ele>
        <time>2021-11-25T09:26:23.000Z</time>
      </trkpt>
      <trkpt lat="47.34883" lon="-2.34209">
        <ele>12.800000190735</ele>
        <time>2021-11-25T09:26:24.000Z</time>
      </trkpt>
      <trkpt lat="47.34885" lon="-2.34209">
        <ele>13.199999809265</ele>
        <time>2021-11-25T09:26:25.000Z</time>
      </trkpt>
      <trkpt lat="47.34887" lon="-2.34208">
        <ele>13.60000038147</ele>
        <time>2021-11-25T09:26:26.000Z</time>
      </trkpt>
      <trkpt lat="47.34895" lon="-2.34204">
        <ele>13.60000038147</ele>
        <time>2021-11-25T09:26:30.000Z</time>
      </trkpt>
      <trkpt lat="47.34898" lon="-2.34205">
        <ele>13.60000038147</ele>
        <time>2021-11-25T09:26:31.000Z</time>
      </trkpt>
      <trkpt lat="47.34912" lon="-2.34207">
        <ele>13.60000038147</ele>
        <time>2021-11-25T09:26:34.000Z</time>
      </trkpt>
      <trkpt lat="47.34918" lon="-2.34208">
        <ele>13.60000038147</ele>
        <time>2021-11-25T09:26:35.000Z</time>
      </trkpt>
      <trkpt lat="47.34934" lon="-2.34204">
        <ele>13.60000038147</ele>
        <time>2021-11-25T09:26:38.000Z</time>
      </trkpt>
      <trkpt lat="47.34939" lon="-2.342">
        <ele>13.60000038147</ele>
        <time>2021-11-25T09:26:39.000Z</time>
      </trkpt>
      <trkpt lat="47.34948" lon="-2.34195">
        <ele>13.199999809265</ele>
        <time>2021-11-25T09:26:41.000Z</time>
      </trkpt>
      <trkpt lat="47.34951" lon="-2.34194">
        <ele>12.800000190735</ele>
        <time>2021-11-25T09:26:42.000Z</time>
      </trkpt>
      <trkpt lat="47.34955" lon="-2.34194">
        <ele>12.199999809265</ele>
        <time>2021-11-25T09:26:43.000Z</time>
      </trkpt>
      <trkpt lat="47.34959" lon="-2.34193">
        <ele>11.800000190735</ele>
        <time>2021-11-25T09:26:44.000Z</time>
      </trkpt>
      <trkpt lat="47.34962" lon="-2.34192">
        <ele>11.199999809265</ele>
        <time>2021-11-25T09:26:45.000Z</time>
      </trkpt>
      <trkpt lat="47.34967" lon="-2.3419">
        <ele>10.800000190735</ele>
        <time>2021-11-25T09:26:47.000Z</time>
      </trkpt>
      <trkpt lat="47.34968" lon="-2.3419">
        <ele>10.39999961853</ele>
        <time>2021-11-25T09:26:48.000Z</time>
      </trkpt>
      <trkpt lat="47.34969" lon="-2.34188">
        <ele>10</ele>
        <time>2021-11-25T09:26:49.000Z</time>
      </trkpt>
      <trkpt lat="47.3497" lon="-2.34188">
        <ele>9.6000003814697</ele>
        <time>2021-11-25T09:26:50.000Z</time>
      </trkpt>
      <trkpt lat="47.34971" lon="-2.34188">
        <ele>9.1999998092651</ele>
        <time>2021-11-25T09:26:51.000Z</time>
      </trkpt>
      <trkpt lat="47.34973" lon="-2.34184">
        <ele>9.1999998092651</ele>
        <time>2021-11-25T09:26:54.000Z</time>
      </trkpt>
      <trkpt lat="47.34981" lon="-2.34171">
        <ele>8.8000001907349</ele>
        <time>2021-11-25T09:27:01.000Z</time>
      </trkpt>
      <trkpt lat="47.34982" lon="-2.3417">
        <ele>8.3999996185303</ele>
        <time>2021-11-25T09:27:02.000Z</time>
      </trkpt>
      <trkpt lat="47.34983" lon="-2.34167">
        <ele>8</ele>
        <time>2021-11-25T09:27:03.000Z</time>
      </trkpt>
      <trkpt lat="47.34984" lon="-2.34164">
        <ele>7.5999999046326</ele>
        <time>2021-11-25T09:27:04.000Z</time>
      </trkpt>
      <trkpt lat="47.34985" lon="-2.3416">
        <ele>7.1999998092651</ele>
        <time>2021-11-25T09:27:05.000Z</time>
      </trkpt>
      <trkpt lat="47.34987" lon="-2.34157">
        <ele>7.1999998092651</ele>
        <time>2021-11-25T09:27:06.000Z</time>
      </trkpt>
      <trkpt lat="47.35001" lon="-2.34139">
        <ele>7.1999998092651</ele>
        <time>2021-11-25T09:27:11.000Z</time>
      </trkpt>
      <trkpt lat="47.35008" lon="-2.34132">
        <ele>6.5999999046326</ele>
        <time>2021-11-25T09:27:13.000Z</time>
      </trkpt>
      <trkpt lat="47.35012" lon="-2.34129">
        <ele>6.1999998092651</ele>
        <time>2021-11-25T09:27:14.000Z</time>
      </trkpt>
      <trkpt lat="47.35016" lon="-2.34128">
        <ele>5.8000001907349</ele>
        <time>2021-11-25T09:27:15.000Z</time>
      </trkpt>
      <trkpt lat="47.35019" lon="-2.34127">
        <ele>5.4000000953674</ele>
        <time>2021-11-25T09:27:16.000Z</time>
      </trkpt>
      <trkpt lat="47.35024" lon="-2.34128">
        <ele>5</ele>
        <time>2021-11-25T09:27:17.000Z</time>
      </trkpt>
      <trkpt lat="47.35044" lon="-2.34127">
        <ele>5</ele>
        <time>2021-11-25T09:27:22.000Z</time>
      </trkpt>
      <trkpt lat="47.35072" lon="-2.34123">
        <ele>5</ele>
        <time>2021-11-25T09:27:28.000Z</time>
      </trkpt>
      <trkpt lat="47.3509" lon="-2.3412">
        <ele>5</ele>
        <time>2021-11-25T09:27:32.000Z</time>
      </trkpt>
      <trkpt lat="47.35095" lon="-2.3412">
        <ele>5</ele>
        <time>2021-11-25T09:27:33.000Z</time>
      </trkpt>
      <trkpt lat="47.35113" lon="-2.34117">
        <ele>5</ele>
        <time>2021-11-25T09:27:37.000Z</time>
      </trkpt>
      <trkpt lat="47.35122" lon="-2.34113">
        <ele>5</ele>
        <time>2021-11-25T09:27:39.000Z</time>
      </trkpt>
      <trkpt lat="47.35149" lon="-2.34104">
        <ele>5</ele>
        <time>2021-11-25T09:27:46.000Z</time>
      </trkpt>
      <trkpt lat="47.35172" lon="-2.34099">
        <ele>5</ele>
        <time>2021-11-25T09:27:52.000Z</time>
      </trkpt>
      <trkpt lat="47.35177" lon="-2.34094">
        <ele>4.5999999046326</ele>
        <time>2021-11-25T09:27:54.000Z</time>
      </trkpt>
      <trkpt lat="47.35179" lon="-2.3409">
        <ele>4.1999998092651</ele>
        <time>2021-11-25T09:27:55.000Z</time>
      </trkpt>
      <trkpt lat="47.35181" lon="-2.34085">
        <ele>3.7999999523163</ele>
        <time>2021-11-25T09:27:56.000Z</time>
      </trkpt>
      <trkpt lat="47.35181" lon="-2.3408">
        <ele>3.4000000953674</ele>
        <time>2021-11-25T09:27:57.000Z</time>
      </trkpt>
      <trkpt lat="47.35183" lon="-2.34075">
        <ele>3</ele>
        <time>2021-11-25T09:27:58.000Z</time>
      </trkpt>
      <trkpt lat="47.35186" lon="-2.34059">
        <ele>2.4000000953674</ele>
        <time>2021-11-25T09:28:01.000Z</time>
      </trkpt>
      <trkpt lat="47.35188" lon="-2.34053">
        <ele>2</ele>
        <time>2021-11-25T09:28:02.000Z</time>
      </trkpt>
      <trkpt lat="47.35191" lon="-2.34046">
        <ele>1.3999999761581</ele>
        <time>2021-11-25T09:28:03.000Z</time>
      </trkpt>
      <trkpt lat="47.35193" lon="-2.3404">
        <ele>1</ele>
        <time>2021-11-25T09:28:04.000Z</time>
      </trkpt>
      <trkpt lat="47.35196" lon="-2.34035">
        <ele>0.60000002384186</ele>
        <time>2021-11-25T09:28:05.000Z</time>
      </trkpt>
      <trkpt lat="47.35198" lon="-2.34029">
        <ele>0.60000002384186</ele>
        <time>2021-11-25T09:28:06.000Z</time>
      </trkpt>
      <trkpt lat="47.35202" lon="-2.34019">
        <ele>0.20000000298023</ele>
        <time>2021-11-25T09:28:08.000Z</time>
      </trkpt>
      <trkpt lat="47.35205" lon="-2.34014">
        <ele>-0.40000000596046</ele>
        <time>2021-11-25T09:28:09.000Z</time>
      </trkpt>
      <trkpt lat="47.35209" lon="-2.3401">
        <ele>-0.80000001192093</ele>
        <time>2021-11-25T09:28:10.000Z</time>
      </trkpt>
      <trkpt lat="47.35214" lon="-2.34005">
        <ele>-1.6000000238419</ele>
        <time>2021-11-25T09:28:11.000Z</time>
      </trkpt>
      <trkpt lat="47.35229" lon="-2.33997">
        <ele>-1.6000000238419</ele>
        <time>2021-11-25T09:28:14.000Z</time>
      </trkpt>
      <trkpt lat="47.35239" lon="-2.33993">
        <ele>-1.6000000238419</ele>
        <time>2021-11-25T09:28:16.000Z</time>
      </trkpt>
      <trkpt lat="47.35242" lon="-2.33991">
        <ele>-2</ele>
        <time>2021-11-25T09:28:17.000Z</time>
      </trkpt>
      <trkpt lat="47.35246" lon="-2.33989">
        <ele>-2.4000000953674</ele>
        <time>2021-11-25T09:28:18.000Z</time>
      </trkpt>
      <trkpt lat="47.3525" lon="-2.33987">
        <ele>-2.7999999523163</ele>
        <time>2021-11-25T09:28:19.000Z</time>
      </trkpt>
      <trkpt lat="47.35254" lon="-2.33985">
        <ele>-3.2000000476837</ele>
        <time>2021-11-25T09:28:20.000Z</time>
      </trkpt>
      <trkpt lat="47.35258" lon="-2.33983">
        <ele>-3.5999999046326</ele>
        <time>2021-11-25T09:28:21.000Z</time>
      </trkpt>
      <trkpt lat="47.3526" lon="-2.33979">
        <ele>-3.5999999046326</ele>
        <time>2021-11-25T09:28:22.000Z</time>
      </trkpt>
      <trkpt lat="47.35262" lon="-2.33974">
        <ele>-3.5999999046326</ele>
        <time>2021-11-25T09:28:24.000Z</time>
      </trkpt>
      <trkpt lat="47.35267" lon="-2.33971">
        <ele>-3.5999999046326</ele>
        <time>2021-11-25T09:28:27.000Z</time>
      </trkpt>
      <trkpt lat="47.35271" lon="-2.3397">
        <ele>-3.5999999046326</ele>
        <time>2021-11-25T09:28:29.000Z</time>
      </trkpt>
      <trkpt lat="47.35289" lon="-2.33968">
        <ele>-3.5999999046326</ele>
        <time>2021-11-25T09:28:35.000Z</time>
      </trkpt>
      <trkpt lat="47.35312" lon="-2.33969">
        <ele>-3.5999999046326</ele>
        <time>2021-11-25T09:28:42.000Z</time>
      </trkpt>
      <trkpt lat="47.35321" lon="-2.33969">
        <ele>-3.5999999046326</ele>
        <time>2021-11-25T09:28:47.000Z</time>
      </trkpt>
      <trkpt lat="47.35333" lon="-2.33972">
        <ele>-3.5999999046326</ele>
        <time>2021-11-25T09:28:55.000Z</time>
      </trkpt>
      <trkpt lat="47.35338" lon="-2.33972">
        <ele>-3.5999999046326</ele>
        <time>2021-11-25T09:28:58.000Z</time>
      </trkpt>
      <trkpt lat="47.35337" lon="-2.33972">
        <ele>-3.5999999046326</ele>
        <time>2021-11-25T09:28:59.000Z</time>
      </trkpt>
      <trkpt lat="47.35338" lon="-2.33976">
        <ele>-3.5999999046326</ele>
        <time>2021-11-25T09:32:12.000Z</time>
      </trkpt>
      <trkpt lat="47.3533" lon="-2.33978">
        <ele>-3.5999999046326</ele>
        <time>2021-11-25T09:32:16.000Z</time>
      </trkpt>
      <trkpt lat="47.35319" lon="-2.33976">
        <ele>-3.5999999046326</ele>
        <time>2021-11-25T09:32:19.000Z</time>
      </trkpt>
      <trkpt lat="47.35306" lon="-2.33973">
        <ele>-3.5999999046326</ele>
        <time>2021-11-25T09:32:22.000Z</time>
      </trkpt>
      <trkpt lat="47.35271" lon="-2.33969">
        <ele>-3.5999999046326</ele>
        <time>2021-11-25T09:32:30.000Z</time>
      </trkpt>
      <trkpt lat="47.35265" lon="-2.33971">
        <ele>-3.5999999046326</ele>
        <time>2021-11-25T09:32:32.000Z</time>
      </trkpt>
      <trkpt lat="47.35259" lon="-2.33979">
        <ele>-3.5999999046326</ele>
        <time>2021-11-25T09:32:34.000Z</time>
      </trkpt>
      <trkpt lat="47.35252" lon="-2.33986">
        <ele>-3.5999999046326</ele>
        <time>2021-11-25T09:32:36.000Z</time>
      </trkpt>
      <trkpt lat="47.35248" lon="-2.33988">
        <ele>-3.5999999046326</ele>
        <time>2021-11-25T09:32:37.000Z</time>
      </trkpt>
      <trkpt lat="47.35243" lon="-2.3399">
        <ele>-3.5999999046326</ele>
        <time>2021-11-25T09:32:38.000Z</time>
      </trkpt>
      <trkpt lat="47.35225" lon="-2.33997">
        <ele>-3.5999999046326</ele>
        <time>2021-11-25T09:32:43.000Z</time>
      </trkpt>
      <trkpt lat="47.3521" lon="-2.34007">
        <ele>-3.5999999046326</ele>
        <time>2021-11-25T09:32:48.000Z</time>
      </trkpt>
      <trkpt lat="47.35199" lon="-2.34031">
        <ele>-3.2000000476837</ele>
        <time>2021-11-25T09:32:54.000Z</time>
      </trkpt>
      <trkpt lat="47.35198" lon="-2.34035">
        <ele>-2.7999999523163</ele>
        <time>2021-11-25T09:32:55.000Z</time>
      </trkpt>
      <trkpt lat="47.35196" lon="-2.3404">
        <ele>-2.4000000953674</ele>
        <time>2021-11-25T09:32:56.000Z</time>
      </trkpt>
      <trkpt lat="47.35194" lon="-2.34044">
        <ele>-2</ele>
        <time>2021-11-25T09:32:57.000Z</time>
      </trkpt>
      <trkpt lat="47.35193" lon="-2.34049">
        <ele>-1.6000000238419</ele>
        <time>2021-11-25T09:32:58.000Z</time>
      </trkpt>
      <trkpt lat="47.35189" lon="-2.34061">
        <ele>-1.6000000238419</ele>
        <time>2021-11-25T09:33:01.000Z</time>
      </trkpt>
      <trkpt lat="47.35187" lon="-2.34068">
        <ele>-1.2000000476837</ele>
        <time>2021-11-25T09:33:03.000Z</time>
      </trkpt>
      <trkpt lat="47.35186" lon="-2.34071">
        <ele>-0.80000001192093</ele>
        <time>2021-11-25T09:33:04.000Z</time>
      </trkpt>
      <trkpt lat="47.35185" lon="-2.34074">
        <ele>-0.20000000298023</ele>
        <time>2021-11-25T09:33:05.000Z</time>
      </trkpt>
      <trkpt lat="47.35184" lon="-2.34077">
        <ele>0.20000000298023</ele>
        <time>2021-11-25T09:33:06.000Z</time>
      </trkpt>
      <trkpt lat="47.35183" lon="-2.34081">
        <ele>0.60000002384186</ele>
        <time>2021-11-25T09:33:07.000Z</time>
      </trkpt>
      <trkpt lat="47.35178" lon="-2.3409">
        <ele>1</ele>
        <time>2021-11-25T09:33:10.000Z</time>
      </trkpt>
      <trkpt lat="47.35176" lon="-2.34092">
        <ele>1.3999999761581</ele>
        <time>2021-11-25T09:33:11.000Z</time>
      </trkpt>
      <trkpt lat="47.35174" lon="-2.34094">
        <ele>1.7999999523163</ele>
        <time>2021-11-25T09:33:12.000Z</time>
      </trkpt>
      <trkpt lat="47.35172" lon="-2.34095">
        <ele>2.2000000476837</ele>
        <time>2021-11-25T09:33:13.000Z</time>
      </trkpt>
      <trkpt lat="47.35169" lon="-2.34096">
        <ele>2.5999999046326</ele>
        <time>2021-11-25T09:33:14.000Z</time>
      </trkpt>
      <trkpt lat="47.35166" lon="-2.34096">
        <ele>2.5999999046326</ele>
        <time>2021-11-25T09:33:15.000Z</time>
      </trkpt>
      <trkpt lat="47.35158" lon="-2.34099">
        <ele>3</ele>
        <time>2021-11-25T09:33:18.000Z</time>
      </trkpt>
      <trkpt lat="47.35156" lon="-2.34101">
        <ele>3.4000000953674</ele>
        <time>2021-11-25T09:33:19.000Z</time>
      </trkpt>
      <trkpt lat="47.35153" lon="-2.34101">
        <ele>3.7999999523163</ele>
        <time>2021-11-25T09:33:20.000Z</time>
      </trkpt>
      <trkpt lat="47.3515" lon="-2.34101">
        <ele>4.4000000953674</ele>
        <time>2021-11-25T09:33:21.000Z</time>
      </trkpt>
      <trkpt lat="47.35147" lon="-2.34102">
        <ele>4.8000001907349</ele>
        <time>2021-11-25T09:33:22.000Z</time>
      </trkpt>
      <trkpt lat="47.35135" lon="-2.34107">
        <ele>4.8000001907349</ele>
        <time>2021-11-25T09:33:26.000Z</time>
      </trkpt>
      <trkpt lat="47.35114" lon="-2.34116">
        <ele>4.8000001907349</ele>
        <time>2021-11-25T09:33:32.000Z</time>
      </trkpt>
      <trkpt lat="47.35086" lon="-2.34121">
        <ele>4.8000001907349</ele>
        <time>2021-11-25T09:33:40.000Z</time>
      </trkpt>
      <trkpt lat="47.35063" lon="-2.34125">
        <ele>4.8000001907349</ele>
        <time>2021-11-25T09:33:46.000Z</time>
      </trkpt>
      <trkpt lat="47.35056" lon="-2.34126">
        <ele>4.8000001907349</ele>
        <time>2021-11-25T09:33:50.000Z</time>
      </trkpt>
      <trkpt lat="47.35051" lon="-2.34126">
        <ele>4.8000001907349</ele>
        <time>2021-11-25T09:49:03.000Z</time>
      </trkpt>
      <trkpt lat="47.35053" lon="-2.34125">
        <ele>4.8000001907349</ele>
        <time>2021-11-25T09:49:05.000Z</time>
      </trkpt>
      <trkpt lat="47.35055" lon="-2.34124">
        <ele>4.8000001907349</ele>
        <time>2021-11-25T09:49:06.000Z</time>
      </trkpt>
      <trkpt lat="47.35065" lon="-2.34124">
        <ele>4.8000001907349</ele>
        <time>2021-11-25T09:49:10.000Z</time>
      </trkpt>
      <trkpt lat="47.35071" lon="-2.34123">
        <ele>4.8000001907349</ele>
        <time>2021-11-25T09:49:14.000Z</time>
      </trkpt>
      <trkpt lat="47.35072" lon="-2.34123">
        <ele>4.8000001907349</ele>
        <time>2021-11-25T09:49:15.000Z</time>
      </trkpt>
      <trkpt lat="47.35078" lon="-2.34124">
        <ele>4.8000001907349</ele>
        <time>2021-11-25T09:49:31.000Z</time>
      </trkpt>
      <trkpt lat="47.3508" lon="-2.34124">
        <ele>4.8000001907349</ele>
        <time>2021-11-25T09:49:33.000Z</time>
      </trkpt>
      <trkpt lat="47.35081" lon="-2.34124">
        <ele>6.8000001907349</ele>
        <time>2021-11-25T10:01:37.000Z</time>
      </trkpt>
      <trkpt lat="47.35089" lon="-2.34124">
        <ele>6.8000001907349</ele>
        <time>2021-11-25T10:01:40.000Z</time>
      </trkpt>
      <trkpt lat="47.35106" lon="-2.34121">
        <ele>6.8000001907349</ele>
        <time>2021-11-25T10:01:45.000Z</time>
      </trkpt>
      <trkpt lat="47.35127" lon="-2.34111">
        <ele>6.8000001907349</ele>
        <time>2021-11-25T10:01:52.000Z</time>
      </trkpt>
      <trkpt lat="47.35149" lon="-2.34102">
        <ele>6.8000001907349</ele>
        <time>2021-11-25T10:01:59.000Z</time>
      </trkpt>
      <trkpt lat="47.35168" lon="-2.341">
        <ele>6.8000001907349</ele>
        <time>2021-11-25T10:02:04.000Z</time>
      </trkpt>
      <trkpt lat="47.35181" lon="-2.3409">
        <ele>6.8000001907349</ele>
        <time>2021-11-25T10:02:08.000Z</time>
      </trkpt>
      <trkpt lat="47.35184" lon="-2.34079">
        <ele>6.1999998092651</ele>
        <time>2021-11-25T10:02:10.000Z</time>
      </trkpt>
      <trkpt lat="47.35186" lon="-2.34073">
        <ele>5.8000001907349</ele>
        <time>2021-11-25T10:02:11.000Z</time>
      </trkpt>
      <trkpt lat="47.35187" lon="-2.34067">
        <ele>5.4000000953674</ele>
        <time>2021-11-25T10:02:12.000Z</time>
      </trkpt>
      <trkpt lat="47.35189" lon="-2.34061">
        <ele>4.8000001907349</ele>
        <time>2021-11-25T10:02:13.000Z</time>
      </trkpt>
      <trkpt lat="47.3519" lon="-2.34054">
        <ele>4.4000000953674</ele>
        <time>2021-11-25T10:02:14.000Z</time>
      </trkpt>
      <trkpt lat="47.35192" lon="-2.34048">
        <ele>4</ele>
        <time>2021-11-25T10:02:15.000Z</time>
      </trkpt>
      <trkpt lat="47.35195" lon="-2.3404">
        <ele>3.5999999046326</ele>
        <time>2021-11-25T10:02:16.000Z</time>
      </trkpt>
      <trkpt lat="47.35199" lon="-2.34033">
        <ele>3</ele>
        <time>2021-11-25T10:02:17.000Z</time>
      </trkpt>
      <trkpt lat="47.35202" lon="-2.34027">
        <ele>2.5999999046326</ele>
        <time>2021-11-25T10:02:18.000Z</time>
      </trkpt>
      <trkpt lat="47.35206" lon="-2.3402">
        <ele>2.2000000476837</ele>
        <time>2021-11-25T10:02:19.000Z</time>
      </trkpt>
      <trkpt lat="47.3521" lon="-2.34015">
        <ele>2.2000000476837</ele>
        <time>2021-11-25T10:02:20.000Z</time>
      </trkpt>
      <trkpt lat="47.3522" lon="-2.34006">
        <ele>1.3999999761581</ele>
        <time>2021-11-25T10:02:22.000Z</time>
      </trkpt>
      <trkpt lat="47.35225" lon="-2.34003">
        <ele>1</ele>
        <time>2021-11-25T10:02:23.000Z</time>
      </trkpt>
      <trkpt lat="47.35231" lon="-2.33999">
        <ele>0.60000002384186</ele>
        <time>2021-11-25T10:02:24.000Z</time>
      </trkpt>
      <trkpt lat="47.35236" lon="-2.33996">
        <ele>0.20000000298023</ele>
        <time>2021-11-25T10:02:25.000Z</time>
      </trkpt>
      <trkpt lat="47.35247" lon="-2.33993">
        <ele>0.20000000298023</ele>
        <time>2021-11-25T10:02:27.000Z</time>
      </trkpt>
      <trkpt lat="47.35254" lon="-2.33989">
        <ele>-0.40000000596046</ele>
        <time>2021-11-25T10:02:29.000Z</time>
      </trkpt>
      <trkpt lat="47.35256" lon="-2.33988">
        <ele>-0.80000001192093</ele>
        <time>2021-11-25T10:02:30.000Z</time>
      </trkpt>
      <trkpt lat="47.35259" lon="-2.33985">
        <ele>-1.2000000476837</ele>
        <time>2021-11-25T10:02:31.000Z</time>
      </trkpt>
      <trkpt lat="47.35259" lon="-2.3398">
        <ele>-1.6000000238419</ele>
        <time>2021-11-25T10:02:32.000Z</time>
      </trkpt>
      <trkpt lat="47.3526" lon="-2.33977">
        <ele>-2.2000000476837</ele>
        <time>2021-11-25T10:02:33.000Z</time>
      </trkpt>
      <trkpt lat="47.35262" lon="-2.33973">
        <ele>-2.2000000476837</ele>
        <time>2021-11-25T10:02:36.000Z</time>
      </trkpt>
      <trkpt lat="47.35263" lon="-2.33969">
        <ele>-2.2000000476837</ele>
        <time>2021-11-25T10:02:46.000Z</time>
      </trkpt>
      <trkpt lat="47.35275" lon="-2.33964">
        <ele>-2.2000000476837</ele>
        <time>2021-11-25T10:02:50.000Z</time>
      </trkpt>
      <trkpt lat="47.3528" lon="-2.33964">
        <ele>-2.2000000476837</ele>
        <time>2021-11-25T10:02:51.000Z</time>
      </trkpt>
      <trkpt lat="47.35305" lon="-2.33967">
        <ele>-2.2000000476837</ele>
        <time>2021-11-25T10:02:56.000Z</time>
      </trkpt>
      <trkpt lat="47.35335" lon="-2.33972">
        <ele>-2.2000000476837</ele>
        <time>2021-11-25T10:03:02.000Z</time>
      </trkpt>
      <trkpt lat="47.35367" lon="-2.33976">
        <ele>-2.2000000476837</ele>
        <time>2021-11-25T10:03:09.000Z</time>
      </trkpt>
      <trkpt lat="47.35398" lon="-2.33981">
        <ele>-2.2000000476837</ele>
        <time>2021-11-25T10:03:16.000Z</time>
      </trkpt>
      <trkpt lat="47.35407" lon="-2.33983">
        <ele>-1.6000000238419</ele>
        <time>2021-11-25T10:03:18.000Z</time>
      </trkpt>
      <trkpt lat="47.35411" lon="-2.33983">
        <ele>-1.2000000476837</ele>
        <time>2021-11-25T10:03:19.000Z</time>
      </trkpt>
      <trkpt lat="47.35415" lon="-2.33984">
        <ele>-0.80000001192093</ele>
        <time>2021-11-25T10:03:20.000Z</time>
      </trkpt>
      <trkpt lat="47.35419" lon="-2.33984">
        <ele>-0.40000000596046</ele>
        <time>2021-11-25T10:03:21.000Z</time>
      </trkpt>
      <trkpt lat="47.35423" lon="-2.33984">
        <ele>9.6</ele>
        <time>2021-11-25T10:03:22.000Z</time>
      </trkpt>
      <trkpt lat="47.35427" lon="-2.33985">
        <ele>9.5</ele>
        <time>2021-11-25T10:03:23.000Z</time>
      </trkpt>
      <trkpt lat="47.35435" lon="-2.33991">
        <ele>9.3</ele>
        <time>2021-11-25T10:03:26.000Z</time>
      </trkpt>
      <trkpt lat="47.35438" lon="-2.33995">
        <ele>9.2</ele>
        <time>2021-11-25T10:03:27.000Z</time>
      </trkpt>
      <trkpt lat="47.35451" lon="-2.34021">
        <ele>9.2</ele>
        <time>2021-11-25T10:03:32.000Z</time>
      </trkpt>
      <trkpt lat="47.35454" lon="-2.34026">
        <ele>9.4</ele>
        <time>2021-11-25T10:03:33.000Z</time>
      </trkpt>
      <trkpt lat="47.35477" lon="-2.34066">
        <ele>10.5</ele>
        <time>2021-11-25T10:03:41.000Z</time>
      </trkpt>
      <trkpt lat="47.35483" lon="-2.34083">
        <ele>11</ele>
        <time>2021-11-25T10:03:44.000Z</time>
      </trkpt>
      <trkpt lat="47.35485" lon="-2.34095">
        <ele>11.4</ele>
        <time>2021-11-25T10:03:46.000Z</time>
      </trkpt>
      <trkpt lat="47.35486" lon="-2.34107">
        <ele>11.9</ele>
        <time>2021-11-25T10:03:48.000Z</time>
      </trkpt>
      <trkpt lat="47.35489" lon="-2.3412">
        <ele>11.8</ele>
        <time>2021-11-25T10:03:50.000Z</time>
      </trkpt>
      <trkpt lat="47.35491" lon="-2.34125">
        <ele>0.40000000596046</ele>
        <time>2021-11-25T10:03:51.000Z</time>
      </trkpt>
      <trkpt lat="47.35493" lon="-2.3413">
        <ele>0.80000001192093</ele>
        <time>2021-11-25T10:03:52.000Z</time>
      </trkpt>
      <trkpt lat="47.35496" lon="-2.34135">
        <ele>1.2000000476837</ele>
        <time>2021-11-25T10:03:53.000Z</time>
      </trkpt>
      <trkpt lat="47.35499" lon="-2.3414">
        <ele>1.6000000238419</ele>
        <time>2021-11-25T10:03:54.000Z</time>
      </trkpt>
      <trkpt lat="47.35503" lon="-2.34144">
        <ele>2</ele>
        <time>2021-11-25T10:03:55.000Z</time>
      </trkpt>
      <trkpt lat="47.35521" lon="-2.34157">
        <ele>2</ele>
        <time>2021-11-25T10:03:59.000Z</time>
      </trkpt>
      <trkpt lat="47.3553" lon="-2.34161">
        <ele>2</ele>
        <time>2021-11-25T10:04:01.000Z</time>
      </trkpt>
      <trkpt lat="47.3555" lon="-2.34169">
        <ele>2</ele>
        <time>2021-11-25T10:04:06.000Z</time>
      </trkpt>
      <trkpt lat="47.35567" lon="-2.34177">
        <ele>2</ele>
        <time>2021-11-25T10:04:12.000Z</time>
      </trkpt>
      <trkpt lat="47.35592" lon="-2.34182">
        <ele>2.4000000953674</ele>
        <time>2021-11-25T10:04:19.000Z</time>
      </trkpt>
      <trkpt lat="47.35596" lon="-2.34183">
        <ele>2.7999999523163</ele>
        <time>2021-11-25T10:04:20.000Z</time>
      </trkpt>
      <trkpt lat="47.356" lon="-2.34184">
        <ele>3.4000000953674</ele>
        <time>2021-11-25T10:04:21.000Z</time>
      </trkpt>
      <trkpt lat="47.35604" lon="-2.34185">
        <ele>3.7999999523163</ele>
        <time>2021-11-25T10:04:22.000Z</time>
      </trkpt>
      <trkpt lat="47.35608" lon="-2.34185">
        <ele>4.1999998092651</ele>
        <time>2021-11-25T10:04:23.000Z</time>
      </trkpt>
      <trkpt lat="47.35621" lon="-2.34187">
        <ele>4.1999998092651</ele>
        <time>2021-11-25T10:04:26.000Z</time>
      </trkpt>
      <trkpt lat="47.35647" lon="-2.34194">
        <ele>4.5999999046326</ele>
        <time>2021-11-25T10:04:32.000Z</time>
      </trkpt>
      <trkpt lat="47.35652" lon="-2.34195">
        <ele>5</ele>
        <time>2021-11-25T10:04:33.000Z</time>
      </trkpt>
      <trkpt lat="47.35657" lon="-2.34197">
        <ele>5.4000000953674</ele>
        <time>2021-11-25T10:04:34.000Z</time>
      </trkpt>
      <trkpt lat="47.35661" lon="-2.34198">
        <ele>5.8000001907349</ele>
        <time>2021-11-25T10:04:35.000Z</time>
      </trkpt>
      <trkpt lat="47.35666" lon="-2.34199">
        <ele>6.1999998092651</ele>
        <time>2021-11-25T10:04:36.000Z</time>
      </trkpt>
      <trkpt lat="47.35674" lon="-2.34203">
        <ele>6.1999998092651</ele>
        <time>2021-11-25T10:04:38.000Z</time>
      </trkpt>
      <trkpt lat="47.35683" lon="-2.34206">
        <ele>6.1999998092651</ele>
        <time>2021-11-25T10:04:40.000Z</time>
      </trkpt>
      <trkpt lat="47.35713" lon="-2.34209">
        <ele>6.1999998092651</ele>
        <time>2021-11-25T10:04:47.000Z</time>
      </trkpt>
      <trkpt lat="47.35718" lon="-2.34208">
        <ele>6.5999999046326</ele>
        <time>2021-11-25T10:04:48.000Z</time>
      </trkpt>
      <trkpt lat="47.35722" lon="-2.34207">
        <ele>7</ele>
        <time>2021-11-25T10:04:49.000Z</time>
      </trkpt>
      <trkpt lat="47.35726" lon="-2.34207">
        <ele>7.4000000953674</ele>
        <time>2021-11-25T10:04:50.000Z</time>
      </trkpt>
      <trkpt lat="47.3573" lon="-2.34206">
        <ele>8.3999996185303</ele>
        <time>2021-11-25T10:04:51.000Z</time>
      </trkpt>
      <trkpt lat="47.35738" lon="-2.34204">
        <ele>8.3999996185303</ele>
        <time>2021-11-25T10:04:53.000Z</time>
      </trkpt>
      <trkpt lat="47.35759" lon="-2.342">
        <ele>8.8000001907349</ele>
        <time>2021-11-25T10:04:59.000Z</time>
      </trkpt>
      <trkpt lat="47.35762" lon="-2.34204">
        <ele>9.1999998092651</ele>
        <time>2021-11-25T10:05:00.000Z</time>
      </trkpt>
      <trkpt lat="47.35764" lon="-2.34209">
        <ele>9.6000003814697</ele>
        <time>2021-11-25T10:05:01.000Z</time>
      </trkpt>
      <trkpt lat="47.35766" lon="-2.34215">
        <ele>10</ele>
        <time>2021-11-25T10:05:02.000Z</time>
      </trkpt>
      <trkpt lat="47.35766" lon="-2.3422">
        <ele>10.39999961853</ele>
        <time>2021-11-25T10:05:03.000Z</time>
      </trkpt>
      <trkpt lat="47.35767" lon="-2.34226">
        <ele>10.39999961853</ele>
        <time>2021-11-25T10:05:04.000Z</time>
      </trkpt>
      <trkpt lat="47.35765" lon="-2.34261">
        <ele>10.39999961853</ele>
        <time>2021-11-25T10:05:09.000Z</time>
      </trkpt>
      <trkpt lat="47.35767" lon="-2.34307">
        <ele>10.39999961853</ele>
        <time>2021-11-25T10:05:15.000Z</time>
      </trkpt>
      <trkpt lat="47.35768" lon="-2.34315">
        <ele>10.39999961853</ele>
        <time>2021-11-25T10:05:16.000Z</time>
      </trkpt>
      <trkpt lat="47.35771" lon="-2.34333">
        <ele>10</ele>
        <time>2021-11-25T10:05:18.000Z</time>
      </trkpt>
      <trkpt lat="47.35772" lon="-2.34342">
        <ele>9.6000003814697</ele>
        <time>2021-11-25T10:05:19.000Z</time>
      </trkpt>
      <trkpt lat="47.35773" lon="-2.34352">
        <ele>9</ele>
        <time>2021-11-25T10:05:20.000Z</time>
      </trkpt>
      <trkpt lat="47.35775" lon="-2.34362">
        <ele>8.6000003814697</ele>
        <time>2021-11-25T10:05:21.000Z</time>
      </trkpt>
      <trkpt lat="47.35776" lon="-2.34372">
        <ele>8.1999998092651</ele>
        <time>2021-11-25T10:05:22.000Z</time>
      </trkpt>
      <trkpt lat="47.35786" lon="-2.34454">
        <ele>8.1999998092651</ele>
        <time>2021-11-25T10:05:30.000Z</time>
      </trkpt>
      <trkpt lat="47.35791" lon="-2.34493">
        <ele>7.8000001907349</ele>
        <time>2021-11-25T10:05:34.000Z</time>
      </trkpt>
      <trkpt lat="47.35792" lon="-2.34503">
        <ele>7.4000000953674</ele>
        <time>2021-11-25T10:05:35.000Z</time>
      </trkpt>
      <trkpt lat="47.35793" lon="-2.34512">
        <ele>7</ele>
        <time>2021-11-25T10:05:36.000Z</time>
      </trkpt>
      <trkpt lat="47.35794" lon="-2.34521">
        <ele>6.5999999046326</ele>
        <time>2021-11-25T10:05:37.000Z</time>
      </trkpt>
      <trkpt lat="47.35795" lon="-2.3453">
        <ele>6.1999998092651</ele>
        <time>2021-11-25T10:05:38.000Z</time>
      </trkpt>
      <trkpt lat="47.35801" lon="-2.34574">
        <ele>6.1999998092651</ele>
        <time>2021-11-25T10:05:43.000Z</time>
      </trkpt>
      <trkpt lat="47.35803" lon="-2.34582">
        <ele>6.1999998092651</ele>
        <time>2021-11-25T10:05:44.000Z</time>
      </trkpt>
      <trkpt lat="47.35824" lon="-2.3463">
        <ele>6.1999998092651</ele>
        <time>2021-11-25T10:05:51.000Z</time>
      </trkpt>
      <trkpt lat="47.35852" lon="-2.34693">
        <ele>6.1999998092651</ele>
        <time>2021-11-25T10:06:00.000Z</time>
      </trkpt>
      <trkpt lat="47.35879" lon="-2.34756">
        <ele>6.1999998092651</ele>
        <time>2021-11-25T10:06:09.000Z</time>
      </trkpt>
      <trkpt lat="47.35905" lon="-2.34818">
        <ele>6.1999998092651</ele>
        <time>2021-11-25T10:06:18.000Z</time>
      </trkpt>
      <trkpt lat="47.35922" lon="-2.34854">
        <ele>6.1999998092651</ele>
        <time>2021-11-25T10:06:23.000Z</time>
      </trkpt>
      <trkpt lat="47.35927" lon="-2.3486">
        <ele>6.1999998092651</ele>
        <time>2021-11-25T10:06:24.000Z</time>
      </trkpt>
      <trkpt lat="47.35944" lon="-2.34866">
        <ele>6.1999998092651</ele>
        <time>2021-11-25T10:06:27.000Z</time>
      </trkpt>
      <trkpt lat="47.35949" lon="-2.34865">
        <ele>6.1999998092651</ele>
        <time>2021-11-25T10:06:28.000Z</time>
      </trkpt>
      <trkpt lat="47.35983" lon="-2.34867">
        <ele>6.1999998092651</ele>
        <time>2021-11-25T10:06:34.000Z</time>
      </trkpt>
      <trkpt lat="47.36029" lon="-2.34871">
        <ele>6.1999998092651</ele>
        <time>2021-11-25T10:06:43.000Z</time>
      </trkpt>
      <trkpt lat="47.36071" lon="-2.34875">
        <ele>6.1999998092651</ele>
        <time>2021-11-25T10:06:51.000Z</time>
      </trkpt>
      <trkpt lat="47.36075" lon="-2.34876">
        <ele>6.1999998092651</ele>
        <time>2021-11-25T10:06:52.000Z</time>
      </trkpt>
      <trkpt lat="47.36086" lon="-2.34885">
        <ele>6.1999998092651</ele>
        <time>2021-11-25T10:06:55.000Z</time>
      </trkpt>
      <trkpt lat="47.36089" lon="-2.34898">
        <ele>6.1999998092651</ele>
        <time>2021-11-25T10:06:57.000Z</time>
      </trkpt>
      <trkpt lat="47.3609" lon="-2.34905">
        <ele>6.1999998092651</ele>
        <time>2021-11-25T10:06:58.000Z</time>
      </trkpt>
      <trkpt lat="47.36094" lon="-2.34956">
        <ele>6.1999998092651</ele>
        <time>2021-11-25T10:07:04.000Z</time>
      </trkpt>
      <trkpt lat="47.36102" lon="-2.35009">
        <ele>6.1999998092651</ele>
        <time>2021-11-25T10:07:10.000Z</time>
      </trkpt>
      <trkpt lat="47.36102" lon="-2.35019">
        <ele>6.1999998092651</ele>
        <time>2021-11-25T10:07:11.000Z</time>
      </trkpt>
      <trkpt lat="47.36099" lon="-2.35067">
        <ele>6.1999998092651</ele>
        <time>2021-11-25T10:07:16.000Z</time>
      </trkpt>
      <trkpt lat="47.36095" lon="-2.35125">
        <ele>6.1999998092651</ele>
        <time>2021-11-25T10:07:22.000Z</time>
      </trkpt>
      <trkpt lat="47.36093" lon="-2.35158">
        <ele>6.1999998092651</ele>
        <time>2021-11-25T10:07:26.000Z</time>
      </trkpt>
      <trkpt lat="47.36094" lon="-2.35166">
        <ele>6.1999998092651</ele>
        <time>2021-11-25T10:07:27.000Z</time>
      </trkpt>
      <trkpt lat="47.361" lon="-2.35174">
        <ele>6.1999998092651</ele>
        <time>2021-11-25T10:07:29.000Z</time>
      </trkpt>
      <trkpt lat="47.36108" lon="-2.35169">
        <ele>5.8000001907349</ele>
        <time>2021-11-25T10:07:31.000Z</time>
      </trkpt>
      <trkpt lat="47.36112" lon="-2.35164">
        <ele>5.4000000953674</ele>
        <time>2021-11-25T10:07:32.000Z</time>
      </trkpt>
      <trkpt lat="47.36116" lon="-2.35158">
        <ele>5</ele>
        <time>2021-11-25T10:07:33.000Z</time>
      </trkpt>
      <trkpt lat="47.3612" lon="-2.35152">
        <ele>4.5999999046326</ele>
        <time>2021-11-25T10:07:34.000Z</time>
      </trkpt>
      <trkpt lat="47.36124" lon="-2.35145">
        <ele>4.1999998092651</ele>
        <time>2021-11-25T10:07:35.000Z</time>
      </trkpt>
      <trkpt lat="47.36133" lon="-2.35132">
        <ele>4.1999998092651</ele>
        <time>2021-11-25T10:07:37.000Z</time>
      </trkpt>
      <trkpt lat="47.36144" lon="-2.3512">
        <ele>4.1999998092651</ele>
        <time>2021-11-25T10:07:39.000Z</time>
      </trkpt>
      <trkpt lat="47.36161" lon="-2.35104">
        <ele>4.1999998092651</ele>
        <time>2021-11-25T10:07:42.000Z</time>
      </trkpt>
      <trkpt lat="47.36199" lon="-2.35061">
        <ele>4.1999998092651</ele>
        <time>2021-11-25T10:07:49.000Z</time>
      </trkpt>
      <trkpt lat="47.36229" lon="-2.35021">
        <ele>4.1999998092651</ele>
        <time>2021-11-25T10:07:55.000Z</time>
      </trkpt>
      <trkpt lat="47.36253" lon="-2.34969">
        <ele>4.1999998092651</ele>
        <time>2021-11-25T10:08:02.000Z</time>
      </trkpt>
      <trkpt lat="47.36273" lon="-2.34924">
        <ele>4.1999998092651</ele>
        <time>2021-11-25T10:08:09.000Z</time>
      </trkpt>
      <trkpt lat="47.3628" lon="-2.34917">
        <ele>4.1999998092651</ele>
        <time>2021-11-25T10:08:12.000Z</time>
      </trkpt>
      <trkpt lat="47.36286" lon="-2.34929">
        <ele>4.1999998092651</ele>
        <time>2021-11-25T10:08:15.000Z</time>
      </trkpt>
      <trkpt lat="47.36293" lon="-2.34962">
        <ele>4.1999998092651</ele>
        <time>2021-11-25T10:08:20.000Z</time>
      </trkpt>
      <trkpt lat="47.36301" lon="-2.35005">
        <ele>4.1999998092651</ele>
        <time>2021-11-25T10:08:25.000Z</time>
      </trkpt>
      <trkpt lat="47.3631" lon="-2.3506">
        <ele>4.1999998092651</ele>
        <time>2021-11-25T10:08:31.000Z</time>
      </trkpt>
      <trkpt lat="47.36318" lon="-2.35125">
        <ele>4.1999998092651</ele>
        <time>2021-11-25T10:08:38.000Z</time>
      </trkpt>
      <trkpt lat="47.36325" lon="-2.35209">
        <ele>4.1999998092651</ele>
        <time>2021-11-25T10:08:47.000Z</time>
      </trkpt>
      <trkpt lat="47.36332" lon="-2.35294">
        <ele>4.1999998092651</ele>
        <time>2021-11-25T10:08:56.000Z</time>
      </trkpt>
      <trkpt lat="47.36336" lon="-2.35358">
        <ele>4.1999998092651</ele>
        <time>2021-11-25T10:09:03.000Z</time>
      </trkpt>
      <trkpt lat="47.36336" lon="-2.35368">
        <ele>4.1999998092651</ele>
        <time>2021-11-25T10:09:04.000Z</time>
      </trkpt>
      <trkpt lat="47.36333" lon="-2.35394">
        <ele>4.1999998092651</ele>
        <time>2021-11-25T10:09:07.000Z</time>
      </trkpt>
      <trkpt lat="47.36331" lon="-2.35411">
        <ele>4.1999998092651</ele>
        <time>2021-11-25T10:09:09.000Z</time>
      </trkpt>
      <trkpt lat="47.36327" lon="-2.35427">
        <ele>4.1999998092651</ele>
        <time>2021-11-25T10:09:11.000Z</time>
      </trkpt>
      <trkpt lat="47.36308" lon="-2.3549">
        <ele>4.1999998092651</ele>
        <time>2021-11-25T10:09:19.000Z</time>
      </trkpt>
      <trkpt lat="47.3629" lon="-2.35556">
        <ele>4.1999998092651</ele>
        <time>2021-11-25T10:09:27.000Z</time>
      </trkpt>
      <trkpt lat="47.36287" lon="-2.35581">
        <ele>4.1999998092651</ele>
        <time>2021-11-25T10:09:30.000Z</time>
      </trkpt>
      <trkpt lat="47.36286" lon="-2.35607">
        <ele>4.1999998092651</ele>
        <time>2021-11-25T10:09:33.000Z</time>
      </trkpt>
      <trkpt lat="47.36291" lon="-2.35653">
        <ele>4.1999998092651</ele>
        <time>2021-11-25T10:09:38.000Z</time>
      </trkpt>
      <trkpt lat="47.36306" lon="-2.35706">
        <ele>4.1999998092651</ele>
        <time>2021-11-25T10:09:44.000Z</time>
      </trkpt>
      <trkpt lat="47.36331" lon="-2.35778">
        <ele>4.1999998092651</ele>
        <time>2021-11-25T10:09:52.000Z</time>
      </trkpt>
      <trkpt lat="47.36355" lon="-2.35847">
        <ele>4.1999998092651</ele>
        <time>2021-11-25T10:10:00.000Z</time>
      </trkpt>
      <trkpt lat="47.36369" lon="-2.35884">
        <ele>4.1999998092651</ele>
        <time>2021-11-25T10:10:05.000Z</time>
      </trkpt>
      <trkpt lat="47.36391" lon="-2.35947">
        <ele>4.5999999046326</ele>
        <time>2021-11-25T10:10:13.000Z</time>
      </trkpt>
      <trkpt lat="47.36393" lon="-2.35955">
        <ele>5</ele>
        <time>2021-11-25T10:10:14.000Z</time>
      </trkpt>
      <trkpt lat="47.36395" lon="-2.35963">
        <ele>5.4000000953674</ele>
        <time>2021-11-25T10:10:15.000Z</time>
      </trkpt>
      <trkpt lat="47.36398" lon="-2.35971">
        <ele>5.8000001907349</ele>
        <time>2021-11-25T10:10:16.000Z</time>
      </trkpt>
      <trkpt lat="47.36401" lon="-2.35979">
        <ele>6.1999998092651</ele>
        <time>2021-11-25T10:10:17.000Z</time>
      </trkpt>
      <trkpt lat="47.36406" lon="-2.35995">
        <ele>6.1999998092651</ele>
        <time>2021-11-25T10:10:19.000Z</time>
      </trkpt>
      <trkpt lat="47.36417" lon="-2.3603">
        <ele>6.5999999046326</ele>
        <time>2021-11-25T10:10:24.000Z</time>
      </trkpt>
      <trkpt lat="47.36419" lon="-2.36037">
        <ele>7</ele>
        <time>2021-11-25T10:10:25.000Z</time>
      </trkpt>
      <trkpt lat="47.36421" lon="-2.36045">
        <ele>7.4000000953674</ele>
        <time>2021-11-25T10:10:26.000Z</time>
      </trkpt>
      <trkpt lat="47.36424" lon="-2.36052">
        <ele>8</ele>
        <time>2021-11-25T10:10:27.000Z</time>
      </trkpt>
      <trkpt lat="47.36426" lon="-2.36059">
        <ele>8.3999996185303</ele>
        <time>2021-11-25T10:10:28.000Z</time>
      </trkpt>
      <trkpt lat="47.36437" lon="-2.36092">
        <ele>8.3999996185303</ele>
        <time>2021-11-25T10:10:33.000Z</time>
      </trkpt>
      <trkpt lat="47.36444" lon="-2.36112">
        <ele>9.1999998092651</ele>
        <time>2021-11-25T10:10:36.000Z</time>
      </trkpt>
      <trkpt lat="47.36446" lon="-2.36119">
        <ele>9.6000003814697</ele>
        <time>2021-11-25T10:10:37.000Z</time>
      </trkpt>
      <trkpt lat="47.36448" lon="-2.36126">
        <ele>10</ele>
        <time>2021-11-25T10:10:38.000Z</time>
      </trkpt>
      <trkpt lat="47.3645" lon="-2.36132">
        <ele>10.60000038147</ele>
        <time>2021-11-25T10:10:39.000Z</time>
      </trkpt>
      <trkpt lat="47.36454" lon="-2.36143">
        <ele>10.60000038147</ele>
        <time>2021-11-25T10:10:41.000Z</time>
      </trkpt>
      <trkpt lat="47.36471" lon="-2.36204">
        <ele>10.60000038147</ele>
        <time>2021-11-25T10:10:51.000Z</time>
      </trkpt>
      <trkpt lat="47.36483" lon="-2.3624">
        <ele>10.60000038147</ele>
        <time>2021-11-25T10:10:57.000Z</time>
      </trkpt>
      <trkpt lat="47.36498" lon="-2.36287">
        <ele>10.199999809265</ele>
        <time>2021-11-25T10:11:03.000Z</time>
      </trkpt>
      <trkpt lat="47.365" lon="-2.36295">
        <ele>9.8000001907349</ele>
        <time>2021-11-25T10:11:04.000Z</time>
      </trkpt>
      <trkpt lat="47.36502" lon="-2.36302">
        <ele>9.3999996185303</ele>
        <time>2021-11-25T10:11:05.000Z</time>
      </trkpt>
      <trkpt lat="47.36505" lon="-2.3631">
        <ele>9</ele>
        <time>2021-11-25T10:11:06.000Z</time>
      </trkpt>
      <trkpt lat="47.36507" lon="-2.36318">
        <ele>8.6000003814697</ele>
        <time>2021-11-25T10:11:07.000Z</time>
      </trkpt>
      <trkpt lat="47.36512" lon="-2.36335">
        <ele>8.6000003814697</ele>
        <time>2021-11-25T10:11:09.000Z</time>
      </trkpt>
      <trkpt lat="47.36533" lon="-2.36402">
        <ele>8.6000003814697</ele>
        <time>2021-11-25T10:11:17.000Z</time>
      </trkpt>
      <trkpt lat="47.3655" lon="-2.36456">
        <ele>8.6000003814697</ele>
        <time>2021-11-25T10:11:24.000Z</time>
      </trkpt>
      <trkpt lat="47.36561" lon="-2.36488">
        <ele>8.6000003814697</ele>
        <time>2021-11-25T10:11:29.000Z</time>
      </trkpt>
      <trkpt lat="47.36564" lon="-2.36498">
        <ele>8.6000003814697</ele>
        <time>2021-11-25T10:11:31.000Z</time>
      </trkpt>
      <trkpt lat="47.36575" lon="-2.36517">
        <ele>8.6000003814697</ele>
        <time>2021-11-25T10:11:36.000Z</time>
      </trkpt>
      <trkpt lat="47.3658" lon="-2.36518">
        <ele>8.6000003814697</ele>
        <time>2021-11-25T10:11:37.000Z</time>
      </trkpt>
      <trkpt lat="47.36599" lon="-2.36506">
        <ele>8.6000003814697</ele>
        <time>2021-11-25T10:11:41.000Z</time>
      </trkpt>
      <trkpt lat="47.36631" lon="-2.36483">
        <ele>8.6000003814697</ele>
        <time>2021-11-25T10:11:47.000Z</time>
      </trkpt>
      <trkpt lat="47.36642" lon="-2.36476">
        <ele>8</ele>
        <time>2021-11-25T10:11:49.000Z</time>
      </trkpt>
      <trkpt lat="47.36648" lon="-2.36473">
        <ele>7.1999998092651</ele>
        <time>2021-11-25T10:11:50.000Z</time>
      </trkpt>
      <trkpt lat="47.36655" lon="-2.36469">
        <ele>6.8000001907349</ele>
        <time>2021-11-25T10:11:51.000Z</time>
      </trkpt>
      <trkpt lat="47.36661" lon="-2.36465">
        <ele>6.4000000953674</ele>
        <time>2021-11-25T10:11:52.000Z</time>
      </trkpt>
      <trkpt lat="47.36673" lon="-2.36458">
        <ele>6.4000000953674</ele>
        <time>2021-11-25T10:11:54.000Z</time>
      </trkpt>
      <trkpt lat="47.36697" lon="-2.3644">
        <ele>6</ele>
        <time>2021-11-25T10:11:58.000Z</time>
      </trkpt>
      <trkpt lat="47.36703" lon="-2.36434">
        <ele>5.5999999046326</ele>
        <time>2021-11-25T10:11:59.000Z</time>
      </trkpt>
      <trkpt lat="47.36709" lon="-2.36428">
        <ele>5.1999998092651</ele>
        <time>2021-11-25T10:12:00.000Z</time>
      </trkpt>
      <trkpt lat="47.36714" lon="-2.36422">
        <ele>4.8000001907349</ele>
        <time>2021-11-25T10:12:01.000Z</time>
      </trkpt>
      <trkpt lat="47.36719" lon="-2.36416">
        <ele>4.4000000953674</ele>
        <time>2021-11-25T10:12:02.000Z</time>
      </trkpt>
      <trkpt lat="47.36744" lon="-2.36385">
        <ele>4.4000000953674</ele>
        <time>2021-11-25T10:12:07.000Z</time>
      </trkpt>
      <trkpt lat="47.3677" lon="-2.36373">
        <ele>4.4000000953674</ele>
        <time>2021-11-25T10:12:11.000Z</time>
      </trkpt>
      <trkpt lat="47.36783" lon="-2.36373">
        <ele>4.4000000953674</ele>
        <time>2021-11-25T10:12:13.000Z</time>
      </trkpt>
      <trkpt lat="47.36811" lon="-2.36371">
        <ele>4.4000000953674</ele>
        <time>2021-11-25T10:12:17.000Z</time>
      </trkpt>
      <trkpt lat="47.36824" lon="-2.36371">
        <ele>4.4000000953674</ele>
        <time>2021-11-25T10:12:19.000Z</time>
      </trkpt>
      <trkpt lat="47.36846" lon="-2.3637">
        <ele>4</ele>
        <time>2021-11-25T10:12:22.000Z</time>
      </trkpt>
      <trkpt lat="47.36853" lon="-2.3637">
        <ele>3.4000000953674</ele>
        <time>2021-11-25T10:12:23.000Z</time>
      </trkpt>
      <trkpt lat="47.36859" lon="-2.3637">
        <ele>3</ele>
        <time>2021-11-25T10:12:24.000Z</time>
      </trkpt>
      <trkpt lat="47.36866" lon="-2.3637">
        <ele>2.5999999046326</ele>
        <time>2021-11-25T10:12:25.000Z</time>
      </trkpt>
      <trkpt lat="47.36873" lon="-2.3637">
        <ele>2.2000000476837</ele>
        <time>2021-11-25T10:12:26.000Z</time>
      </trkpt>
      <trkpt lat="47.36887" lon="-2.36369">
        <ele>2.2000000476837</ele>
        <time>2021-11-25T10:12:28.000Z</time>
      </trkpt>
      <trkpt lat="47.36943" lon="-2.36368">
        <ele>2.2000000476837</ele>
        <time>2021-11-25T10:12:36.000Z</time>
      </trkpt>
      <trkpt lat="47.3695" lon="-2.36368">
        <ele>2.2000000476837</ele>
        <time>2021-11-25T10:12:37.000Z</time>
      </trkpt>
      <trkpt lat="47.37006" lon="-2.36367">
        <ele>2.2000000476837</ele>
        <time>2021-11-25T10:12:45.000Z</time>
      </trkpt>
      <trkpt lat="47.37045" lon="-2.36366">
        <ele>2.2000000476837</ele>
        <time>2021-11-25T10:12:51.000Z</time>
      </trkpt>
      <trkpt lat="47.37057" lon="-2.36366">
        <ele>2.2000000476837</ele>
        <time>2021-11-25T10:12:53.000Z</time>
      </trkpt>
      <trkpt lat="47.37075" lon="-2.36361">
        <ele>2.2000000476837</ele>
        <time>2021-11-25T10:12:56.000Z</time>
      </trkpt>
      <trkpt lat="47.3709" lon="-2.36345">
        <ele>2.2000000476837</ele>
        <time>2021-11-25T10:12:59.000Z</time>
      </trkpt>
      <trkpt lat="47.371" lon="-2.36323">
        <ele>2.2000000476837</ele>
        <time>2021-11-25T10:13:02.000Z</time>
      </trkpt>
      <trkpt lat="47.37107" lon="-2.36306">
        <ele>2.2000000476837</ele>
        <time>2021-11-25T10:13:04.000Z</time>
      </trkpt>
      <trkpt lat="47.37132" lon="-2.36248">
        <ele>2.2000000476837</ele>
        <time>2021-11-25T10:13:11.000Z</time>
      </trkpt>
      <trkpt lat="47.37143" lon="-2.36224">
        <ele>1.7999999523163</ele>
        <time>2021-11-25T10:13:14.000Z</time>
      </trkpt>
      <trkpt lat="47.37147" lon="-2.36216">
        <ele>1.3999999761581</ele>
        <time>2021-11-25T10:13:15.000Z</time>
      </trkpt>
      <trkpt lat="47.3715" lon="-2.36208">
        <ele>1</ele>
        <time>2021-11-25T10:13:16.000Z</time>
      </trkpt>
      <trkpt lat="47.37153" lon="-2.362">
        <ele>0.60000002384186</ele>
        <time>2021-11-25T10:13:17.000Z</time>
      </trkpt>
      <trkpt lat="47.37157" lon="-2.36193">
        <ele>0.20000000298023</ele>
        <time>2021-11-25T10:13:18.000Z</time>
      </trkpt>
      <trkpt lat="47.3716" lon="-2.36185">
        <ele>0.20000000298023</ele>
        <time>2021-11-25T10:13:19.000Z</time>
      </trkpt>
      <trkpt lat="47.3719" lon="-2.36122">
        <ele>-0.20000000298023</ele>
        <time>2021-11-25T10:13:27.000Z</time>
      </trkpt>
      <trkpt lat="47.37193" lon="-2.36114">
        <ele>-0.60000002384186</ele>
        <time>2021-11-25T10:13:28.000Z</time>
      </trkpt>
      <trkpt lat="47.37196" lon="-2.36107">
        <ele>-1.3999999761581</ele>
        <time>2021-11-25T10:13:29.000Z</time>
      </trkpt>
      <trkpt lat="47.372" lon="-2.361">
        <ele>-1.7999999523163</ele>
        <time>2021-11-25T10:13:30.000Z</time>
      </trkpt>
      <trkpt lat="47.37207" lon="-2.36088">
        <ele>-1.7999999523163</ele>
        <time>2021-11-25T10:13:32.000Z</time>
      </trkpt>
      <trkpt lat="47.37211" lon="-2.36085">
        <ele>-1.7999999523163</ele>
        <time>2021-11-25T10:13:33.000Z</time>
      </trkpt>
      <trkpt lat="47.37222" lon="-2.3609">
        <ele>-1.7999999523163</ele>
        <time>2021-11-25T10:13:36.000Z</time>
      </trkpt>
      <trkpt lat="47.37229" lon="-2.36092">
        <ele>-1.7999999523163</ele>
        <time>2021-11-25T10:13:38.000Z</time>
      </trkpt>
      <trkpt lat="47.37234" lon="-2.36093">
        <ele>-1.7999999523163</ele>
        <time>2021-11-25T10:13:40.000Z</time>
      </trkpt>
      <trkpt lat="47.37241" lon="-2.36098">
        <ele>-2.2000000476837</ele>
        <time>2021-11-25T10:13:44.000Z</time>
      </trkpt>
      <trkpt lat="47.37242" lon="-2.36099">
        <ele>-2.5999999046326</ele>
        <time>2021-11-25T10:13:45.000Z</time>
      </trkpt>
      <trkpt lat="47.37242" lon="-2.36099">
        <ele>-3</ele>
        <time>2021-11-25T10:13:46.000Z</time>
      </trkpt>
      <trkpt lat="47.37275" lon="-2.36126">
        <ele>-4</ele>
        <time>2021-11-25T10:15:38.000Z</time>
      </trkpt>
      <trkpt lat="47.37278" lon="-2.3613">
        <ele>-4</ele>
        <time>2021-11-25T10:15:41.000Z</time>
      </trkpt>
      <trkpt lat="47.37283" lon="-2.36134">
        <ele>-4</ele>
        <time>2021-11-25T10:15:47.000Z</time>
      </trkpt>
      <trkpt lat="47.37292" lon="-2.36125">
        <ele>-4</ele>
        <time>2021-11-25T10:17:27.000Z</time>
      </trkpt>
      <trkpt lat="47.37299" lon="-2.3612">
        <ele>-4</ele>
        <time>2021-11-25T10:17:31.000Z</time>
      </trkpt>
      <trkpt lat="47.37305" lon="-2.36119">
        <ele>-4</ele>
        <time>2021-11-25T10:17:33.000Z</time>
      </trkpt>
      <trkpt lat="47.37325" lon="-2.36117">
        <ele>-4</ele>
        <time>2021-11-25T10:17:39.000Z</time>
      </trkpt>
      <trkpt lat="47.37349" lon="-2.36128">
        <ele>-4</ele>
        <time>2021-11-25T10:17:45.000Z</time>
      </trkpt>
      <trkpt lat="47.37353" lon="-2.36127">
        <ele>-4</ele>
        <time>2021-11-25T10:17:46.000Z</time>
      </trkpt>
      <trkpt lat="47.37362" lon="-2.36121">
        <ele>-4</ele>
        <time>2021-11-25T10:17:48.000Z</time>
      </trkpt>
      <trkpt lat="47.3738" lon="-2.36109">
        <ele>-4</ele>
        <time>2021-11-25T10:17:52.000Z</time>
      </trkpt>
      <trkpt lat="47.37385" lon="-2.3611">
        <ele>-4</ele>
        <time>2021-11-25T10:17:53.000Z</time>
      </trkpt>
      <trkpt lat="47.37397" lon="-2.36122">
        <ele>-4</ele>
        <time>2021-11-25T10:17:56.000Z</time>
      </trkpt>
      <trkpt lat="47.37413" lon="-2.36139">
        <ele>-4</ele>
        <time>2021-11-25T10:18:00.000Z</time>
      </trkpt>
      <trkpt lat="47.37422" lon="-2.36139">
        <ele>-4</ele>
        <time>2021-11-25T10:18:02.000Z</time>
      </trkpt>
      <trkpt lat="47.37434" lon="-2.36129">
        <ele>-4</ele>
        <time>2021-11-25T10:18:05.000Z</time>
      </trkpt>
      <trkpt lat="47.37439" lon="-2.36126">
        <ele>-4</ele>
        <time>2021-11-25T10:18:06.000Z</time>
      </trkpt>
      <trkpt lat="47.37457" lon="-2.36111">
        <ele>-3.5999999046326</ele>
        <time>2021-11-25T10:18:11.000Z</time>
      </trkpt>
      <trkpt lat="47.37461" lon="-2.36109">
        <ele>-3</ele>
        <time>2021-11-25T10:18:12.000Z</time>
      </trkpt>
      <trkpt lat="47.37465" lon="-2.36106">
        <ele>-2.5999999046326</ele>
        <time>2021-11-25T10:18:13.000Z</time>
      </trkpt>
      <trkpt lat="47.37468" lon="-2.36104">
        <ele>-2.2000000476837</ele>
        <time>2021-11-25T10:18:14.000Z</time>
      </trkpt>
      <trkpt lat="47.37472" lon="-2.36102">
        <ele>-1.7999999523163</ele>
        <time>2021-11-25T10:18:15.000Z</time>
      </trkpt>
      <trkpt lat="47.37484" lon="-2.36096">
        <ele>-1.3999999761581</ele>
        <time>2021-11-25T10:18:18.000Z</time>
      </trkpt>
      <trkpt lat="47.37487" lon="-2.36094">
        <ele>-1</ele>
        <time>2021-11-25T10:18:19.000Z</time>
      </trkpt>
      <trkpt lat="47.37491" lon="-2.36092">
        <ele>-0.40000000596046</ele>
        <time>2021-11-25T10:18:20.000Z</time>
      </trkpt>
      <trkpt lat="47.37494" lon="-2.36091">
        <ele>7.6</ele>
        <time>2021-11-25T10:18:21.000Z</time>
      </trkpt>
      <trkpt lat="47.37497" lon="-2.36089">
        <ele>0.40000000596046</ele>
        <time>2021-11-25T10:18:22.000Z</time>
      </trkpt>
      <trkpt lat="47.37511" lon="-2.3608">
        <ele>0.40000000596046</ele>
        <time>2021-11-25T10:18:26.000Z</time>
      </trkpt>
      <trkpt lat="47.37545" lon="-2.36068">
        <ele>0.40000000596046</ele>
        <time>2021-11-25T10:18:35.000Z</time>
      </trkpt>
      <trkpt lat="47.37556" lon="-2.36064">
        <ele>0.40000000596046</ele>
        <time>2021-11-25T10:18:38.000Z</time>
      </trkpt>
      <trkpt lat="47.37564" lon="-2.36061">
        <ele>0.40000000596046</ele>
        <time>2021-11-25T10:18:40.000Z</time>
      </trkpt>
      <trkpt lat="47.37591" lon="-2.36047">
        <ele>0.40000000596046</ele>
        <time>2021-11-25T10:18:47.000Z</time>
      </trkpt>
      <trkpt lat="47.37607" lon="-2.36045">
        <ele>0.40000000596046</ele>
        <time>2021-11-25T10:18:52.000Z</time>
      </trkpt>
      <trkpt lat="47.37626" lon="-2.36045">
        <ele>0.40000000596046</ele>
        <time>2021-11-25T10:18:57.000Z</time>
      </trkpt>
      <trkpt lat="47.37635" lon="-2.36044">
        <ele>0.40000000596046</ele>
        <time>2021-11-25T10:18:59.000Z</time>
      </trkpt>
      <trkpt lat="47.37641" lon="-2.36039">
        <ele>0.40000000596046</ele>
        <time>2021-11-25T10:19:01.000Z</time>
      </trkpt>
      <trkpt lat="47.37644" lon="-2.3603">
        <ele>0.40000000596046</ele>
        <time>2021-11-25T10:19:03.000Z</time>
      </trkpt>
      <trkpt lat="47.37646" lon="-2.36015">
        <ele>0.40000000596046</ele>
        <time>2021-11-25T10:19:05.000Z</time>
      </trkpt>
      <trkpt lat="47.37649" lon="-2.36009">
        <ele>0.40000000596046</ele>
        <time>2021-11-25T10:19:06.000Z</time>
      </trkpt>
      <trkpt lat="47.37656" lon="-2.36008">
        <ele>0.40000000596046</ele>
        <time>2021-11-25T10:19:08.000Z</time>
      </trkpt>
      <trkpt lat="47.37668" lon="-2.36011">
        <ele>0.40000000596046</ele>
        <time>2021-11-25T10:19:11.000Z</time>
      </trkpt>
      <trkpt lat="47.37677" lon="-2.36014">
        <ele>0.40000000596046</ele>
        <time>2021-11-25T10:19:13.000Z</time>
      </trkpt>
      <trkpt lat="47.37681" lon="-2.36015">
        <ele>0.40000000596046</ele>
        <time>2021-11-25T10:19:14.000Z</time>
      </trkpt>
      <trkpt lat="47.37709" lon="-2.36025">
        <ele>0.40000000596046</ele>
        <time>2021-11-25T10:19:21.000Z</time>
      </trkpt>
      <trkpt lat="47.37736" lon="-2.36041">
        <ele>0.40000000596046</ele>
        <time>2021-11-25T10:19:27.000Z</time>
      </trkpt>
      <trkpt lat="47.37741" lon="-2.36044">
        <ele>0.40000000596046</ele>
        <time>2021-11-25T10:19:28.000Z</time>
      </trkpt>
      <trkpt lat="47.3776" lon="-2.36057">
        <ele>0.40000000596046</ele>
        <time>2021-11-25T10:19:32.000Z</time>
      </trkpt>
      <trkpt lat="47.37773" lon="-2.36065">
        <ele>0.80000001192093</ele>
        <time>2021-11-25T10:19:35.000Z</time>
      </trkpt>
      <trkpt lat="47.37778" lon="-2.36068">
        <ele>1.2000000476837</ele>
        <time>2021-11-25T10:19:36.000Z</time>
      </trkpt>
      <trkpt lat="47.37783" lon="-2.36071">
        <ele>1.6000000238419</ele>
        <time>2021-11-25T10:19:37.000Z</time>
      </trkpt>
      <trkpt lat="47.37787" lon="-2.36073">
        <ele>2.2000000476837</ele>
        <time>2021-11-25T10:19:38.000Z</time>
      </trkpt>
      <trkpt lat="47.37792" lon="-2.36076">
        <ele>2.5999999046326</ele>
        <time>2021-11-25T10:19:39.000Z</time>
      </trkpt>
      <trkpt lat="47.37824" lon="-2.36091">
        <ele>2.5999999046326</ele>
        <time>2021-11-25T10:19:46.000Z</time>
      </trkpt>
      <trkpt lat="47.37859" lon="-2.36109">
        <ele>2.5999999046326</ele>
        <time>2021-11-25T10:19:53.000Z</time>
      </trkpt>
      <trkpt lat="47.37884" lon="-2.36123">
        <ele>2.5999999046326</ele>
        <time>2021-11-25T10:19:58.000Z</time>
      </trkpt>
      <trkpt lat="47.37895" lon="-2.36125">
        <ele>2.5999999046326</ele>
        <time>2021-11-25T10:20:00.000Z</time>
      </trkpt>
      <trkpt lat="47.37918" lon="-2.36117">
        <ele>2.5999999046326</ele>
        <time>2021-11-25T10:20:04.000Z</time>
      </trkpt>
      <trkpt lat="47.37968" lon="-2.36092">
        <ele>2.5999999046326</ele>
        <time>2021-11-25T10:20:12.000Z</time>
      </trkpt>
      <trkpt lat="47.38009" lon="-2.36073">
        <ele>2.5999999046326</ele>
        <time>2021-11-25T10:20:19.000Z</time>
      </trkpt>
      <trkpt lat="47.38015" lon="-2.36071">
        <ele>2.2000000476837</ele>
        <time>2021-11-25T10:20:20.000Z</time>
      </trkpt>
      <trkpt lat="47.38021" lon="-2.36069">
        <ele>1.7999999523163</ele>
        <time>2021-11-25T10:20:21.000Z</time>
      </trkpt>
      <trkpt lat="47.38027" lon="-2.36067">
        <ele>1.3999999761581</ele>
        <time>2021-11-25T10:20:22.000Z</time>
      </trkpt>
      <trkpt lat="47.38033" lon="-2.36065">
        <ele>1</ele>
        <time>2021-11-25T10:20:23.000Z</time>
      </trkpt>
      <trkpt lat="47.3804" lon="-2.36063">
        <ele>0.60000002384186</ele>
        <time>2021-11-25T10:20:24.000Z</time>
      </trkpt>
      <trkpt lat="47.38071" lon="-2.36054">
        <ele>0.60000002384186</ele>
        <time>2021-11-25T10:20:29.000Z</time>
      </trkpt>
      <trkpt lat="47.3812" lon="-2.36037">
        <ele>0.60000002384186</ele>
        <time>2021-11-25T10:20:37.000Z</time>
      </trkpt>
      <trkpt lat="47.38155" lon="-2.36015">
        <ele>0.60000002384186</ele>
        <time>2021-11-25T10:20:43.000Z</time>
      </trkpt>
      <trkpt lat="47.38186" lon="-2.35991">
        <ele>0.60000002384186</ele>
        <time>2021-11-25T10:20:49.000Z</time>
      </trkpt>
      <trkpt lat="47.38222" lon="-2.35966">
        <ele>0.60000002384186</ele>
        <time>2021-11-25T10:20:56.000Z</time>
      </trkpt>
      <trkpt lat="47.38274" lon="-2.35931">
        <ele>3.7</ele>
        <time>2021-11-25T10:21:06.000Z</time>
      </trkpt>
      <trkpt lat="47.38279" lon="-2.35927">
        <ele>-0.40000000596046</ele>
        <time>2021-11-25T10:21:07.000Z</time>
      </trkpt>
      <trkpt lat="47.38283" lon="-2.35924">
        <ele>-0.80000001192093</ele>
        <time>2021-11-25T10:21:08.000Z</time>
      </trkpt>
      <trkpt lat="47.38286" lon="-2.35922">
        <ele>-1.2000000476837</ele>
        <time>2021-11-25T10:21:09.000Z</time>
      </trkpt>
      <trkpt lat="47.3829" lon="-2.35924">
        <ele>-1.6000000238419</ele>
        <time>2021-11-25T10:21:10.000Z</time>
      </trkpt>
      <trkpt lat="47.38299" lon="-2.35938">
        <ele>-1.6000000238419</ele>
        <time>2021-11-25T10:21:13.000Z</time>
      </trkpt>
      <trkpt lat="47.38303" lon="-2.35958">
        <ele>-1.6000000238419</ele>
        <time>2021-11-25T10:21:16.000Z</time>
      </trkpt>
      <trkpt lat="47.38304" lon="-2.35964">
        <ele>-1.6000000238419</ele>
        <time>2021-11-25T10:21:17.000Z</time>
      </trkpt>
      <trkpt lat="47.38312" lon="-2.35999">
        <ele>-1.6000000238419</ele>
        <time>2021-11-25T10:21:23.000Z</time>
      </trkpt>
      <trkpt lat="47.38318" lon="-2.36038">
        <ele>-1.6000000238419</ele>
        <time>2021-11-25T10:21:28.000Z</time>
      </trkpt>
      <trkpt lat="47.38325" lon="-2.36062">
        <ele>-1.6000000238419</ele>
        <time>2021-11-25T10:21:31.000Z</time>
      </trkpt>
      <trkpt lat="47.3833" lon="-2.36078">
        <ele>-1.6000000238419</ele>
        <time>2021-11-25T10:21:34.000Z</time>
      </trkpt>
      <trkpt lat="47.3834" lon="-2.361">
        <ele>-2</ele>
        <time>2021-11-25T10:21:37.000Z</time>
      </trkpt>
      <trkpt lat="47.38343" lon="-2.36108">
        <ele>-2.4000000953674</ele>
        <time>2021-11-25T10:21:38.000Z</time>
      </trkpt>
      <trkpt lat="47.38346" lon="-2.36115">
        <ele>-2.7999999523163</ele>
        <time>2021-11-25T10:21:39.000Z</time>
      </trkpt>
      <trkpt lat="47.38349" lon="-2.36121">
        <ele>-3.2000000476837</ele>
        <time>2021-11-25T10:21:40.000Z</time>
      </trkpt>
      <trkpt lat="47.38351" lon="-2.36128">
        <ele>-3.5999999046326</ele>
        <time>2021-11-25T10:21:41.000Z</time>
      </trkpt>
      <trkpt lat="47.38358" lon="-2.36151">
        <ele>-3.5999999046326</ele>
        <time>2021-11-25T10:21:44.000Z</time>
      </trkpt>
      <trkpt lat="47.3836" lon="-2.36158">
        <ele>-3.5999999046326</ele>
        <time>2021-11-25T10:21:45.000Z</time>
      </trkpt>
      <trkpt lat="47.38374" lon="-2.36181">
        <ele>-3.5999999046326</ele>
        <time>2021-11-25T10:21:49.000Z</time>
      </trkpt>
      <trkpt lat="47.38391" lon="-2.36187">
        <ele>-3.5999999046326</ele>
        <time>2021-11-25T10:21:53.000Z</time>
      </trkpt>
      <trkpt lat="47.38397" lon="-2.36196">
        <ele>-3.5999999046326</ele>
        <time>2021-11-25T10:21:56.000Z</time>
      </trkpt>
      <trkpt lat="47.38403" lon="-2.36205">
        <ele>-3.5999999046326</ele>
        <time>2021-11-25T10:22:00.000Z</time>
      </trkpt>
      <trkpt lat="47.38407" lon="-2.36207">
        <ele>-3.5999999046326</ele>
        <time>2021-11-25T10:22:02.000Z</time>
      </trkpt>
      <trkpt lat="47.38413" lon="-2.3621">
        <ele>-3.5999999046326</ele>
        <time>2021-11-25T10:22:05.000Z</time>
      </trkpt>
      <trkpt lat="47.38414" lon="-2.36212">
        <ele>-3.5999999046326</ele>
        <time>2021-11-25T10:22:06.000Z</time>
      </trkpt>
      <trkpt lat="47.38417" lon="-2.3622">
        <ele>-3.5999999046326</ele>
        <time>2021-11-25T10:22:09.000Z</time>
      </trkpt>
      <trkpt lat="47.38417" lon="-2.36223">
        <ele>-3.5999999046326</ele>
        <time>2021-11-25T10:22:10.000Z</time>
      </trkpt>
      <trkpt lat="47.38419" lon="-2.36229">
        <ele>-3.5999999046326</ele>
        <time>2021-11-25T10:22:12.000Z</time>
      </trkpt>
      <trkpt lat="47.38422" lon="-2.36235">
        <ele>-3.5999999046326</ele>
        <time>2021-11-25T10:22:14.000Z</time>
      </trkpt>
      <trkpt lat="47.38429" lon="-2.36244">
        <ele>-3.5999999046326</ele>
        <time>2021-11-25T10:22:17.000Z</time>
      </trkpt>
      <trkpt lat="47.38432" lon="-2.36245">
        <ele>-3.5999999046326</ele>
        <time>2021-11-25T10:22:18.000Z</time>
      </trkpt>
      <trkpt lat="47.38452" lon="-2.36253">
        <ele>-3.5999999046326</ele>
        <time>2021-11-25T10:22:23.000Z</time>
      </trkpt>
      <trkpt lat="47.38462" lon="-2.36246">
        <ele>-3.5999999046326</ele>
        <time>2021-11-25T10:22:26.000Z</time>
      </trkpt>
      <trkpt lat="47.38475" lon="-2.3624">
        <ele>-3.5999999046326</ele>
        <time>2021-11-25T10:22:30.000Z</time>
      </trkpt>
      <trkpt lat="47.38487" lon="-2.36243">
        <ele>-3.5999999046326</ele>
        <time>2021-11-25T10:22:32.000Z</time>
      </trkpt>
      <trkpt lat="47.38497" lon="-2.36246">
        <ele>-3.5999999046326</ele>
        <time>2021-11-25T10:22:34.000Z</time>
      </trkpt>
      <trkpt lat="47.38523" lon="-2.36254">
        <ele>-3.5999999046326</ele>
        <time>2021-11-25T10:22:39.000Z</time>
      </trkpt>
      <trkpt lat="47.38546" lon="-2.36254">
        <ele>-3.5999999046326</ele>
        <time>2021-11-25T10:22:45.000Z</time>
      </trkpt>
      <trkpt lat="47.38571" lon="-2.36254">
        <ele>-3.5999999046326</ele>
        <time>2021-11-25T10:22:50.000Z</time>
      </trkpt>
      <trkpt lat="47.38599" lon="-2.36265">
        <ele>-3.5999999046326</ele>
        <time>2021-11-25T10:22:54.000Z</time>
      </trkpt>
      <trkpt lat="47.38605" lon="-2.36271">
        <ele>-3.5999999046326</ele>
        <time>2021-11-25T10:22:55.000Z</time>
      </trkpt>
      <trkpt lat="47.38616" lon="-2.36295">
        <ele>-3.5999999046326</ele>
        <time>2021-11-25T10:22:58.000Z</time>
      </trkpt>
      <trkpt lat="47.38618" lon="-2.36328">
        <ele>-3.5999999046326</ele>
        <time>2021-11-25T10:23:02.000Z</time>
      </trkpt>
      <trkpt lat="47.38613" lon="-2.3635">
        <ele>-3.5999999046326</ele>
        <time>2021-11-25T10:23:05.000Z</time>
      </trkpt>
      <trkpt lat="47.38608" lon="-2.36364">
        <ele>-3.5999999046326</ele>
        <time>2021-11-25T10:23:07.000Z</time>
      </trkpt>
      <trkpt lat="47.38588" lon="-2.36407">
        <ele>-3.5999999046326</ele>
        <time>2021-11-25T10:23:14.000Z</time>
      </trkpt>
      <trkpt lat="47.38568" lon="-2.3645">
        <ele>-3.5999999046326</ele>
        <time>2021-11-25T10:23:21.000Z</time>
      </trkpt>
      <trkpt lat="47.38541" lon="-2.36503">
        <ele>-3.5999999046326</ele>
        <time>2021-11-25T10:23:29.000Z</time>
      </trkpt>
      <trkpt lat="47.38534" lon="-2.36516">
        <ele>-3.5999999046326</ele>
        <time>2021-11-25T10:23:31.000Z</time>
      </trkpt>
      <trkpt lat="47.38519" lon="-2.36532">
        <ele>-3.5999999046326</ele>
        <time>2021-11-25T10:23:34.000Z</time>
      </trkpt>
      <trkpt lat="47.38487" lon="-2.36562">
        <ele>-3.5999999046326</ele>
        <time>2021-11-25T10:23:41.000Z</time>
      </trkpt>
      <trkpt lat="47.38476" lon="-2.36567">
        <ele>-3.5999999046326</ele>
        <time>2021-11-25T10:23:43.000Z</time>
      </trkpt>
      <trkpt lat="47.38466" lon="-2.36572">
        <ele>-3.5999999046326</ele>
        <time>2021-11-25T10:23:45.000Z</time>
      </trkpt>
      <trkpt lat="47.38461" lon="-2.36574">
        <ele>-3.5999999046326</ele>
        <time>2021-11-25T10:23:46.000Z</time>
      </trkpt>
      <trkpt lat="47.38441" lon="-2.36583">
        <ele>-3.5999999046326</ele>
        <time>2021-11-25T10:23:50.000Z</time>
      </trkpt>
      <trkpt lat="47.38433" lon="-2.36592">
        <ele>-3.5999999046326</ele>
        <time>2021-11-25T10:23:52.000Z</time>
      </trkpt>
      <trkpt lat="47.38416" lon="-2.36625">
        <ele>-3.5999999046326</ele>
        <time>2021-11-25T10:23:57.000Z</time>
      </trkpt>
      <trkpt lat="47.38408" lon="-2.3664">
        <ele>-3.5999999046326</ele>
        <time>2021-11-25T10:23:59.000Z</time>
      </trkpt>
      <trkpt lat="47.384" lon="-2.36663">
        <ele>-3.5999999046326</ele>
        <time>2021-11-25T10:24:02.000Z</time>
      </trkpt>
      <trkpt lat="47.38398" lon="-2.36671">
        <ele>-3.5999999046326</ele>
        <time>2021-11-25T10:24:03.000Z</time>
      </trkpt>
      <trkpt lat="47.38393" lon="-2.36684">
        <ele>-3.5999999046326</ele>
        <time>2021-11-25T10:24:05.000Z</time>
      </trkpt>
      <trkpt lat="47.38389" lon="-2.36698">
        <ele>-3.5999999046326</ele>
        <time>2021-11-25T10:24:07.000Z</time>
      </trkpt>
      <trkpt lat="47.38377" lon="-2.36735">
        <ele>-3.5999999046326</ele>
        <time>2021-11-25T10:24:12.000Z</time>
      </trkpt>
      <trkpt lat="47.3836" lon="-2.36771">
        <ele>-3.5999999046326</ele>
        <time>2021-11-25T10:24:17.000Z</time>
      </trkpt>
      <trkpt lat="47.38344" lon="-2.36784">
        <ele>-3.5999999046326</ele>
        <time>2021-11-25T10:24:20.000Z</time>
      </trkpt>
      <trkpt lat="47.38333" lon="-2.36789">
        <ele>-3.5999999046326</ele>
        <time>2021-11-25T10:24:22.000Z</time>
      </trkpt>
      <trkpt lat="47.38315" lon="-2.36797">
        <ele>-3.5999999046326</ele>
        <time>2021-11-25T10:24:25.000Z</time>
      </trkpt>
      <trkpt lat="47.38309" lon="-2.36798">
        <ele>-3.5999999046326</ele>
        <time>2021-11-25T10:24:26.000Z</time>
      </trkpt>
      <trkpt lat="47.38286" lon="-2.36802">
        <ele>-3.5999999046326</ele>
        <time>2021-11-25T10:24:30.000Z</time>
      </trkpt>
      <trkpt lat="47.38259" lon="-2.36815">
        <ele>-3.5999999046326</ele>
        <time>2021-11-25T10:24:36.000Z</time>
      </trkpt>
      <trkpt lat="47.38229" lon="-2.36834">
        <ele>-3.5999999046326</ele>
        <time>2021-11-25T10:24:43.000Z</time>
      </trkpt>
      <trkpt lat="47.38225" lon="-2.36837">
        <ele>-3.5999999046326</ele>
        <time>2021-11-25T10:24:44.000Z</time>
      </trkpt>
      <trkpt lat="47.38216" lon="-2.36842">
        <ele>-3.2000000476837</ele>
        <time>2021-11-25T10:24:46.000Z</time>
      </trkpt>
      <trkpt lat="47.38212" lon="-2.36844">
        <ele>-2.7999999523163</ele>
        <time>2021-11-25T10:24:47.000Z</time>
      </trkpt>
      <trkpt lat="47.38207" lon="-2.36847">
        <ele>-2.4000000953674</ele>
        <time>2021-11-25T10:24:48.000Z</time>
      </trkpt>
      <trkpt lat="47.38203" lon="-2.3685">
        <ele>-2</ele>
        <time>2021-11-25T10:24:49.000Z</time>
      </trkpt>
      <trkpt lat="47.38199" lon="-2.36852">
        <ele>-1.6000000238419</ele>
        <time>2021-11-25T10:24:50.000Z</time>
      </trkpt>
      <trkpt lat="47.38171" lon="-2.36869">
        <ele>-1.6000000238419</ele>
        <time>2021-11-25T10:24:56.000Z</time>
      </trkpt>
      <trkpt lat="47.38163" lon="-2.36874">
        <ele>-1.2000000476837</ele>
        <time>2021-11-25T10:24:58.000Z</time>
      </trkpt>
      <trkpt lat="47.38158" lon="-2.36876">
        <ele>-0.80000001192093</ele>
        <time>2021-11-25T10:24:59.000Z</time>
      </trkpt>
      <trkpt lat="47.38154" lon="-2.36879">
        <ele>-0.20000000298023</ele>
        <time>2021-11-25T10:25:00.000Z</time>
      </trkpt>
      <trkpt lat="47.38149" lon="-2.36882">
        <ele>0.20000000298023</ele>
        <time>2021-11-25T10:25:01.000Z</time>
      </trkpt>
      <trkpt lat="47.38144" lon="-2.36884">
        <ele>0.60000002384186</ele>
        <time>2021-11-25T10:25:02.000Z</time>
      </trkpt>
      <trkpt lat="47.38119" lon="-2.369">
        <ele>0.60000002384186</ele>
        <time>2021-11-25T10:25:08.000Z</time>
      </trkpt>
      <trkpt lat="47.38117" lon="-2.36909">
        <ele>1</ele>
        <time>2021-11-25T10:25:10.000Z</time>
      </trkpt>
      <trkpt lat="47.38118" lon="-2.36914">
        <ele>1.3999999761581</ele>
        <time>2021-11-25T10:25:11.000Z</time>
      </trkpt>
      <trkpt lat="47.38119" lon="-2.36919">
        <ele>1.7999999523163</ele>
        <time>2021-11-25T10:25:12.000Z</time>
      </trkpt>
      <trkpt lat="47.3812" lon="-2.36925">
        <ele>2.2000000476837</ele>
        <time>2021-11-25T10:25:13.000Z</time>
      </trkpt>
      <trkpt lat="47.38122" lon="-2.36931">
        <ele>2.5999999046326</ele>
        <time>2021-11-25T10:25:14.000Z</time>
      </trkpt>
      <trkpt lat="47.38128" lon="-2.36948">
        <ele>2.5999999046326</ele>
        <time>2021-11-25T10:25:17.000Z</time>
      </trkpt>
      <trkpt lat="47.38142" lon="-2.3698">
        <ele>2.5999999046326</ele>
        <time>2021-11-25T10:25:22.000Z</time>
      </trkpt>
      <trkpt lat="47.38143" lon="-2.36986">
        <ele>2.5999999046326</ele>
        <time>2021-11-25T10:25:23.000Z</time>
      </trkpt>
      <trkpt lat="47.3815" lon="-2.37002">
        <ele>2.5999999046326</ele>
        <time>2021-11-25T10:25:26.000Z</time>
      </trkpt>
      <trkpt lat="47.38153" lon="-2.37008">
        <ele>2.5999999046326</ele>
        <time>2021-11-25T10:25:27.000Z</time>
      </trkpt>
      <trkpt lat="47.38164" lon="-2.37032">
        <ele>2.5999999046326</ele>
        <time>2021-11-25T10:25:31.000Z</time>
      </trkpt>
      <trkpt lat="47.38185" lon="-2.37074">
        <ele>2.5999999046326</ele>
        <time>2021-11-25T10:25:37.000Z</time>
      </trkpt>
      <trkpt lat="47.38197" lon="-2.37099">
        <ele>2.5999999046326</ele>
        <time>2021-11-25T10:25:40.000Z</time>
      </trkpt>
      <trkpt lat="47.382" lon="-2.37109">
        <ele>2.2000000476837</ele>
        <time>2021-11-25T10:25:41.000Z</time>
      </trkpt>
      <trkpt lat="47.38204" lon="-2.37118">
        <ele>1.7999999523163</ele>
        <time>2021-11-25T10:25:42.000Z</time>
      </trkpt>
      <trkpt lat="47.38208" lon="-2.37127">
        <ele>1.3999999761581</ele>
        <time>2021-11-25T10:25:43.000Z</time>
      </trkpt>
      <trkpt lat="47.38212" lon="-2.37136">
        <ele>0.80000001192093</ele>
        <time>2021-11-25T10:25:44.000Z</time>
      </trkpt>
      <trkpt lat="47.38216" lon="-2.37145">
        <ele>0.40000000596046</ele>
        <time>2021-11-25T10:25:45.000Z</time>
      </trkpt>
      <trkpt lat="47.38229" lon="-2.37173">
        <ele>3</ele>
        <time>2021-11-25T10:25:48.000Z</time>
      </trkpt>
      <trkpt lat="47.38233" lon="-2.37182">
        <ele>-0.40000000596046</ele>
        <time>2021-11-25T10:25:49.000Z</time>
      </trkpt>
      <trkpt lat="47.38236" lon="-2.37191">
        <ele>-1</ele>
        <time>2021-11-25T10:25:50.000Z</time>
      </trkpt>
      <trkpt lat="47.3824" lon="-2.372">
        <ele>-1.7999999523163</ele>
        <time>2021-11-25T10:25:51.000Z</time>
      </trkpt>
      <trkpt lat="47.38248" lon="-2.37219">
        <ele>-1.7999999523163</ele>
        <time>2021-11-25T10:25:54.000Z</time>
      </trkpt>
      <trkpt lat="47.38257" lon="-2.37223">
        <ele>-1.7999999523163</ele>
        <time>2021-11-25T10:25:57.000Z</time>
      </trkpt>
      <trkpt lat="47.38266" lon="-2.37223">
        <ele>-1.7999999523163</ele>
        <time>2021-11-25T10:26:01.000Z</time>
      </trkpt>
      <trkpt lat="47.38272" lon="-2.37221">
        <ele>-1.7999999523163</ele>
        <time>2021-11-25T10:26:05.000Z</time>
      </trkpt>
      <trkpt lat="47.38273" lon="-2.37219">
        <ele>-1.7999999523163</ele>
        <time>2021-11-25T10:26:06.000Z</time>
      </trkpt>
      <trkpt lat="47.38275" lon="-2.37217">
        <ele>-1.7999999523163</ele>
        <time>2021-11-25T10:26:07.000Z</time>
      </trkpt>
      <trkpt lat="47.3828" lon="-2.37213">
        <ele>-1.7999999523163</ele>
        <time>2021-11-25T10:26:10.000Z</time>
      </trkpt>
      <trkpt lat="47.38283" lon="-2.37212">
        <ele>-1.7999999523163</ele>
        <time>2021-11-25T10:26:12.000Z</time>
      </trkpt>
      <trkpt lat="47.3829" lon="-2.37219">
        <ele>-1.7999999523163</ele>
        <time>2021-11-25T10:26:19.000Z</time>
      </trkpt>
      <trkpt lat="47.38292" lon="-2.37223">
        <ele>-1.7999999523163</ele>
        <time>2021-11-25T10:26:21.000Z</time>
      </trkpt>
      <trkpt lat="47.38296" lon="-2.37224">
        <ele>-1.7999999523163</ele>
        <time>2021-11-25T10:26:23.000Z</time>
      </trkpt>
      <trkpt lat="47.38305" lon="-2.37232">
        <ele>-1.7999999523163</ele>
        <time>2021-11-25T10:26:28.000Z</time>
      </trkpt>
      <trkpt lat="47.38308" lon="-2.37238">
        <ele>-1.7999999523163</ele>
        <time>2021-11-25T10:26:30.000Z</time>
      </trkpt>
      <trkpt lat="47.38317" lon="-2.37251">
        <ele>-1.7999999523163</ele>
        <time>2021-11-25T10:26:35.000Z</time>
      </trkpt>
      <trkpt lat="47.38324" lon="-2.37261">
        <ele>-1.7999999523163</ele>
        <time>2021-11-25T10:26:40.000Z</time>
      </trkpt>
      <trkpt lat="47.38326" lon="-2.37265">
        <ele>-1.7999999523163</ele>
        <time>2021-11-25T10:26:41.000Z</time>
      </trkpt>
      <trkpt lat="47.38331" lon="-2.37273">
        <ele>-1.7999999523163</ele>
        <time>2021-11-25T10:26:45.000Z</time>
      </trkpt>
      <trkpt lat="47.38338" lon="-2.37283">
        <ele>-1.7999999523163</ele>
        <time>2021-11-25T10:26:50.000Z</time>
      </trkpt>
      <trkpt lat="47.38338" lon="-2.3729">
        <ele>-1.7999999523163</ele>
        <time>2021-11-25T10:26:55.000Z</time>
      </trkpt>
      <trkpt lat="47.38338" lon="-2.37295">
        <ele>-1.7999999523163</ele>
        <time>2021-11-25T10:26:57.000Z</time>
      </trkpt>
      <trkpt lat="47.38337" lon="-2.37302">
        <ele>-1.7999999523163</ele>
        <time>2021-11-25T10:26:59.000Z</time>
      </trkpt>
      <trkpt lat="47.38339" lon="-2.37312">
        <ele>-1.7999999523163</ele>
        <time>2021-11-25T10:27:04.000Z</time>
      </trkpt>
      <trkpt lat="47.3834" lon="-2.37328">
        <ele>-1.7999999523163</ele>
        <time>2021-11-25T10:27:10.000Z</time>
      </trkpt>
      <trkpt lat="47.38343" lon="-2.37338">
        <ele>-1.7999999523163</ele>
        <time>2021-11-25T10:27:16.000Z</time>
      </trkpt>
      <trkpt lat="47.38343" lon="-2.37356">
        <ele>-1.7999999523163</ele>
        <time>2021-11-25T10:27:20.000Z</time>
      </trkpt>
      <trkpt lat="47.38344" lon="-2.37383">
        <ele>-1.7999999523163</ele>
        <time>2021-11-25T10:27:25.000Z</time>
      </trkpt>
      <trkpt lat="47.38348" lon="-2.37407">
        <ele>-1.7999999523163</ele>
        <time>2021-11-25T10:27:29.000Z</time>
      </trkpt>
      <trkpt lat="47.38351" lon="-2.37419">
        <ele>-1.7999999523163</ele>
        <time>2021-11-25T10:27:31.000Z</time>
      </trkpt>
      <trkpt lat="47.38354" lon="-2.37437">
        <ele>-1.7999999523163</ele>
        <time>2021-11-25T10:27:35.000Z</time>
      </trkpt>
      <trkpt lat="47.38359" lon="-2.37463">
        <ele>-1.7999999523163</ele>
        <time>2021-11-25T10:27:41.000Z</time>
      </trkpt>
      <trkpt lat="47.38362" lon="-2.37493">
        <ele>-1.7999999523163</ele>
        <time>2021-11-25T10:27:48.000Z</time>
      </trkpt>
      <trkpt lat="47.38362" lon="-2.37499">
        <ele>-1.3999999761581</ele>
        <time>2021-11-25T10:27:50.000Z</time>
      </trkpt>
      <trkpt lat="47.38361" lon="-2.37503">
        <ele>-1</ele>
        <time>2021-11-25T10:27:51.000Z</time>
      </trkpt>
      <trkpt lat="47.38362" lon="-2.37507">
        <ele>-0.60000002384186</ele>
        <time>2021-11-25T10:27:52.000Z</time>
      </trkpt>
      <trkpt lat="47.38362" lon="-2.37511">
        <ele>0.20000000298023</ele>
        <time>2021-11-25T10:27:53.000Z</time>
      </trkpt>
      <trkpt lat="47.38362" lon="-2.37534">
        <ele>0.20000000298023</ele>
        <time>2021-11-25T10:27:59.000Z</time>
      </trkpt>
      <trkpt lat="47.38361" lon="-2.37554">
        <ele>0.20000000298023</ele>
        <time>2021-11-25T10:28:03.000Z</time>
      </trkpt>
      <trkpt lat="47.38359" lon="-2.37558">
        <ele>0.20000000298023</ele>
        <time>2021-11-25T10:28:04.000Z</time>
      </trkpt>
      <trkpt lat="47.38348" lon="-2.37565">
        <ele>0.20000000298023</ele>
        <time>2021-11-25T10:28:07.000Z</time>
      </trkpt>
      <trkpt lat="47.3834" lon="-2.37574">
        <ele>0.20000000298023</ele>
        <time>2021-11-25T10:28:09.000Z</time>
      </trkpt>
      <trkpt lat="47.38335" lon="-2.37578">
        <ele>0.60000002384186</ele>
        <time>2021-11-25T10:28:10.000Z</time>
      </trkpt>
      <trkpt lat="47.38331" lon="-2.37582">
        <ele>1</ele>
        <time>2021-11-25T10:28:11.000Z</time>
      </trkpt>
      <trkpt lat="47.38326" lon="-2.37586">
        <ele>1.3999999761581</ele>
        <time>2021-11-25T10:28:12.000Z</time>
      </trkpt>
      <trkpt lat="47.38322" lon="-2.37589">
        <ele>1.7999999523163</ele>
        <time>2021-11-25T10:28:13.000Z</time>
      </trkpt>
      <trkpt lat="47.38318" lon="-2.37592">
        <ele>2.2000000476837</ele>
        <time>2021-11-25T10:28:14.000Z</time>
      </trkpt>
      <trkpt lat="47.38306" lon="-2.37598">
        <ele>2.2000000476837</ele>
        <time>2021-11-25T10:28:17.000Z</time>
      </trkpt>
      <trkpt lat="47.38276" lon="-2.37616">
        <ele>2.2000000476837</ele>
        <time>2021-11-25T10:28:25.000Z</time>
      </trkpt>
      <trkpt lat="47.38261" lon="-2.3762">
        <ele>2.2000000476837</ele>
        <time>2021-11-25T10:28:30.000Z</time>
      </trkpt>
      <trkpt lat="47.38253" lon="-2.37624">
        <ele>2.2000000476837</ele>
        <time>2021-11-25T10:28:32.000Z</time>
      </trkpt>
      <trkpt lat="47.38249" lon="-2.37626">
        <ele>2.5999999046326</ele>
        <time>2021-11-25T10:28:33.000Z</time>
      </trkpt>
      <trkpt lat="47.38245" lon="-2.37629">
        <ele>3</ele>
        <time>2021-11-25T10:28:34.000Z</time>
      </trkpt>
      <trkpt lat="47.38241" lon="-2.37631">
        <ele>3.5999999046326</ele>
        <time>2021-11-25T10:28:35.000Z</time>
      </trkpt>
      <trkpt lat="47.38237" lon="-2.37633">
        <ele>4</ele>
        <time>2021-11-25T10:28:36.000Z</time>
      </trkpt>
      <trkpt lat="47.38234" lon="-2.37636">
        <ele>4.4000000953674</ele>
        <time>2021-11-25T10:28:37.000Z</time>
      </trkpt>
      <trkpt lat="47.38218" lon="-2.37646">
        <ele>4.4000000953674</ele>
        <time>2021-11-25T10:28:41.000Z</time>
      </trkpt>
      <trkpt lat="47.38207" lon="-2.37655">
        <ele>4.4000000953674</ele>
        <time>2021-11-25T10:28:44.000Z</time>
      </trkpt>
      <trkpt lat="47.38193" lon="-2.37668">
        <ele>4.4000000953674</ele>
        <time>2021-11-25T10:28:48.000Z</time>
      </trkpt>
      <trkpt lat="47.38178" lon="-2.3768">
        <ele>4.8000001907349</ele>
        <time>2021-11-25T10:28:52.000Z</time>
      </trkpt>
      <trkpt lat="47.38175" lon="-2.37684">
        <ele>5.1999998092651</ele>
        <time>2021-11-25T10:28:53.000Z</time>
      </trkpt>
      <trkpt lat="47.38172" lon="-2.37688">
        <ele>5.5999999046326</ele>
        <time>2021-11-25T10:28:54.000Z</time>
      </trkpt>
      <trkpt lat="47.38168" lon="-2.37691">
        <ele>6</ele>
        <time>2021-11-25T10:28:55.000Z</time>
      </trkpt>
      <trkpt lat="47.38164" lon="-2.37694">
        <ele>6.4000000953674</ele>
        <time>2021-11-25T10:28:56.000Z</time>
      </trkpt>
      <trkpt lat="47.38149" lon="-2.37708">
        <ele>6.4000000953674</ele>
        <time>2021-11-25T10:29:00.000Z</time>
      </trkpt>
      <trkpt lat="47.38121" lon="-2.37733">
        <ele>6.4000000953674</ele>
        <time>2021-11-25T10:29:07.000Z</time>
      </trkpt>
      <trkpt lat="47.38104" lon="-2.37747">
        <ele>6.8000001907349</ele>
        <time>2021-11-25T10:29:11.000Z</time>
      </trkpt>
      <trkpt lat="47.381" lon="-2.3775">
        <ele>7.1999998092651</ele>
        <time>2021-11-25T10:29:12.000Z</time>
      </trkpt>
      <trkpt lat="47.38096" lon="-2.37754">
        <ele>7.5999999046326</ele>
        <time>2021-11-25T10:29:13.000Z</time>
      </trkpt>
      <trkpt lat="47.38092" lon="-2.37757">
        <ele>8</ele>
        <time>2021-11-25T10:29:14.000Z</time>
      </trkpt>
      <trkpt lat="47.38088" lon="-2.3776">
        <ele>8.3999996185303</ele>
        <time>2021-11-25T10:29:15.000Z</time>
      </trkpt>
      <trkpt lat="47.38074" lon="-2.37773">
        <ele>8.3999996185303</ele>
        <time>2021-11-25T10:29:19.000Z</time>
      </trkpt>
      <trkpt lat="47.38059" lon="-2.37786">
        <ele>8.3999996185303</ele>
        <time>2021-11-25T10:29:23.000Z</time>
      </trkpt>
      <trkpt lat="47.38054" lon="-2.37789">
        <ele>8.8000001907349</ele>
        <time>2021-11-25T10:29:24.000Z</time>
      </trkpt>
      <trkpt lat="47.38051" lon="-2.37792">
        <ele>9.1999998092651</ele>
        <time>2021-11-25T10:29:25.000Z</time>
      </trkpt>
      <trkpt lat="47.38047" lon="-2.37795">
        <ele>9.6000003814697</ele>
        <time>2021-11-25T10:29:26.000Z</time>
      </trkpt>
      <trkpt lat="47.38043" lon="-2.37798">
        <ele>10</ele>
        <time>2021-11-25T10:29:27.000Z</time>
      </trkpt>
      <trkpt lat="47.38039" lon="-2.37801">
        <ele>10.39999961853</ele>
        <time>2021-11-25T10:29:28.000Z</time>
      </trkpt>
      <trkpt lat="47.38022" lon="-2.37816">
        <ele>10.39999961853</ele>
        <time>2021-11-25T10:29:32.000Z</time>
      </trkpt>
      <trkpt lat="47.38" lon="-2.37832">
        <ele>10.39999961853</ele>
        <time>2021-11-25T10:29:37.000Z</time>
      </trkpt>
      <trkpt lat="47.37973" lon="-2.37851">
        <ele>10.39999961853</ele>
        <time>2021-11-25T10:29:43.000Z</time>
      </trkpt>
      <trkpt lat="47.37969" lon="-2.37853">
        <ele>10.39999961853</ele>
        <time>2021-11-25T10:29:44.000Z</time>
      </trkpt>
      <trkpt lat="47.37946" lon="-2.37871">
        <ele>10.800000190735</ele>
        <time>2021-11-25T10:29:49.000Z</time>
      </trkpt>
      <trkpt lat="47.3794" lon="-2.37875">
        <ele>11.199999809265</ele>
        <time>2021-11-25T10:29:50.000Z</time>
      </trkpt>
      <trkpt lat="47.37936" lon="-2.3788">
        <ele>11.60000038147</ele>
        <time>2021-11-25T10:29:51.000Z</time>
      </trkpt>
      <trkpt lat="47.37931" lon="-2.37884">
        <ele>12</ele>
        <time>2021-11-25T10:29:52.000Z</time>
      </trkpt>
      <trkpt lat="47.37926" lon="-2.37887">
        <ele>12.60000038147</ele>
        <time>2021-11-25T10:29:53.000Z</time>
      </trkpt>
      <trkpt lat="47.37906" lon="-2.37901">
        <ele>12.60000038147</ele>
        <time>2021-11-25T10:29:57.000Z</time>
      </trkpt>
      <trkpt lat="47.3787" lon="-2.37927">
        <ele>12.60000038147</ele>
        <time>2021-11-25T10:30:04.000Z</time>
      </trkpt>
      <trkpt lat="47.37824" lon="-2.37959">
        <ele>12.60000038147</ele>
        <time>2021-11-25T10:30:13.000Z</time>
      </trkpt>
      <trkpt lat="47.37776" lon="-2.37993">
        <ele>12.60000038147</ele>
        <time>2021-11-25T10:30:22.000Z</time>
      </trkpt>
      <trkpt lat="47.37733" lon="-2.38021">
        <ele>12.60000038147</ele>
        <time>2021-11-25T10:30:30.000Z</time>
      </trkpt>
      <trkpt lat="47.37713" lon="-2.38037">
        <ele>12.60000038147</ele>
        <time>2021-11-25T10:30:34.000Z</time>
      </trkpt>
      <trkpt lat="47.37711" lon="-2.3804">
        <ele>12</ele>
        <time>2021-11-25T10:30:35.000Z</time>
      </trkpt>
      <trkpt lat="47.37708" lon="-2.38044">
        <ele>11.60000038147</ele>
        <time>2021-11-25T10:30:36.000Z</time>
      </trkpt>
      <trkpt lat="47.37705" lon="-2.38047">
        <ele>11.199999809265</ele>
        <time>2021-11-25T10:30:37.000Z</time>
      </trkpt>
      <trkpt lat="47.37702" lon="-2.3805">
        <ele>10.800000190735</ele>
        <time>2021-11-25T10:30:38.000Z</time>
      </trkpt>
      <trkpt lat="47.37698" lon="-2.38054">
        <ele>10.39999961853</ele>
        <time>2021-11-25T10:30:39.000Z</time>
      </trkpt>
      <trkpt lat="47.37689" lon="-2.38064">
        <ele>10.39999961853</ele>
        <time>2021-11-25T10:30:41.000Z</time>
      </trkpt>
      <trkpt lat="47.37667" lon="-2.38088">
        <ele>10.39999961853</ele>
        <time>2021-11-25T10:30:45.000Z</time>
      </trkpt>
      <trkpt lat="47.37661" lon="-2.38093">
        <ele>10.39999961853</ele>
        <time>2021-11-25T10:30:46.000Z</time>
      </trkpt>
      <trkpt lat="47.37656" lon="-2.38098">
        <ele>9.8000001907349</ele>
        <time>2021-11-25T10:30:47.000Z</time>
      </trkpt>
      <trkpt lat="47.3765" lon="-2.38102">
        <ele>9.3999996185303</ele>
        <time>2021-11-25T10:30:48.000Z</time>
      </trkpt>
      <trkpt lat="47.37644" lon="-2.38106">
        <ele>9</ele>
        <time>2021-11-25T10:30:49.000Z</time>
      </trkpt>
      <trkpt lat="47.37638" lon="-2.38109">
        <ele>8.3999996185303</ele>
        <time>2021-11-25T10:30:50.000Z</time>
      </trkpt>
      <trkpt lat="47.37632" lon="-2.38113">
        <ele>8</ele>
        <time>2021-11-25T10:30:51.000Z</time>
      </trkpt>
      <trkpt lat="47.3762" lon="-2.3812">
        <ele>8</ele>
        <time>2021-11-25T10:30:53.000Z</time>
      </trkpt>
      <trkpt lat="47.37591" lon="-2.38137">
        <ele>8</ele>
        <time>2021-11-25T10:30:59.000Z</time>
      </trkpt>
      <trkpt lat="47.37562" lon="-2.38155">
        <ele>8</ele>
        <time>2021-11-25T10:31:06.000Z</time>
      </trkpt>
      <trkpt lat="47.37539" lon="-2.38168">
        <ele>8</ele>
        <time>2021-11-25T10:31:12.000Z</time>
      </trkpt>
      <trkpt lat="47.37512" lon="-2.38183">
        <ele>8</ele>
        <time>2021-11-25T10:31:19.000Z</time>
      </trkpt>
      <trkpt lat="47.37486" lon="-2.38201">
        <ele>8</ele>
        <time>2021-11-25T10:31:26.000Z</time>
      </trkpt>
      <trkpt lat="47.3746" lon="-2.38218">
        <ele>8</ele>
        <time>2021-11-25T10:31:32.000Z</time>
      </trkpt>
      <trkpt lat="47.37436" lon="-2.38234">
        <ele>8</ele>
        <time>2021-11-25T10:31:38.000Z</time>
      </trkpt>
      <trkpt lat="47.3742" lon="-2.38243">
        <ele>8</ele>
        <time>2021-11-25T10:31:41.000Z</time>
      </trkpt>
      <trkpt lat="47.37411" lon="-2.38249">
        <ele>8</ele>
        <time>2021-11-25T10:31:43.000Z</time>
      </trkpt>
      <trkpt lat="47.37381" lon="-2.38267">
        <ele>8</ele>
        <time>2021-11-25T10:31:50.000Z</time>
      </trkpt>
      <trkpt lat="47.37354" lon="-2.38282">
        <ele>8</ele>
        <time>2021-11-25T10:31:57.000Z</time>
      </trkpt>
      <trkpt lat="47.37319" lon="-2.38301">
        <ele>8</ele>
        <time>2021-11-25T10:32:04.000Z</time>
      </trkpt>
      <trkpt lat="47.37287" lon="-2.38322">
        <ele>8</ele>
        <time>2021-11-25T10:32:11.000Z</time>
      </trkpt>
      <trkpt lat="47.37252" lon="-2.38342">
        <ele>8</ele>
        <time>2021-11-25T10:32:18.000Z</time>
      </trkpt>
      <trkpt lat="47.37223" lon="-2.38351">
        <ele>8</ele>
        <time>2021-11-25T10:32:23.000Z</time>
      </trkpt>
      <trkpt lat="47.37185" lon="-2.38355">
        <ele>8</ele>
        <time>2021-11-25T10:32:29.000Z</time>
      </trkpt>
      <trkpt lat="47.37148" lon="-2.38366">
        <ele>8</ele>
        <time>2021-11-25T10:32:35.000Z</time>
      </trkpt>
      <trkpt lat="47.3713" lon="-2.38372">
        <ele>7.5999999046326</ele>
        <time>2021-11-25T10:32:38.000Z</time>
      </trkpt>
      <trkpt lat="47.37124" lon="-2.38374">
        <ele>7.1999998092651</ele>
        <time>2021-11-25T10:32:39.000Z</time>
      </trkpt>
      <trkpt lat="47.37118" lon="-2.38377">
        <ele>6.8000001907349</ele>
        <time>2021-11-25T10:32:40.000Z</time>
      </trkpt>
      <trkpt lat="47.37111" lon="-2.38381">
        <ele>6.4000000953674</ele>
        <time>2021-11-25T10:32:41.000Z</time>
      </trkpt>
      <trkpt lat="47.37106" lon="-2.38386">
        <ele>6</ele>
        <time>2021-11-25T10:32:42.000Z</time>
      </trkpt>
      <trkpt lat="47.37088" lon="-2.38405">
        <ele>6</ele>
        <time>2021-11-25T10:32:45.000Z</time>
      </trkpt>
      <trkpt lat="47.37079" lon="-2.3842">
        <ele>6</ele>
        <time>2021-11-25T10:32:47.000Z</time>
      </trkpt>
      <trkpt lat="47.37071" lon="-2.38434">
        <ele>5.5999999046326</ele>
        <time>2021-11-25T10:32:49.000Z</time>
      </trkpt>
      <trkpt lat="47.37068" lon="-2.38441">
        <ele>5.1999998092651</ele>
        <time>2021-11-25T10:32:50.000Z</time>
      </trkpt>
      <trkpt lat="47.37065" lon="-2.38445">
        <ele>4.8000001907349</ele>
        <time>2021-11-25T10:32:51.000Z</time>
      </trkpt>
      <trkpt lat="47.37063" lon="-2.3845">
        <ele>4.4000000953674</ele>
        <time>2021-11-25T10:32:52.000Z</time>
      </trkpt>
      <trkpt lat="47.37062" lon="-2.38455">
        <ele>4</ele>
        <time>2021-11-25T10:32:53.000Z</time>
      </trkpt>
      <trkpt lat="47.37062" lon="-2.38459">
        <ele>4</ele>
        <time>2021-11-25T10:32:54.000Z</time>
      </trkpt>
      <trkpt lat="47.37064" lon="-2.38463">
        <ele>4</ele>
        <time>2021-11-25T10:32:55.000Z</time>
      </trkpt>
      <trkpt lat="47.37071" lon="-2.3847">
        <ele>4</ele>
        <time>2021-11-25T10:32:58.000Z</time>
      </trkpt>
      <trkpt lat="47.37091" lon="-2.38485">
        <ele>4</ele>
        <time>2021-11-25T10:33:04.000Z</time>
      </trkpt>
      <trkpt lat="47.37094" lon="-2.38488">
        <ele>4.4000000953674</ele>
        <time>2021-11-25T10:33:05.000Z</time>
      </trkpt>
      <trkpt lat="47.37098" lon="-2.3849">
        <ele>4.8000001907349</ele>
        <time>2021-11-25T10:33:06.000Z</time>
      </trkpt>
      <trkpt lat="47.37102" lon="-2.38493">
        <ele>5.1999998092651</ele>
        <time>2021-11-25T10:33:07.000Z</time>
      </trkpt>
      <trkpt lat="47.37105" lon="-2.38495">
        <ele>5.5999999046326</ele>
        <time>2021-11-25T10:33:08.000Z</time>
      </trkpt>
      <trkpt lat="47.37109" lon="-2.38497">
        <ele>6</ele>
        <time>2021-11-25T10:33:09.000Z</time>
      </trkpt>
      <trkpt lat="47.37118" lon="-2.38503">
        <ele>6</ele>
        <time>2021-11-25T10:33:12.000Z</time>
      </trkpt>
      <trkpt lat="47.37137" lon="-2.38518">
        <ele>6.4000000953674</ele>
        <time>2021-11-25T10:33:17.000Z</time>
      </trkpt>
      <trkpt lat="47.3714" lon="-2.38521">
        <ele>6.8000001907349</ele>
        <time>2021-11-25T10:33:18.000Z</time>
      </trkpt>
      <trkpt lat="47.37144" lon="-2.38524">
        <ele>7.1999998092651</ele>
        <time>2021-11-25T10:33:19.000Z</time>
      </trkpt>
      <trkpt lat="47.37147" lon="-2.38528">
        <ele>7.5999999046326</ele>
        <time>2021-11-25T10:33:20.000Z</time>
      </trkpt>
      <trkpt lat="47.37151" lon="-2.38532">
        <ele>8.1999998092651</ele>
        <time>2021-11-25T10:33:21.000Z</time>
      </trkpt>
      <trkpt lat="47.37158" lon="-2.38542">
        <ele>8.1999998092651</ele>
        <time>2021-11-25T10:33:23.000Z</time>
      </trkpt>
      <trkpt lat="47.37174" lon="-2.38575">
        <ele>8.1999998092651</ele>
        <time>2021-11-25T10:33:28.000Z</time>
      </trkpt>
      <trkpt lat="47.37193" lon="-2.38627">
        <ele>8.1999998092651</ele>
        <time>2021-11-25T10:33:35.000Z</time>
      </trkpt>
      <trkpt lat="47.37214" lon="-2.38679">
        <ele>8.1999998092651</ele>
        <time>2021-11-25T10:33:42.000Z</time>
      </trkpt>
      <trkpt lat="47.3722" lon="-2.38695">
        <ele>8.1999998092651</ele>
        <time>2021-11-25T10:33:44.000Z</time>
      </trkpt>
      <trkpt lat="47.37222" lon="-2.38703">
        <ele>8.6000003814697</ele>
        <time>2021-11-25T10:33:45.000Z</time>
      </trkpt>
      <trkpt lat="47.37225" lon="-2.38711">
        <ele>9</ele>
        <time>2021-11-25T10:33:46.000Z</time>
      </trkpt>
      <trkpt lat="47.37228" lon="-2.38719">
        <ele>9.3999996185303</ele>
        <time>2021-11-25T10:33:47.000Z</time>
      </trkpt>
      <trkpt lat="47.3723" lon="-2.38727">
        <ele>9.8000001907349</ele>
        <time>2021-11-25T10:33:48.000Z</time>
      </trkpt>
      <trkpt lat="47.37234" lon="-2.38735">
        <ele>10.199999809265</ele>
        <time>2021-11-25T10:33:49.000Z</time>
      </trkpt>
      <trkpt lat="47.37244" lon="-2.38759">
        <ele>10.199999809265</ele>
        <time>2021-11-25T10:33:52.000Z</time>
      </trkpt>
      <trkpt lat="47.3725" lon="-2.38775">
        <ele>10.199999809265</ele>
        <time>2021-11-25T10:33:54.000Z</time>
      </trkpt>
      <trkpt lat="47.37271" lon="-2.3883">
        <ele>10.199999809265</ele>
        <time>2021-11-25T10:34:01.000Z</time>
      </trkpt>
      <trkpt lat="47.37282" lon="-2.38863">
        <ele>10.60000038147</ele>
        <time>2021-11-25T10:34:05.000Z</time>
      </trkpt>
      <trkpt lat="47.37284" lon="-2.3887">
        <ele>11</ele>
        <time>2021-11-25T10:34:06.000Z</time>
      </trkpt>
      <trkpt lat="47.37287" lon="-2.38879">
        <ele>11.39999961853</ele>
        <time>2021-11-25T10:34:07.000Z</time>
      </trkpt>
      <trkpt lat="47.3729" lon="-2.38887">
        <ele>11.800000190735</ele>
        <time>2021-11-25T10:34:08.000Z</time>
      </trkpt>
      <trkpt lat="47.37292" lon="-2.38895">
        <ele>12.199999809265</ele>
        <time>2021-11-25T10:34:09.000Z</time>
      </trkpt>
      <trkpt lat="47.37308" lon="-2.38963">
        <ele>12.199999809265</ele>
        <time>2021-11-25T10:34:17.000Z</time>
      </trkpt>
      <trkpt lat="47.37311" lon="-2.39017">
        <ele>12.199999809265</ele>
        <time>2021-11-25T10:34:23.000Z</time>
      </trkpt>
      <trkpt lat="47.37312" lon="-2.39067">
        <ele>12.199999809265</ele>
        <time>2021-11-25T10:34:29.000Z</time>
      </trkpt>
      <trkpt lat="47.37312" lon="-2.39117">
        <ele>12.199999809265</ele>
        <time>2021-11-25T10:34:36.000Z</time>
      </trkpt>
      <trkpt lat="47.37315" lon="-2.39141">
        <ele>12.199999809265</ele>
        <time>2021-11-25T10:34:39.000Z</time>
      </trkpt>
      <trkpt lat="47.3731" lon="-2.39155">
        <ele>12.199999809265</ele>
        <time>2021-11-25T10:34:41.000Z</time>
      </trkpt>
      <trkpt lat="47.37292" lon="-2.39172">
        <ele>12.199999809265</ele>
        <time>2021-11-25T10:34:45.000Z</time>
      </trkpt>
      <trkpt lat="47.37287" lon="-2.39177">
        <ele>12.199999809265</ele>
        <time>2021-11-25T10:34:46.000Z</time>
      </trkpt>
      <trkpt lat="47.37269" lon="-2.39198">
        <ele>12.199999809265</ele>
        <time>2021-11-25T10:34:50.000Z</time>
      </trkpt>
      <trkpt lat="47.37236" lon="-2.39232">
        <ele>12.199999809265</ele>
        <time>2021-11-25T10:34:56.000Z</time>
      </trkpt>
      <trkpt lat="47.37191" lon="-2.39273">
        <ele>12.199999809265</ele>
        <time>2021-11-25T10:35:04.000Z</time>
      </trkpt>
      <trkpt lat="47.37155" lon="-2.39306">
        <ele>12.199999809265</ele>
        <time>2021-11-25T10:35:10.000Z</time>
      </trkpt>
      <trkpt lat="47.37118" lon="-2.39341">
        <ele>12.199999809265</ele>
        <time>2021-11-25T10:35:17.000Z</time>
      </trkpt>
      <trkpt lat="47.37109" lon="-2.39349">
        <ele>12.199999809265</ele>
        <time>2021-11-25T10:35:19.000Z</time>
      </trkpt>
      <trkpt lat="47.37095" lon="-2.39362">
        <ele>12.199999809265</ele>
        <time>2021-11-25T10:35:22.000Z</time>
      </trkpt>
      <trkpt lat="47.37081" lon="-2.39375">
        <ele>12.199999809265</ele>
        <time>2021-11-25T10:35:25.000Z</time>
      </trkpt>
      <trkpt lat="47.37065" lon="-2.39389">
        <ele>12.199999809265</ele>
        <time>2021-11-25T10:35:28.000Z</time>
      </trkpt>
      <trkpt lat="47.37035" lon="-2.39421">
        <ele>12.199999809265</ele>
        <time>2021-11-25T10:35:35.000Z</time>
      </trkpt>
      <trkpt lat="47.37031" lon="-2.39427">
        <ele>12.199999809265</ele>
        <time>2021-11-25T10:35:36.000Z</time>
      </trkpt>
      <trkpt lat="47.37007" lon="-2.3945">
        <ele>12.199999809265</ele>
        <time>2021-11-25T10:35:41.000Z</time>
      </trkpt>
      <trkpt lat="47.36971" lon="-2.39482">
        <ele>12.199999809265</ele>
        <time>2021-11-25T10:35:48.000Z</time>
      </trkpt>
      <trkpt lat="47.36955" lon="-2.39497">
        <ele>12.199999809265</ele>
        <time>2021-11-25T10:35:51.000Z</time>
      </trkpt>
      <trkpt lat="47.3695" lon="-2.39503">
        <ele>11.800000190735</ele>
        <time>2021-11-25T10:35:52.000Z</time>
      </trkpt>
      <trkpt lat="47.36945" lon="-2.39509">
        <ele>11.39999961853</ele>
        <time>2021-11-25T10:35:53.000Z</time>
      </trkpt>
      <trkpt lat="47.3694" lon="-2.39515">
        <ele>11</ele>
        <time>2021-11-25T10:35:54.000Z</time>
      </trkpt>
      <trkpt lat="47.36936" lon="-2.39523">
        <ele>10.60000038147</ele>
        <time>2021-11-25T10:35:55.000Z</time>
      </trkpt>
      <trkpt lat="47.36931" lon="-2.39529">
        <ele>10.199999809265</ele>
        <time>2021-11-25T10:35:56.000Z</time>
      </trkpt>
      <trkpt lat="47.36926" lon="-2.39535">
        <ele>10.199999809265</ele>
        <time>2021-11-25T10:35:57.000Z</time>
      </trkpt>
      <trkpt lat="47.36921" lon="-2.39542">
        <ele>10.199999809265</ele>
        <time>2021-11-25T10:35:58.000Z</time>
      </trkpt>
      <trkpt lat="47.36895" lon="-2.39578">
        <ele>10.199999809265</ele>
        <time>2021-11-25T10:36:03.000Z</time>
      </trkpt>
      <trkpt lat="47.36871" lon="-2.39602">
        <ele>9.8000001907349</ele>
        <time>2021-11-25T10:36:07.000Z</time>
      </trkpt>
      <trkpt lat="47.36865" lon="-2.39609">
        <ele>9.1999998092651</ele>
        <time>2021-11-25T10:36:08.000Z</time>
      </trkpt>
      <trkpt lat="47.36859" lon="-2.39616">
        <ele>8.8000001907349</ele>
        <time>2021-11-25T10:36:09.000Z</time>
      </trkpt>
      <trkpt lat="47.36853" lon="-2.39621">
        <ele>8.3999996185303</ele>
        <time>2021-11-25T10:36:10.000Z</time>
      </trkpt>
      <trkpt lat="47.36846" lon="-2.39627">
        <ele>8</ele>
        <time>2021-11-25T10:36:11.000Z</time>
      </trkpt>
      <trkpt lat="47.3683" lon="-2.39645">
        <ele>8</ele>
        <time>2021-11-25T10:36:14.000Z</time>
      </trkpt>
      <trkpt lat="47.36824" lon="-2.3965">
        <ele>8</ele>
        <time>2021-11-25T10:36:15.000Z</time>
      </trkpt>
      <trkpt lat="47.36812" lon="-2.39654">
        <ele>8</ele>
        <time>2021-11-25T10:36:17.000Z</time>
      </trkpt>
      <trkpt lat="47.36789" lon="-2.39667">
        <ele>8</ele>
        <time>2021-11-25T10:36:21.000Z</time>
      </trkpt>
      <trkpt lat="47.36767" lon="-2.39675">
        <ele>8</ele>
        <time>2021-11-25T10:36:25.000Z</time>
      </trkpt>
      <trkpt lat="47.36757" lon="-2.39674">
        <ele>8</ele>
        <time>2021-11-25T10:36:27.000Z</time>
      </trkpt>
      <trkpt lat="47.36742" lon="-2.39672">
        <ele>8</ele>
        <time>2021-11-25T10:36:30.000Z</time>
      </trkpt>
      <trkpt lat="47.36724" lon="-2.3967">
        <ele>8</ele>
        <time>2021-11-25T10:36:33.000Z</time>
      </trkpt>
      <trkpt lat="47.36712" lon="-2.39668">
        <ele>7.5999999046326</ele>
        <time>2021-11-25T10:36:35.000Z</time>
      </trkpt>
      <trkpt lat="47.36706" lon="-2.39666">
        <ele>7.1999998092651</ele>
        <time>2021-11-25T10:36:36.000Z</time>
      </trkpt>
      <trkpt lat="47.367" lon="-2.39664">
        <ele>6.5999999046326</ele>
        <time>2021-11-25T10:36:37.000Z</time>
      </trkpt>
      <trkpt lat="47.36695" lon="-2.3966">
        <ele>6.1999998092651</ele>
        <time>2021-11-25T10:36:38.000Z</time>
      </trkpt>
      <trkpt lat="47.3669" lon="-2.39657">
        <ele>5.8000001907349</ele>
        <time>2021-11-25T10:36:39.000Z</time>
      </trkpt>
      <trkpt lat="47.36685" lon="-2.39653">
        <ele>5.8000001907349</ele>
        <time>2021-11-25T10:36:40.000Z</time>
      </trkpt>
      <trkpt lat="47.36665" lon="-2.39633">
        <ele>5.8000001907349</ele>
        <time>2021-11-25T10:36:44.000Z</time>
      </trkpt>
      <trkpt lat="47.36656" lon="-2.39622">
        <ele>5.8000001907349</ele>
        <time>2021-11-25T10:36:46.000Z</time>
      </trkpt>
      <trkpt lat="47.36651" lon="-2.39618">
        <ele>5.8000001907349</ele>
        <time>2021-11-25T10:36:47.000Z</time>
      </trkpt>
      <trkpt lat="47.36638" lon="-2.39615">
        <ele>6.1999998092651</ele>
        <time>2021-11-25T10:36:50.000Z</time>
      </trkpt>
      <trkpt lat="47.36634" lon="-2.39614">
        <ele>6.5999999046326</ele>
        <time>2021-11-25T10:36:51.000Z</time>
      </trkpt>
      <trkpt lat="47.36629" lon="-2.39613">
        <ele>7.1999998092651</ele>
        <time>2021-11-25T10:36:52.000Z</time>
      </trkpt>
      <trkpt lat="47.36624" lon="-2.39613">
        <ele>7.5999999046326</ele>
        <time>2021-11-25T10:36:53.000Z</time>
      </trkpt>
      <trkpt lat="47.36619" lon="-2.39611">
        <ele>8</ele>
        <time>2021-11-25T10:36:54.000Z</time>
      </trkpt>
      <trkpt lat="47.36604" lon="-2.39606">
        <ele>8</ele>
        <time>2021-11-25T10:36:57.000Z</time>
      </trkpt>
      <trkpt lat="47.36565" lon="-2.39601">
        <ele>8</ele>
        <time>2021-11-25T10:37:04.000Z</time>
      </trkpt>
      <trkpt lat="47.36553" lon="-2.39602">
        <ele>8</ele>
        <time>2021-11-25T10:37:06.000Z</time>
      </trkpt>
      <trkpt lat="47.36532" lon="-2.39609">
        <ele>8</ele>
        <time>2021-11-25T10:37:10.000Z</time>
      </trkpt>
      <trkpt lat="47.36499" lon="-2.39627">
        <ele>8</ele>
        <time>2021-11-25T10:37:16.000Z</time>
      </trkpt>
      <trkpt lat="47.36459" lon="-2.39645">
        <ele>8</ele>
        <time>2021-11-25T10:37:23.000Z</time>
      </trkpt>
      <trkpt lat="47.36448" lon="-2.3966">
        <ele>8</ele>
        <time>2021-11-25T10:37:26.000Z</time>
      </trkpt>
      <trkpt lat="47.36452" lon="-2.39684">
        <ele>8</ele>
        <time>2021-11-25T10:37:29.000Z</time>
      </trkpt>
      <trkpt lat="47.3646" lon="-2.39707">
        <ele>8</ele>
        <time>2021-11-25T10:37:32.000Z</time>
      </trkpt>
      <trkpt lat="47.36465" lon="-2.39722">
        <ele>8</ele>
        <time>2021-11-25T10:37:34.000Z</time>
      </trkpt>
      <trkpt lat="47.36486" lon="-2.39771">
        <ele>8</ele>
        <time>2021-11-25T10:37:40.000Z</time>
      </trkpt>
      <trkpt lat="47.36503" lon="-2.39782">
        <ele>8</ele>
        <time>2021-11-25T10:37:43.000Z</time>
      </trkpt>
      <trkpt lat="47.36509" lon="-2.39784">
        <ele>8</ele>
        <time>2021-11-25T10:37:44.000Z</time>
      </trkpt>
      <trkpt lat="47.36522" lon="-2.39798">
        <ele>8</ele>
        <time>2021-11-25T10:37:47.000Z</time>
      </trkpt>
      <trkpt lat="47.36524" lon="-2.39806">
        <ele>7.5999999046326</ele>
        <time>2021-11-25T10:37:48.000Z</time>
      </trkpt>
      <trkpt lat="47.36526" lon="-2.39812">
        <ele>7.1999998092651</ele>
        <time>2021-11-25T10:37:49.000Z</time>
      </trkpt>
      <trkpt lat="47.36529" lon="-2.39819">
        <ele>6.8000001907349</ele>
        <time>2021-11-25T10:37:50.000Z</time>
      </trkpt>
      <trkpt lat="47.36532" lon="-2.39826">
        <ele>6.4000000953674</ele>
        <time>2021-11-25T10:37:51.000Z</time>
      </trkpt>
      <trkpt lat="47.36534" lon="-2.39833">
        <ele>6</ele>
        <time>2021-11-25T10:37:52.000Z</time>
      </trkpt>
      <trkpt lat="47.36538" lon="-2.39839">
        <ele>6</ele>
        <time>2021-11-25T10:37:53.000Z</time>
      </trkpt>
      <trkpt lat="47.36549" lon="-2.39854">
        <ele>6</ele>
        <time>2021-11-25T10:37:56.000Z</time>
      </trkpt>
      <trkpt lat="47.36579" lon="-2.39883">
        <ele>6</ele>
        <time>2021-11-25T10:38:03.000Z</time>
      </trkpt>
      <trkpt lat="47.36583" lon="-2.39887">
        <ele>6</ele>
        <time>2021-11-25T10:38:04.000Z</time>
      </trkpt>
      <trkpt lat="47.36589" lon="-2.39898">
        <ele>6</ele>
        <time>2021-11-25T10:38:06.000Z</time>
      </trkpt>
      <trkpt lat="47.3659" lon="-2.39911">
        <ele>6</ele>
        <time>2021-11-25T10:38:08.000Z</time>
      </trkpt>
      <trkpt lat="47.36582" lon="-2.39927">
        <ele>6</ele>
        <time>2021-11-25T10:38:11.000Z</time>
      </trkpt>
      <trkpt lat="47.36575" lon="-2.39937">
        <ele>6</ele>
        <time>2021-11-25T10:38:13.000Z</time>
      </trkpt>
      <trkpt lat="47.36567" lon="-2.39946">
        <ele>6</ele>
        <time>2021-11-25T10:38:15.000Z</time>
      </trkpt>
      <trkpt lat="47.36564" lon="-2.39951">
        <ele>6</ele>
        <time>2021-11-25T10:38:16.000Z</time>
      </trkpt>
      <trkpt lat="47.36538" lon="-2.39982">
        <ele>6</ele>
        <time>2021-11-25T10:38:22.000Z</time>
      </trkpt>
      <trkpt lat="47.36529" lon="-2.39991">
        <ele>6.4000000953674</ele>
        <time>2021-11-25T10:38:24.000Z</time>
      </trkpt>
      <trkpt lat="47.36524" lon="-2.39997">
        <ele>7</ele>
        <time>2021-11-25T10:38:25.000Z</time>
      </trkpt>
      <trkpt lat="47.3652" lon="-2.40001">
        <ele>7.4000000953674</ele>
        <time>2021-11-25T10:38:26.000Z</time>
      </trkpt>
      <trkpt lat="47.36515" lon="-2.40006">
        <ele>7.8000001907349</ele>
        <time>2021-11-25T10:38:27.000Z</time>
      </trkpt>
      <trkpt lat="47.3651" lon="-2.4001">
        <ele>8.1999998092651</ele>
        <time>2021-11-25T10:38:28.000Z</time>
      </trkpt>
      <trkpt lat="47.365" lon="-2.40019">
        <ele>8.1999998092651</ele>
        <time>2021-11-25T10:38:30.000Z</time>
      </trkpt>
      <trkpt lat="47.36486" lon="-2.40032">
        <ele>8.1999998092651</ele>
        <time>2021-11-25T10:38:33.000Z</time>
      </trkpt>
      <trkpt lat="47.36471" lon="-2.40044">
        <ele>8.1999998092651</ele>
        <time>2021-11-25T10:38:36.000Z</time>
      </trkpt>
      <trkpt lat="47.36451" lon="-2.40057">
        <ele>8.1999998092651</ele>
        <time>2021-11-25T10:38:40.000Z</time>
      </trkpt>
      <trkpt lat="47.3644" lon="-2.40062">
        <ele>8.1999998092651</ele>
        <time>2021-11-25T10:38:42.000Z</time>
      </trkpt>
      <trkpt lat="47.36418" lon="-2.4007">
        <ele>8.1999998092651</ele>
        <time>2021-11-25T10:38:46.000Z</time>
      </trkpt>
      <trkpt lat="47.36407" lon="-2.40073">
        <ele>8.1999998092651</ele>
        <time>2021-11-25T10:38:48.000Z</time>
      </trkpt>
      <trkpt lat="47.36369" lon="-2.40084">
        <ele>8.1999998092651</ele>
        <time>2021-11-25T10:38:55.000Z</time>
      </trkpt>
      <trkpt lat="47.36348" lon="-2.40091">
        <ele>8.1999998092651</ele>
        <time>2021-11-25T10:38:59.000Z</time>
      </trkpt>
      <trkpt lat="47.36338" lon="-2.40096">
        <ele>8.1999998092651</ele>
        <time>2021-11-25T10:39:01.000Z</time>
      </trkpt>
      <trkpt lat="47.36301" lon="-2.40112">
        <ele>8.1999998092651</ele>
        <time>2021-11-25T10:39:08.000Z</time>
      </trkpt>
      <trkpt lat="47.36259" lon="-2.40129">
        <ele>8.1999998092651</ele>
        <time>2021-11-25T10:39:16.000Z</time>
      </trkpt>
      <trkpt lat="47.36222" lon="-2.40157">
        <ele>8.1999998092651</ele>
        <time>2021-11-25T10:39:24.000Z</time>
      </trkpt>
      <trkpt lat="47.36218" lon="-2.40161">
        <ele>8.1999998092651</ele>
        <time>2021-11-25T10:39:25.000Z</time>
      </trkpt>
      <trkpt lat="47.36197" lon="-2.40182">
        <ele>8.6000003814697</ele>
        <time>2021-11-25T10:39:30.000Z</time>
      </trkpt>
      <trkpt lat="47.36193" lon="-2.40186">
        <ele>9</ele>
        <time>2021-11-25T10:39:31.000Z</time>
      </trkpt>
      <trkpt lat="47.36189" lon="-2.40189">
        <ele>9.3999996185303</ele>
        <time>2021-11-25T10:39:32.000Z</time>
      </trkpt>
      <trkpt lat="47.36184" lon="-2.40193">
        <ele>10</ele>
        <time>2021-11-25T10:39:33.000Z</time>
      </trkpt>
      <trkpt lat="47.3618" lon="-2.40197">
        <ele>10.39999961853</ele>
        <time>2021-11-25T10:39:34.000Z</time>
      </trkpt>
      <trkpt lat="47.36172" lon="-2.40205">
        <ele>10.39999961853</ele>
        <time>2021-11-25T10:39:36.000Z</time>
      </trkpt>
      <trkpt lat="47.36162" lon="-2.40212">
        <ele>10.39999961853</ele>
        <time>2021-11-25T10:39:38.000Z</time>
      </trkpt>
      <trkpt lat="47.36123" lon="-2.40243">
        <ele>10.39999961853</ele>
        <time>2021-11-25T10:39:46.000Z</time>
      </trkpt>
      <trkpt lat="47.3608" lon="-2.40277">
        <ele>10.39999961853</ele>
        <time>2021-11-25T10:39:54.000Z</time>
      </trkpt>
      <trkpt lat="47.3605" lon="-2.40305">
        <ele>10.39999961853</ele>
        <time>2021-11-25T10:40:00.000Z</time>
      </trkpt>
      <trkpt lat="47.36045" lon="-2.40312">
        <ele>10.39999961853</ele>
        <time>2021-11-25T10:40:01.000Z</time>
      </trkpt>
      <trkpt lat="47.36031" lon="-2.40342">
        <ele>10.39999961853</ele>
        <time>2021-11-25T10:40:05.000Z</time>
      </trkpt>
      <trkpt lat="47.36029" lon="-2.40351">
        <ele>10.39999961853</ele>
        <time>2021-11-25T10:40:06.000Z</time>
      </trkpt>
      <trkpt lat="47.36026" lon="-2.40378">
        <ele>10.39999961853</ele>
        <time>2021-11-25T10:40:09.000Z</time>
      </trkpt>
      <trkpt lat="47.36025" lon="-2.40396">
        <ele>10.39999961853</ele>
        <time>2021-11-25T10:40:11.000Z</time>
      </trkpt>
      <trkpt lat="47.36022" lon="-2.4043">
        <ele>10.39999961853</ele>
        <time>2021-11-25T10:40:15.000Z</time>
      </trkpt>
      <trkpt lat="47.36016" lon="-2.40444">
        <ele>10.39999961853</ele>
        <time>2021-11-25T10:40:17.000Z</time>
      </trkpt>
      <trkpt lat="47.36008" lon="-2.40456">
        <ele>10.39999961853</ele>
        <time>2021-11-25T10:40:19.000Z</time>
      </trkpt>
      <trkpt lat="47.35989" lon="-2.40478">
        <ele>10.39999961853</ele>
        <time>2021-11-25T10:40:23.000Z</time>
      </trkpt>
      <trkpt lat="47.35958" lon="-2.40518">
        <ele>10.39999961853</ele>
        <time>2021-11-25T10:40:30.000Z</time>
      </trkpt>
      <trkpt lat="47.35933" lon="-2.40553">
        <ele>10.39999961853</ele>
        <time>2021-11-25T10:40:36.000Z</time>
      </trkpt>
      <trkpt lat="47.35909" lon="-2.40591">
        <ele>10.39999961853</ele>
        <time>2021-11-25T10:40:42.000Z</time>
      </trkpt>
      <trkpt lat="47.35879" lon="-2.40641">
        <ele>10.39999961853</ele>
        <time>2021-11-25T10:40:50.000Z</time>
      </trkpt>
      <trkpt lat="47.35869" lon="-2.40661">
        <ele>10.39999961853</ele>
        <time>2021-11-25T10:40:53.000Z</time>
      </trkpt>
      <trkpt lat="47.35859" lon="-2.40682">
        <ele>10.39999961853</ele>
        <time>2021-11-25T10:40:56.000Z</time>
      </trkpt>
      <trkpt lat="47.35852" lon="-2.40714">
        <ele>10.39999961853</ele>
        <time>2021-11-25T10:41:00.000Z</time>
      </trkpt>
      <trkpt lat="47.35851" lon="-2.40722">
        <ele>10.39999961853</ele>
        <time>2021-11-25T10:41:01.000Z</time>
      </trkpt>
      <trkpt lat="47.35848" lon="-2.40737">
        <ele>10.39999961853</ele>
        <time>2021-11-25T10:41:03.000Z</time>
      </trkpt>
      <trkpt lat="47.35841" lon="-2.40749">
        <ele>10.39999961853</ele>
        <time>2021-11-25T10:41:05.000Z</time>
      </trkpt>
      <trkpt lat="47.35812" lon="-2.40794">
        <ele>10.39999961853</ele>
        <time>2021-11-25T10:41:12.000Z</time>
      </trkpt>
      <trkpt lat="47.35783" lon="-2.40838">
        <ele>10.39999961853</ele>
        <time>2021-11-25T10:41:19.000Z</time>
      </trkpt>
      <trkpt lat="47.35779" lon="-2.40843">
        <ele>10.39999961853</ele>
        <time>2021-11-25T10:41:20.000Z</time>
      </trkpt>
      <trkpt lat="47.35757" lon="-2.40872">
        <ele>10.39999961853</ele>
        <time>2021-11-25T10:41:25.000Z</time>
      </trkpt>
      <trkpt lat="47.35735" lon="-2.40905">
        <ele>10.39999961853</ele>
        <time>2021-11-25T10:41:31.000Z</time>
      </trkpt>
      <trkpt lat="47.35708" lon="-2.40942">
        <ele>10.39999961853</ele>
        <time>2021-11-25T10:41:38.000Z</time>
      </trkpt>
      <trkpt lat="47.35698" lon="-2.40957">
        <ele>10.39999961853</ele>
        <time>2021-11-25T10:41:41.000Z</time>
      </trkpt>
      <trkpt lat="47.35684" lon="-2.40977">
        <ele>10.39999961853</ele>
        <time>2021-11-25T10:41:45.000Z</time>
      </trkpt>
      <trkpt lat="47.35656" lon="-2.41017">
        <ele>10.39999961853</ele>
        <time>2021-11-25T10:41:52.000Z</time>
      </trkpt>
      <trkpt lat="47.35625" lon="-2.41059">
        <ele>10.39999961853</ele>
        <time>2021-11-25T10:41:59.000Z</time>
      </trkpt>
      <trkpt lat="47.35591" lon="-2.41096">
        <ele>10.39999961853</ele>
        <time>2021-11-25T10:42:06.000Z</time>
      </trkpt>
      <trkpt lat="47.35587" lon="-2.41102">
        <ele>10.39999961853</ele>
        <time>2021-11-25T10:42:07.000Z</time>
      </trkpt>
      <trkpt lat="47.35572" lon="-2.41117">
        <ele>10.39999961853</ele>
        <time>2021-11-25T10:42:10.000Z</time>
      </trkpt>
      <trkpt lat="47.35535" lon="-2.41146">
        <ele>10.39999961853</ele>
        <time>2021-11-25T10:42:17.000Z</time>
      </trkpt>
      <trkpt lat="47.35492" lon="-2.4118">
        <ele>10.39999961853</ele>
        <time>2021-11-25T10:42:25.000Z</time>
      </trkpt>
      <trkpt lat="47.35453" lon="-2.41213">
        <ele>10.39999961853</ele>
        <time>2021-11-25T10:42:32.000Z</time>
      </trkpt>
      <trkpt lat="47.35429" lon="-2.41245">
        <ele>10.39999961853</ele>
        <time>2021-11-25T10:42:37.000Z</time>
      </trkpt>
      <trkpt lat="47.35425" lon="-2.41252">
        <ele>10.39999961853</ele>
        <time>2021-11-25T10:42:38.000Z</time>
      </trkpt>
      <trkpt lat="47.3541" lon="-2.41268">
        <ele>10.39999961853</ele>
        <time>2021-11-25T10:42:41.000Z</time>
      </trkpt>
      <trkpt lat="47.35405" lon="-2.41273">
        <ele>10.39999961853</ele>
        <time>2021-11-25T10:42:42.000Z</time>
      </trkpt>
      <trkpt lat="47.35373" lon="-2.413">
        <ele>10.39999961853</ele>
        <time>2021-11-25T10:42:48.000Z</time>
      </trkpt>
      <trkpt lat="47.3535" lon="-2.41333">
        <ele>10.39999961853</ele>
        <time>2021-11-25T10:42:53.000Z</time>
      </trkpt>
      <trkpt lat="47.35327" lon="-2.41364">
        <ele>10.39999961853</ele>
        <time>2021-11-25T10:42:58.000Z</time>
      </trkpt>
      <trkpt lat="47.35324" lon="-2.4137">
        <ele>10.39999961853</ele>
        <time>2021-11-25T10:42:59.000Z</time>
      </trkpt>
      <trkpt lat="47.35299" lon="-2.41413">
        <ele>10.39999961853</ele>
        <time>2021-11-25T10:43:06.000Z</time>
      </trkpt>
      <trkpt lat="47.35287" lon="-2.41427">
        <ele>10.39999961853</ele>
        <time>2021-11-25T10:43:09.000Z</time>
      </trkpt>
      <trkpt lat="47.35277" lon="-2.41436">
        <ele>10.39999961853</ele>
        <time>2021-11-25T10:43:11.000Z</time>
      </trkpt>
      <trkpt lat="47.35262" lon="-2.41446">
        <ele>10.39999961853</ele>
        <time>2021-11-25T10:43:14.000Z</time>
      </trkpt>
      <trkpt lat="47.35252" lon="-2.41444">
        <ele>10.39999961853</ele>
        <time>2021-11-25T10:43:16.000Z</time>
      </trkpt>
      <trkpt lat="47.35235" lon="-2.41423">
        <ele>10.39999961853</ele>
        <time>2021-11-25T10:43:20.000Z</time>
      </trkpt>
      <trkpt lat="47.35228" lon="-2.41409">
        <ele>10.39999961853</ele>
        <time>2021-11-25T10:43:22.000Z</time>
      </trkpt>
      <trkpt lat="47.35212" lon="-2.41383">
        <ele>10.39999961853</ele>
        <time>2021-11-25T10:43:26.000Z</time>
      </trkpt>
      <trkpt lat="47.352" lon="-2.41365">
        <ele>10.39999961853</ele>
        <time>2021-11-25T10:43:29.000Z</time>
      </trkpt>
      <trkpt lat="47.35191" lon="-2.41356">
        <ele>10.39999961853</ele>
        <time>2021-11-25T10:43:31.000Z</time>
      </trkpt>
      <trkpt lat="47.35175" lon="-2.41354">
        <ele>10.39999961853</ele>
        <time>2021-11-25T10:43:34.000Z</time>
      </trkpt>
      <trkpt lat="47.35164" lon="-2.41359">
        <ele>10.39999961853</ele>
        <time>2021-11-25T10:43:36.000Z</time>
      </trkpt>
      <trkpt lat="47.35148" lon="-2.41367">
        <ele>10.39999961853</ele>
        <time>2021-11-25T10:43:39.000Z</time>
      </trkpt>
      <trkpt lat="47.35111" lon="-2.41391">
        <ele>10.39999961853</ele>
        <time>2021-11-25T10:43:46.000Z</time>
      </trkpt>
      <trkpt lat="47.35084" lon="-2.41407">
        <ele>10.39999961853</ele>
        <time>2021-11-25T10:43:51.000Z</time>
      </trkpt>
      <trkpt lat="47.35079" lon="-2.41409">
        <ele>10.39999961853</ele>
        <time>2021-11-25T10:43:52.000Z</time>
      </trkpt>
      <trkpt lat="47.35068" lon="-2.41416">
        <ele>10.800000190735</ele>
        <time>2021-11-25T10:43:54.000Z</time>
      </trkpt>
      <trkpt lat="47.35062" lon="-2.41419">
        <ele>11.199999809265</ele>
        <time>2021-11-25T10:43:55.000Z</time>
      </trkpt>
      <trkpt lat="47.35057" lon="-2.41421">
        <ele>11.60000038147</ele>
        <time>2021-11-25T10:43:56.000Z</time>
      </trkpt>
      <trkpt lat="47.35052" lon="-2.41424">
        <ele>12.39999961853</ele>
        <time>2021-11-25T10:43:57.000Z</time>
      </trkpt>
      <trkpt lat="47.35047" lon="-2.41426">
        <ele>12.39999961853</ele>
        <time>2021-11-25T10:43:58.000Z</time>
      </trkpt>
      <trkpt lat="47.35016" lon="-2.41439">
        <ele>12.39999961853</ele>
        <time>2021-11-25T10:44:04.000Z</time>
      </trkpt>
      <trkpt lat="47.34971" lon="-2.41456">
        <ele>12.39999961853</ele>
        <time>2021-11-25T10:44:12.000Z</time>
      </trkpt>
      <trkpt lat="47.34927" lon="-2.4147">
        <ele>12.39999961853</ele>
        <time>2021-11-25T10:44:20.000Z</time>
      </trkpt>
      <trkpt lat="47.34885" lon="-2.41482">
        <ele>12.39999961853</ele>
        <time>2021-11-25T10:44:27.000Z</time>
      </trkpt>
      <trkpt lat="47.34845" lon="-2.41493">
        <ele>12.39999961853</ele>
        <time>2021-11-25T10:44:34.000Z</time>
      </trkpt>
      <trkpt lat="47.34812" lon="-2.41504">
        <ele>12.39999961853</ele>
        <time>2021-11-25T10:44:40.000Z</time>
      </trkpt>
      <trkpt lat="47.34775" lon="-2.41518">
        <ele>12.800000190735</ele>
        <time>2021-11-25T10:44:46.000Z</time>
      </trkpt>
      <trkpt lat="47.34769" lon="-2.4152">
        <ele>13.60000038147</ele>
        <time>2021-11-25T10:44:47.000Z</time>
      </trkpt>
      <trkpt lat="47.34763" lon="-2.41522">
        <ele>14</ele>
        <time>2021-11-25T10:44:48.000Z</time>
      </trkpt>
      <trkpt lat="47.34758" lon="-2.41524">
        <ele>14.39999961853</ele>
        <time>2021-11-25T10:44:49.000Z</time>
      </trkpt>
      <trkpt lat="47.34741" lon="-2.41529">
        <ele>14.39999961853</ele>
        <time>2021-11-25T10:44:52.000Z</time>
      </trkpt>
      <trkpt lat="47.34705" lon="-2.41539">
        <ele>14.800000190735</ele>
        <time>2021-11-25T10:44:59.000Z</time>
      </trkpt>
      <trkpt lat="47.347" lon="-2.41541">
        <ele>15.199999809265</ele>
        <time>2021-11-25T10:45:00.000Z</time>
      </trkpt>
      <trkpt lat="47.34695" lon="-2.41542">
        <ele>15.60000038147</ele>
        <time>2021-11-25T10:45:01.000Z</time>
      </trkpt>
      <trkpt lat="47.3469" lon="-2.41544">
        <ele>16</ele>
        <time>2021-11-25T10:45:02.000Z</time>
      </trkpt>
      <trkpt lat="47.34685" lon="-2.41545">
        <ele>16.39999961853</ele>
        <time>2021-11-25T10:45:03.000Z</time>
      </trkpt>
      <trkpt lat="47.34669" lon="-2.41549">
        <ele>16.39999961853</ele>
        <time>2021-11-25T10:45:06.000Z</time>
      </trkpt>
      <trkpt lat="47.34638" lon="-2.4156">
        <ele>16.799999237061</ele>
        <time>2021-11-25T10:45:12.000Z</time>
      </trkpt>
      <trkpt lat="47.34633" lon="-2.41562">
        <ele>17.200000762939</ele>
        <time>2021-11-25T10:45:13.000Z</time>
      </trkpt>
      <trkpt lat="47.34627" lon="-2.41565">
        <ele>17.60000038147</ele>
        <time>2021-11-25T10:45:14.000Z</time>
      </trkpt>
      <trkpt lat="47.34621" lon="-2.41567">
        <ele>18</ele>
        <time>2021-11-25T10:45:15.000Z</time>
      </trkpt>
      <trkpt lat="47.34615" lon="-2.4157">
        <ele>18.39999961853</ele>
        <time>2021-11-25T10:45:16.000Z</time>
      </trkpt>
      <trkpt lat="47.34591" lon="-2.41582">
        <ele>18.39999961853</ele>
        <time>2021-11-25T10:45:20.000Z</time>
      </trkpt>
      <trkpt lat="47.34551" lon="-2.41599">
        <ele>18.39999961853</ele>
        <time>2021-11-25T10:45:27.000Z</time>
      </trkpt>
      <trkpt lat="47.3452" lon="-2.41612">
        <ele>18.39999961853</ele>
        <time>2021-11-25T10:45:33.000Z</time>
      </trkpt>
      <trkpt lat="47.34485" lon="-2.41627">
        <ele>18.39999961853</ele>
        <time>2021-11-25T10:45:40.000Z</time>
      </trkpt>
      <trkpt lat="47.3447" lon="-2.41634">
        <ele>18.39999961853</ele>
        <time>2021-11-25T10:45:43.000Z</time>
      </trkpt>
      <trkpt lat="47.34457" lon="-2.41645">
        <ele>18.39999961853</ele>
        <time>2021-11-25T10:45:46.000Z</time>
      </trkpt>
      <trkpt lat="47.34444" lon="-2.41657">
        <ele>18.39999961853</ele>
        <time>2021-11-25T10:45:49.000Z</time>
      </trkpt>
      <trkpt lat="47.34437" lon="-2.41668">
        <ele>18.799999237061</ele>
        <time>2021-11-25T10:45:51.000Z</time>
      </trkpt>
      <trkpt lat="47.34434" lon="-2.41673">
        <ele>19.200000762939</ele>
        <time>2021-11-25T10:45:52.000Z</time>
      </trkpt>
      <trkpt lat="47.3443" lon="-2.41678">
        <ele>19.60000038147</ele>
        <time>2021-11-25T10:45:53.000Z</time>
      </trkpt>
      <trkpt lat="47.34427" lon="-2.41683">
        <ele>20</ele>
        <time>2021-11-25T10:45:54.000Z</time>
      </trkpt>
      <trkpt lat="47.34423" lon="-2.41688">
        <ele>20.39999961853</ele>
        <time>2021-11-25T10:45:55.000Z</time>
      </trkpt>
      <trkpt lat="47.3441" lon="-2.41699">
        <ele>20.39999961853</ele>
        <time>2021-11-25T10:45:58.000Z</time>
      </trkpt>
      <trkpt lat="47.34383" lon="-2.41715">
        <ele>20.39999961853</ele>
        <time>2021-11-25T10:46:04.000Z</time>
      </trkpt>
      <trkpt lat="47.34365" lon="-2.41723">
        <ele>20.799999237061</ele>
        <time>2021-11-25T10:46:08.000Z</time>
      </trkpt>
      <trkpt lat="47.34361" lon="-2.41726">
        <ele>21.200000762939</ele>
        <time>2021-11-25T10:46:09.000Z</time>
      </trkpt>
      <trkpt lat="47.34358" lon="-2.41728">
        <ele>21.60000038147</ele>
        <time>2021-11-25T10:46:10.000Z</time>
      </trkpt>
      <trkpt lat="47.34354" lon="-2.4173">
        <ele>22</ele>
        <time>2021-11-25T10:46:11.000Z</time>
      </trkpt>
      <trkpt lat="47.3435" lon="-2.41731">
        <ele>22.39999961853</ele>
        <time>2021-11-25T10:46:12.000Z</time>
      </trkpt>
      <trkpt lat="47.34333" lon="-2.41738">
        <ele>22.39999961853</ele>
        <time>2021-11-25T10:46:16.000Z</time>
      </trkpt>
      <trkpt lat="47.34312" lon="-2.41749">
        <ele>23</ele>
        <time>2021-11-25T10:46:21.000Z</time>
      </trkpt>
      <trkpt lat="47.34308" lon="-2.41751">
        <ele>23.39999961853</ele>
        <time>2021-11-25T10:46:22.000Z</time>
      </trkpt>
      <trkpt lat="47.34304" lon="-2.41753">
        <ele>23.799999237061</ele>
        <time>2021-11-25T10:46:23.000Z</time>
      </trkpt>
      <trkpt lat="47.343" lon="-2.41755">
        <ele>24.200000762939</ele>
        <time>2021-11-25T10:46:24.000Z</time>
      </trkpt>
      <trkpt lat="47.34296" lon="-2.41758">
        <ele>24.60000038147</ele>
        <time>2021-11-25T10:46:25.000Z</time>
      </trkpt>
      <trkpt lat="47.34288" lon="-2.41763">
        <ele>24.60000038147</ele>
        <time>2021-11-25T10:46:27.000Z</time>
      </trkpt>
      <trkpt lat="47.34272" lon="-2.41773">
        <ele>24.60000038147</ele>
        <time>2021-11-25T10:46:31.000Z</time>
      </trkpt>
      <trkpt lat="47.34244" lon="-2.41783">
        <ele>24.60000038147</ele>
        <time>2021-11-25T10:46:38.000Z</time>
      </trkpt>
      <trkpt lat="47.3424" lon="-2.41781">
        <ele>25</ele>
        <time>2021-11-25T10:46:39.000Z</time>
      </trkpt>
      <trkpt lat="47.34236" lon="-2.41777">
        <ele>25.39999961853</ele>
        <time>2021-11-25T10:46:40.000Z</time>
      </trkpt>
      <trkpt lat="47.34233" lon="-2.41773">
        <ele>25.799999237061</ele>
        <time>2021-11-25T10:46:41.000Z</time>
      </trkpt>
      <trkpt lat="47.34231" lon="-2.41768">
        <ele>26.200000762939</ele>
        <time>2021-11-25T10:46:42.000Z</time>
      </trkpt>
      <trkpt lat="47.34229" lon="-2.41762">
        <ele>26.60000038147</ele>
        <time>2021-11-25T10:46:43.000Z</time>
      </trkpt>
      <trkpt lat="47.34227" lon="-2.41757">
        <ele>26.60000038147</ele>
        <time>2021-11-25T10:46:44.000Z</time>
      </trkpt>
      <trkpt lat="47.34224" lon="-2.41744">
        <ele>26.60000038147</ele>
        <time>2021-11-25T10:46:46.000Z</time>
      </trkpt>
      <trkpt lat="47.34209" lon="-2.41703">
        <ele>26.60000038147</ele>
        <time>2021-11-25T10:46:53.000Z</time>
      </trkpt>
      <trkpt lat="47.34205" lon="-2.417">
        <ele>26.60000038147</ele>
        <time>2021-11-25T10:46:54.000Z</time>
      </trkpt>
      <trkpt lat="47.34195" lon="-2.41698">
        <ele>26.60000038147</ele>
        <time>2021-11-25T10:46:56.000Z</time>
      </trkpt>
      <trkpt lat="47.34178" lon="-2.41708">
        <ele>26.60000038147</ele>
        <time>2021-11-25T10:47:00.000Z</time>
      </trkpt>
      <trkpt lat="47.34175" lon="-2.41712">
        <ele>26.60000038147</ele>
        <time>2021-11-25T10:47:01.000Z</time>
      </trkpt>
      <trkpt lat="47.3415" lon="-2.41739">
        <ele>26.60000038147</ele>
        <time>2021-11-25T10:47:08.000Z</time>
      </trkpt>
      <trkpt lat="47.34131" lon="-2.41754">
        <ele>26.60000038147</ele>
        <time>2021-11-25T10:47:14.000Z</time>
      </trkpt>
      <trkpt lat="47.34115" lon="-2.4177">
        <ele>26.60000038147</ele>
        <time>2021-11-25T10:47:19.000Z</time>
      </trkpt>
      <trkpt lat="47.34105" lon="-2.41779">
        <ele>27</ele>
        <time>2021-11-25T10:47:22.000Z</time>
      </trkpt>
      <trkpt lat="47.34101" lon="-2.41782">
        <ele>27.39999961853</ele>
        <time>2021-11-25T10:47:23.000Z</time>
      </trkpt>
      <trkpt lat="47.34098" lon="-2.41785">
        <ele>27.799999237061</ele>
        <time>2021-11-25T10:47:24.000Z</time>
      </trkpt>
      <trkpt lat="47.34094" lon="-2.41788">
        <ele>28.200000762939</ele>
        <time>2021-11-25T10:47:25.000Z</time>
      </trkpt>
      <trkpt lat="47.34091" lon="-2.41791">
        <ele>28.60000038147</ele>
        <time>2021-11-25T10:47:26.000Z</time>
      </trkpt>
      <trkpt lat="47.34069" lon="-2.41814">
        <ele>28.60000038147</ele>
        <time>2021-11-25T10:47:33.000Z</time>
      </trkpt>
      <trkpt lat="47.34048" lon="-2.41843">
        <ele>29.39999961853</ele>
        <time>2021-11-25T10:47:40.000Z</time>
      </trkpt>
      <trkpt lat="47.34045" lon="-2.41847">
        <ele>29.799999237061</ele>
        <time>2021-11-25T10:47:41.000Z</time>
      </trkpt>
      <trkpt lat="47.34042" lon="-2.41852">
        <ele>30.200000762939</ele>
        <time>2021-11-25T10:47:42.000Z</time>
      </trkpt>
      <trkpt lat="47.34039" lon="-2.41856">
        <ele>30.799999237061</ele>
        <time>2021-11-25T10:47:43.000Z</time>
      </trkpt>
      <trkpt lat="47.34025" lon="-2.4188">
        <ele>30.799999237061</ele>
        <time>2021-11-25T10:47:48.000Z</time>
      </trkpt>
      <trkpt lat="47.34022" lon="-2.41884">
        <ele>30.799999237061</ele>
        <time>2021-11-25T10:47:49.000Z</time>
      </trkpt>
      <trkpt lat="47.33998" lon="-2.41919">
        <ele>30.799999237061</ele>
        <time>2021-11-25T10:47:57.000Z</time>
      </trkpt>
      <trkpt lat="47.33974" lon="-2.41954">
        <ele>30.799999237061</ele>
        <time>2021-11-25T10:48:05.000Z</time>
      </trkpt>
      <trkpt lat="47.33964" lon="-2.41966">
        <ele>31.200000762939</ele>
        <time>2021-11-25T10:48:08.000Z</time>
      </trkpt>
      <trkpt lat="47.33961" lon="-2.4197">
        <ele>31.60000038147</ele>
        <time>2021-11-25T10:48:09.000Z</time>
      </trkpt>
      <trkpt lat="47.33957" lon="-2.41974">
        <ele>32</ele>
        <time>2021-11-25T10:48:10.000Z</time>
      </trkpt>
      <trkpt lat="47.33954" lon="-2.41977">
        <ele>32.400001525879</ele>
        <time>2021-11-25T10:48:11.000Z</time>
      </trkpt>
      <trkpt lat="47.3395" lon="-2.41981">
        <ele>32.799999237061</ele>
        <time>2021-11-25T10:48:12.000Z</time>
      </trkpt>
      <trkpt lat="47.33922" lon="-2.42012">
        <ele>32.799999237061</ele>
        <time>2021-11-25T10:48:20.000Z</time>
      </trkpt>
      <trkpt lat="47.33918" lon="-2.42015">
        <ele>32.799999237061</ele>
        <time>2021-11-25T10:48:21.000Z</time>
      </trkpt>
      <trkpt lat="47.33888" lon="-2.42043">
        <ele>32.799999237061</ele>
        <time>2021-11-25T10:48:29.000Z</time>
      </trkpt>
      <trkpt lat="47.33859" lon="-2.42066">
        <ele>32.799999237061</ele>
        <time>2021-11-25T10:48:37.000Z</time>
      </trkpt>
      <trkpt lat="47.33835" lon="-2.42082">
        <ele>32.799999237061</ele>
        <time>2021-11-25T10:48:44.000Z</time>
      </trkpt>
      <trkpt lat="47.33832" lon="-2.42084">
        <ele>33.200000762939</ele>
        <time>2021-11-25T10:48:45.000Z</time>
      </trkpt>
      <trkpt lat="47.33828" lon="-2.42086">
        <ele>33.599998474121</ele>
        <time>2021-11-25T10:48:46.000Z</time>
      </trkpt>
      <trkpt lat="47.33825" lon="-2.42088">
        <ele>34</ele>
        <time>2021-11-25T10:48:47.000Z</time>
      </trkpt>
      <trkpt lat="47.33821" lon="-2.42091">
        <ele>34.400001525879</ele>
        <time>2021-11-25T10:48:48.000Z</time>
      </trkpt>
      <trkpt lat="47.33818" lon="-2.42093">
        <ele>34.799999237061</ele>
        <time>2021-11-25T10:48:49.000Z</time>
      </trkpt>
      <trkpt lat="47.3381" lon="-2.42095">
        <ele>34.799999237061</ele>
        <time>2021-11-25T10:48:51.000Z</time>
      </trkpt>
      <trkpt lat="47.33804" lon="-2.42084">
        <ele>34.799999237061</ele>
        <time>2021-11-25T10:48:54.000Z</time>
      </trkpt>
      <trkpt lat="47.33804" lon="-2.42072">
        <ele>34.799999237061</ele>
        <time>2021-11-25T10:48:57.000Z</time>
      </trkpt>
      <trkpt lat="47.33803" lon="-2.42063">
        <ele>34.799999237061</ele>
        <time>2021-11-25T10:48:59.000Z</time>
      </trkpt>
      <trkpt lat="47.33797" lon="-2.4203">
        <ele>34.799999237061</ele>
        <time>2021-11-25T10:49:05.000Z</time>
      </trkpt>
      <trkpt lat="47.33794" lon="-2.42019">
        <ele>35.200000762939</ele>
        <time>2021-11-25T10:49:07.000Z</time>
      </trkpt>
      <trkpt lat="47.33793" lon="-2.42014">
        <ele>35.599998474121</ele>
        <time>2021-11-25T10:49:08.000Z</time>
      </trkpt>
      <trkpt lat="47.33792" lon="-2.42008">
        <ele>36</ele>
        <time>2021-11-25T10:49:09.000Z</time>
      </trkpt>
      <trkpt lat="47.33791" lon="-2.42003">
        <ele>36.599998474121</ele>
        <time>2021-11-25T10:49:10.000Z</time>
      </trkpt>
      <trkpt lat="47.33791" lon="-2.41998">
        <ele>37</ele>
        <time>2021-11-25T10:49:11.000Z</time>
      </trkpt>
      <trkpt lat="47.3379" lon="-2.41993">
        <ele>37</ele>
        <time>2021-11-25T10:49:12.000Z</time>
      </trkpt>
      <trkpt lat="47.33787" lon="-2.41973">
        <ele>37.400001525879</ele>
        <time>2021-11-25T10:49:16.000Z</time>
      </trkpt>
      <trkpt lat="47.33786" lon="-2.41967">
        <ele>37.799999237061</ele>
        <time>2021-11-25T10:49:17.000Z</time>
      </trkpt>
      <trkpt lat="47.33785" lon="-2.41962">
        <ele>38.599998474121</ele>
        <time>2021-11-25T10:49:18.000Z</time>
      </trkpt>
      <trkpt lat="47.33784" lon="-2.41957">
        <ele>39</ele>
        <time>2021-11-25T10:49:19.000Z</time>
      </trkpt>
      <trkpt lat="47.33778" lon="-2.41927">
        <ele>39</ele>
        <time>2021-11-25T10:49:26.000Z</time>
      </trkpt>
      <trkpt lat="47.33777" lon="-2.41918">
        <ele>39.400001525879</ele>
        <time>2021-11-25T10:49:28.000Z</time>
      </trkpt>
      <trkpt lat="47.33775" lon="-2.41913">
        <ele>40</ele>
        <time>2021-11-25T10:49:29.000Z</time>
      </trkpt>
      <trkpt lat="47.33774" lon="-2.41908">
        <ele>40.400001525879</ele>
        <time>2021-11-25T10:49:30.000Z</time>
      </trkpt>
      <trkpt lat="47.33772" lon="-2.41903">
        <ele>40.799999237061</ele>
        <time>2021-11-25T10:49:31.000Z</time>
      </trkpt>
      <trkpt lat="47.33771" lon="-2.41897">
        <ele>41.200000762939</ele>
        <time>2021-11-25T10:49:32.000Z</time>
      </trkpt>
      <trkpt lat="47.33766" lon="-2.41874">
        <ele>41.200000762939</ele>
        <time>2021-11-25T10:49:36.000Z</time>
      </trkpt>
      <trkpt lat="47.33762" lon="-2.41856">
        <ele>41.200000762939</ele>
        <time>2021-11-25T10:49:39.000Z</time>
      </trkpt>
      <trkpt lat="47.33752" lon="-2.41809">
        <ele>41.200000762939</ele>
        <time>2021-11-25T10:49:46.000Z</time>
      </trkpt>
      <trkpt lat="47.33742" lon="-2.41755">
        <ele>41.200000762939</ele>
        <time>2021-11-25T10:49:53.000Z</time>
      </trkpt>
      <trkpt lat="47.33738" lon="-2.4173">
        <ele>40.799999237061</ele>
        <time>2021-11-25T10:49:56.000Z</time>
      </trkpt>
      <trkpt lat="47.33736" lon="-2.41722">
        <ele>40.400001525879</ele>
        <time>2021-11-25T10:49:57.000Z</time>
      </trkpt>
      <trkpt lat="47.33734" lon="-2.41713">
        <ele>40</ele>
        <time>2021-11-25T10:49:58.000Z</time>
      </trkpt>
      <trkpt lat="47.33733" lon="-2.41704">
        <ele>39.599998474121</ele>
        <time>2021-11-25T10:49:59.000Z</time>
      </trkpt>
      <trkpt lat="47.33731" lon="-2.41695">
        <ele>39.200000762939</ele>
        <time>2021-11-25T10:50:00.000Z</time>
      </trkpt>
      <trkpt lat="47.33727" lon="-2.41676">
        <ele>39.200000762939</ele>
        <time>2021-11-25T10:50:02.000Z</time>
      </trkpt>
      <trkpt lat="47.33721" lon="-2.41648">
        <ele>38.599998474121</ele>
        <time>2021-11-25T10:50:05.000Z</time>
      </trkpt>
      <trkpt lat="47.33719" lon="-2.41638">
        <ele>38.200000762939</ele>
        <time>2021-11-25T10:50:06.000Z</time>
      </trkpt>
      <trkpt lat="47.33716" lon="-2.41629">
        <ele>37.799999237061</ele>
        <time>2021-11-25T10:50:07.000Z</time>
      </trkpt>
      <trkpt lat="47.33713" lon="-2.4162">
        <ele>37</ele>
        <time>2021-11-25T10:50:08.000Z</time>
      </trkpt>
      <trkpt lat="47.33707" lon="-2.41603">
        <ele>37</ele>
        <time>2021-11-25T10:50:10.000Z</time>
      </trkpt>
      <trkpt lat="47.33703" lon="-2.41595">
        <ele>37</ele>
        <time>2021-11-25T10:50:11.000Z</time>
      </trkpt>
      <trkpt lat="47.33686" lon="-2.41569">
        <ele>37</ele>
        <time>2021-11-25T10:50:15.000Z</time>
      </trkpt>
      <trkpt lat="47.33663" lon="-2.41543">
        <ele>37</ele>
        <time>2021-11-25T10:50:21.000Z</time>
      </trkpt>
      <trkpt lat="47.33656" lon="-2.41537">
        <ele>36.599998474121</ele>
        <time>2021-11-25T10:50:23.000Z</time>
      </trkpt>
      <trkpt lat="47.33652" lon="-2.41535">
        <ele>36.200000762939</ele>
        <time>2021-11-25T10:50:24.000Z</time>
      </trkpt>
      <trkpt lat="47.33649" lon="-2.41533">
        <ele>35.799999237061</ele>
        <time>2021-11-25T10:50:25.000Z</time>
      </trkpt>
      <trkpt lat="47.33646" lon="-2.41531">
        <ele>35.400001525879</ele>
        <time>2021-11-25T10:50:26.000Z</time>
      </trkpt>
      <trkpt lat="47.33643" lon="-2.4153">
        <ele>35</ele>
        <time>2021-11-25T10:50:27.000Z</time>
      </trkpt>
      <trkpt lat="47.33622" lon="-2.41536">
        <ele>35</ele>
        <time>2021-11-25T10:50:33.000Z</time>
      </trkpt>
      <trkpt lat="47.33618" lon="-2.41539">
        <ele>35</ele>
        <time>2021-11-25T10:50:34.000Z</time>
      </trkpt>
      <trkpt lat="47.33611" lon="-2.41549">
        <ele>35</ele>
        <time>2021-11-25T10:50:36.000Z</time>
      </trkpt>
      <trkpt lat="47.33608" lon="-2.41555">
        <ele>35</ele>
        <time>2021-11-25T10:50:37.000Z</time>
      </trkpt>
      <trkpt lat="47.33585" lon="-2.41598">
        <ele>35</ele>
        <time>2021-11-25T10:50:44.000Z</time>
      </trkpt>
      <trkpt lat="47.33568" lon="-2.41623">
        <ele>35</ele>
        <time>2021-11-25T10:50:49.000Z</time>
      </trkpt>
      <trkpt lat="47.3356" lon="-2.41633">
        <ele>35</ele>
        <time>2021-11-25T10:50:51.000Z</time>
      </trkpt>
      <trkpt lat="47.33536" lon="-2.41664">
        <ele>35</ele>
        <time>2021-11-25T10:50:57.000Z</time>
      </trkpt>
      <trkpt lat="47.33532" lon="-2.41669">
        <ele>35</ele>
        <time>2021-11-25T10:50:58.000Z</time>
      </trkpt>
      <trkpt lat="47.33516" lon="-2.4169">
        <ele>35</ele>
        <time>2021-11-25T10:51:02.000Z</time>
      </trkpt>
      <trkpt lat="47.33508" lon="-2.41701">
        <ele>35.400001525879</ele>
        <time>2021-11-25T10:51:04.000Z</time>
      </trkpt>
      <trkpt lat="47.33504" lon="-2.41707">
        <ele>35.799999237061</ele>
        <time>2021-11-25T10:51:05.000Z</time>
      </trkpt>
      <trkpt lat="47.33499" lon="-2.41713">
        <ele>36.200000762939</ele>
        <time>2021-11-25T10:51:06.000Z</time>
      </trkpt>
      <trkpt lat="47.33495" lon="-2.41718">
        <ele>36.599998474121</ele>
        <time>2021-11-25T10:51:07.000Z</time>
      </trkpt>
      <trkpt lat="47.33491" lon="-2.41724">
        <ele>37</ele>
        <time>2021-11-25T10:51:08.000Z</time>
      </trkpt>
      <trkpt lat="47.33487" lon="-2.4173">
        <ele>37</ele>
        <time>2021-11-25T10:51:09.000Z</time>
      </trkpt>
      <trkpt lat="47.33464" lon="-2.41764">
        <ele>37</ele>
        <time>2021-11-25T10:51:15.000Z</time>
      </trkpt>
      <trkpt lat="47.3346" lon="-2.41769">
        <ele>37</ele>
        <time>2021-11-25T10:51:16.000Z</time>
      </trkpt>
      <trkpt lat="47.33439" lon="-2.418">
        <ele>37</ele>
        <time>2021-11-25T10:51:22.000Z</time>
      </trkpt>
      <trkpt lat="47.33428" lon="-2.41816">
        <ele>37.400001525879</ele>
        <time>2021-11-25T10:51:25.000Z</time>
      </trkpt>
      <trkpt lat="47.33425" lon="-2.41821">
        <ele>38</ele>
        <time>2021-11-25T10:51:26.000Z</time>
      </trkpt>
      <trkpt lat="47.33421" lon="-2.41826">
        <ele>38.400001525879</ele>
        <time>2021-11-25T10:51:27.000Z</time>
      </trkpt>
      <trkpt lat="47.33417" lon="-2.41831">
        <ele>38.799999237061</ele>
        <time>2021-11-25T10:51:28.000Z</time>
      </trkpt>
      <trkpt lat="47.33414" lon="-2.41837">
        <ele>39.200000762939</ele>
        <time>2021-11-25T10:51:29.000Z</time>
      </trkpt>
      <trkpt lat="47.3341" lon="-2.41842">
        <ele>39.200000762939</ele>
        <time>2021-11-25T10:51:30.000Z</time>
      </trkpt>
      <trkpt lat="47.33388" lon="-2.41881">
        <ele>39.200000762939</ele>
        <time>2021-11-25T10:51:37.000Z</time>
      </trkpt>
      <trkpt lat="47.33374" lon="-2.41909">
        <ele>39.200000762939</ele>
        <time>2021-11-25T10:51:43.000Z</time>
      </trkpt>
      <trkpt lat="47.33371" lon="-2.41919">
        <ele>39.599998474121</ele>
        <time>2021-11-25T10:51:46.000Z</time>
      </trkpt>
      <trkpt lat="47.33371" lon="-2.41921">
        <ele>40.400001525879</ele>
        <time>2021-11-25T10:51:47.000Z</time>
      </trkpt>
      <trkpt lat="47.33371" lon="-2.41923">
        <ele>40.799999237061</ele>
        <time>2021-11-25T10:51:48.000Z</time>
      </trkpt>
      <trkpt lat="47.33371" lon="-2.41925">
        <ele>41.400001525879</ele>
        <time>2021-11-25T10:51:49.000Z</time>
      </trkpt>
      <trkpt lat="47.3337" lon="-2.41941">
        <ele>41.400001525879</ele>
        <time>2021-11-25T10:51:54.000Z</time>
      </trkpt>
      <trkpt lat="47.33364" lon="-2.4196">
        <ele>41.400001525879</ele>
        <time>2021-11-25T10:51:58.000Z</time>
      </trkpt>
      <trkpt lat="47.33347" lon="-2.41975">
        <ele>41.400001525879</ele>
        <time>2021-11-25T10:52:02.000Z</time>
      </trkpt>
      <trkpt lat="47.3333" lon="-2.41971">
        <ele>41.400001525879</ele>
        <time>2021-11-25T10:52:05.000Z</time>
      </trkpt>
      <trkpt lat="47.3332" lon="-2.41953">
        <ele>41.400001525879</ele>
        <time>2021-11-25T10:52:08.000Z</time>
      </trkpt>
      <trkpt lat="47.33314" lon="-2.41923">
        <ele>41.400001525879</ele>
        <time>2021-11-25T10:52:12.000Z</time>
      </trkpt>
      <trkpt lat="47.33301" lon="-2.41907">
        <ele>41.400001525879</ele>
        <time>2021-11-25T10:52:15.000Z</time>
      </trkpt>
      <trkpt lat="47.33291" lon="-2.419">
        <ele>41.400001525879</ele>
        <time>2021-11-25T10:52:17.000Z</time>
      </trkpt>
      <trkpt lat="47.33286" lon="-2.41895">
        <ele>41.400001525879</ele>
        <time>2021-11-25T10:52:18.000Z</time>
      </trkpt>
      <trkpt lat="47.33282" lon="-2.4189">
        <ele>41.400001525879</ele>
        <time>2021-11-25T10:52:19.000Z</time>
      </trkpt>
      <trkpt lat="47.33241" lon="-2.41839">
        <ele>41.400001525879</ele>
        <time>2021-11-25T10:52:28.000Z</time>
      </trkpt>
      <trkpt lat="47.33207" lon="-2.41801">
        <ele>41.400001525879</ele>
        <time>2021-11-25T10:52:35.000Z</time>
      </trkpt>
      <trkpt lat="47.33196" lon="-2.4179">
        <ele>40.799999237061</ele>
        <time>2021-11-25T10:52:37.000Z</time>
      </trkpt>
      <trkpt lat="47.33191" lon="-2.41784">
        <ele>40.400001525879</ele>
        <time>2021-11-25T10:52:38.000Z</time>
      </trkpt>
      <trkpt lat="47.33185" lon="-2.41779">
        <ele>40</ele>
        <time>2021-11-25T10:52:39.000Z</time>
      </trkpt>
      <trkpt lat="47.3318" lon="-2.41774">
        <ele>39.599998474121</ele>
        <time>2021-11-25T10:52:40.000Z</time>
      </trkpt>
      <trkpt lat="47.33174" lon="-2.41769">
        <ele>39.200000762939</ele>
        <time>2021-11-25T10:52:41.000Z</time>
      </trkpt>
      <trkpt lat="47.33163" lon="-2.41759">
        <ele>39.200000762939</ele>
        <time>2021-11-25T10:52:43.000Z</time>
      </trkpt>
      <trkpt lat="47.33128" lon="-2.41728">
        <ele>38.799999237061</ele>
        <time>2021-11-25T10:52:49.000Z</time>
      </trkpt>
      <trkpt lat="47.33122" lon="-2.41724">
        <ele>38.400001525879</ele>
        <time>2021-11-25T10:52:50.000Z</time>
      </trkpt>
      <trkpt lat="47.33116" lon="-2.4172">
        <ele>38</ele>
        <time>2021-11-25T10:52:51.000Z</time>
      </trkpt>
      <trkpt lat="47.33111" lon="-2.41716">
        <ele>37.599998474121</ele>
        <time>2021-11-25T10:52:52.000Z</time>
      </trkpt>
      <trkpt lat="47.33105" lon="-2.41711">
        <ele>37.200000762939</ele>
        <time>2021-11-25T10:52:53.000Z</time>
      </trkpt>
      <trkpt lat="47.33089" lon="-2.41699">
        <ele>37.200000762939</ele>
        <time>2021-11-25T10:52:56.000Z</time>
      </trkpt>
      <trkpt lat="47.33084" lon="-2.41695">
        <ele>37.200000762939</ele>
        <time>2021-11-25T10:52:57.000Z</time>
      </trkpt>
      <trkpt lat="47.33058" lon="-2.41679">
        <ele>37.200000762939</ele>
        <time>2021-11-25T10:53:02.000Z</time>
      </trkpt>
      <trkpt lat="47.3302" lon="-2.41663">
        <ele>37.200000762939</ele>
        <time>2021-11-25T10:53:09.000Z</time>
      </trkpt>
      <trkpt lat="47.32976" lon="-2.41645">
        <ele>37.200000762939</ele>
        <time>2021-11-25T10:53:17.000Z</time>
      </trkpt>
      <trkpt lat="47.32955" lon="-2.41642">
        <ele>37.200000762939</ele>
        <time>2021-11-25T10:53:21.000Z</time>
      </trkpt>
      <trkpt lat="47.3295" lon="-2.41644">
        <ele>37.200000762939</ele>
        <time>2021-11-25T10:53:22.000Z</time>
      </trkpt>
      <trkpt lat="47.32932" lon="-2.41649">
        <ele>37.200000762939</ele>
        <time>2021-11-25T10:53:26.000Z</time>
      </trkpt>
      <trkpt lat="47.32919" lon="-2.4165">
        <ele>37.200000762939</ele>
        <time>2021-11-25T10:53:30.000Z</time>
      </trkpt>
      <trkpt lat="47.32912" lon="-2.41652">
        <ele>37.200000762939</ele>
        <time>2021-11-25T10:53:33.000Z</time>
      </trkpt>
      <trkpt lat="47.32906" lon="-2.41639">
        <ele>37.200000762939</ele>
        <time>2021-11-25T10:53:36.000Z</time>
      </trkpt>
      <trkpt lat="47.32904" lon="-2.41619">
        <ele>37.599998474121</ele>
        <time>2021-11-25T10:53:39.000Z</time>
      </trkpt>
      <trkpt lat="47.32904" lon="-2.41612">
        <ele>38</ele>
        <time>2021-11-25T10:53:40.000Z</time>
      </trkpt>
      <trkpt lat="47.32903" lon="-2.41605">
        <ele>38.400001525879</ele>
        <time>2021-11-25T10:53:41.000Z</time>
      </trkpt>
      <trkpt lat="47.32903" lon="-2.41597">
        <ele>38.799999237061</ele>
        <time>2021-11-25T10:53:42.000Z</time>
      </trkpt>
      <trkpt lat="47.32904" lon="-2.4159">
        <ele>39.200000762939</ele>
        <time>2021-11-25T10:53:43.000Z</time>
      </trkpt>
      <trkpt lat="47.32907" lon="-2.41576">
        <ele>39.200000762939</ele>
        <time>2021-11-25T10:53:45.000Z</time>
      </trkpt>
      <trkpt lat="47.32904" lon="-2.41559">
        <ele>39.200000762939</ele>
        <time>2021-11-25T10:53:48.000Z</time>
      </trkpt>
      <trkpt lat="47.3289" lon="-2.41555">
        <ele>39.200000762939</ele>
        <time>2021-11-25T10:53:51.000Z</time>
      </trkpt>
      <trkpt lat="47.32875" lon="-2.41551">
        <ele>39.200000762939</ele>
        <time>2021-11-25T10:53:54.000Z</time>
      </trkpt>
      <trkpt lat="47.3286" lon="-2.41547">
        <ele>39.200000762939</ele>
        <time>2021-11-25T10:53:57.000Z</time>
      </trkpt>
      <trkpt lat="47.32836" lon="-2.41541">
        <ele>39.599998474121</ele>
        <time>2021-11-25T10:54:02.000Z</time>
      </trkpt>
      <trkpt lat="47.32831" lon="-2.4154">
        <ele>40</ele>
        <time>2021-11-25T10:54:03.000Z</time>
      </trkpt>
      <trkpt lat="47.32826" lon="-2.41539">
        <ele>40.400001525879</ele>
        <time>2021-11-25T10:54:04.000Z</time>
      </trkpt>
      <trkpt lat="47.32822" lon="-2.41538">
        <ele>40.799999237061</ele>
        <time>2021-11-25T10:54:05.000Z</time>
      </trkpt>
      <trkpt lat="47.32817" lon="-2.41538">
        <ele>41.200000762939</ele>
        <time>2021-11-25T10:54:06.000Z</time>
      </trkpt>
      <trkpt lat="47.32812" lon="-2.41537">
        <ele>41.200000762939</ele>
        <time>2021-11-25T10:54:07.000Z</time>
      </trkpt>
      <trkpt lat="47.32795" lon="-2.41534">
        <ele>41.200000762939</ele>
        <time>2021-11-25T10:54:11.000Z</time>
      </trkpt>
      <trkpt lat="47.32772" lon="-2.41529">
        <ele>41.599998474121</ele>
        <time>2021-11-25T10:54:17.000Z</time>
      </trkpt>
      <trkpt lat="47.32768" lon="-2.41528">
        <ele>42</ele>
        <time>2021-11-25T10:54:18.000Z</time>
      </trkpt>
      <trkpt lat="47.32763" lon="-2.41527">
        <ele>42.400001525879</ele>
        <time>2021-11-25T10:54:19.000Z</time>
      </trkpt>
      <trkpt lat="47.32759" lon="-2.41527">
        <ele>42.799999237061</ele>
        <time>2021-11-25T10:54:20.000Z</time>
      </trkpt>
      <trkpt lat="47.32755" lon="-2.41527">
        <ele>43.200000762939</ele>
        <time>2021-11-25T10:54:21.000Z</time>
      </trkpt>
      <trkpt lat="47.32744" lon="-2.41526">
        <ele>43.200000762939</ele>
        <time>2021-11-25T10:54:24.000Z</time>
      </trkpt>
      <trkpt lat="47.32732" lon="-2.41525">
        <ele>43.200000762939</ele>
        <time>2021-11-25T10:54:27.000Z</time>
      </trkpt>
      <trkpt lat="47.3273" lon="-2.41529">
        <ele>43.200000762939</ele>
        <time>2021-11-25T10:54:28.000Z</time>
      </trkpt>
      <trkpt lat="47.32718" lon="-2.41544">
        <ele>43.200000762939</ele>
        <time>2021-11-25T10:54:32.000Z</time>
      </trkpt>
      <trkpt lat="47.32705" lon="-2.4154">
        <ele>43.200000762939</ele>
        <time>2021-11-25T10:54:35.000Z</time>
      </trkpt>
      <trkpt lat="47.32701" lon="-2.41539">
        <ele>43.200000762939</ele>
        <time>2021-11-25T10:54:36.000Z</time>
      </trkpt>
      <trkpt lat="47.32697" lon="-2.41538">
        <ele>43.599998474121</ele>
        <time>2021-11-25T10:54:37.000Z</time>
      </trkpt>
      <trkpt lat="47.32693" lon="-2.41537">
        <ele>44</ele>
        <time>2021-11-25T10:54:38.000Z</time>
      </trkpt>
      <trkpt lat="47.32688" lon="-2.41537">
        <ele>44.799999237061</ele>
        <time>2021-11-25T10:54:39.000Z</time>
      </trkpt>
      <trkpt lat="47.32684" lon="-2.41536">
        <ele>45.200000762939</ele>
        <time>2021-11-25T10:54:40.000Z</time>
      </trkpt>
      <trkpt lat="47.32668" lon="-2.41532">
        <ele>45.200000762939</ele>
        <time>2021-11-25T10:54:44.000Z</time>
      </trkpt>
      <trkpt lat="47.32651" lon="-2.41529">
        <ele>45.799999237061</ele>
        <time>2021-11-25T10:54:48.000Z</time>
      </trkpt>
      <trkpt lat="47.32647" lon="-2.41528">
        <ele>46.200000762939</ele>
        <time>2021-11-25T10:54:49.000Z</time>
      </trkpt>
      <trkpt lat="47.32643" lon="-2.41527">
        <ele>46.599998474121</ele>
        <time>2021-11-25T10:54:50.000Z</time>
      </trkpt>
      <trkpt lat="47.32638" lon="-2.41527">
        <ele>47</ele>
        <time>2021-11-25T10:54:51.000Z</time>
      </trkpt>
      <trkpt lat="47.32634" lon="-2.41527">
        <ele>47.599998474121</ele>
        <time>2021-11-25T10:54:52.000Z</time>
      </trkpt>
      <trkpt lat="47.32629" lon="-2.41527">
        <ele>47.599998474121</ele>
        <time>2021-11-25T10:54:53.000Z</time>
      </trkpt>
      <trkpt lat="47.3262" lon="-2.41525">
        <ele>47.599998474121</ele>
        <time>2021-11-25T10:54:55.000Z</time>
      </trkpt>
      <trkpt lat="47.3259" lon="-2.41519">
        <ele>47.599998474121</ele>
        <time>2021-11-25T10:55:02.000Z</time>
      </trkpt>
      <trkpt lat="47.32582" lon="-2.41517">
        <ele>47.599998474121</ele>
        <time>2021-11-25T10:55:04.000Z</time>
      </trkpt>
      <trkpt lat="47.32573" lon="-2.41506">
        <ele>47.599998474121</ele>
        <time>2021-11-25T10:55:07.000Z</time>
      </trkpt>
      <trkpt lat="47.3257" lon="-2.41481">
        <ele>47.599998474121</ele>
        <time>2021-11-25T10:55:11.000Z</time>
      </trkpt>
      <trkpt lat="47.32564" lon="-2.41454">
        <ele>47.599998474121</ele>
        <time>2021-11-25T10:55:16.000Z</time>
      </trkpt>
      <trkpt lat="47.32556" lon="-2.41441">
        <ele>47.599998474121</ele>
        <time>2021-11-25T10:55:19.000Z</time>
      </trkpt>
      <trkpt lat="47.32553" lon="-2.41435">
        <ele>47.599998474121</ele>
        <time>2021-11-25T10:55:20.000Z</time>
      </trkpt>
      <trkpt lat="47.32545" lon="-2.41418">
        <ele>48</ele>
        <time>2021-11-25T10:55:23.000Z</time>
      </trkpt>
      <trkpt lat="47.32543" lon="-2.41412">
        <ele>48.400001525879</ele>
        <time>2021-11-25T10:55:25.000Z</time>
      </trkpt>
      <trkpt lat="47.3254" lon="-2.41407">
        <ele>48.799999237061</ele>
        <time>2021-11-25T10:55:26.000Z</time>
      </trkpt>
      <trkpt lat="47.32537" lon="-2.41401">
        <ele>49.200000762939</ele>
        <time>2021-11-25T10:55:27.000Z</time>
      </trkpt>
      <trkpt lat="47.32534" lon="-2.41396">
        <ele>49.799999237061</ele>
        <time>2021-11-25T10:55:28.000Z</time>
      </trkpt>
      <trkpt lat="47.32512" lon="-2.41353">
        <ele>49.799999237061</ele>
        <time>2021-11-25T10:55:36.000Z</time>
      </trkpt>
      <trkpt lat="47.32489" lon="-2.41309">
        <ele>49.799999237061</ele>
        <time>2021-11-25T10:55:44.000Z</time>
      </trkpt>
      <trkpt lat="47.32465" lon="-2.41262">
        <ele>49.799999237061</ele>
        <time>2021-11-25T10:55:52.000Z</time>
      </trkpt>
      <trkpt lat="47.32435" lon="-2.41205">
        <ele>49.799999237061</ele>
        <time>2021-11-25T10:56:02.000Z</time>
      </trkpt>
      <trkpt lat="47.32422" lon="-2.41183">
        <ele>49.799999237061</ele>
        <time>2021-11-25T10:56:07.000Z</time>
      </trkpt>
      <trkpt lat="47.32414" lon="-2.41166">
        <ele>49.799999237061</ele>
        <time>2021-11-25T10:56:13.000Z</time>
      </trkpt>
      <trkpt lat="47.32398" lon="-2.41135">
        <ele>49.799999237061</ele>
        <time>2021-11-25T10:56:19.000Z</time>
      </trkpt>
      <trkpt lat="47.32374" lon="-2.41089">
        <ele>49.799999237061</ele>
        <time>2021-11-25T10:56:27.000Z</time>
      </trkpt>
      <trkpt lat="47.32369" lon="-2.41077">
        <ele>49.799999237061</ele>
        <time>2021-11-25T10:56:29.000Z</time>
      </trkpt>
      <trkpt lat="47.3236" lon="-2.41061">
        <ele>49.799999237061</ele>
        <time>2021-11-25T10:56:32.000Z</time>
      </trkpt>
      <trkpt lat="47.32353" lon="-2.41049">
        <ele>49.799999237061</ele>
        <time>2021-11-25T10:56:34.000Z</time>
      </trkpt>
      <trkpt lat="47.3234" lon="-2.41025">
        <ele>49.799999237061</ele>
        <time>2021-11-25T10:56:38.000Z</time>
      </trkpt>
      <trkpt lat="47.32318" lon="-2.40986">
        <ele>49.799999237061</ele>
        <time>2021-11-25T10:56:44.000Z</time>
      </trkpt>
      <trkpt lat="47.32283" lon="-2.4092">
        <ele>49.799999237061</ele>
        <time>2021-11-25T10:56:53.000Z</time>
      </trkpt>
      <trkpt lat="47.32248" lon="-2.40856">
        <ele>49.799999237061</ele>
        <time>2021-11-25T10:57:02.000Z</time>
      </trkpt>
      <trkpt lat="47.32228" lon="-2.40822">
        <ele>49.200000762939</ele>
        <time>2021-11-25T10:57:07.000Z</time>
      </trkpt>
      <trkpt lat="47.32225" lon="-2.40816">
        <ele>48.799999237061</ele>
        <time>2021-11-25T10:57:08.000Z</time>
      </trkpt>
      <trkpt lat="47.32221" lon="-2.40812">
        <ele>48</ele>
        <time>2021-11-25T10:57:09.000Z</time>
      </trkpt>
      <trkpt lat="47.32218" lon="-2.4081">
        <ele>47.599998474121</ele>
        <time>2021-11-25T10:57:10.000Z</time>
      </trkpt>
      <trkpt lat="47.3221" lon="-2.408">
        <ele>47.599998474121</ele>
        <time>2021-11-25T10:57:13.000Z</time>
      </trkpt>
      <trkpt lat="47.32208" lon="-2.40796">
        <ele>47.599998474121</ele>
        <time>2021-11-25T10:57:14.000Z</time>
      </trkpt>
      <trkpt lat="47.32197" lon="-2.4078">
        <ele>47.599998474121</ele>
        <time>2021-11-25T10:57:18.000Z</time>
      </trkpt>
      <trkpt lat="47.32177" lon="-2.4075">
        <ele>47.599998474121</ele>
        <time>2021-11-25T10:57:24.000Z</time>
      </trkpt>
      <trkpt lat="47.32152" lon="-2.40717">
        <ele>47.599998474121</ele>
        <time>2021-11-25T10:57:30.000Z</time>
      </trkpt>
      <trkpt lat="47.32118" lon="-2.40679">
        <ele>47.599998474121</ele>
        <time>2021-11-25T10:57:37.000Z</time>
      </trkpt>
      <trkpt lat="47.32081" lon="-2.40641">
        <ele>47.599998474121</ele>
        <time>2021-11-25T10:57:44.000Z</time>
      </trkpt>
      <trkpt lat="47.32049" lon="-2.40611">
        <ele>47.200000762939</ele>
        <time>2021-11-25T10:57:50.000Z</time>
      </trkpt>
      <trkpt lat="47.32044" lon="-2.40606">
        <ele>46.799999237061</ele>
        <time>2021-11-25T10:57:51.000Z</time>
      </trkpt>
      <trkpt lat="47.32039" lon="-2.40602">
        <ele>46.400001525879</ele>
        <time>2021-11-25T10:57:52.000Z</time>
      </trkpt>
      <trkpt lat="47.32034" lon="-2.40597">
        <ele>46</ele>
        <time>2021-11-25T10:57:53.000Z</time>
      </trkpt>
      <trkpt lat="47.32028" lon="-2.40593">
        <ele>45.599998474121</ele>
        <time>2021-11-25T10:57:54.000Z</time>
      </trkpt>
      <trkpt lat="47.32012" lon="-2.40578">
        <ele>45.599998474121</ele>
        <time>2021-11-25T10:57:57.000Z</time>
      </trkpt>
      <trkpt lat="47.31972" lon="-2.40546">
        <ele>45.599998474121</ele>
        <time>2021-11-25T10:58:04.000Z</time>
      </trkpt>
      <trkpt lat="47.31966" lon="-2.40541">
        <ele>45.200000762939</ele>
        <time>2021-11-25T10:58:05.000Z</time>
      </trkpt>
      <trkpt lat="47.3196" lon="-2.40537">
        <ele>44.799999237061</ele>
        <time>2021-11-25T10:58:06.000Z</time>
      </trkpt>
      <trkpt lat="47.31954" lon="-2.40532">
        <ele>44.400001525879</ele>
        <time>2021-11-25T10:58:07.000Z</time>
      </trkpt>
      <trkpt lat="47.31948" lon="-2.40528">
        <ele>43.799999237061</ele>
        <time>2021-11-25T10:58:08.000Z</time>
      </trkpt>
      <trkpt lat="47.31942" lon="-2.40523">
        <ele>43.400001525879</ele>
        <time>2021-11-25T10:58:09.000Z</time>
      </trkpt>
      <trkpt lat="47.31918" lon="-2.40504">
        <ele>43.400001525879</ele>
        <time>2021-11-25T10:58:13.000Z</time>
      </trkpt>
      <trkpt lat="47.31873" lon="-2.40468">
        <ele>43.400001525879</ele>
        <time>2021-11-25T10:58:20.000Z</time>
      </trkpt>
      <trkpt lat="47.3186" lon="-2.40458">
        <ele>43</ele>
        <time>2021-11-25T10:58:22.000Z</time>
      </trkpt>
      <trkpt lat="47.31854" lon="-2.40453">
        <ele>42.599998474121</ele>
        <time>2021-11-25T10:58:23.000Z</time>
      </trkpt>
      <trkpt lat="47.31847" lon="-2.40448">
        <ele>41.799999237061</ele>
        <time>2021-11-25T10:58:24.000Z</time>
      </trkpt>
      <trkpt lat="47.31841" lon="-2.40443">
        <ele>41.400001525879</ele>
        <time>2021-11-25T10:58:25.000Z</time>
      </trkpt>
      <trkpt lat="47.31834" lon="-2.40438">
        <ele>41.400001525879</ele>
        <time>2021-11-25T10:58:26.000Z</time>
      </trkpt>
      <trkpt lat="47.31786" lon="-2.404">
        <ele>41.400001525879</ele>
        <time>2021-11-25T10:58:33.000Z</time>
      </trkpt>
      <trkpt lat="47.31745" lon="-2.40369">
        <ele>41</ele>
        <time>2021-11-25T10:58:39.000Z</time>
      </trkpt>
      <trkpt lat="47.31738" lon="-2.40364">
        <ele>40.599998474121</ele>
        <time>2021-11-25T10:58:40.000Z</time>
      </trkpt>
      <trkpt lat="47.31732" lon="-2.40359">
        <ele>40</ele>
        <time>2021-11-25T10:58:41.000Z</time>
      </trkpt>
      <trkpt lat="47.31725" lon="-2.40354">
        <ele>39.599998474121</ele>
        <time>2021-11-25T10:58:42.000Z</time>
      </trkpt>
      <trkpt lat="47.31719" lon="-2.40349">
        <ele>39.200000762939</ele>
        <time>2021-11-25T10:58:43.000Z</time>
      </trkpt>
      <trkpt lat="47.31707" lon="-2.4034">
        <ele>39.200000762939</ele>
        <time>2021-11-25T10:58:45.000Z</time>
      </trkpt>
      <trkpt lat="47.31695" lon="-2.40329">
        <ele>39.200000762939</ele>
        <time>2021-11-25T10:58:47.000Z</time>
      </trkpt>
      <trkpt lat="47.31692" lon="-2.40324">
        <ele>39.200000762939</ele>
        <time>2021-11-25T10:58:48.000Z</time>
      </trkpt>
      <trkpt lat="47.31692" lon="-2.40306">
        <ele>39.200000762939</ele>
        <time>2021-11-25T10:58:51.000Z</time>
      </trkpt>
      <trkpt lat="47.31701" lon="-2.40285">
        <ele>39.200000762939</ele>
        <time>2021-11-25T10:58:55.000Z</time>
      </trkpt>
      <trkpt lat="47.31704" lon="-2.4028">
        <ele>39.200000762939</ele>
        <time>2021-11-25T10:58:56.000Z</time>
      </trkpt>
      <trkpt lat="47.31707" lon="-2.40275">
        <ele>39.200000762939</ele>
        <time>2021-11-25T10:58:57.000Z</time>
      </trkpt>
      <trkpt lat="47.31714" lon="-2.40265">
        <ele>39.200000762939</ele>
        <time>2021-11-25T10:58:59.000Z</time>
      </trkpt>
      <trkpt lat="47.31721" lon="-2.40256">
        <ele>39.200000762939</ele>
        <time>2021-11-25T10:59:01.000Z</time>
      </trkpt>
      <trkpt lat="47.31731" lon="-2.4024">
        <ele>39.200000762939</ele>
        <time>2021-11-25T10:59:04.000Z</time>
      </trkpt>
      <trkpt lat="47.31736" lon="-2.40228">
        <ele>39.200000762939</ele>
        <time>2021-11-25T10:59:06.000Z</time>
      </trkpt>
      <trkpt lat="47.31739" lon="-2.40222">
        <ele>39.200000762939</ele>
        <time>2021-11-25T10:59:07.000Z</time>
      </trkpt>
      <trkpt lat="47.31749" lon="-2.40202">
        <ele>39.200000762939</ele>
        <time>2021-11-25T10:59:10.000Z</time>
      </trkpt>
      <trkpt lat="47.3176" lon="-2.40183">
        <ele>39.200000762939</ele>
        <time>2021-11-25T10:59:13.000Z</time>
      </trkpt>
      <trkpt lat="47.31778" lon="-2.40151">
        <ele>39.200000762939</ele>
        <time>2021-11-25T10:59:19.000Z</time>
      </trkpt>
      <trkpt lat="47.31796" lon="-2.40125">
        <ele>39.200000762939</ele>
        <time>2021-11-25T10:59:24.000Z</time>
      </trkpt>
      <trkpt lat="47.31801" lon="-2.40119">
        <ele>39.200000762939</ele>
        <time>2021-11-25T10:59:25.000Z</time>
      </trkpt>
      <trkpt lat="47.31805" lon="-2.40114">
        <ele>39.200000762939</ele>
        <time>2021-11-25T10:59:26.000Z</time>
      </trkpt>
      <trkpt lat="47.3182" lon="-2.4009">
        <ele>39.200000762939</ele>
        <time>2021-11-25T10:59:30.000Z</time>
      </trkpt>
      <trkpt lat="47.31845" lon="-2.40054">
        <ele>39.200000762939</ele>
        <time>2021-11-25T10:59:36.000Z</time>
      </trkpt>
      <trkpt lat="47.31878" lon="-2.40009">
        <ele>39.200000762939</ele>
        <time>2021-11-25T10:59:43.000Z</time>
      </trkpt>
      <trkpt lat="47.31905" lon="-2.39975">
        <ele>39.200000762939</ele>
        <time>2021-11-25T10:59:49.000Z</time>
      </trkpt>
      <trkpt lat="47.3193" lon="-2.39943">
        <ele>39.200000762939</ele>
        <time>2021-11-25T10:59:56.000Z</time>
      </trkpt>
      <trkpt lat="47.31947" lon="-2.39926">
        <ele>39.200000762939</ele>
        <time>2021-11-25T11:00:00.000Z</time>
      </trkpt>
      <trkpt lat="47.31956" lon="-2.39918">
        <ele>39.200000762939</ele>
        <time>2021-11-25T11:00:02.000Z</time>
      </trkpt>
      <trkpt lat="47.31989" lon="-2.39892">
        <ele>39.200000762939</ele>
        <time>2021-11-25T11:00:09.000Z</time>
      </trkpt>
      <trkpt lat="47.32001" lon="-2.39881">
        <ele>39.599998474121</ele>
        <time>2021-11-25T11:00:12.000Z</time>
      </trkpt>
      <trkpt lat="47.32006" lon="-2.39878">
        <ele>40</ele>
        <time>2021-11-25T11:00:13.000Z</time>
      </trkpt>
      <trkpt lat="47.32011" lon="-2.39874">
        <ele>40.400001525879</ele>
        <time>2021-11-25T11:00:14.000Z</time>
      </trkpt>
      <trkpt lat="47.32015" lon="-2.3987">
        <ele>40.799999237061</ele>
        <time>2021-11-25T11:00:15.000Z</time>
      </trkpt>
      <trkpt lat="47.3202" lon="-2.39866">
        <ele>41.200000762939</ele>
        <time>2021-11-25T11:00:16.000Z</time>
      </trkpt>
      <trkpt lat="47.32039" lon="-2.39852">
        <ele>41.200000762939</ele>
        <time>2021-11-25T11:00:20.000Z</time>
      </trkpt>
      <trkpt lat="47.32047" lon="-2.39845">
        <ele>41.200000762939</ele>
        <time>2021-11-25T11:00:22.000Z</time>
      </trkpt>
      <trkpt lat="47.32067" lon="-2.39828">
        <ele>41.200000762939</ele>
        <time>2021-11-25T11:00:28.000Z</time>
      </trkpt>
      <trkpt lat="47.32084" lon="-2.39812">
        <ele>41.200000762939</ele>
        <time>2021-11-25T11:00:34.000Z</time>
      </trkpt>
      <trkpt lat="47.32084" lon="-2.39807">
        <ele>41.599998474121</ele>
        <time>2021-11-25T11:00:35.000Z</time>
      </trkpt>
      <trkpt lat="47.32083" lon="-2.39801">
        <ele>42</ele>
        <time>2021-11-25T11:00:36.000Z</time>
      </trkpt>
      <trkpt lat="47.32082" lon="-2.39796">
        <ele>42.400001525879</ele>
        <time>2021-11-25T11:00:37.000Z</time>
      </trkpt>
      <trkpt lat="47.32081" lon="-2.39791">
        <ele>42.799999237061</ele>
        <time>2021-11-25T11:00:38.000Z</time>
      </trkpt>
      <trkpt lat="47.3208" lon="-2.39786">
        <ele>43.400001525879</ele>
        <time>2021-11-25T11:00:39.000Z</time>
      </trkpt>
      <trkpt lat="47.32075" lon="-2.39766">
        <ele>43.400001525879</ele>
        <time>2021-11-25T11:00:43.000Z</time>
      </trkpt>
      <trkpt lat="47.32069" lon="-2.39736">
        <ele>43.400001525879</ele>
        <time>2021-11-25T11:00:49.000Z</time>
      </trkpt>
      <trkpt lat="47.3206" lon="-2.39707">
        <ele>43.400001525879</ele>
        <time>2021-11-25T11:00:55.000Z</time>
      </trkpt>
      <trkpt lat="47.32051" lon="-2.39673">
        <ele>43.400001525879</ele>
        <time>2021-11-25T11:01:02.000Z</time>
      </trkpt>
      <trkpt lat="47.32046" lon="-2.39649">
        <ele>42.799999237061</ele>
        <time>2021-11-25T11:01:06.000Z</time>
      </trkpt>
      <trkpt lat="47.32043" lon="-2.39642">
        <ele>42.400001525879</ele>
        <time>2021-11-25T11:01:07.000Z</time>
      </trkpt>
      <trkpt lat="47.32042" lon="-2.39636">
        <ele>42</ele>
        <time>2021-11-25T11:01:08.000Z</time>
      </trkpt>
      <trkpt lat="47.3204" lon="-2.39628">
        <ele>41.599998474121</ele>
        <time>2021-11-25T11:01:09.000Z</time>
      </trkpt>
      <trkpt lat="47.32039" lon="-2.3962">
        <ele>41.200000762939</ele>
        <time>2021-11-25T11:01:10.000Z</time>
      </trkpt>
      <trkpt lat="47.32032" lon="-2.3959">
        <ele>41.200000762939</ele>
        <time>2021-11-25T11:01:14.000Z</time>
      </trkpt>
      <trkpt lat="47.32022" lon="-2.39544">
        <ele>41.200000762939</ele>
        <time>2021-11-25T11:01:20.000Z</time>
      </trkpt>
      <trkpt lat="47.32011" lon="-2.395">
        <ele>41.200000762939</ele>
        <time>2021-11-25T11:01:26.000Z</time>
      </trkpt>
      <trkpt lat="47.32009" lon="-2.39492">
        <ele>41.200000762939</ele>
        <time>2021-11-25T11:01:27.000Z</time>
      </trkpt>
      <trkpt lat="47.32008" lon="-2.39484">
        <ele>41.200000762939</ele>
        <time>2021-11-25T11:01:28.000Z</time>
      </trkpt>
      <trkpt lat="47.32006" lon="-2.39475">
        <ele>40.799999237061</ele>
        <time>2021-11-25T11:01:29.000Z</time>
      </trkpt>
      <trkpt lat="47.32004" lon="-2.39467">
        <ele>40.400001525879</ele>
        <time>2021-11-25T11:01:30.000Z</time>
      </trkpt>
      <trkpt lat="47.32003" lon="-2.39458">
        <ele>40</ele>
        <time>2021-11-25T11:01:31.000Z</time>
      </trkpt>
      <trkpt lat="47.32001" lon="-2.39449">
        <ele>39.599998474121</ele>
        <time>2021-11-25T11:01:32.000Z</time>
      </trkpt>
      <trkpt lat="47.31998" lon="-2.3944">
        <ele>39.200000762939</ele>
        <time>2021-11-25T11:01:33.000Z</time>
      </trkpt>
      <trkpt lat="47.31992" lon="-2.39413">
        <ele>39.200000762939</ele>
        <time>2021-11-25T11:01:36.000Z</time>
      </trkpt>
      <trkpt lat="47.31987" lon="-2.39395">
        <ele>39.200000762939</ele>
        <time>2021-11-25T11:01:38.000Z</time>
      </trkpt>
      <trkpt lat="47.31986" lon="-2.39386">
        <ele>39.200000762939</ele>
        <time>2021-11-25T11:01:39.000Z</time>
      </trkpt>
      <trkpt lat="47.31972" lon="-2.3933">
        <ele>39.200000762939</ele>
        <time>2021-11-25T11:01:45.000Z</time>
      </trkpt>
      <trkpt lat="47.31963" lon="-2.39293">
        <ele>38.799999237061</ele>
        <time>2021-11-25T11:01:49.000Z</time>
      </trkpt>
      <trkpt lat="47.3196" lon="-2.39284">
        <ele>38.400001525879</ele>
        <time>2021-11-25T11:01:50.000Z</time>
      </trkpt>
      <trkpt lat="47.31958" lon="-2.39275">
        <ele>38</ele>
        <time>2021-11-25T11:01:51.000Z</time>
      </trkpt>
      <trkpt lat="47.31955" lon="-2.39265">
        <ele>37.599998474121</ele>
        <time>2021-11-25T11:01:52.000Z</time>
      </trkpt>
      <trkpt lat="47.31952" lon="-2.39255">
        <ele>37.200000762939</ele>
        <time>2021-11-25T11:01:53.000Z</time>
      </trkpt>
      <trkpt lat="47.31939" lon="-2.3921">
        <ele>37.200000762939</ele>
        <time>2021-11-25T11:01:58.000Z</time>
      </trkpt>
      <trkpt lat="47.31918" lon="-2.39138">
        <ele>37.200000762939</ele>
        <time>2021-11-25T11:02:06.000Z</time>
      </trkpt>
      <trkpt lat="47.31915" lon="-2.39129">
        <ele>36.799999237061</ele>
        <time>2021-11-25T11:02:07.000Z</time>
      </trkpt>
      <trkpt lat="47.31912" lon="-2.39121">
        <ele>36.400001525879</ele>
        <time>2021-11-25T11:02:08.000Z</time>
      </trkpt>
      <trkpt lat="47.3191" lon="-2.39112">
        <ele>36</ele>
        <time>2021-11-25T11:02:09.000Z</time>
      </trkpt>
      <trkpt lat="47.31907" lon="-2.39103">
        <ele>35.599998474121</ele>
        <time>2021-11-25T11:02:10.000Z</time>
      </trkpt>
      <trkpt lat="47.31904" lon="-2.39094">
        <ele>35.200000762939</ele>
        <time>2021-11-25T11:02:11.000Z</time>
      </trkpt>
      <trkpt lat="47.31902" lon="-2.39086">
        <ele>35.200000762939</ele>
        <time>2021-11-25T11:02:12.000Z</time>
      </trkpt>
      <trkpt lat="47.31884" lon="-2.39025">
        <ele>35.200000762939</ele>
        <time>2021-11-25T11:02:19.000Z</time>
      </trkpt>
      <trkpt lat="47.31873" lon="-2.38991">
        <ele>35.200000762939</ele>
        <time>2021-11-25T11:02:23.000Z</time>
      </trkpt>
      <trkpt lat="47.31866" lon="-2.38974">
        <ele>35.200000762939</ele>
        <time>2021-11-25T11:02:25.000Z</time>
      </trkpt>
      <trkpt lat="47.31846" lon="-2.38916">
        <ele>35.200000762939</ele>
        <time>2021-11-25T11:02:32.000Z</time>
      </trkpt>
      <trkpt lat="47.31836" lon="-2.38867">
        <ele>35.200000762939</ele>
        <time>2021-11-25T11:02:38.000Z</time>
      </trkpt>
      <trkpt lat="47.31824" lon="-2.38813">
        <ele>35.200000762939</ele>
        <time>2021-11-25T11:02:44.000Z</time>
      </trkpt>
      <trkpt lat="47.31821" lon="-2.38766">
        <ele>35.200000762939</ele>
        <time>2021-11-25T11:02:49.000Z</time>
      </trkpt>
      <trkpt lat="47.3182" lon="-2.38699">
        <ele>35.200000762939</ele>
        <time>2021-11-25T11:02:56.000Z</time>
      </trkpt>
      <trkpt lat="47.31816" lon="-2.38645">
        <ele>35.200000762939</ele>
        <time>2021-11-25T11:03:02.000Z</time>
      </trkpt>
      <trkpt lat="47.31812" lon="-2.3857">
        <ele>35.200000762939</ele>
        <time>2021-11-25T11:03:10.000Z</time>
      </trkpt>
      <trkpt lat="47.31811" lon="-2.38525">
        <ele>35.599998474121</ele>
        <time>2021-11-25T11:03:15.000Z</time>
      </trkpt>
      <trkpt lat="47.31811" lon="-2.38517">
        <ele>36</ele>
        <time>2021-11-25T11:03:16.000Z</time>
      </trkpt>
      <trkpt lat="47.31811" lon="-2.38508">
        <ele>36.400001525879</ele>
        <time>2021-11-25T11:03:17.000Z</time>
      </trkpt>
      <trkpt lat="47.31811" lon="-2.38499">
        <ele>36.799999237061</ele>
        <time>2021-11-25T11:03:18.000Z</time>
      </trkpt>
      <trkpt lat="47.31811" lon="-2.38489">
        <ele>37.200000762939</ele>
        <time>2021-11-25T11:03:19.000Z</time>
      </trkpt>
      <trkpt lat="47.31811" lon="-2.38431">
        <ele>37.200000762939</ele>
        <time>2021-11-25T11:03:25.000Z</time>
      </trkpt>
      <trkpt lat="47.31811" lon="-2.38381">
        <ele>36.799999237061</ele>
        <time>2021-11-25T11:03:30.000Z</time>
      </trkpt>
      <trkpt lat="47.31811" lon="-2.38371">
        <ele>36.400001525879</ele>
        <time>2021-11-25T11:03:31.000Z</time>
      </trkpt>
      <trkpt lat="47.31811" lon="-2.3836">
        <ele>35.799999237061</ele>
        <time>2021-11-25T11:03:32.000Z</time>
      </trkpt>
      <trkpt lat="47.31811" lon="-2.3835">
        <ele>35.400001525879</ele>
        <time>2021-11-25T11:03:33.000Z</time>
      </trkpt>
      <trkpt lat="47.31811" lon="-2.3834">
        <ele>35</ele>
        <time>2021-11-25T11:03:34.000Z</time>
      </trkpt>
      <trkpt lat="47.3181" lon="-2.38263">
        <ele>34.599998474121</ele>
        <time>2021-11-25T11:03:41.000Z</time>
      </trkpt>
      <trkpt lat="47.3181" lon="-2.38251">
        <ele>34</ele>
        <time>2021-11-25T11:03:42.000Z</time>
      </trkpt>
      <trkpt lat="47.31809" lon="-2.3824">
        <ele>33.599998474121</ele>
        <time>2021-11-25T11:03:43.000Z</time>
      </trkpt>
      <trkpt lat="47.31809" lon="-2.38228">
        <ele>33.200000762939</ele>
        <time>2021-11-25T11:03:44.000Z</time>
      </trkpt>
      <trkpt lat="47.31808" lon="-2.38216">
        <ele>32.799999237061</ele>
        <time>2021-11-25T11:03:45.000Z</time>
      </trkpt>
      <trkpt lat="47.31806" lon="-2.3818">
        <ele>32.400001525879</ele>
        <time>2021-11-25T11:03:48.000Z</time>
      </trkpt>
      <trkpt lat="47.31806" lon="-2.38168">
        <ele>31.799999237061</ele>
        <time>2021-11-25T11:03:49.000Z</time>
      </trkpt>
      <trkpt lat="47.31805" lon="-2.38157">
        <ele>31.39999961853</ele>
        <time>2021-11-25T11:03:50.000Z</time>
      </trkpt>
      <trkpt lat="47.31805" lon="-2.38145">
        <ele>31</ele>
        <time>2021-11-25T11:03:51.000Z</time>
      </trkpt>
      <trkpt lat="47.31804" lon="-2.38133">
        <ele>30.60000038147</ele>
        <time>2021-11-25T11:03:52.000Z</time>
      </trkpt>
      <trkpt lat="47.31802" lon="-2.38075">
        <ele>30.60000038147</ele>
        <time>2021-11-25T11:03:57.000Z</time>
      </trkpt>
      <trkpt lat="47.31801" lon="-2.38064">
        <ele>30.200000762939</ele>
        <time>2021-11-25T11:03:58.000Z</time>
      </trkpt>
      <trkpt lat="47.31801" lon="-2.38052">
        <ele>29.799999237061</ele>
        <time>2021-11-25T11:03:59.000Z</time>
      </trkpt>
      <trkpt lat="47.318" lon="-2.38041">
        <ele>29.200000762939</ele>
        <time>2021-11-25T11:04:00.000Z</time>
      </trkpt>
      <trkpt lat="47.31799" lon="-2.3803">
        <ele>28.799999237061</ele>
        <time>2021-11-25T11:04:01.000Z</time>
      </trkpt>
      <trkpt lat="47.31798" lon="-2.3802">
        <ele>28.39999961853</ele>
        <time>2021-11-25T11:04:02.000Z</time>
      </trkpt>
      <trkpt lat="47.31798" lon="-2.3801">
        <ele>28.39999961853</ele>
        <time>2021-11-25T11:04:03.000Z</time>
      </trkpt>
      <trkpt lat="47.31796" lon="-2.37944">
        <ele>28.39999961853</ele>
        <time>2021-11-25T11:04:10.000Z</time>
      </trkpt>
      <trkpt lat="47.31798" lon="-2.37909">
        <ele>28.799999237061</ele>
        <time>2021-11-25T11:04:14.000Z</time>
      </trkpt>
      <trkpt lat="47.31798" lon="-2.37901">
        <ele>29.200000762939</ele>
        <time>2021-11-25T11:04:15.000Z</time>
      </trkpt>
      <trkpt lat="47.31799" lon="-2.37893">
        <ele>29.60000038147</ele>
        <time>2021-11-25T11:04:16.000Z</time>
      </trkpt>
      <trkpt lat="47.318" lon="-2.37885">
        <ele>30</ele>
        <time>2021-11-25T11:04:17.000Z</time>
      </trkpt>
      <trkpt lat="47.31801" lon="-2.37878">
        <ele>30.39999961853</ele>
        <time>2021-11-25T11:04:18.000Z</time>
      </trkpt>
      <trkpt lat="47.31806" lon="-2.3784">
        <ele>30.39999961853</ele>
        <time>2021-11-25T11:04:23.000Z</time>
      </trkpt>
      <trkpt lat="47.31807" lon="-2.37824">
        <ele>30.799999237061</ele>
        <time>2021-11-25T11:04:25.000Z</time>
      </trkpt>
      <trkpt lat="47.31807" lon="-2.37816">
        <ele>31.200000762939</ele>
        <time>2021-11-25T11:04:26.000Z</time>
      </trkpt>
      <trkpt lat="47.31808" lon="-2.37809">
        <ele>31.60000038147</ele>
        <time>2021-11-25T11:04:27.000Z</time>
      </trkpt>
      <trkpt lat="47.3181" lon="-2.37801">
        <ele>32</ele>
        <time>2021-11-25T11:04:28.000Z</time>
      </trkpt>
      <trkpt lat="47.31811" lon="-2.37795">
        <ele>32.400001525879</ele>
        <time>2021-11-25T11:04:29.000Z</time>
      </trkpt>
      <trkpt lat="47.31815" lon="-2.37742">
        <ele>32.400001525879</ele>
        <time>2021-11-25T11:04:36.000Z</time>
      </trkpt>
      <trkpt lat="47.31821" lon="-2.37691">
        <ele>32.400001525879</ele>
        <time>2021-11-25T11:04:43.000Z</time>
      </trkpt>
      <trkpt lat="47.31825" lon="-2.37658">
        <ele>32.400001525879</ele>
        <time>2021-11-25T11:04:48.000Z</time>
      </trkpt>
      <trkpt lat="47.31823" lon="-2.37652">
        <ele>32.400001525879</ele>
        <time>2021-11-25T11:04:49.000Z</time>
      </trkpt>
      <trkpt lat="47.31814" lon="-2.37648">
        <ele>32.400001525879</ele>
        <time>2021-11-25T11:04:51.000Z</time>
      </trkpt>
      <trkpt lat="47.318" lon="-2.37656">
        <ele>32.400001525879</ele>
        <time>2021-11-25T11:04:54.000Z</time>
      </trkpt>
      <trkpt lat="47.31795" lon="-2.3766">
        <ele>32.400001525879</ele>
        <time>2021-11-25T11:04:55.000Z</time>
      </trkpt>
      <trkpt lat="47.31785" lon="-2.37668">
        <ele>32.400001525879</ele>
        <time>2021-11-25T11:04:57.000Z</time>
      </trkpt>
      <trkpt lat="47.31776" lon="-2.37677">
        <ele>32.400001525879</ele>
        <time>2021-11-25T11:04:59.000Z</time>
      </trkpt>
      <trkpt lat="47.31744" lon="-2.37704">
        <ele>32.400001525879</ele>
        <time>2021-11-25T11:05:06.000Z</time>
      </trkpt>
      <trkpt lat="47.31718" lon="-2.37715">
        <ele>32.400001525879</ele>
        <time>2021-11-25T11:05:11.000Z</time>
      </trkpt>
      <trkpt lat="47.31712" lon="-2.37715">
        <ele>32.400001525879</ele>
        <time>2021-11-25T11:05:12.000Z</time>
      </trkpt>
      <trkpt lat="47.31707" lon="-2.37714">
        <ele>32.799999237061</ele>
        <time>2021-11-25T11:05:13.000Z</time>
      </trkpt>
      <trkpt lat="47.31701" lon="-2.37713">
        <ele>33.200000762939</ele>
        <time>2021-11-25T11:05:14.000Z</time>
      </trkpt>
      <trkpt lat="47.31696" lon="-2.37712">
        <ele>33.599998474121</ele>
        <time>2021-11-25T11:05:15.000Z</time>
      </trkpt>
      <trkpt lat="47.31691" lon="-2.37708">
        <ele>34</ele>
        <time>2021-11-25T11:05:16.000Z</time>
      </trkpt>
      <trkpt lat="47.31686" lon="-2.37704">
        <ele>34.400001525879</ele>
        <time>2021-11-25T11:05:17.000Z</time>
      </trkpt>
      <trkpt lat="47.31681" lon="-2.377">
        <ele>34.400001525879</ele>
        <time>2021-11-25T11:05:18.000Z</time>
      </trkpt>
      <trkpt lat="47.31654" lon="-2.37671">
        <ele>34.400001525879</ele>
        <time>2021-11-25T11:05:24.000Z</time>
      </trkpt>
      <trkpt lat="47.31644" lon="-2.37662">
        <ele>34.400001525879</ele>
        <time>2021-11-25T11:05:26.000Z</time>
      </trkpt>
      <trkpt lat="47.31628" lon="-2.37653">
        <ele>34.400001525879</ele>
        <time>2021-11-25T11:05:29.000Z</time>
      </trkpt>
      <trkpt lat="47.31618" lon="-2.37644">
        <ele>34.400001525879</ele>
        <time>2021-11-25T11:05:31.000Z</time>
      </trkpt>
      <trkpt lat="47.31615" lon="-2.37629">
        <ele>34.400001525879</ele>
        <time>2021-11-25T11:05:33.000Z</time>
      </trkpt>
      <trkpt lat="47.31613" lon="-2.37614">
        <ele>34.400001525879</ele>
        <time>2021-11-25T11:05:35.000Z</time>
      </trkpt>
      <trkpt lat="47.31612" lon="-2.37592">
        <ele>34.400001525879</ele>
        <time>2021-11-25T11:05:38.000Z</time>
      </trkpt>
      <trkpt lat="47.31612" lon="-2.37584">
        <ele>34.400001525879</ele>
        <time>2021-11-25T11:05:39.000Z</time>
      </trkpt>
      <trkpt lat="47.31615" lon="-2.37562">
        <ele>34.400001525879</ele>
        <time>2021-11-25T11:05:42.000Z</time>
      </trkpt>
      <trkpt lat="47.3162" lon="-2.37542">
        <ele>34.400001525879</ele>
        <time>2021-11-25T11:05:45.000Z</time>
      </trkpt>
      <trkpt lat="47.31631" lon="-2.3751">
        <ele>34.400001525879</ele>
        <time>2021-11-25T11:05:50.000Z</time>
      </trkpt>
      <trkpt lat="47.31636" lon="-2.37489">
        <ele>34.400001525879</ele>
        <time>2021-11-25T11:05:53.000Z</time>
      </trkpt>
      <trkpt lat="47.31637" lon="-2.37467">
        <ele>34.400001525879</ele>
        <time>2021-11-25T11:05:56.000Z</time>
      </trkpt>
      <trkpt lat="47.31636" lon="-2.3746">
        <ele>34.400001525879</ele>
        <time>2021-11-25T11:05:57.000Z</time>
      </trkpt>
      <trkpt lat="47.31635" lon="-2.37436">
        <ele>34.400001525879</ele>
        <time>2021-11-25T11:06:00.000Z</time>
      </trkpt>
      <trkpt lat="47.31634" lon="-2.37421">
        <ele>34.400001525879</ele>
        <time>2021-11-25T11:06:02.000Z</time>
      </trkpt>
      <trkpt lat="47.3163" lon="-2.37375">
        <ele>34.799999237061</ele>
        <time>2021-11-25T11:06:08.000Z</time>
      </trkpt>
      <trkpt lat="47.31628" lon="-2.37368">
        <ele>35.400001525879</ele>
        <time>2021-11-25T11:06:09.000Z</time>
      </trkpt>
      <trkpt lat="47.31626" lon="-2.3736">
        <ele>35.799999237061</ele>
        <time>2021-11-25T11:06:10.000Z</time>
      </trkpt>
      <trkpt lat="47.31625" lon="-2.37353">
        <ele>36.200000762939</ele>
        <time>2021-11-25T11:06:11.000Z</time>
      </trkpt>
      <trkpt lat="47.31623" lon="-2.37346">
        <ele>36.599998474121</ele>
        <time>2021-11-25T11:06:12.000Z</time>
      </trkpt>
      <trkpt lat="47.31618" lon="-2.37308">
        <ele>36.599998474121</ele>
        <time>2021-11-25T11:06:17.000Z</time>
      </trkpt>
      <trkpt lat="47.31626" lon="-2.37282">
        <ele>36.599998474121</ele>
        <time>2021-11-25T11:06:21.000Z</time>
      </trkpt>
      <trkpt lat="47.31642" lon="-2.37263">
        <ele>36.599998474121</ele>
        <time>2021-11-25T11:06:25.000Z</time>
      </trkpt>
      <trkpt lat="47.31647" lon="-2.37259">
        <ele>36.599998474121</ele>
        <time>2021-11-25T11:06:26.000Z</time>
      </trkpt>
      <trkpt lat="47.31671" lon="-2.3724">
        <ele>37</ele>
        <time>2021-11-25T11:06:31.000Z</time>
      </trkpt>
      <trkpt lat="47.31675" lon="-2.37235">
        <ele>37.400001525879</ele>
        <time>2021-11-25T11:06:32.000Z</time>
      </trkpt>
      <trkpt lat="47.3168" lon="-2.3723">
        <ele>37.799999237061</ele>
        <time>2021-11-25T11:06:33.000Z</time>
      </trkpt>
      <trkpt lat="47.31683" lon="-2.37225">
        <ele>38.200000762939</ele>
        <time>2021-11-25T11:06:34.000Z</time>
      </trkpt>
      <trkpt lat="47.31686" lon="-2.3722">
        <ele>38.599998474121</ele>
        <time>2021-11-25T11:06:35.000Z</time>
      </trkpt>
      <trkpt lat="47.31688" lon="-2.37212">
        <ele>38.599998474121</ele>
        <time>2021-11-25T11:06:36.000Z</time>
      </trkpt>
      <trkpt lat="47.31688" lon="-2.37181">
        <ele>38.599998474121</ele>
        <time>2021-11-25T11:06:40.000Z</time>
      </trkpt>
      <trkpt lat="47.31679" lon="-2.3716">
        <ele>38.599998474121</ele>
        <time>2021-11-25T11:06:43.000Z</time>
      </trkpt>
      <trkpt lat="47.31676" lon="-2.37154">
        <ele>38.599998474121</ele>
        <time>2021-11-25T11:06:44.000Z</time>
      </trkpt>
      <trkpt lat="47.31656" lon="-2.37112">
        <ele>38.599998474121</ele>
        <time>2021-11-25T11:06:50.000Z</time>
      </trkpt>
      <trkpt lat="47.31627" lon="-2.37056">
        <ele>38.599998474121</ele>
        <time>2021-11-25T11:06:58.000Z</time>
      </trkpt>
      <trkpt lat="47.3161" lon="-2.37009">
        <ele>38.200000762939</ele>
        <time>2021-11-25T11:07:04.000Z</time>
      </trkpt>
      <trkpt lat="47.31608" lon="-2.37001">
        <ele>37.799999237061</ele>
        <time>2021-11-25T11:07:05.000Z</time>
      </trkpt>
      <trkpt lat="47.31605" lon="-2.36993">
        <ele>37.400001525879</ele>
        <time>2021-11-25T11:07:06.000Z</time>
      </trkpt>
      <trkpt lat="47.31603" lon="-2.36984">
        <ele>36.799999237061</ele>
        <time>2021-11-25T11:07:07.000Z</time>
      </trkpt>
      <trkpt lat="47.316" lon="-2.36976">
        <ele>36.400001525879</ele>
        <time>2021-11-25T11:07:08.000Z</time>
      </trkpt>
      <trkpt lat="47.31589" lon="-2.36939">
        <ele>36.400001525879</ele>
        <time>2021-11-25T11:07:12.000Z</time>
      </trkpt>
      <trkpt lat="47.31583" lon="-2.3692">
        <ele>36</ele>
        <time>2021-11-25T11:07:14.000Z</time>
      </trkpt>
      <trkpt lat="47.3158" lon="-2.3691">
        <ele>35.599998474121</ele>
        <time>2021-11-25T11:07:15.000Z</time>
      </trkpt>
      <trkpt lat="47.31577" lon="-2.36901">
        <ele>35.200000762939</ele>
        <time>2021-11-25T11:07:16.000Z</time>
      </trkpt>
      <trkpt lat="47.31574" lon="-2.36891">
        <ele>34.799999237061</ele>
        <time>2021-11-25T11:07:17.000Z</time>
      </trkpt>
      <trkpt lat="47.31571" lon="-2.36881">
        <ele>34.400001525879</ele>
        <time>2021-11-25T11:07:18.000Z</time>
      </trkpt>
      <trkpt lat="47.31568" lon="-2.36871">
        <ele>34.400001525879</ele>
        <time>2021-11-25T11:07:19.000Z</time>
      </trkpt>
      <trkpt lat="47.31561" lon="-2.3685">
        <ele>34</ele>
        <time>2021-11-25T11:07:21.000Z</time>
      </trkpt>
      <trkpt lat="47.31558" lon="-2.36839">
        <ele>33.599998474121</ele>
        <time>2021-11-25T11:07:22.000Z</time>
      </trkpt>
      <trkpt lat="47.31556" lon="-2.36828">
        <ele>33.200000762939</ele>
        <time>2021-11-25T11:07:23.000Z</time>
      </trkpt>
      <trkpt lat="47.31553" lon="-2.36817">
        <ele>32.799999237061</ele>
        <time>2021-11-25T11:07:24.000Z</time>
      </trkpt>
      <trkpt lat="47.31551" lon="-2.36806">
        <ele>32.400001525879</ele>
        <time>2021-11-25T11:07:25.000Z</time>
      </trkpt>
      <trkpt lat="47.31546" lon="-2.36784">
        <ele>31.60000038147</ele>
        <time>2021-11-25T11:07:27.000Z</time>
      </trkpt>
      <trkpt lat="47.31543" lon="-2.36773">
        <ele>31</ele>
        <time>2021-11-25T11:07:28.000Z</time>
      </trkpt>
      <trkpt lat="47.3154" lon="-2.36762">
        <ele>30.60000038147</ele>
        <time>2021-11-25T11:07:29.000Z</time>
      </trkpt>
      <trkpt lat="47.31537" lon="-2.3675">
        <ele>30.200000762939</ele>
        <time>2021-11-25T11:07:30.000Z</time>
      </trkpt>
      <trkpt lat="47.31534" lon="-2.36739">
        <ele>29.799999237061</ele>
        <time>2021-11-25T11:07:31.000Z</time>
      </trkpt>
      <trkpt lat="47.31532" lon="-2.36728">
        <ele>29.39999961853</ele>
        <time>2021-11-25T11:07:32.000Z</time>
      </trkpt>
      <trkpt lat="47.31531" lon="-2.36716">
        <ele>29</ele>
        <time>2021-11-25T11:07:33.000Z</time>
      </trkpt>
      <trkpt lat="47.31528" lon="-2.36705">
        <ele>28.60000038147</ele>
        <time>2021-11-25T11:07:34.000Z</time>
      </trkpt>
      <trkpt lat="47.31525" lon="-2.36693">
        <ele>28.200000762939</ele>
        <time>2021-11-25T11:07:35.000Z</time>
      </trkpt>
      <trkpt lat="47.31514" lon="-2.36648">
        <ele>27.799999237061</ele>
        <time>2021-11-25T11:07:39.000Z</time>
      </trkpt>
      <trkpt lat="47.31511" lon="-2.36637">
        <ele>27.39999961853</ele>
        <time>2021-11-25T11:07:40.000Z</time>
      </trkpt>
      <trkpt lat="47.31508" lon="-2.36626">
        <ele>26.799999237061</ele>
        <time>2021-11-25T11:07:41.000Z</time>
      </trkpt>
      <trkpt lat="47.31506" lon="-2.36615">
        <ele>26.39999961853</ele>
        <time>2021-11-25T11:07:42.000Z</time>
      </trkpt>
      <trkpt lat="47.31504" lon="-2.36605">
        <ele>26</ele>
        <time>2021-11-25T11:07:43.000Z</time>
      </trkpt>
      <trkpt lat="47.315" lon="-2.36577">
        <ele>26</ele>
        <time>2021-11-25T11:07:46.000Z</time>
      </trkpt>
      <trkpt lat="47.31503" lon="-2.36553">
        <ele>26</ele>
        <time>2021-11-25T11:07:49.000Z</time>
      </trkpt>
      <trkpt lat="47.31502" lon="-2.36546">
        <ele>26</ele>
        <time>2021-11-25T11:07:50.000Z</time>
      </trkpt>
      <trkpt lat="47.31502" lon="-2.36525">
        <ele>26</ele>
        <time>2021-11-25T11:07:53.000Z</time>
      </trkpt>
      <trkpt lat="47.315" lon="-2.36511">
        <ele>26</ele>
        <time>2021-11-25T11:07:55.000Z</time>
      </trkpt>
      <trkpt lat="47.31499" lon="-2.36498">
        <ele>26</ele>
        <time>2021-11-25T11:07:57.000Z</time>
      </trkpt>
      <trkpt lat="47.31499" lon="-2.36477">
        <ele>26</ele>
        <time>2021-11-25T11:08:00.000Z</time>
      </trkpt>
      <trkpt lat="47.31495" lon="-2.36426">
        <ele>26</ele>
        <time>2021-11-25T11:08:07.000Z</time>
      </trkpt>
      <trkpt lat="47.31491" lon="-2.36393">
        <ele>26</ele>
        <time>2021-11-25T11:08:12.000Z</time>
      </trkpt>
      <trkpt lat="47.31491" lon="-2.36375">
        <ele>26.39999961853</ele>
        <time>2021-11-25T11:08:15.000Z</time>
      </trkpt>
      <trkpt lat="47.31491" lon="-2.3637">
        <ele>27.39999961853</ele>
        <time>2021-11-25T11:08:16.000Z</time>
      </trkpt>
      <trkpt lat="47.31491" lon="-2.36364">
        <ele>27.799999237061</ele>
        <time>2021-11-25T11:08:17.000Z</time>
      </trkpt>
      <trkpt lat="47.31491" lon="-2.36358">
        <ele>28.200000762939</ele>
        <time>2021-11-25T11:08:18.000Z</time>
      </trkpt>
      <trkpt lat="47.3149" lon="-2.36328">
        <ele>28.200000762939</ele>
        <time>2021-11-25T11:08:23.000Z</time>
      </trkpt>
      <trkpt lat="47.31488" lon="-2.36312">
        <ele>28.60000038147</ele>
        <time>2021-11-25T11:08:26.000Z</time>
      </trkpt>
      <trkpt lat="47.31486" lon="-2.36306">
        <ele>29</ele>
        <time>2021-11-25T11:08:27.000Z</time>
      </trkpt>
      <trkpt lat="47.31485" lon="-2.363">
        <ele>29.39999961853</ele>
        <time>2021-11-25T11:08:28.000Z</time>
      </trkpt>
      <trkpt lat="47.31483" lon="-2.36294">
        <ele>29.799999237061</ele>
        <time>2021-11-25T11:08:29.000Z</time>
      </trkpt>
      <trkpt lat="47.31482" lon="-2.36289">
        <ele>30.200000762939</ele>
        <time>2021-11-25T11:08:30.000Z</time>
      </trkpt>
      <trkpt lat="47.31477" lon="-2.36262">
        <ele>30.200000762939</ele>
        <time>2021-11-25T11:08:35.000Z</time>
      </trkpt>
      <trkpt lat="47.31472" lon="-2.36233">
        <ele>30.200000762939</ele>
        <time>2021-11-25T11:08:40.000Z</time>
      </trkpt>
      <trkpt lat="47.31471" lon="-2.36227">
        <ele>30.200000762939</ele>
        <time>2021-11-25T11:08:41.000Z</time>
      </trkpt>
      <trkpt lat="47.31469" lon="-2.36216">
        <ele>30.60000038147</ele>
        <time>2021-11-25T11:08:43.000Z</time>
      </trkpt>
      <trkpt lat="47.31467" lon="-2.3621">
        <ele>31</ele>
        <time>2021-11-25T11:08:44.000Z</time>
      </trkpt>
      <trkpt lat="47.31466" lon="-2.36206">
        <ele>31.39999961853</ele>
        <time>2021-11-25T11:08:45.000Z</time>
      </trkpt>
      <trkpt lat="47.31465" lon="-2.36201">
        <ele>31.799999237061</ele>
        <time>2021-11-25T11:08:46.000Z</time>
      </trkpt>
      <trkpt lat="47.31464" lon="-2.36196">
        <ele>32.400001525879</ele>
        <time>2021-11-25T11:08:47.000Z</time>
      </trkpt>
      <trkpt lat="47.31463" lon="-2.36191">
        <ele>32.400001525879</ele>
        <time>2021-11-25T11:08:48.000Z</time>
      </trkpt>
      <trkpt lat="47.31454" lon="-2.36151">
        <ele>32.400001525879</ele>
        <time>2021-11-25T11:08:55.000Z</time>
      </trkpt>
      <trkpt lat="47.31448" lon="-2.36125">
        <ele>32.400001525879</ele>
        <time>2021-11-25T11:09:00.000Z</time>
      </trkpt>
      <trkpt lat="47.31442" lon="-2.36106">
        <ele>32.400001525879</ele>
        <time>2021-11-25T11:09:03.000Z</time>
      </trkpt>
      <trkpt lat="47.31438" lon="-2.36093">
        <ele>32.400001525879</ele>
        <time>2021-11-25T11:09:05.000Z</time>
      </trkpt>
      <trkpt lat="47.31423" lon="-2.36042">
        <ele>32.400001525879</ele>
        <time>2021-11-25T11:09:12.000Z</time>
      </trkpt>
      <trkpt lat="47.3141" lon="-2.36002">
        <ele>32.400001525879</ele>
        <time>2021-11-25T11:09:17.000Z</time>
      </trkpt>
      <trkpt lat="47.31403" lon="-2.35985">
        <ele>32.400001525879</ele>
        <time>2021-11-25T11:09:19.000Z</time>
      </trkpt>
      <trkpt lat="47.314" lon="-2.35976">
        <ele>31.799999237061</ele>
        <time>2021-11-25T11:09:20.000Z</time>
      </trkpt>
      <trkpt lat="47.31397" lon="-2.35967">
        <ele>31.39999961853</ele>
        <time>2021-11-25T11:09:21.000Z</time>
      </trkpt>
      <trkpt lat="47.31393" lon="-2.35959">
        <ele>31</ele>
        <time>2021-11-25T11:09:22.000Z</time>
      </trkpt>
      <trkpt lat="47.31389" lon="-2.35951">
        <ele>30.60000038147</ele>
        <time>2021-11-25T11:09:23.000Z</time>
      </trkpt>
      <trkpt lat="47.31385" lon="-2.35943">
        <ele>30.200000762939</ele>
        <time>2021-11-25T11:09:24.000Z</time>
      </trkpt>
      <trkpt lat="47.31361" lon="-2.35897">
        <ele>30.200000762939</ele>
        <time>2021-11-25T11:09:30.000Z</time>
      </trkpt>
      <trkpt lat="47.31345" lon="-2.35863">
        <ele>30.200000762939</ele>
        <time>2021-11-25T11:09:35.000Z</time>
      </trkpt>
      <trkpt lat="47.31343" lon="-2.35857">
        <ele>30.200000762939</ele>
        <time>2021-11-25T11:09:36.000Z</time>
      </trkpt>
      <trkpt lat="47.31339" lon="-2.35829">
        <ele>30.200000762939</ele>
        <time>2021-11-25T11:09:40.000Z</time>
      </trkpt>
      <trkpt lat="47.31333" lon="-2.35769">
        <ele>30.200000762939</ele>
        <time>2021-11-25T11:09:48.000Z</time>
      </trkpt>
      <trkpt lat="47.31332" lon="-2.35755">
        <ele>30.200000762939</ele>
        <time>2021-11-25T11:09:50.000Z</time>
      </trkpt>
      <trkpt lat="47.31333" lon="-2.35734">
        <ele>30.200000762939</ele>
        <time>2021-11-25T11:09:53.000Z</time>
      </trkpt>
      <trkpt lat="47.31334" lon="-2.35681">
        <ele>30.200000762939</ele>
        <time>2021-11-25T11:10:00.000Z</time>
      </trkpt>
      <trkpt lat="47.31332" lon="-2.35628">
        <ele>30.200000762939</ele>
        <time>2021-11-25T11:10:07.000Z</time>
      </trkpt>
      <trkpt lat="47.3133" lon="-2.35585">
        <ele>30.200000762939</ele>
        <time>2021-11-25T11:10:12.000Z</time>
      </trkpt>
      <trkpt lat="47.31332" lon="-2.35533">
        <ele>30.200000762939</ele>
        <time>2021-11-25T11:10:18.000Z</time>
      </trkpt>
      <trkpt lat="47.31333" lon="-2.35515">
        <ele>30.200000762939</ele>
        <time>2021-11-25T11:10:20.000Z</time>
      </trkpt>
      <trkpt lat="47.31333" lon="-2.35488">
        <ele>30.200000762939</ele>
        <time>2021-11-25T11:10:23.000Z</time>
      </trkpt>
      <trkpt lat="47.31333" lon="-2.35436">
        <ele>30.200000762939</ele>
        <time>2021-11-25T11:10:29.000Z</time>
      </trkpt>
      <trkpt lat="47.31333" lon="-2.35427">
        <ele>30.200000762939</ele>
        <time>2021-11-25T11:10:30.000Z</time>
      </trkpt>
      <trkpt lat="47.31335" lon="-2.35384">
        <ele>30.200000762939</ele>
        <time>2021-11-25T11:10:35.000Z</time>
      </trkpt>
      <trkpt lat="47.31336" lon="-2.35344">
        <ele>30.200000762939</ele>
        <time>2021-11-25T11:10:40.000Z</time>
      </trkpt>
      <trkpt lat="47.31335" lon="-2.35336">
        <ele>30.200000762939</ele>
        <time>2021-11-25T11:10:41.000Z</time>
      </trkpt>
      <trkpt lat="47.31337" lon="-2.35285">
        <ele>30.200000762939</ele>
        <time>2021-11-25T11:10:47.000Z</time>
      </trkpt>
      <trkpt lat="47.31337" lon="-2.35227">
        <ele>30.200000762939</ele>
        <time>2021-11-25T11:10:54.000Z</time>
      </trkpt>
      <trkpt lat="47.3134" lon="-2.35167">
        <ele>30.200000762939</ele>
        <time>2021-11-25T11:11:01.000Z</time>
      </trkpt>
      <trkpt lat="47.31342" lon="-2.35099">
        <ele>30.200000762939</ele>
        <time>2021-11-25T11:11:09.000Z</time>
      </trkpt>
      <trkpt lat="47.31343" lon="-2.35036">
        <ele>30.200000762939</ele>
        <time>2021-11-25T11:11:17.000Z</time>
      </trkpt>
      <trkpt lat="47.31342" lon="-2.35023">
        <ele>29.799999237061</ele>
        <time>2021-11-25T11:11:19.000Z</time>
      </trkpt>
      <trkpt lat="47.31342" lon="-2.35018">
        <ele>29.39999961853</ele>
        <time>2021-11-25T11:11:20.000Z</time>
      </trkpt>
      <trkpt lat="47.31342" lon="-2.35014">
        <ele>29</ele>
        <time>2021-11-25T11:11:21.000Z</time>
      </trkpt>
      <trkpt lat="47.31342" lon="-2.35011">
        <ele>28.60000038147</ele>
        <time>2021-11-25T11:11:22.000Z</time>
      </trkpt>
      <trkpt lat="47.31342" lon="-2.3501">
        <ele>28.200000762939</ele>
        <time>2021-11-25T11:11:23.000Z</time>
      </trkpt>
      <trkpt lat="47.31342" lon="-2.35011">
        <ele>28.200000762939</ele>
        <time>2021-11-25T11:11:24.000Z</time>
      </trkpt>
      <trkpt lat="47.31343" lon="-2.35006">
        <ele>28.200000762939</ele>
        <time>2021-11-25T11:13:15.000Z</time>
      </trkpt>
      <trkpt lat="47.31342" lon="-2.35003">
        <ele>28.200000762939</ele>
        <time>2021-11-25T11:13:16.000Z</time>
      </trkpt>
      <trkpt lat="47.31339" lon="-2.34986">
        <ele>28.200000762939</ele>
        <time>2021-11-25T11:13:21.000Z</time>
      </trkpt>
      <trkpt lat="47.31333" lon="-2.34955">
        <ele>28.200000762939</ele>
        <time>2021-11-25T11:13:27.000Z</time>
      </trkpt>
      <trkpt lat="47.31321" lon="-2.34912">
        <ele>28.200000762939</ele>
        <time>2021-11-25T11:13:35.000Z</time>
      </trkpt>
      <trkpt lat="47.31306" lon="-2.34865">
        <ele>28.200000762939</ele>
        <time>2021-11-25T11:13:43.000Z</time>
      </trkpt>
      <trkpt lat="47.31296" lon="-2.34817">
        <ele>28.200000762939</ele>
        <time>2021-11-25T11:13:50.000Z</time>
      </trkpt>
      <trkpt lat="47.31284" lon="-2.34754">
        <ele>28.200000762939</ele>
        <time>2021-11-25T11:13:59.000Z</time>
      </trkpt>
      <trkpt lat="47.31279" lon="-2.34719">
        <ele>28.200000762939</ele>
        <time>2021-11-25T11:14:04.000Z</time>
      </trkpt>
      <trkpt lat="47.31276" lon="-2.34707">
        <ele>28.200000762939</ele>
        <time>2021-11-25T11:14:06.000Z</time>
      </trkpt>
      <trkpt lat="47.31275" lon="-2.34701">
        <ele>28.200000762939</ele>
        <time>2021-11-25T11:14:07.000Z</time>
      </trkpt>
      <trkpt lat="47.31277" lon="-2.34689">
        <ele>28.200000762939</ele>
        <time>2021-11-25T11:14:09.000Z</time>
      </trkpt>
      <trkpt lat="47.31283" lon="-2.34678">
        <ele>28.200000762939</ele>
        <time>2021-11-25T11:14:11.000Z</time>
      </trkpt>
      <trkpt lat="47.31289" lon="-2.34666">
        <ele>28.200000762939</ele>
        <time>2021-11-25T11:14:13.000Z</time>
      </trkpt>
      <trkpt lat="47.31291" lon="-2.34659">
        <ele>28.200000762939</ele>
        <time>2021-11-25T11:14:14.000Z</time>
      </trkpt>
      <trkpt lat="47.31291" lon="-2.34634">
        <ele>28.200000762939</ele>
        <time>2021-11-25T11:14:17.000Z</time>
      </trkpt>
      <trkpt lat="47.31288" lon="-2.34605">
        <ele>27.799999237061</ele>
        <time>2021-11-25T11:14:20.000Z</time>
      </trkpt>
      <trkpt lat="47.31287" lon="-2.34595">
        <ele>27.39999961853</ele>
        <time>2021-11-25T11:14:21.000Z</time>
      </trkpt>
      <trkpt lat="47.31286" lon="-2.34584">
        <ele>27</ele>
        <time>2021-11-25T11:14:22.000Z</time>
      </trkpt>
      <trkpt lat="47.31284" lon="-2.34574">
        <ele>26.60000038147</ele>
        <time>2021-11-25T11:14:23.000Z</time>
      </trkpt>
      <trkpt lat="47.31283" lon="-2.34564">
        <ele>26.200000762939</ele>
        <time>2021-11-25T11:14:24.000Z</time>
      </trkpt>
      <trkpt lat="47.31279" lon="-2.34521">
        <ele>25.60000038147</ele>
        <time>2021-11-25T11:14:28.000Z</time>
      </trkpt>
      <trkpt lat="47.31278" lon="-2.3451">
        <ele>25.200000762939</ele>
        <time>2021-11-25T11:14:29.000Z</time>
      </trkpt>
      <trkpt lat="47.31277" lon="-2.345">
        <ele>24.799999237061</ele>
        <time>2021-11-25T11:14:30.000Z</time>
      </trkpt>
      <trkpt lat="47.31276" lon="-2.34489">
        <ele>24.39999961853</ele>
        <time>2021-11-25T11:14:31.000Z</time>
      </trkpt>
      <trkpt lat="47.31274" lon="-2.34478">
        <ele>23.799999237061</ele>
        <time>2021-11-25T11:14:32.000Z</time>
      </trkpt>
      <trkpt lat="47.31269" lon="-2.34434">
        <ele>23.799999237061</ele>
        <time>2021-11-25T11:14:36.000Z</time>
      </trkpt>
      <trkpt lat="47.31268" lon="-2.34423">
        <ele>23.39999961853</ele>
        <time>2021-11-25T11:14:37.000Z</time>
      </trkpt>
      <trkpt lat="47.31266" lon="-2.34412">
        <ele>23</ele>
        <time>2021-11-25T11:14:38.000Z</time>
      </trkpt>
      <trkpt lat="47.31265" lon="-2.344">
        <ele>22.60000038147</ele>
        <time>2021-11-25T11:14:39.000Z</time>
      </trkpt>
      <trkpt lat="47.31263" lon="-2.34389">
        <ele>22.200000762939</ele>
        <time>2021-11-25T11:14:40.000Z</time>
      </trkpt>
      <trkpt lat="47.3126" lon="-2.34378">
        <ele>21.799999237061</ele>
        <time>2021-11-25T11:14:41.000Z</time>
      </trkpt>
      <trkpt lat="47.31257" lon="-2.34367">
        <ele>21.799999237061</ele>
        <time>2021-11-25T11:14:42.000Z</time>
      </trkpt>
      <trkpt lat="47.31252" lon="-2.34358">
        <ele>21.39999961853</ele>
        <time>2021-11-25T11:14:43.000Z</time>
      </trkpt>
      <trkpt lat="47.31246" lon="-2.34351">
        <ele>21</ele>
        <time>2021-11-25T11:14:44.000Z</time>
      </trkpt>
      <trkpt lat="47.31239" lon="-2.34346">
        <ele>20.60000038147</ele>
        <time>2021-11-25T11:14:45.000Z</time>
      </trkpt>
      <trkpt lat="47.31231" lon="-2.34343">
        <ele>20.200000762939</ele>
        <time>2021-11-25T11:14:46.000Z</time>
      </trkpt>
      <trkpt lat="47.31223" lon="-2.3434">
        <ele>19.799999237061</ele>
        <time>2021-11-25T11:14:47.000Z</time>
      </trkpt>
      <trkpt lat="47.31209" lon="-2.34333">
        <ele>19.799999237061</ele>
        <time>2021-11-25T11:14:49.000Z</time>
      </trkpt>
      <trkpt lat="47.31202" lon="-2.34326">
        <ele>19.799999237061</ele>
        <time>2021-11-25T11:14:50.000Z</time>
      </trkpt>
      <trkpt lat="47.31186" lon="-2.34301">
        <ele>19.799999237061</ele>
        <time>2021-11-25T11:14:53.000Z</time>
      </trkpt>
      <trkpt lat="47.31181" lon="-2.34292">
        <ele>19.39999961853</ele>
        <time>2021-11-25T11:14:54.000Z</time>
      </trkpt>
      <trkpt lat="47.31177" lon="-2.34283">
        <ele>19</ele>
        <time>2021-11-25T11:14:55.000Z</time>
      </trkpt>
      <trkpt lat="47.31173" lon="-2.34274">
        <ele>18.60000038147</ele>
        <time>2021-11-25T11:14:56.000Z</time>
      </trkpt>
      <trkpt lat="47.31169" lon="-2.34266">
        <ele>18</ele>
        <time>2021-11-25T11:14:57.000Z</time>
      </trkpt>
      <trkpt lat="47.31164" lon="-2.34257">
        <ele>17.60000038147</ele>
        <time>2021-11-25T11:14:58.000Z</time>
      </trkpt>
      <trkpt lat="47.31156" lon="-2.3424">
        <ele>17.60000038147</ele>
        <time>2021-11-25T11:15:00.000Z</time>
      </trkpt>
      <trkpt lat="47.31133" lon="-2.34197">
        <ele>17.60000038147</ele>
        <time>2021-11-25T11:15:06.000Z</time>
      </trkpt>
      <trkpt lat="47.31119" lon="-2.34173">
        <ele>18.200000762939</ele>
        <time>2021-11-25T11:15:10.000Z</time>
      </trkpt>
      <trkpt lat="47.31116" lon="-2.34167">
        <ele>18.60000038147</ele>
        <time>2021-11-25T11:15:11.000Z</time>
      </trkpt>
      <trkpt lat="47.31113" lon="-2.34161">
        <ele>19</ele>
        <time>2021-11-25T11:15:12.000Z</time>
      </trkpt>
      <trkpt lat="47.3111" lon="-2.34155">
        <ele>19.39999961853</ele>
        <time>2021-11-25T11:15:13.000Z</time>
      </trkpt>
      <trkpt lat="47.31107" lon="-2.3415">
        <ele>19.799999237061</ele>
        <time>2021-11-25T11:15:14.000Z</time>
      </trkpt>
      <trkpt lat="47.31101" lon="-2.34139">
        <ele>20.200000762939</ele>
        <time>2021-11-25T11:15:16.000Z</time>
      </trkpt>
      <trkpt lat="47.31098" lon="-2.34133">
        <ele>20.60000038147</ele>
        <time>2021-11-25T11:15:17.000Z</time>
      </trkpt>
      <trkpt lat="47.31095" lon="-2.34128">
        <ele>21.200000762939</ele>
        <time>2021-11-25T11:15:18.000Z</time>
      </trkpt>
      <trkpt lat="47.31093" lon="-2.34122">
        <ele>21.60000038147</ele>
        <time>2021-11-25T11:15:19.000Z</time>
      </trkpt>
      <trkpt lat="47.3109" lon="-2.34116">
        <ele>22</ele>
        <time>2021-11-25T11:15:20.000Z</time>
      </trkpt>
      <trkpt lat="47.31082" lon="-2.34099">
        <ele>22.39999961853</ele>
        <time>2021-11-25T11:15:23.000Z</time>
      </trkpt>
      <trkpt lat="47.3108" lon="-2.34094">
        <ele>22.799999237061</ele>
        <time>2021-11-25T11:15:24.000Z</time>
      </trkpt>
      <trkpt lat="47.31077" lon="-2.34088">
        <ele>23.200000762939</ele>
        <time>2021-11-25T11:15:25.000Z</time>
      </trkpt>
      <trkpt lat="47.31075" lon="-2.34082">
        <ele>23.60000038147</ele>
        <time>2021-11-25T11:15:26.000Z</time>
      </trkpt>
      <trkpt lat="47.31073" lon="-2.34076">
        <ele>24</ele>
        <time>2021-11-25T11:15:27.000Z</time>
      </trkpt>
      <trkpt lat="47.3107" lon="-2.34065">
        <ele>24</ele>
        <time>2021-11-25T11:15:29.000Z</time>
      </trkpt>
      <trkpt lat="47.31064" lon="-2.34035">
        <ele>24.39999961853</ele>
        <time>2021-11-25T11:15:34.000Z</time>
      </trkpt>
      <trkpt lat="47.31064" lon="-2.34029">
        <ele>24.799999237061</ele>
        <time>2021-11-25T11:15:35.000Z</time>
      </trkpt>
      <trkpt lat="47.31063" lon="-2.34023">
        <ele>25.39999961853</ele>
        <time>2021-11-25T11:15:36.000Z</time>
      </trkpt>
      <trkpt lat="47.31063" lon="-2.34016">
        <ele>25.799999237061</ele>
        <time>2021-11-25T11:15:37.000Z</time>
      </trkpt>
      <trkpt lat="47.31062" lon="-2.34009">
        <ele>26.200000762939</ele>
        <time>2021-11-25T11:15:38.000Z</time>
      </trkpt>
      <trkpt lat="47.31061" lon="-2.33982">
        <ele>26.200000762939</ele>
        <time>2021-11-25T11:15:42.000Z</time>
      </trkpt>
      <trkpt lat="47.31061" lon="-2.33961">
        <ele>26.200000762939</ele>
        <time>2021-11-25T11:15:45.000Z</time>
      </trkpt>
      <trkpt lat="47.31057" lon="-2.33949">
        <ele>26.200000762939</ele>
        <time>2021-11-25T11:15:47.000Z</time>
      </trkpt>
      <trkpt lat="47.31045" lon="-2.33945">
        <ele>26.200000762939</ele>
        <time>2021-11-25T11:15:50.000Z</time>
      </trkpt>
      <trkpt lat="47.3104" lon="-2.33946">
        <ele>26.200000762939</ele>
        <time>2021-11-25T11:15:51.000Z</time>
      </trkpt>
      <trkpt lat="47.31009" lon="-2.33951">
        <ele>26.200000762939</ele>
        <time>2021-11-25T11:15:58.000Z</time>
      </trkpt>
      <trkpt lat="47.30996" lon="-2.33952">
        <ele>26.60000038147</ele>
        <time>2021-11-25T11:16:01.000Z</time>
      </trkpt>
      <trkpt lat="47.30991" lon="-2.33952">
        <ele>27</ele>
        <time>2021-11-25T11:16:02.000Z</time>
      </trkpt>
      <trkpt lat="47.30987" lon="-2.33952">
        <ele>27.39999961853</ele>
        <time>2021-11-25T11:16:03.000Z</time>
      </trkpt>
      <trkpt lat="47.30983" lon="-2.33953">
        <ele>27.799999237061</ele>
        <time>2021-11-25T11:16:04.000Z</time>
      </trkpt>
      <trkpt lat="47.30978" lon="-2.33953">
        <ele>28.200000762939</ele>
        <time>2021-11-25T11:16:05.000Z</time>
      </trkpt>
      <trkpt lat="47.3095" lon="-2.3395">
        <ele>28.200000762939</ele>
        <time>2021-11-25T11:16:11.000Z</time>
      </trkpt>
      <trkpt lat="47.30922" lon="-2.33944">
        <ele>28.200000762939</ele>
        <time>2021-11-25T11:16:17.000Z</time>
      </trkpt>
      <trkpt lat="47.30894" lon="-2.33944">
        <ele>28.200000762939</ele>
        <time>2021-11-25T11:16:23.000Z</time>
      </trkpt>
      <trkpt lat="47.30858" lon="-2.33951">
        <ele>28.200000762939</ele>
        <time>2021-11-25T11:16:30.000Z</time>
      </trkpt>
      <trkpt lat="47.30816" lon="-2.3396">
        <ele>28.200000762939</ele>
        <time>2021-11-25T11:16:38.000Z</time>
      </trkpt>
      <trkpt lat="47.30797" lon="-2.33967">
        <ele>28.200000762939</ele>
        <time>2021-11-25T11:16:42.000Z</time>
      </trkpt>
      <trkpt lat="47.30784" lon="-2.33971">
        <ele>28.200000762939</ele>
        <time>2021-11-25T11:16:45.000Z</time>
      </trkpt>
      <trkpt lat="47.30781" lon="-2.33988">
        <ele>28.200000762939</ele>
        <time>2021-11-25T11:16:48.000Z</time>
      </trkpt>
      <trkpt lat="47.30781" lon="-2.34">
        <ele>28.200000762939</ele>
        <time>2021-11-25T11:16:50.000Z</time>
      </trkpt>
      <trkpt lat="47.3078" lon="-2.34006">
        <ele>28.200000762939</ele>
        <time>2021-11-25T11:16:51.000Z</time>
      </trkpt>
      <trkpt lat="47.3078" lon="-2.3402">
        <ele>28.200000762939</ele>
        <time>2021-11-25T11:16:53.000Z</time>
      </trkpt>
      <trkpt lat="47.3078" lon="-2.34027">
        <ele>28.200000762939</ele>
        <time>2021-11-25T11:16:54.000Z</time>
      </trkpt>
      <trkpt lat="47.30779" lon="-2.34047">
        <ele>28.200000762939</ele>
        <time>2021-11-25T11:16:57.000Z</time>
      </trkpt>
      <trkpt lat="47.30778" lon="-2.34077">
        <ele>28.200000762939</ele>
        <time>2021-11-25T11:17:02.000Z</time>
      </trkpt>
      <trkpt lat="47.30777" lon="-2.34083">
        <ele>28.200000762939</ele>
        <time>2021-11-25T11:17:03.000Z</time>
      </trkpt>
      <trkpt lat="47.30776" lon="-2.34115">
        <ele>28.60000038147</ele>
        <time>2021-11-25T11:17:08.000Z</time>
      </trkpt>
      <trkpt lat="47.30775" lon="-2.34122">
        <ele>29</ele>
        <time>2021-11-25T11:17:09.000Z</time>
      </trkpt>
      <trkpt lat="47.30775" lon="-2.34129">
        <ele>29.39999961853</ele>
        <time>2021-11-25T11:17:10.000Z</time>
      </trkpt>
      <trkpt lat="47.30774" lon="-2.34135">
        <ele>29.799999237061</ele>
        <time>2021-11-25T11:17:11.000Z</time>
      </trkpt>
      <trkpt lat="47.30773" lon="-2.3414">
        <ele>30.200000762939</ele>
        <time>2021-11-25T11:17:12.000Z</time>
      </trkpt>
      <trkpt lat="47.30772" lon="-2.34153">
        <ele>30.200000762939</ele>
        <time>2021-11-25T11:17:14.000Z</time>
      </trkpt>
      <trkpt lat="47.3077" lon="-2.34197">
        <ele>30.200000762939</ele>
        <time>2021-11-25T11:17:21.000Z</time>
      </trkpt>
      <trkpt lat="47.30767" lon="-2.34203">
        <ele>30.200000762939</ele>
        <time>2021-11-25T11:17:22.000Z</time>
      </trkpt>
      <trkpt lat="47.30758" lon="-2.3421">
        <ele>30.200000762939</ele>
        <time>2021-11-25T11:17:24.000Z</time>
      </trkpt>
      <trkpt lat="47.30739" lon="-2.34214">
        <ele>30.200000762939</ele>
        <time>2021-11-25T11:17:28.000Z</time>
      </trkpt>
      <trkpt lat="47.30732" lon="-2.34219">
        <ele>30.200000762939</ele>
        <time>2021-11-25T11:17:30.000Z</time>
      </trkpt>
      <trkpt lat="47.30728" lon="-2.34235">
        <ele>30.200000762939</ele>
        <time>2021-11-25T11:17:33.000Z</time>
      </trkpt>
      <trkpt lat="47.30728" lon="-2.34247">
        <ele>30.200000762939</ele>
        <time>2021-11-25T11:17:35.000Z</time>
      </trkpt>
      <trkpt lat="47.30725" lon="-2.34261">
        <ele>30.200000762939</ele>
        <time>2021-11-25T11:17:37.000Z</time>
      </trkpt>
      <trkpt lat="47.30723" lon="-2.34267">
        <ele>30.200000762939</ele>
        <time>2021-11-25T11:17:38.000Z</time>
      </trkpt>
      <trkpt lat="47.30706" lon="-2.34302">
        <ele>30.200000762939</ele>
        <time>2021-11-25T11:17:44.000Z</time>
      </trkpt>
      <trkpt lat="47.30691" lon="-2.34333">
        <ele>30.200000762939</ele>
        <time>2021-11-25T11:17:50.000Z</time>
      </trkpt>
      <trkpt lat="47.3067" lon="-2.34373">
        <ele>30.200000762939</ele>
        <time>2021-11-25T11:17:57.000Z</time>
      </trkpt>
      <trkpt lat="47.30652" lon="-2.34402">
        <ele>30.200000762939</ele>
        <time>2021-11-25T11:18:03.000Z</time>
      </trkpt>
      <trkpt lat="47.30634" lon="-2.34426">
        <ele>30.200000762939</ele>
        <time>2021-11-25T11:18:08.000Z</time>
      </trkpt>
      <trkpt lat="47.30628" lon="-2.34435">
        <ele>30.60000038147</ele>
        <time>2021-11-25T11:18:10.000Z</time>
      </trkpt>
      <trkpt lat="47.30624" lon="-2.3444">
        <ele>31</ele>
        <time>2021-11-25T11:18:11.000Z</time>
      </trkpt>
      <trkpt lat="47.30621" lon="-2.34444">
        <ele>31.39999961853</ele>
        <time>2021-11-25T11:18:12.000Z</time>
      </trkpt>
      <trkpt lat="47.30618" lon="-2.34447">
        <ele>31.799999237061</ele>
        <time>2021-11-25T11:18:13.000Z</time>
      </trkpt>
      <trkpt lat="47.30615" lon="-2.34451">
        <ele>32.200000762939</ele>
        <time>2021-11-25T11:18:14.000Z</time>
      </trkpt>
      <trkpt lat="47.30611" lon="-2.34456">
        <ele>32.200000762939</ele>
        <time>2021-11-25T11:18:15.000Z</time>
      </trkpt>
      <trkpt lat="47.30606" lon="-2.34465">
        <ele>32.200000762939</ele>
        <time>2021-11-25T11:18:17.000Z</time>
      </trkpt>
      <trkpt lat="47.30597" lon="-2.34481">
        <ele>32.200000762939</ele>
        <time>2021-11-25T11:18:20.000Z</time>
      </trkpt>
      <trkpt lat="47.30578" lon="-2.34521">
        <ele>32.200000762939</ele>
        <time>2021-11-25T11:18:27.000Z</time>
      </trkpt>
      <trkpt lat="47.30556" lon="-2.34558">
        <ele>31.799999237061</ele>
        <time>2021-11-25T11:18:33.000Z</time>
      </trkpt>
      <trkpt lat="47.30552" lon="-2.34564">
        <ele>31.39999961853</ele>
        <time>2021-11-25T11:18:34.000Z</time>
      </trkpt>
      <trkpt lat="47.30547" lon="-2.34569">
        <ele>30.60000038147</ele>
        <time>2021-11-25T11:18:35.000Z</time>
      </trkpt>
      <trkpt lat="47.30544" lon="-2.34575">
        <ele>30.200000762939</ele>
        <time>2021-11-25T11:18:36.000Z</time>
      </trkpt>
      <trkpt lat="47.30532" lon="-2.34594">
        <ele>30.200000762939</ele>
        <time>2021-11-25T11:18:39.000Z</time>
      </trkpt>
      <trkpt lat="47.30528" lon="-2.34599">
        <ele>30.200000762939</ele>
        <time>2021-11-25T11:18:40.000Z</time>
      </trkpt>
      <trkpt lat="47.3052" lon="-2.3461">
        <ele>30.200000762939</ele>
        <time>2021-11-25T11:18:42.000Z</time>
      </trkpt>
      <trkpt lat="47.30513" lon="-2.34622">
        <ele>30.200000762939</ele>
        <time>2021-11-25T11:18:44.000Z</time>
      </trkpt>
      <trkpt lat="47.305" lon="-2.34646">
        <ele>30.200000762939</ele>
        <time>2021-11-25T11:18:48.000Z</time>
      </trkpt>
      <trkpt lat="47.30492" lon="-2.34658">
        <ele>30.200000762939</ele>
        <time>2021-11-25T11:18:50.000Z</time>
      </trkpt>
      <trkpt lat="47.30479" lon="-2.34672">
        <ele>30.200000762939</ele>
        <time>2021-11-25T11:18:53.000Z</time>
      </trkpt>
      <trkpt lat="47.30474" lon="-2.34676">
        <ele>30.200000762939</ele>
        <time>2021-11-25T11:18:54.000Z</time>
      </trkpt>
      <trkpt lat="47.30466" lon="-2.34685">
        <ele>30.200000762939</ele>
        <time>2021-11-25T11:18:56.000Z</time>
      </trkpt>
      <trkpt lat="47.30454" lon="-2.34696">
        <ele>30.200000762939</ele>
        <time>2021-11-25T11:18:59.000Z</time>
      </trkpt>
      <trkpt lat="47.3043" lon="-2.34719">
        <ele>30.200000762939</ele>
        <time>2021-11-25T11:19:05.000Z</time>
      </trkpt>
      <trkpt lat="47.30404" lon="-2.34738">
        <ele>30.200000762939</ele>
        <time>2021-11-25T11:19:11.000Z</time>
      </trkpt>
      <trkpt lat="47.30378" lon="-2.34757">
        <ele>30.200000762939</ele>
        <time>2021-11-25T11:19:17.000Z</time>
      </trkpt>
      <trkpt lat="47.30353" lon="-2.34774">
        <ele>30.200000762939</ele>
        <time>2021-11-25T11:19:23.000Z</time>
      </trkpt>
      <trkpt lat="47.30345" lon="-2.34782">
        <ele>30.200000762939</ele>
        <time>2021-11-25T11:19:25.000Z</time>
      </trkpt>
      <trkpt lat="47.30335" lon="-2.348">
        <ele>30.200000762939</ele>
        <time>2021-11-25T11:19:28.000Z</time>
      </trkpt>
      <trkpt lat="47.30331" lon="-2.34806">
        <ele>30.200000762939</ele>
        <time>2021-11-25T11:19:29.000Z</time>
      </trkpt>
      <trkpt lat="47.30324" lon="-2.34819">
        <ele>30.200000762939</ele>
        <time>2021-11-25T11:19:31.000Z</time>
      </trkpt>
      <trkpt lat="47.30316" lon="-2.34829">
        <ele>30.200000762939</ele>
        <time>2021-11-25T11:19:33.000Z</time>
      </trkpt>
      <trkpt lat="47.30299" lon="-2.34848">
        <ele>30.200000762939</ele>
        <time>2021-11-25T11:19:37.000Z</time>
      </trkpt>
      <trkpt lat="47.3029" lon="-2.34855">
        <ele>30.200000762939</ele>
        <time>2021-11-25T11:19:39.000Z</time>
      </trkpt>
      <trkpt lat="47.30263" lon="-2.34871">
        <ele>30.200000762939</ele>
        <time>2021-11-25T11:19:45.000Z</time>
      </trkpt>
      <trkpt lat="47.30239" lon="-2.34885">
        <ele>30.200000762939</ele>
        <time>2021-11-25T11:19:50.000Z</time>
      </trkpt>
      <trkpt lat="47.30235" lon="-2.34889">
        <ele>30.200000762939</ele>
        <time>2021-11-25T11:19:51.000Z</time>
      </trkpt>
      <trkpt lat="47.30218" lon="-2.34906">
        <ele>30.200000762939</ele>
        <time>2021-11-25T11:19:55.000Z</time>
      </trkpt>
      <trkpt lat="47.30216" lon="-2.34911">
        <ele>30.200000762939</ele>
        <time>2021-11-25T11:19:56.000Z</time>
      </trkpt>
      <trkpt lat="47.30213" lon="-2.34932">
        <ele>30.200000762939</ele>
        <time>2021-11-25T11:19:59.000Z</time>
      </trkpt>
      <trkpt lat="47.30213" lon="-2.34964">
        <ele>30.200000762939</ele>
        <time>2021-11-25T11:20:03.000Z</time>
      </trkpt>
      <trkpt lat="47.30212" lon="-2.34979">
        <ele>30.200000762939</ele>
        <time>2021-11-25T11:20:05.000Z</time>
      </trkpt>
      <trkpt lat="47.30212" lon="-2.35013">
        <ele>29.799999237061</ele>
        <time>2021-11-25T11:20:09.000Z</time>
      </trkpt>
      <trkpt lat="47.30212" lon="-2.35023">
        <ele>29.39999961853</ele>
        <time>2021-11-25T11:20:10.000Z</time>
      </trkpt>
      <trkpt lat="47.30212" lon="-2.35032">
        <ele>29</ele>
        <time>2021-11-25T11:20:11.000Z</time>
      </trkpt>
      <trkpt lat="47.30212" lon="-2.3504">
        <ele>28.60000038147</ele>
        <time>2021-11-25T11:20:12.000Z</time>
      </trkpt>
      <trkpt lat="47.30212" lon="-2.35049">
        <ele>28</ele>
        <time>2021-11-25T11:20:13.000Z</time>
      </trkpt>
      <trkpt lat="47.30212" lon="-2.35076">
        <ele>28</ele>
        <time>2021-11-25T11:20:16.000Z</time>
      </trkpt>
      <trkpt lat="47.30211" lon="-2.35116">
        <ele>28</ele>
        <time>2021-11-25T11:20:21.000Z</time>
      </trkpt>
      <trkpt lat="47.3021" lon="-2.35124">
        <ele>27.60000038147</ele>
        <time>2021-11-25T11:20:22.000Z</time>
      </trkpt>
      <trkpt lat="47.3021" lon="-2.35132">
        <ele>27.200000762939</ele>
        <time>2021-11-25T11:20:23.000Z</time>
      </trkpt>
      <trkpt lat="47.3021" lon="-2.35141">
        <ele>26.799999237061</ele>
        <time>2021-11-25T11:20:24.000Z</time>
      </trkpt>
      <trkpt lat="47.30211" lon="-2.35149">
        <ele>26.39999961853</ele>
        <time>2021-11-25T11:20:25.000Z</time>
      </trkpt>
      <trkpt lat="47.3021" lon="-2.35157">
        <ele>26</ele>
        <time>2021-11-25T11:20:26.000Z</time>
      </trkpt>
      <trkpt lat="47.30199" lon="-2.35172">
        <ele>26</ele>
        <time>2021-11-25T11:20:29.000Z</time>
      </trkpt>
      <trkpt lat="47.30185" lon="-2.35177">
        <ele>26</ele>
        <time>2021-11-25T11:20:32.000Z</time>
      </trkpt>
      <trkpt lat="47.3018" lon="-2.35179">
        <ele>26</ele>
        <time>2021-11-25T11:20:33.000Z</time>
      </trkpt>
      <trkpt lat="47.30176" lon="-2.3518">
        <ele>26</ele>
        <time>2021-11-25T11:20:34.000Z</time>
      </trkpt>
      <trkpt lat="47.30164" lon="-2.3519">
        <ele>26</ele>
        <time>2021-11-25T11:20:37.000Z</time>
      </trkpt>
      <trkpt lat="47.3016" lon="-2.35194">
        <ele>25.200000762939</ele>
        <time>2021-11-25T11:20:38.000Z</time>
      </trkpt>
      <trkpt lat="47.30156" lon="-2.35195">
        <ele>24.799999237061</ele>
        <time>2021-11-25T11:20:39.000Z</time>
      </trkpt>
      <trkpt lat="47.30152" lon="-2.35195">
        <ele>24.39999961853</ele>
        <time>2021-11-25T11:20:40.000Z</time>
      </trkpt>
      <trkpt lat="47.30148" lon="-2.35196">
        <ele>24</ele>
        <time>2021-11-25T11:20:41.000Z</time>
      </trkpt>
      <trkpt lat="47.30136" lon="-2.35198">
        <ele>24</ele>
        <time>2021-11-25T11:20:44.000Z</time>
      </trkpt>
      <trkpt lat="47.3013" lon="-2.35199">
        <ele>24</ele>
        <time>2021-11-25T11:20:45.000Z</time>
      </trkpt>
      <trkpt lat="47.3011" lon="-2.3521">
        <ele>24</ele>
        <time>2021-11-25T11:20:49.000Z</time>
      </trkpt>
      <trkpt lat="47.30105" lon="-2.35211">
        <ele>24</ele>
        <time>2021-11-25T11:20:50.000Z</time>
      </trkpt>
      <trkpt lat="47.30085" lon="-2.35219">
        <ele>24</ele>
        <time>2021-11-25T11:20:54.000Z</time>
      </trkpt>
      <trkpt lat="47.3008" lon="-2.35222">
        <ele>24</ele>
        <time>2021-11-25T11:20:55.000Z</time>
      </trkpt>
      <trkpt lat="47.30074" lon="-2.35224">
        <ele>24</ele>
        <time>2021-11-25T11:20:57.000Z</time>
      </trkpt>
      <trkpt lat="47.30063" lon="-2.35229">
        <ele>24</ele>
        <time>2021-11-25T11:21:02.000Z</time>
      </trkpt>
      <trkpt lat="47.30061" lon="-2.3523">
        <ele>24</ele>
        <time>2021-11-25T11:21:03.000Z</time>
      </trkpt>
      <trkpt lat="47.3005" lon="-2.35234">
        <ele>24</ele>
        <time>2021-11-25T11:21:06.000Z</time>
      </trkpt>
      <trkpt lat="47.30037" lon="-2.35243">
        <ele>24</ele>
        <time>2021-11-25T11:21:10.000Z</time>
      </trkpt>
      <trkpt lat="47.30031" lon="-2.35246">
        <ele>24</ele>
        <time>2021-11-25T11:21:13.000Z</time>
      </trkpt>
      <trkpt lat="47.30027" lon="-2.35246">
        <ele>24</ele>
        <time>2021-11-25T11:21:15.000Z</time>
      </trkpt>
      <trkpt lat="47.30021" lon="-2.35251">
        <ele>24</ele>
        <time>2021-11-25T11:21:18.000Z</time>
      </trkpt>
      <trkpt lat="47.30018" lon="-2.35253">
        <ele>24</ele>
        <time>2021-11-25T11:21:20.000Z</time>
      </trkpt>
      <trkpt lat="47.30011" lon="-2.35258">
        <ele>24</ele>
        <time>2021-11-25T11:21:25.000Z</time>
      </trkpt>
      <trkpt lat="47.3" lon="-2.35259">
        <ele>24</ele>
        <time>2021-11-25T11:21:31.000Z</time>
      </trkpt>
      <trkpt lat="47.3" lon="-2.35258">
        <ele>24</ele>
        <time>2021-11-25T11:21:32.000Z</time>
      </trkpt>
      <trkpt lat="47.29999" lon="-2.35259">
        <ele>24</ele>
        <time>2021-11-25T11:21:56.000Z</time>
      </trkpt>
      <trkpt lat="47.29996" lon="-2.35261">
        <ele>24</ele>
        <time>2021-11-25T11:21:58.000Z</time>
      </trkpt>
      <trkpt lat="47.29994" lon="-2.35263">
        <ele>24</ele>
        <time>2021-11-25T11:21:59.000Z</time>
      </trkpt>
      <trkpt lat="47.29987" lon="-2.35271">
        <ele>24</ele>
        <time>2021-11-25T11:22:02.000Z</time>
      </trkpt>
      <trkpt lat="47.29972" lon="-2.35292">
        <ele>24</ele>
        <time>2021-11-25T11:22:09.000Z</time>
      </trkpt>
      <trkpt lat="47.29952" lon="-2.35314">
        <ele>24</ele>
        <time>2021-11-25T11:22:17.000Z</time>
      </trkpt>
      <trkpt lat="47.29931" lon="-2.35343">
        <ele>24</ele>
        <time>2021-11-25T11:22:24.000Z</time>
      </trkpt>
      <trkpt lat="47.29908" lon="-2.3537">
        <ele>24</ele>
        <time>2021-11-25T11:22:31.000Z</time>
      </trkpt>
      <trkpt lat="47.2988" lon="-2.354">
        <ele>24</ele>
        <time>2021-11-25T11:22:39.000Z</time>
      </trkpt>
      <trkpt lat="47.29855" lon="-2.35426">
        <ele>24</ele>
        <time>2021-11-25T11:22:46.000Z</time>
      </trkpt>
      <trkpt lat="47.29835" lon="-2.35448">
        <ele>24</ele>
        <time>2021-11-25T11:22:52.000Z</time>
      </trkpt>
      <trkpt lat="47.29829" lon="-2.35458">
        <ele>24</ele>
        <time>2021-11-25T11:22:54.000Z</time>
      </trkpt>
      <trkpt lat="47.29828" lon="-2.35475">
        <ele>24</ele>
        <time>2021-11-25T11:22:57.000Z</time>
      </trkpt>
      <trkpt lat="47.29831" lon="-2.35486">
        <ele>24</ele>
        <time>2021-11-25T11:22:59.000Z</time>
      </trkpt>
      <trkpt lat="47.29836" lon="-2.35501">
        <ele>24</ele>
        <time>2021-11-25T11:23:02.000Z</time>
      </trkpt>
      <trkpt lat="47.29843" lon="-2.3552">
        <ele>24.39999961853</ele>
        <time>2021-11-25T11:23:06.000Z</time>
      </trkpt>
      <trkpt lat="47.29845" lon="-2.35525">
        <ele>24.799999237061</ele>
        <time>2021-11-25T11:23:07.000Z</time>
      </trkpt>
      <trkpt lat="47.29846" lon="-2.3553">
        <ele>25.200000762939</ele>
        <time>2021-11-25T11:23:08.000Z</time>
      </trkpt>
      <trkpt lat="47.29848" lon="-2.35536">
        <ele>25.60000038147</ele>
        <time>2021-11-25T11:23:09.000Z</time>
      </trkpt>
      <trkpt lat="47.29849" lon="-2.35541">
        <ele>26</ele>
        <time>2021-11-25T11:23:10.000Z</time>
      </trkpt>
      <trkpt lat="47.29861" lon="-2.35577">
        <ele>26</ele>
        <time>2021-11-25T11:23:17.000Z</time>
      </trkpt>
      <trkpt lat="47.29862" lon="-2.35583">
        <ele>26</ele>
        <time>2021-11-25T11:23:18.000Z</time>
      </trkpt>
      <trkpt lat="47.29869" lon="-2.35611">
        <ele>26</ele>
        <time>2021-11-25T11:23:23.000Z</time>
      </trkpt>
      <trkpt lat="47.29875" lon="-2.35646">
        <ele>26</ele>
        <time>2021-11-25T11:23:30.000Z</time>
      </trkpt>
      <trkpt lat="47.29875" lon="-2.35652">
        <ele>26.799999237061</ele>
        <time>2021-11-25T11:23:31.000Z</time>
      </trkpt>
      <trkpt lat="47.29876" lon="-2.35657">
        <ele>27.200000762939</ele>
        <time>2021-11-25T11:23:32.000Z</time>
      </trkpt>
      <trkpt lat="47.29877" lon="-2.35662">
        <ele>27.60000038147</ele>
        <time>2021-11-25T11:23:33.000Z</time>
      </trkpt>
      <trkpt lat="47.29878" lon="-2.35667">
        <ele>28</ele>
        <time>2021-11-25T11:23:34.000Z</time>
      </trkpt>
      <trkpt lat="47.29881" lon="-2.3569">
        <ele>28</ele>
        <time>2021-11-25T11:23:38.000Z</time>
      </trkpt>
      <trkpt lat="47.29888" lon="-2.35711">
        <ele>28</ele>
        <time>2021-11-25T11:23:43.000Z</time>
      </trkpt>
      <trkpt lat="47.29893" lon="-2.35733">
        <ele>28</ele>
        <time>2021-11-25T11:23:48.000Z</time>
      </trkpt>
      <trkpt lat="47.299" lon="-2.35748">
        <ele>28</ele>
        <time>2021-11-25T11:23:53.000Z</time>
      </trkpt>
      <trkpt lat="47.29894" lon="-2.35757">
        <ele>28</ele>
        <time>2021-11-25T11:23:56.000Z</time>
      </trkpt>
      <trkpt lat="47.2988" lon="-2.35768">
        <ele>28</ele>
        <time>2021-11-25T11:24:00.000Z</time>
      </trkpt>
      <trkpt lat="47.29875" lon="-2.35769">
        <ele>28</ele>
        <time>2021-11-25T11:24:01.000Z</time>
      </trkpt>
      <trkpt lat="47.29845" lon="-2.35782">
        <ele>28</ele>
        <time>2021-11-25T11:24:08.000Z</time>
      </trkpt>
      <trkpt lat="47.2982" lon="-2.35791">
        <ele>28</ele>
        <time>2021-11-25T11:24:14.000Z</time>
      </trkpt>
      <trkpt lat="47.29808" lon="-2.35794">
        <ele>28.39999961853</ele>
        <time>2021-11-25T11:24:17.000Z</time>
      </trkpt>
      <trkpt lat="47.29804" lon="-2.35795">
        <ele>28.799999237061</ele>
        <time>2021-11-25T11:24:18.000Z</time>
      </trkpt>
      <trkpt lat="47.298" lon="-2.35796">
        <ele>29.200000762939</ele>
        <time>2021-11-25T11:24:19.000Z</time>
      </trkpt>
      <trkpt lat="47.29796" lon="-2.35798">
        <ele>30.200000762939</ele>
        <time>2021-11-25T11:24:20.000Z</time>
      </trkpt>
      <trkpt lat="47.29783" lon="-2.35802">
        <ele>30.200000762939</ele>
        <time>2021-11-25T11:24:23.000Z</time>
      </trkpt>
      <trkpt lat="47.29738" lon="-2.3582">
        <ele>30.200000762939</ele>
        <time>2021-11-25T11:24:33.000Z</time>
      </trkpt>
      <trkpt lat="47.29708" lon="-2.35837">
        <ele>29.799999237061</ele>
        <time>2021-11-25T11:24:38.000Z</time>
      </trkpt>
      <trkpt lat="47.297" lon="-2.3584">
        <ele>29.39999961853</ele>
        <time>2021-11-25T11:24:39.000Z</time>
      </trkpt>
      <trkpt lat="47.29694" lon="-2.35842">
        <ele>29</ele>
        <time>2021-11-25T11:24:40.000Z</time>
      </trkpt>
      <trkpt lat="47.29687" lon="-2.35844">
        <ele>28.39999961853</ele>
        <time>2021-11-25T11:24:41.000Z</time>
      </trkpt>
      <trkpt lat="47.29681" lon="-2.35847">
        <ele>28</ele>
        <time>2021-11-25T11:24:42.000Z</time>
      </trkpt>
      <trkpt lat="47.29674" lon="-2.3585">
        <ele>28</ele>
        <time>2021-11-25T11:24:43.000Z</time>
      </trkpt>
      <trkpt lat="47.29669" lon="-2.35855">
        <ele>28</ele>
        <time>2021-11-25T11:24:44.000Z</time>
      </trkpt>
      <trkpt lat="47.29658" lon="-2.35863">
        <ele>28</ele>
        <time>2021-11-25T11:24:46.000Z</time>
      </trkpt>
      <trkpt lat="47.29641" lon="-2.35873">
        <ele>28</ele>
        <time>2021-11-25T11:24:49.000Z</time>
      </trkpt>
      <trkpt lat="47.29636" lon="-2.35876">
        <ele>28</ele>
        <time>2021-11-25T11:24:50.000Z</time>
      </trkpt>
      <trkpt lat="47.29592" lon="-2.359">
        <ele>28</ele>
        <time>2021-11-25T11:24:58.000Z</time>
      </trkpt>
      <trkpt lat="47.29553" lon="-2.35923">
        <ele>28</ele>
        <time>2021-11-25T11:25:06.000Z</time>
      </trkpt>
      <trkpt lat="47.29526" lon="-2.35937">
        <ele>28</ele>
        <time>2021-11-25T11:25:12.000Z</time>
      </trkpt>
      <trkpt lat="47.29514" lon="-2.35941">
        <ele>28</ele>
        <time>2021-11-25T11:25:15.000Z</time>
      </trkpt>
      <trkpt lat="47.2951" lon="-2.35938">
        <ele>28</ele>
        <time>2021-11-25T11:25:16.000Z</time>
      </trkpt>
      <trkpt lat="47.29503" lon="-2.35921">
        <ele>28</ele>
        <time>2021-11-25T11:25:19.000Z</time>
      </trkpt>
      <trkpt lat="47.29499" lon="-2.35909">
        <ele>28</ele>
        <time>2021-11-25T11:25:21.000Z</time>
      </trkpt>
      <trkpt lat="47.2949" lon="-2.35899">
        <ele>28</ele>
        <time>2021-11-25T11:25:24.000Z</time>
      </trkpt>
      <trkpt lat="47.29479" lon="-2.359">
        <ele>28</ele>
        <time>2021-11-25T11:25:27.000Z</time>
      </trkpt>
      <trkpt lat="47.29471" lon="-2.35901">
        <ele>28</ele>
        <time>2021-11-25T11:25:29.000Z</time>
      </trkpt>
      <trkpt lat="47.29458" lon="-2.35903">
        <ele>28</ele>
        <time>2021-11-25T11:25:34.000Z</time>
      </trkpt>
      <trkpt lat="47.29452" lon="-2.35905">
        <ele>28</ele>
        <time>2021-11-25T11:25:40.000Z</time>
      </trkpt>
      <trkpt lat="47.29449" lon="-2.35911">
        <ele>26</ele>
        <time>2021-11-25T11:25:50.000Z</time>
      </trkpt>
      <trkpt lat="47.2944" lon="-2.35911">
        <ele>26</ele>
        <time>2021-11-25T11:25:54.000Z</time>
      </trkpt>
      <trkpt lat="47.29431" lon="-2.35893">
        <ele>26</ele>
        <time>2021-11-25T11:25:58.000Z</time>
      </trkpt>
      <trkpt lat="47.29424" lon="-2.35885">
        <ele>26</ele>
        <time>2021-11-25T11:26:00.000Z</time>
      </trkpt>
      <trkpt lat="47.29414" lon="-2.35871">
        <ele>26</ele>
        <time>2021-11-25T11:26:03.000Z</time>
      </trkpt>
      <trkpt lat="47.29411" lon="-2.35867">
        <ele>26</ele>
        <time>2021-11-25T11:26:04.000Z</time>
      </trkpt>
      <trkpt lat="47.29397" lon="-2.3585">
        <ele>26</ele>
        <time>2021-11-25T11:26:08.000Z</time>
      </trkpt>
      <trkpt lat="47.29389" lon="-2.35843">
        <ele>26</ele>
        <time>2021-11-25T11:26:10.000Z</time>
      </trkpt>
      <trkpt lat="47.29372" lon="-2.35826">
        <ele>26</ele>
        <time>2021-11-25T11:26:14.000Z</time>
      </trkpt>
      <trkpt lat="47.29362" lon="-2.35818">
        <ele>26</ele>
        <time>2021-11-25T11:26:16.000Z</time>
      </trkpt>
      <trkpt lat="47.29352" lon="-2.35811">
        <ele>26</ele>
        <time>2021-11-25T11:26:18.000Z</time>
      </trkpt>
      <trkpt lat="47.29334" lon="-2.35797">
        <ele>26</ele>
        <time>2021-11-25T11:26:22.000Z</time>
      </trkpt>
      <trkpt lat="47.29296" lon="-2.35762">
        <ele>26</ele>
        <time>2021-11-25T11:26:31.000Z</time>
      </trkpt>
      <trkpt lat="47.29267" lon="-2.35735">
        <ele>26</ele>
        <time>2021-11-25T11:26:38.000Z</time>
      </trkpt>
      <trkpt lat="47.29259" lon="-2.3573">
        <ele>26</ele>
        <time>2021-11-25T11:26:40.000Z</time>
      </trkpt>
      <trkpt lat="47.29251" lon="-2.35736">
        <ele>26</ele>
        <time>2021-11-25T11:26:42.000Z</time>
      </trkpt>
      <trkpt lat="47.29246" lon="-2.3575">
        <ele>26</ele>
        <time>2021-11-25T11:26:44.000Z</time>
      </trkpt>
      <trkpt lat="47.2924" lon="-2.3576">
        <ele>26</ele>
        <time>2021-11-25T11:26:46.000Z</time>
      </trkpt>
      <trkpt lat="47.29204" lon="-2.35796">
        <ele>26</ele>
        <time>2021-11-25T11:26:55.000Z</time>
      </trkpt>
      <trkpt lat="47.29168" lon="-2.35823">
        <ele>26</ele>
        <time>2021-11-25T11:27:03.000Z</time>
      </trkpt>
      <trkpt lat="47.29141" lon="-2.35844">
        <ele>26</ele>
        <time>2021-11-25T11:27:09.000Z</time>
      </trkpt>
      <trkpt lat="47.29111" lon="-2.35877">
        <ele>26</ele>
        <time>2021-11-25T11:27:15.000Z</time>
      </trkpt>
      <trkpt lat="47.2907" lon="-2.35924">
        <ele>26</ele>
        <time>2021-11-25T11:27:23.000Z</time>
      </trkpt>
      <trkpt lat="47.29027" lon="-2.35974">
        <ele>26</ele>
        <time>2021-11-25T11:27:32.000Z</time>
      </trkpt>
      <trkpt lat="47.28992" lon="-2.3601">
        <ele>26</ele>
        <time>2021-11-25T11:27:39.000Z</time>
      </trkpt>
      <trkpt lat="47.28954" lon="-2.36045">
        <ele>26</ele>
        <time>2021-11-25T11:27:46.000Z</time>
      </trkpt>
      <trkpt lat="47.28912" lon="-2.36073">
        <ele>26</ele>
        <time>2021-11-25T11:27:53.000Z</time>
      </trkpt>
      <trkpt lat="47.28879" lon="-2.36104">
        <ele>26</ele>
        <time>2021-11-25T11:27:59.000Z</time>
      </trkpt>
      <trkpt lat="47.28834" lon="-2.36156">
        <ele>26</ele>
        <time>2021-11-25T11:28:08.000Z</time>
      </trkpt>
      <trkpt lat="47.2881" lon="-2.36183">
        <ele>26</ele>
        <time>2021-11-25T11:28:13.000Z</time>
      </trkpt>
      <trkpt lat="47.28805" lon="-2.36187">
        <ele>26</ele>
        <time>2021-11-25T11:28:14.000Z</time>
      </trkpt>
      <trkpt lat="47.28777" lon="-2.36205">
        <ele>26</ele>
        <time>2021-11-25T11:28:20.000Z</time>
      </trkpt>
      <trkpt lat="47.28764" lon="-2.36212">
        <ele>26</ele>
        <time>2021-11-25T11:28:23.000Z</time>
      </trkpt>
      <trkpt lat="47.28758" lon="-2.36214">
        <ele>26</ele>
        <time>2021-11-25T11:28:25.000Z</time>
      </trkpt>
      <trkpt lat="47.2875" lon="-2.36215">
        <ele>26</ele>
        <time>2021-11-25T11:28:29.000Z</time>
      </trkpt>
      <trkpt lat="47.28749" lon="-2.36215">
        <ele>26</ele>
        <time>2021-11-25T11:28:31.000Z</time>
      </trkpt>
      <trkpt lat="47.28745" lon="-2.36222">
        <ele>26</ele>
        <time>2021-11-25T11:28:58.000Z</time>
      </trkpt>
      <trkpt lat="47.28743" lon="-2.36223">
        <ele>26</ele>
        <time>2021-11-25T11:28:59.000Z</time>
      </trkpt>
      <trkpt lat="47.28731" lon="-2.36237">
        <ele>26</ele>
        <time>2021-11-25T11:29:06.000Z</time>
      </trkpt>
      <trkpt lat="47.28726" lon="-2.36247">
        <ele>26.39999961853</ele>
        <time>2021-11-25T11:29:11.000Z</time>
      </trkpt>
      <trkpt lat="47.28725" lon="-2.36248">
        <ele>26.799999237061</ele>
        <time>2021-11-25T11:29:12.000Z</time>
      </trkpt>
      <trkpt lat="47.28724" lon="-2.36251">
        <ele>27.39999961853</ele>
        <time>2021-11-25T11:29:13.000Z</time>
      </trkpt>
      <trkpt lat="47.28722" lon="-2.36253">
        <ele>27.799999237061</ele>
        <time>2021-11-25T11:29:14.000Z</time>
      </trkpt>
      <trkpt lat="47.28719" lon="-2.36255">
        <ele>28.200000762939</ele>
        <time>2021-11-25T11:29:15.000Z</time>
      </trkpt>
      <trkpt lat="47.28717" lon="-2.36258">
        <ele>28.200000762939</ele>
        <time>2021-11-25T11:29:16.000Z</time>
      </trkpt>
      <trkpt lat="47.28703" lon="-2.36268">
        <ele>28.60000038147</ele>
        <time>2021-11-25T11:29:22.000Z</time>
      </trkpt>
      <trkpt lat="47.28701" lon="-2.36269">
        <ele>29</ele>
        <time>2021-11-25T11:29:23.000Z</time>
      </trkpt>
      <trkpt lat="47.28698" lon="-2.36271">
        <ele>29.39999961853</ele>
        <time>2021-11-25T11:29:24.000Z</time>
      </trkpt>
      <trkpt lat="47.28696" lon="-2.36272">
        <ele>29.799999237061</ele>
        <time>2021-11-25T11:29:25.000Z</time>
      </trkpt>
      <trkpt lat="47.28693" lon="-2.36273">
        <ele>30.200000762939</ele>
        <time>2021-11-25T11:29:26.000Z</time>
      </trkpt>
      <trkpt lat="47.28688" lon="-2.36274">
        <ele>30.200000762939</ele>
        <time>2021-11-25T11:29:28.000Z</time>
      </trkpt>
      <trkpt lat="47.28675" lon="-2.36271">
        <ele>30.200000762939</ele>
        <time>2021-11-25T11:29:34.000Z</time>
      </trkpt>
      <trkpt lat="47.28674" lon="-2.36267">
        <ele>30.200000762939</ele>
        <time>2021-11-25T11:29:36.000Z</time>
      </trkpt>
      <trkpt lat="47.28673" lon="-2.36262">
        <ele>30.60000038147</ele>
        <time>2021-11-25T11:29:38.000Z</time>
      </trkpt>
      <trkpt lat="47.28673" lon="-2.36259">
        <ele>31</ele>
        <time>2021-11-25T11:29:39.000Z</time>
      </trkpt>
      <trkpt lat="47.28671" lon="-2.36254">
        <ele>31.39999961853</ele>
        <time>2021-11-25T11:29:40.000Z</time>
      </trkpt>
      <trkpt lat="47.2867" lon="-2.3625">
        <ele>32.200000762939</ele>
        <time>2021-11-25T11:29:41.000Z</time>
      </trkpt>
      <trkpt lat="47.28669" lon="-2.36224">
        <ele>32.200000762939</ele>
        <time>2021-11-25T11:29:48.000Z</time>
      </trkpt>
      <trkpt lat="47.28669" lon="-2.36206">
        <ele>32.799999237061</ele>
        <time>2021-11-25T11:29:52.000Z</time>
      </trkpt>
      <trkpt lat="47.28668" lon="-2.36202">
        <ele>33.200000762939</ele>
        <time>2021-11-25T11:29:53.000Z</time>
      </trkpt>
      <trkpt lat="47.28667" lon="-2.36199">
        <ele>33.599998474121</ele>
        <time>2021-11-25T11:29:54.000Z</time>
      </trkpt>
      <trkpt lat="47.28665" lon="-2.36195">
        <ele>34</ele>
        <time>2021-11-25T11:29:55.000Z</time>
      </trkpt>
      <trkpt lat="47.28664" lon="-2.36191">
        <ele>34.400001525879</ele>
        <time>2021-11-25T11:29:56.000Z</time>
      </trkpt>
      <trkpt lat="47.28659" lon="-2.3618">
        <ele>34.400001525879</ele>
        <time>2021-11-25T11:29:59.000Z</time>
      </trkpt>
      <trkpt lat="47.28648" lon="-2.36167">
        <ele>34.400001525879</ele>
        <time>2021-11-25T11:30:04.000Z</time>
      </trkpt>
      <trkpt lat="47.28642" lon="-2.36156">
        <ele>34.799999237061</ele>
        <time>2021-11-25T11:30:07.000Z</time>
      </trkpt>
      <trkpt lat="47.2864" lon="-2.36152">
        <ele>35.200000762939</ele>
        <time>2021-11-25T11:30:08.000Z</time>
      </trkpt>
      <trkpt lat="47.28638" lon="-2.36148">
        <ele>35.799999237061</ele>
        <time>2021-11-25T11:30:09.000Z</time>
      </trkpt>
      <trkpt lat="47.28637" lon="-2.36146">
        <ele>36.200000762939</ele>
        <time>2021-11-25T11:30:10.000Z</time>
      </trkpt>
      <trkpt lat="47.28635" lon="-2.36144">
        <ele>36.599998474121</ele>
        <time>2021-11-25T11:30:11.000Z</time>
      </trkpt>
      <trkpt lat="47.28627" lon="-2.36141">
        <ele>36.599998474121</ele>
        <time>2021-11-25T11:30:14.000Z</time>
      </trkpt>
      <trkpt lat="47.28615" lon="-2.3615">
        <ele>36.599998474121</ele>
        <time>2021-11-25T11:30:19.000Z</time>
      </trkpt>
      <trkpt lat="47.286" lon="-2.36153">
        <ele>36.599998474121</ele>
        <time>2021-11-25T11:30:24.000Z</time>
      </trkpt>
      <trkpt lat="47.28578" lon="-2.36145">
        <ele>36.599998474121</ele>
        <time>2021-11-25T11:30:31.000Z</time>
      </trkpt>
      <trkpt lat="47.28565" lon="-2.36153">
        <ele>36.599998474121</ele>
        <time>2021-11-25T11:30:35.000Z</time>
      </trkpt>
      <trkpt lat="47.28561" lon="-2.36155">
        <ele>36.599998474121</ele>
        <time>2021-11-25T11:30:36.000Z</time>
      </trkpt>
      <trkpt lat="47.28557" lon="-2.36155">
        <ele>36.200000762939</ele>
        <time>2021-11-25T11:30:37.000Z</time>
      </trkpt>
      <trkpt lat="47.28553" lon="-2.36152">
        <ele>35.799999237061</ele>
        <time>2021-11-25T11:30:38.000Z</time>
      </trkpt>
      <trkpt lat="47.2855" lon="-2.36147">
        <ele>35.400001525879</ele>
        <time>2021-11-25T11:30:39.000Z</time>
      </trkpt>
      <trkpt lat="47.28549" lon="-2.36142">
        <ele>35</ele>
        <time>2021-11-25T11:30:40.000Z</time>
      </trkpt>
      <trkpt lat="47.28547" lon="-2.36136">
        <ele>34.599998474121</ele>
        <time>2021-11-25T11:30:41.000Z</time>
      </trkpt>
      <trkpt lat="47.28542" lon="-2.3612">
        <ele>34.599998474121</ele>
        <time>2021-11-25T11:30:43.000Z</time>
      </trkpt>
      <trkpt lat="47.2854" lon="-2.36112">
        <ele>34.599998474121</ele>
        <time>2021-11-25T11:30:44.000Z</time>
      </trkpt>
      <trkpt lat="47.28533" lon="-2.36084">
        <ele>34.599998474121</ele>
        <time>2021-11-25T11:30:49.000Z</time>
      </trkpt>
      <trkpt lat="47.28528" lon="-2.36074">
        <ele>34.599998474121</ele>
        <time>2021-11-25T11:30:51.000Z</time>
      </trkpt>
      <trkpt lat="47.28519" lon="-2.36061">
        <ele>34.599998474121</ele>
        <time>2021-11-25T11:30:54.000Z</time>
      </trkpt>
      <trkpt lat="47.28502" lon="-2.36039">
        <ele>34.599998474121</ele>
        <time>2021-11-25T11:30:59.000Z</time>
      </trkpt>
      <trkpt lat="47.28494" lon="-2.36034">
        <ele>34.599998474121</ele>
        <time>2021-11-25T11:31:01.000Z</time>
      </trkpt>
      <trkpt lat="47.28472" lon="-2.36023">
        <ele>34.599998474121</ele>
        <time>2021-11-25T11:31:06.000Z</time>
      </trkpt>
      <trkpt lat="47.28458" lon="-2.36002">
        <ele>34.599998474121</ele>
        <time>2021-11-25T11:31:11.000Z</time>
      </trkpt>
      <trkpt lat="47.28453" lon="-2.35987">
        <ele>34.599998474121</ele>
        <time>2021-11-25T11:31:14.000Z</time>
      </trkpt>
      <trkpt lat="47.28451" lon="-2.35985">
        <ele>34.599998474121</ele>
        <time>2021-11-25T11:31:15.000Z</time>
      </trkpt>
      <trkpt lat="47.28442" lon="-2.35988">
        <ele>34.599998474121</ele>
        <time>2021-11-25T11:31:19.000Z</time>
      </trkpt>
      <trkpt lat="47.28424" lon="-2.36001">
        <ele>34.599998474121</ele>
        <time>2021-11-25T11:31:24.000Z</time>
      </trkpt>
      <trkpt lat="47.28416" lon="-2.36009">
        <ele>34.599998474121</ele>
        <time>2021-11-25T11:31:26.000Z</time>
      </trkpt>
      <trkpt lat="47.28403" lon="-2.36018">
        <ele>34.599998474121</ele>
        <time>2021-11-25T11:31:30.000Z</time>
      </trkpt>
      <trkpt lat="47.2839" lon="-2.36021">
        <ele>34</ele>
        <time>2021-11-25T11:31:33.000Z</time>
      </trkpt>
      <trkpt lat="47.28384" lon="-2.36022">
        <ele>33.599998474121</ele>
        <time>2021-11-25T11:31:34.000Z</time>
      </trkpt>
      <trkpt lat="47.28379" lon="-2.36023">
        <ele>33.200000762939</ele>
        <time>2021-11-25T11:31:35.000Z</time>
      </trkpt>
      <trkpt lat="47.28373" lon="-2.36024">
        <ele>32.400001525879</ele>
        <time>2021-11-25T11:31:36.000Z</time>
      </trkpt>
      <trkpt lat="47.28367" lon="-2.36026">
        <ele>31.799999237061</ele>
        <time>2021-11-25T11:31:37.000Z</time>
      </trkpt>
      <trkpt lat="47.2836" lon="-2.36028">
        <ele>31.200000762939</ele>
        <time>2021-11-25T11:31:38.000Z</time>
      </trkpt>
      <trkpt lat="47.28353" lon="-2.36033">
        <ele>30.39999961853</ele>
        <time>2021-11-25T11:31:39.000Z</time>
      </trkpt>
      <trkpt lat="47.28347" lon="-2.36038">
        <ele>29.60000038147</ele>
        <time>2021-11-25T11:31:40.000Z</time>
      </trkpt>
      <trkpt lat="47.28341" lon="-2.36043">
        <ele>29</ele>
        <time>2021-11-25T11:31:41.000Z</time>
      </trkpt>
      <trkpt lat="47.28335" lon="-2.36048">
        <ele>28.200000762939</ele>
        <time>2021-11-25T11:31:42.000Z</time>
      </trkpt>
      <trkpt lat="47.2833" lon="-2.36051">
        <ele>27.39999961853</ele>
        <time>2021-11-25T11:31:43.000Z</time>
      </trkpt>
      <trkpt lat="47.28325" lon="-2.36052">
        <ele>27</ele>
        <time>2021-11-25T11:31:44.000Z</time>
      </trkpt>
      <trkpt lat="47.28322" lon="-2.36051">
        <ele>26.60000038147</ele>
        <time>2021-11-25T11:31:45.000Z</time>
      </trkpt>
      <trkpt lat="47.28319" lon="-2.3605">
        <ele>26.200000762939</ele>
        <time>2021-11-25T11:31:46.000Z</time>
      </trkpt>
      <trkpt lat="47.28316" lon="-2.36049">
        <ele>25.799999237061</ele>
        <time>2021-11-25T11:31:47.000Z</time>
      </trkpt>
      <trkpt lat="47.28312" lon="-2.36048">
        <ele>25.39999961853</ele>
        <time>2021-11-25T11:31:48.000Z</time>
      </trkpt>
      <trkpt lat="47.28307" lon="-2.36047">
        <ele>25.39999961853</ele>
        <time>2021-11-25T11:31:49.000Z</time>
      </trkpt>
      <trkpt lat="47.28298" lon="-2.36045">
        <ele>25.39999961853</ele>
        <time>2021-11-25T11:31:51.000Z</time>
      </trkpt>
      <trkpt lat="47.28291" lon="-2.36037">
        <ele>24.799999237061</ele>
        <time>2021-11-25T11:31:53.000Z</time>
      </trkpt>
      <trkpt lat="47.28287" lon="-2.36031">
        <ele>24.200000762939</ele>
        <time>2021-11-25T11:31:54.000Z</time>
      </trkpt>
      <trkpt lat="47.28285" lon="-2.36025">
        <ele>23.39999961853</ele>
        <time>2021-11-25T11:31:55.000Z</time>
      </trkpt>
      <trkpt lat="47.28283" lon="-2.36018">
        <ele>22.60000038147</ele>
        <time>2021-11-25T11:31:56.000Z</time>
      </trkpt>
      <trkpt lat="47.28283" lon="-2.3601">
        <ele>21.60000038147</ele>
        <time>2021-11-25T11:31:57.000Z</time>
      </trkpt>
      <trkpt lat="47.28283" lon="-2.36001">
        <ele>20.799999237061</ele>
        <time>2021-11-25T11:31:58.000Z</time>
      </trkpt>
      <trkpt lat="47.28284" lon="-2.35994">
        <ele>19.799999237061</ele>
        <time>2021-11-25T11:31:59.000Z</time>
      </trkpt>
      <trkpt lat="47.28284" lon="-2.35987">
        <ele>19</ele>
        <time>2021-11-25T11:32:00.000Z</time>
      </trkpt>
      <trkpt lat="47.28284" lon="-2.35981">
        <ele>18.200000762939</ele>
        <time>2021-11-25T11:32:01.000Z</time>
      </trkpt>
      <trkpt lat="47.28283" lon="-2.35975">
        <ele>17.200000762939</ele>
        <time>2021-11-25T11:32:02.000Z</time>
      </trkpt>
      <trkpt lat="47.28282" lon="-2.35969">
        <ele>17.200000762939</ele>
        <time>2021-11-25T11:32:03.000Z</time>
      </trkpt>
      <trkpt lat="47.28276" lon="-2.35953">
        <ele>17.200000762939</ele>
        <time>2021-11-25T11:32:06.000Z</time>
      </trkpt>
      <trkpt lat="47.28268" lon="-2.35936">
        <ele>17.200000762939</ele>
        <time>2021-11-25T11:32:09.000Z</time>
      </trkpt>
      <trkpt lat="47.28258" lon="-2.35914">
        <ele>17.200000762939</ele>
        <time>2021-11-25T11:32:14.000Z</time>
      </trkpt>
      <trkpt lat="47.28251" lon="-2.35906">
        <ele>17.200000762939</ele>
        <time>2021-11-25T11:32:17.000Z</time>
      </trkpt>
      <trkpt lat="47.28247" lon="-2.35907">
        <ele>17.200000762939</ele>
        <time>2021-11-25T11:32:18.000Z</time>
      </trkpt>
      <trkpt lat="47.28226" lon="-2.35905">
        <ele>17.200000762939</ele>
        <time>2021-11-25T11:32:23.000Z</time>
      </trkpt>
      <trkpt lat="47.28221" lon="-2.35904">
        <ele>17.200000762939</ele>
        <time>2021-11-25T11:32:24.000Z</time>
      </trkpt>
      <trkpt lat="47.28207" lon="-2.35892">
        <ele>17.200000762939</ele>
        <time>2021-11-25T11:32:28.000Z</time>
      </trkpt>
      <trkpt lat="47.28199" lon="-2.35868">
        <ele>17.200000762939</ele>
        <time>2021-11-25T11:32:32.000Z</time>
      </trkpt>
      <trkpt lat="47.28197" lon="-2.35857">
        <ele>17.200000762939</ele>
        <time>2021-11-25T11:32:34.000Z</time>
      </trkpt>
      <trkpt lat="47.28191" lon="-2.35839">
        <ele>17.200000762939</ele>
        <time>2021-11-25T11:32:38.000Z</time>
      </trkpt>
      <trkpt lat="47.28186" lon="-2.35833">
        <ele>17.200000762939</ele>
        <time>2021-11-25T11:32:40.000Z</time>
      </trkpt>
      <trkpt lat="47.2818" lon="-2.35832">
        <ele>17.200000762939</ele>
        <time>2021-11-25T11:32:42.000Z</time>
      </trkpt>
      <trkpt lat="47.28169" lon="-2.35828">
        <ele>17.200000762939</ele>
        <time>2021-11-25T11:32:46.000Z</time>
      </trkpt>
      <trkpt lat="47.28164" lon="-2.35823">
        <ele>17.200000762939</ele>
        <time>2021-11-25T11:32:48.000Z</time>
      </trkpt>
      <trkpt lat="47.28155" lon="-2.35803">
        <ele>17.200000762939</ele>
        <time>2021-11-25T11:32:53.000Z</time>
      </trkpt>
      <trkpt lat="47.2815" lon="-2.35789">
        <ele>16.799999237061</ele>
        <time>2021-11-25T11:32:55.000Z</time>
      </trkpt>
      <trkpt lat="47.28149" lon="-2.35782">
        <ele>16.39999961853</ele>
        <time>2021-11-25T11:32:56.000Z</time>
      </trkpt>
      <trkpt lat="47.28147" lon="-2.35776">
        <ele>16</ele>
        <time>2021-11-25T11:32:57.000Z</time>
      </trkpt>
      <trkpt lat="47.28145" lon="-2.3577">
        <ele>15.60000038147</ele>
        <time>2021-11-25T11:32:58.000Z</time>
      </trkpt>
      <trkpt lat="47.28143" lon="-2.35765">
        <ele>15.199999809265</ele>
        <time>2021-11-25T11:32:59.000Z</time>
      </trkpt>
      <trkpt lat="47.28131" lon="-2.35755">
        <ele>15.199999809265</ele>
        <time>2021-11-25T11:33:01.000Z</time>
      </trkpt>
      <trkpt lat="47.28117" lon="-2.35754">
        <ele>15.199999809265</ele>
        <time>2021-11-25T11:33:04.000Z</time>
      </trkpt>
      <trkpt lat="47.28104" lon="-2.35773">
        <ele>15.199999809265</ele>
        <time>2021-11-25T11:33:08.000Z</time>
      </trkpt>
      <trkpt lat="47.28099" lon="-2.35783">
        <ele>15.199999809265</ele>
        <time>2021-11-25T11:33:10.000Z</time>
      </trkpt>
      <trkpt lat="47.2809" lon="-2.358">
        <ele>15.199999809265</ele>
        <time>2021-11-25T11:33:14.000Z</time>
      </trkpt>
      <trkpt lat="47.28085" lon="-2.35804">
        <ele>15.199999809265</ele>
        <time>2021-11-25T11:33:16.000Z</time>
      </trkpt>
      <trkpt lat="47.2808" lon="-2.35802">
        <ele>15.199999809265</ele>
        <time>2021-11-25T11:33:18.000Z</time>
      </trkpt>
      <trkpt lat="47.28081" lon="-2.35788">
        <ele>15.199999809265</ele>
        <time>2021-11-25T11:33:22.000Z</time>
      </trkpt>
      <trkpt lat="47.28082" lon="-2.35784">
        <ele>15.60000038147</ele>
        <time>2021-11-25T11:33:23.000Z</time>
      </trkpt>
      <trkpt lat="47.28083" lon="-2.3578">
        <ele>16</ele>
        <time>2021-11-25T11:33:24.000Z</time>
      </trkpt>
      <trkpt lat="47.28084" lon="-2.35776">
        <ele>16.39999961853</ele>
        <time>2021-11-25T11:33:25.000Z</time>
      </trkpt>
      <trkpt lat="47.28084" lon="-2.35772">
        <ele>16.799999237061</ele>
        <time>2021-11-25T11:33:26.000Z</time>
      </trkpt>
      <trkpt lat="47.28085" lon="-2.35768">
        <ele>17.200000762939</ele>
        <time>2021-11-25T11:33:27.000Z</time>
      </trkpt>
      <trkpt lat="47.28085" lon="-2.35759">
        <ele>17.200000762939</ele>
        <time>2021-11-25T11:33:29.000Z</time>
      </trkpt>
      <trkpt lat="47.2809" lon="-2.35732">
        <ele>17.60000038147</ele>
        <time>2021-11-25T11:33:35.000Z</time>
      </trkpt>
      <trkpt lat="47.28091" lon="-2.35729">
        <ele>18</ele>
        <time>2021-11-25T11:33:36.000Z</time>
      </trkpt>
      <trkpt lat="47.28092" lon="-2.35725">
        <ele>18.39999961853</ele>
        <time>2021-11-25T11:33:37.000Z</time>
      </trkpt>
      <trkpt lat="47.28092" lon="-2.35722">
        <ele>19</ele>
        <time>2021-11-25T11:33:38.000Z</time>
      </trkpt>
      <trkpt lat="47.28093" lon="-2.35718">
        <ele>19.39999961853</ele>
        <time>2021-11-25T11:33:39.000Z</time>
      </trkpt>
      <trkpt lat="47.28093" lon="-2.35708">
        <ele>19.39999961853</ele>
        <time>2021-11-25T11:33:41.000Z</time>
      </trkpt>
      <trkpt lat="47.28089" lon="-2.35676">
        <ele>19.39999961853</ele>
        <time>2021-11-25T11:33:46.000Z</time>
      </trkpt>
      <trkpt lat="47.28087" lon="-2.3566">
        <ele>19.39999961853</ele>
        <time>2021-11-25T11:33:48.000Z</time>
      </trkpt>
      <trkpt lat="47.28082" lon="-2.35648">
        <ele>19.39999961853</ele>
        <time>2021-11-25T11:33:50.000Z</time>
      </trkpt>
      <trkpt lat="47.2808" lon="-2.35641">
        <ele>18.799999237061</ele>
        <time>2021-11-25T11:33:51.000Z</time>
      </trkpt>
      <trkpt lat="47.28079" lon="-2.35636">
        <ele>18.39999961853</ele>
        <time>2021-11-25T11:33:52.000Z</time>
      </trkpt>
      <trkpt lat="47.28077" lon="-2.3563">
        <ele>17.799999237061</ele>
        <time>2021-11-25T11:33:53.000Z</time>
      </trkpt>
      <trkpt lat="47.28077" lon="-2.35625">
        <ele>17.200000762939</ele>
        <time>2021-11-25T11:33:54.000Z</time>
      </trkpt>
      <trkpt lat="47.28078" lon="-2.35621">
        <ele>16.60000038147</ele>
        <time>2021-11-25T11:33:55.000Z</time>
      </trkpt>
      <trkpt lat="47.28078" lon="-2.35619">
        <ele>16</ele>
        <time>2021-11-25T11:33:56.000Z</time>
      </trkpt>
      <trkpt lat="47.2808" lon="-2.35618">
        <ele>15.39999961853</ele>
        <time>2021-11-25T11:33:57.000Z</time>
      </trkpt>
      <trkpt lat="47.28081" lon="-2.35618">
        <ele>14.800000190735</ele>
        <time>2021-11-25T11:33:58.000Z</time>
      </trkpt>
      <trkpt lat="47.28084" lon="-2.3562">
        <ele>14.800000190735</ele>
        <time>2021-11-25T11:34:00.000Z</time>
      </trkpt>
      <trkpt lat="47.28084" lon="-2.35619">
        <ele>14.800000190735</ele>
        <time>2021-11-25T11:34:01.000Z</time>
      </trkpt>
      <trkpt lat="47.28083" lon="-2.35612">
        <ele>14.800000190735</ele>
        <time>2021-11-25T11:35:08.000Z</time>
      </trkpt>
      <trkpt lat="47.28078" lon="-2.35605">
        <ele>14.800000190735</ele>
        <time>2021-11-25T11:35:12.000Z</time>
      </trkpt>
      <trkpt lat="47.28075" lon="-2.35602">
        <ele>14.800000190735</ele>
        <time>2021-11-25T11:35:14.000Z</time>
      </trkpt>
      <trkpt lat="47.28071" lon="-2.3559">
        <ele>14.800000190735</ele>
        <time>2021-11-25T11:35:20.000Z</time>
      </trkpt>
      <trkpt lat="47.28059" lon="-2.35582">
        <ele>14.800000190735</ele>
        <time>2021-11-25T11:35:25.000Z</time>
      </trkpt>
      <trkpt lat="47.28052" lon="-2.35581">
        <ele>14.39999961853</ele>
        <time>2021-11-25T11:35:27.000Z</time>
      </trkpt>
      <trkpt lat="47.28048" lon="-2.3558">
        <ele>13.800000190735</ele>
        <time>2021-11-25T11:35:28.000Z</time>
      </trkpt>
      <trkpt lat="47.28044" lon="-2.35579">
        <ele>13.39999961853</ele>
        <time>2021-11-25T11:35:29.000Z</time>
      </trkpt>
      <trkpt lat="47.2804" lon="-2.35577">
        <ele>13</ele>
        <time>2021-11-25T11:35:30.000Z</time>
      </trkpt>
      <trkpt lat="47.28035" lon="-2.35576">
        <ele>12.60000038147</ele>
        <time>2021-11-25T11:35:31.000Z</time>
      </trkpt>
      <trkpt lat="47.28026" lon="-2.35576">
        <ele>12.60000038147</ele>
        <time>2021-11-25T11:35:33.000Z</time>
      </trkpt>
      <trkpt lat="47.28018" lon="-2.35576">
        <ele>12.60000038147</ele>
        <time>2021-11-25T11:35:35.000Z</time>
      </trkpt>
      <trkpt lat="47.28005" lon="-2.35578">
        <ele>12.60000038147</ele>
        <time>2021-11-25T11:35:38.000Z</time>
      </trkpt>
      <trkpt lat="47.27993" lon="-2.35584">
        <ele>12.60000038147</ele>
        <time>2021-11-25T11:35:41.000Z</time>
      </trkpt>
      <trkpt lat="47.27978" lon="-2.35582">
        <ele>12.60000038147</ele>
        <time>2021-11-25T11:35:45.000Z</time>
      </trkpt>
      <trkpt lat="47.27961" lon="-2.35579">
        <ele>12.199999809265</ele>
        <time>2021-11-25T11:35:49.000Z</time>
      </trkpt>
      <trkpt lat="47.27957" lon="-2.3558">
        <ele>11.800000190735</ele>
        <time>2021-11-25T11:35:50.000Z</time>
      </trkpt>
      <trkpt lat="47.27952" lon="-2.35581">
        <ele>11.39999961853</ele>
        <time>2021-11-25T11:35:51.000Z</time>
      </trkpt>
      <trkpt lat="47.27948" lon="-2.35583">
        <ele>10.60000038147</ele>
        <time>2021-11-25T11:35:52.000Z</time>
      </trkpt>
      <trkpt lat="47.2794" lon="-2.35586">
        <ele>10.60000038147</ele>
        <time>2021-11-25T11:35:54.000Z</time>
      </trkpt>
      <trkpt lat="47.27926" lon="-2.35589">
        <ele>10.60000038147</ele>
        <time>2021-11-25T11:35:57.000Z</time>
      </trkpt>
      <trkpt lat="47.27896" lon="-2.35594">
        <ele>10.60000038147</ele>
        <time>2021-11-25T11:36:03.000Z</time>
      </trkpt>
      <trkpt lat="47.27874" lon="-2.356">
        <ele>10.199999809265</ele>
        <time>2021-11-25T11:36:07.000Z</time>
      </trkpt>
      <trkpt lat="47.27868" lon="-2.35602">
        <ele>9.8000001907349</ele>
        <time>2021-11-25T11:36:08.000Z</time>
      </trkpt>
      <trkpt lat="47.27862" lon="-2.35604">
        <ele>9.3999996185303</ele>
        <time>2021-11-25T11:36:09.000Z</time>
      </trkpt>
      <trkpt lat="47.27857" lon="-2.35605">
        <ele>8.8000001907349</ele>
        <time>2021-11-25T11:36:10.000Z</time>
      </trkpt>
      <trkpt lat="47.27851" lon="-2.35607">
        <ele>8.3999996185303</ele>
        <time>2021-11-25T11:36:11.000Z</time>
      </trkpt>
      <trkpt lat="47.27827" lon="-2.35614">
        <ele>8.3999996185303</ele>
        <time>2021-11-25T11:36:15.000Z</time>
      </trkpt>
      <trkpt lat="47.27803" lon="-2.35622">
        <ele>8</ele>
        <time>2021-11-25T11:36:19.000Z</time>
      </trkpt>
      <trkpt lat="47.27797" lon="-2.35624">
        <ele>7.5999999046326</ele>
        <time>2021-11-25T11:36:20.000Z</time>
      </trkpt>
      <trkpt lat="47.2779" lon="-2.35628">
        <ele>7.1999998092651</ele>
        <time>2021-11-25T11:36:21.000Z</time>
      </trkpt>
      <trkpt lat="47.27784" lon="-2.35632">
        <ele>6.8000001907349</ele>
        <time>2021-11-25T11:36:22.000Z</time>
      </trkpt>
      <trkpt lat="47.27778" lon="-2.35636">
        <ele>6.4000000953674</ele>
        <time>2021-11-25T11:36:23.000Z</time>
      </trkpt>
      <trkpt lat="47.27761" lon="-2.35652">
        <ele>6.4000000953674</ele>
        <time>2021-11-25T11:36:26.000Z</time>
      </trkpt>
      <trkpt lat="47.27756" lon="-2.35659">
        <ele>6.4000000953674</ele>
        <time>2021-11-25T11:36:27.000Z</time>
      </trkpt>
      <trkpt lat="47.27752" lon="-2.35666">
        <ele>6.4000000953674</ele>
        <time>2021-11-25T11:36:28.000Z</time>
      </trkpt>
      <trkpt lat="47.27735" lon="-2.35693">
        <ele>6.4000000953674</ele>
        <time>2021-11-25T11:36:32.000Z</time>
      </trkpt>
      <trkpt lat="47.27731" lon="-2.35699">
        <ele>6.4000000953674</ele>
        <time>2021-11-25T11:36:33.000Z</time>
      </trkpt>
      <trkpt lat="47.27721" lon="-2.35711">
        <ele>6</ele>
        <time>2021-11-25T11:36:35.000Z</time>
      </trkpt>
      <trkpt lat="47.27715" lon="-2.35716">
        <ele>5.5999999046326</ele>
        <time>2021-11-25T11:36:36.000Z</time>
      </trkpt>
      <trkpt lat="47.27709" lon="-2.35722">
        <ele>5.1999998092651</ele>
        <time>2021-11-25T11:36:37.000Z</time>
      </trkpt>
      <trkpt lat="47.27703" lon="-2.35726">
        <ele>4.8000001907349</ele>
        <time>2021-11-25T11:36:38.000Z</time>
      </trkpt>
      <trkpt lat="47.27698" lon="-2.3573">
        <ele>4.4000000953674</ele>
        <time>2021-11-25T11:36:39.000Z</time>
      </trkpt>
      <trkpt lat="47.27688" lon="-2.35739">
        <ele>4.4000000953674</ele>
        <time>2021-11-25T11:36:41.000Z</time>
      </trkpt>
      <trkpt lat="47.27679" lon="-2.35747">
        <ele>4.4000000953674</ele>
        <time>2021-11-25T11:36:43.000Z</time>
      </trkpt>
      <trkpt lat="47.27667" lon="-2.35737">
        <ele>4</ele>
        <time>2021-11-25T11:36:46.000Z</time>
      </trkpt>
      <trkpt lat="47.27664" lon="-2.35732">
        <ele>3.4000000953674</ele>
        <time>2021-11-25T11:36:47.000Z</time>
      </trkpt>
      <trkpt lat="47.2766" lon="-2.35727">
        <ele>3</ele>
        <time>2021-11-25T11:36:48.000Z</time>
      </trkpt>
      <trkpt lat="47.27655" lon="-2.35724">
        <ele>2.5999999046326</ele>
        <time>2021-11-25T11:36:49.000Z</time>
      </trkpt>
      <trkpt lat="47.27651" lon="-2.35722">
        <ele>2.2000000476837</ele>
        <time>2021-11-25T11:36:50.000Z</time>
      </trkpt>
      <trkpt lat="47.27639" lon="-2.35719">
        <ele>2.2000000476837</ele>
        <time>2021-11-25T11:36:52.000Z</time>
      </trkpt>
      <trkpt lat="47.27633" lon="-2.35718">
        <ele>2.2000000476837</ele>
        <time>2021-11-25T11:36:53.000Z</time>
      </trkpt>
      <trkpt lat="47.2762" lon="-2.35714">
        <ele>2.2000000476837</ele>
        <time>2021-11-25T11:36:55.000Z</time>
      </trkpt>
      <trkpt lat="47.27575" lon="-2.35703">
        <ele>2.2000000476837</ele>
        <time>2021-11-25T11:37:03.000Z</time>
      </trkpt>
      <trkpt lat="47.27563" lon="-2.357">
        <ele>1.7999999523163</ele>
        <time>2021-11-25T11:37:05.000Z</time>
      </trkpt>
      <trkpt lat="47.27557" lon="-2.35698">
        <ele>1</ele>
        <time>2021-11-25T11:37:06.000Z</time>
      </trkpt>
      <trkpt lat="47.27551" lon="-2.35696">
        <ele>0.60000002384186</ele>
        <time>2021-11-25T11:37:07.000Z</time>
      </trkpt>
      <trkpt lat="47.27545" lon="-2.35694">
        <ele>0.20000000298023</ele>
        <time>2021-11-25T11:37:08.000Z</time>
      </trkpt>
      <trkpt lat="47.27539" lon="-2.35693">
        <ele>0.20000000298023</ele>
        <time>2021-11-25T11:37:09.000Z</time>
      </trkpt>
      <trkpt lat="47.27496" lon="-2.35683">
        <ele>0.20000000298023</ele>
        <time>2021-11-25T11:37:16.000Z</time>
      </trkpt>
      <trkpt lat="47.27484" lon="-2.3568">
        <ele>-0.40000000596046</ele>
        <time>2021-11-25T11:37:18.000Z</time>
      </trkpt>
      <trkpt lat="47.27478" lon="-2.35679">
        <ele>-0.80000001192093</ele>
        <time>2021-11-25T11:37:19.000Z</time>
      </trkpt>
      <trkpt lat="47.27472" lon="-2.35677">
        <ele>-1.2000000476837</ele>
        <time>2021-11-25T11:37:20.000Z</time>
      </trkpt>
      <trkpt lat="47.27465" lon="-2.35676">
        <ele>-1.6000000238419</ele>
        <time>2021-11-25T11:37:21.000Z</time>
      </trkpt>
      <trkpt lat="47.27459" lon="-2.35674">
        <ele>-2</ele>
        <time>2021-11-25T11:37:22.000Z</time>
      </trkpt>
      <trkpt lat="47.27448" lon="-2.35671">
        <ele>-2</ele>
        <time>2021-11-25T11:37:24.000Z</time>
      </trkpt>
      <trkpt lat="47.27415" lon="-2.35666">
        <ele>-2</ele>
        <time>2021-11-25T11:37:30.000Z</time>
      </trkpt>
      <trkpt lat="47.27389" lon="-2.35677">
        <ele>-2</ele>
        <time>2021-11-25T11:37:35.000Z</time>
      </trkpt>
      <trkpt lat="47.27379" lon="-2.35685">
        <ele>-2</ele>
        <time>2021-11-25T11:37:37.000Z</time>
      </trkpt>
      <trkpt lat="47.27363" lon="-2.35696">
        <ele>-2</ele>
        <time>2021-11-25T11:37:40.000Z</time>
      </trkpt>
      <trkpt lat="47.27352" lon="-2.35703">
        <ele>-2.4000000953674</ele>
        <time>2021-11-25T11:37:42.000Z</time>
      </trkpt>
      <trkpt lat="47.27346" lon="-2.35706">
        <ele>-2.7999999523163</ele>
        <time>2021-11-25T11:37:43.000Z</time>
      </trkpt>
      <trkpt lat="47.27341" lon="-2.3571">
        <ele>-3.2000000476837</ele>
        <time>2021-11-25T11:37:44.000Z</time>
      </trkpt>
      <trkpt lat="47.27336" lon="-2.35714">
        <ele>-3.5999999046326</ele>
        <time>2021-11-25T11:37:45.000Z</time>
      </trkpt>
      <trkpt lat="47.27333" lon="-2.35719">
        <ele>-4.1999998092651</ele>
        <time>2021-11-25T11:37:46.000Z</time>
      </trkpt>
      <trkpt lat="47.27323" lon="-2.35731">
        <ele>-4.1999998092651</ele>
        <time>2021-11-25T11:37:49.000Z</time>
      </trkpt>
      <trkpt lat="47.27313" lon="-2.35741">
        <ele>-4.1999998092651</ele>
        <time>2021-11-25T11:37:53.000Z</time>
      </trkpt>
      <trkpt lat="47.2731" lon="-2.35738">
        <ele>-4.1999998092651</ele>
        <time>2021-11-25T11:37:54.000Z</time>
      </trkpt>
      <trkpt lat="47.27307" lon="-2.35734">
        <ele>-3.5999999046326</ele>
        <time>2021-11-25T11:37:55.000Z</time>
      </trkpt>
      <trkpt lat="47.27304" lon="-2.35729">
        <ele>-3.2000000476837</ele>
        <time>2021-11-25T11:37:56.000Z</time>
      </trkpt>
      <trkpt lat="47.27302" lon="-2.35723">
        <ele>-2.7999999523163</ele>
        <time>2021-11-25T11:37:57.000Z</time>
      </trkpt>
      <trkpt lat="47.273" lon="-2.35717">
        <ele>-2.4000000953674</ele>
        <time>2021-11-25T11:37:58.000Z</time>
      </trkpt>
      <trkpt lat="47.27298" lon="-2.35711">
        <ele>-2</ele>
        <time>2021-11-25T11:37:59.000Z</time>
      </trkpt>
      <trkpt lat="47.27287" lon="-2.35687">
        <ele>-2</ele>
        <time>2021-11-25T11:38:03.000Z</time>
      </trkpt>
      <trkpt lat="47.27267" lon="-2.3564">
        <ele>-2</ele>
        <time>2021-11-25T11:38:11.000Z</time>
      </trkpt>
      <trkpt lat="47.27243" lon="-2.35585">
        <ele>-2</ele>
        <time>2021-11-25T11:38:20.000Z</time>
      </trkpt>
      <trkpt lat="47.27216" lon="-2.35523">
        <ele>-2</ele>
        <time>2021-11-25T11:38:30.000Z</time>
      </trkpt>
      <trkpt lat="47.27192" lon="-2.35473">
        <ele>-2</ele>
        <time>2021-11-25T11:38:38.000Z</time>
      </trkpt>
      <trkpt lat="47.27169" lon="-2.35429">
        <ele>-1.6000000238419</ele>
        <time>2021-11-25T11:38:45.000Z</time>
      </trkpt>
      <trkpt lat="47.27166" lon="-2.35422">
        <ele>-1.2000000476837</ele>
        <time>2021-11-25T11:38:46.000Z</time>
      </trkpt>
      <trkpt lat="47.27162" lon="-2.35416">
        <ele>-0.80000001192093</ele>
        <time>2021-11-25T11:38:47.000Z</time>
      </trkpt>
      <trkpt lat="47.27159" lon="-2.3541">
        <ele>-0.20000000298023</ele>
        <time>2021-11-25T11:38:48.000Z</time>
      </trkpt>
      <trkpt lat="47.27155" lon="-2.35404">
        <ele>0.20000000298023</ele>
        <time>2021-11-25T11:38:49.000Z</time>
      </trkpt>
      <trkpt lat="47.27128" lon="-2.35356">
        <ele>0.20000000298023</ele>
        <time>2021-11-25T11:38:57.000Z</time>
      </trkpt>
      <trkpt lat="47.27102" lon="-2.35315">
        <ele>0.20000000298023</ele>
        <time>2021-11-25T11:39:04.000Z</time>
      </trkpt>
      <trkpt lat="47.27076" lon="-2.35274">
        <ele>0.20000000298023</ele>
        <time>2021-11-25T11:39:11.000Z</time>
      </trkpt>
      <trkpt lat="47.27045" lon="-2.35226">
        <ele>0.20000000298023</ele>
        <time>2021-11-25T11:39:19.000Z</time>
      </trkpt>
      <trkpt lat="47.27012" lon="-2.35175">
        <ele>0.20000000298023</ele>
        <time>2021-11-25T11:39:28.000Z</time>
      </trkpt>
      <trkpt lat="47.26977" lon="-2.35122">
        <ele>0.20000000298023</ele>
        <time>2021-11-25T11:39:37.000Z</time>
      </trkpt>
      <trkpt lat="47.26943" lon="-2.35071">
        <ele>0.20000000298023</ele>
        <time>2021-11-25T11:39:46.000Z</time>
      </trkpt>
      <trkpt lat="47.26905" lon="-2.35014">
        <ele>0.20000000298023</ele>
        <time>2021-11-25T11:39:56.000Z</time>
      </trkpt>
      <trkpt lat="47.26869" lon="-2.34959">
        <ele>0.20000000298023</ele>
        <time>2021-11-25T11:40:06.000Z</time>
      </trkpt>
      <trkpt lat="47.26836" lon="-2.34909">
        <ele>0.20000000298023</ele>
        <time>2021-11-25T11:40:15.000Z</time>
      </trkpt>
      <trkpt lat="47.26805" lon="-2.3486">
        <ele>0.20000000298023</ele>
        <time>2021-11-25T11:40:24.000Z</time>
      </trkpt>
      <trkpt lat="47.26771" lon="-2.34813">
        <ele>0.20000000298023</ele>
        <time>2021-11-25T11:40:33.000Z</time>
      </trkpt>
      <trkpt lat="47.26766" lon="-2.34809">
        <ele>0.20000000298023</ele>
        <time>2021-11-25T11:40:34.000Z</time>
      </trkpt>
      <trkpt lat="47.26756" lon="-2.34793">
        <ele>0.20000000298023</ele>
        <time>2021-11-25T11:40:37.000Z</time>
      </trkpt>
      <trkpt lat="47.26752" lon="-2.34788">
        <ele>0.20000000298023</ele>
        <time>2021-11-25T11:40:38.000Z</time>
      </trkpt>
      <trkpt lat="47.26731" lon="-2.34764">
        <ele>0.20000000298023</ele>
        <time>2021-11-25T11:40:43.000Z</time>
      </trkpt>
      <trkpt lat="47.26694" lon="-2.34718">
        <ele>0.20000000298023</ele>
        <time>2021-11-25T11:40:52.000Z</time>
      </trkpt>
      <trkpt lat="47.26657" lon="-2.34673">
        <ele>0.20000000298023</ele>
        <time>2021-11-25T11:41:01.000Z</time>
      </trkpt>
      <trkpt lat="47.2663" lon="-2.34638">
        <ele>0.20000000298023</ele>
        <time>2021-11-25T11:41:08.000Z</time>
      </trkpt>
      <trkpt lat="47.26603" lon="-2.34604">
        <ele>0.20000000298023</ele>
        <time>2021-11-25T11:41:15.000Z</time>
      </trkpt>
      <trkpt lat="47.26568" lon="-2.34566">
        <ele>0.20000000298023</ele>
        <time>2021-11-25T11:41:23.000Z</time>
      </trkpt>
      <trkpt lat="47.26532" lon="-2.34532">
        <ele>0.20000000298023</ele>
        <time>2021-11-25T11:41:31.000Z</time>
      </trkpt>
      <trkpt lat="47.26528" lon="-2.34528">
        <ele>0.20000000298023</ele>
        <time>2021-11-25T11:41:32.000Z</time>
      </trkpt>
      <trkpt lat="47.26514" lon="-2.34516">
        <ele>0.20000000298023</ele>
        <time>2021-11-25T11:41:35.000Z</time>
      </trkpt>
      <trkpt lat="47.26499" lon="-2.34506">
        <ele>0.20000000298023</ele>
        <time>2021-11-25T11:41:38.000Z</time>
      </trkpt>
      <trkpt lat="47.26454" lon="-2.34475">
        <ele>0.20000000298023</ele>
        <time>2021-11-25T11:41:47.000Z</time>
      </trkpt>
      <trkpt lat="47.26407" lon="-2.3444">
        <ele>0.20000000298023</ele>
        <time>2021-11-25T11:41:57.000Z</time>
      </trkpt>
      <trkpt lat="47.26366" lon="-2.34405">
        <ele>0.20000000298023</ele>
        <time>2021-11-25T11:42:06.000Z</time>
      </trkpt>
      <trkpt lat="47.26335" lon="-2.34379">
        <ele>0.20000000298023</ele>
        <time>2021-11-25T11:42:13.000Z</time>
      </trkpt>
      <trkpt lat="47.26321" lon="-2.34374">
        <ele>0.20000000298023</ele>
        <time>2021-11-25T11:42:16.000Z</time>
      </trkpt>
      <trkpt lat="47.26308" lon="-2.34351">
        <ele>0.20000000298023</ele>
        <time>2021-11-25T11:42:20.000Z</time>
      </trkpt>
      <trkpt lat="47.263" lon="-2.34342">
        <ele>0.20000000298023</ele>
        <time>2021-11-25T11:42:22.000Z</time>
      </trkpt>
      <trkpt lat="47.26282" lon="-2.34325">
        <ele>0.20000000298023</ele>
        <time>2021-11-25T11:42:26.000Z</time>
      </trkpt>
      <trkpt lat="47.26244" lon="-2.34284">
        <ele>0.20000000298023</ele>
        <time>2021-11-25T11:42:35.000Z</time>
      </trkpt>
      <trkpt lat="47.26207" lon="-2.34244">
        <ele>-0.20000000298023</ele>
        <time>2021-11-25T11:42:44.000Z</time>
      </trkpt>
      <trkpt lat="47.26202" lon="-2.3424">
        <ele>-0.60000002384186</ele>
        <time>2021-11-25T11:42:45.000Z</time>
      </trkpt>
      <trkpt lat="47.26198" lon="-2.34236">
        <ele>-1</ele>
        <time>2021-11-25T11:42:46.000Z</time>
      </trkpt>
      <trkpt lat="47.26194" lon="-2.34231">
        <ele>-1.3999999761581</ele>
        <time>2021-11-25T11:42:47.000Z</time>
      </trkpt>
      <trkpt lat="47.2619" lon="-2.34227">
        <ele>-1.7999999523163</ele>
        <time>2021-11-25T11:42:48.000Z</time>
      </trkpt>
      <trkpt lat="47.26172" lon="-2.34209">
        <ele>-1.7999999523163</ele>
        <time>2021-11-25T11:42:52.000Z</time>
      </trkpt>
      <trkpt lat="47.26145" lon="-2.34184">
        <ele>-1.7999999523163</ele>
        <time>2021-11-25T11:42:59.000Z</time>
      </trkpt>
      <trkpt lat="47.26128" lon="-2.34175">
        <ele>-1.7999999523163</ele>
        <time>2021-11-25T11:43:03.000Z</time>
      </trkpt>
      <trkpt lat="47.26113" lon="-2.34159">
        <ele>-1.7999999523163</ele>
        <time>2021-11-25T11:43:07.000Z</time>
      </trkpt>
      <trkpt lat="47.2611" lon="-2.34156">
        <ele>-1.7999999523163</ele>
        <time>2021-11-25T11:43:08.000Z</time>
      </trkpt>
      <trkpt lat="47.26106" lon="-2.34154">
        <ele>-1.7999999523163</ele>
        <time>2021-11-25T11:43:09.000Z</time>
      </trkpt>
      <trkpt lat="47.26093" lon="-2.34149">
        <ele>-1.7999999523163</ele>
        <time>2021-11-25T11:43:12.000Z</time>
      </trkpt>
      <trkpt lat="47.2606" lon="-2.34131">
        <ele>-1.7999999523163</ele>
        <time>2021-11-25T11:43:19.000Z</time>
      </trkpt>
      <trkpt lat="47.26031" lon="-2.34118">
        <ele>-1.7999999523163</ele>
        <time>2021-11-25T11:43:25.000Z</time>
      </trkpt>
      <trkpt lat="47.25998" lon="-2.34101">
        <ele>-1.7999999523163</ele>
        <time>2021-11-25T11:43:32.000Z</time>
      </trkpt>
      <trkpt lat="47.2596" lon="-2.34085">
        <ele>-1.7999999523163</ele>
        <time>2021-11-25T11:43:40.000Z</time>
      </trkpt>
      <trkpt lat="47.25942" lon="-2.34076">
        <ele>-1.7999999523163</ele>
        <time>2021-11-25T11:43:44.000Z</time>
      </trkpt>
      <trkpt lat="47.25933" lon="-2.34072">
        <ele>-1.7999999523163</ele>
        <time>2021-11-25T11:43:46.000Z</time>
      </trkpt>
      <trkpt lat="47.25906" lon="-2.34062">
        <ele>-1.7999999523163</ele>
        <time>2021-11-25T11:43:52.000Z</time>
      </trkpt>
      <trkpt lat="47.25902" lon="-2.34057">
        <ele>-1.7999999523163</ele>
        <time>2021-11-25T11:43:53.000Z</time>
      </trkpt>
      <trkpt lat="47.25898" lon="-2.34043">
        <ele>-1.7999999523163</ele>
        <time>2021-11-25T11:43:55.000Z</time>
      </trkpt>
      <trkpt lat="47.25901" lon="-2.34022">
        <ele>-1.7999999523163</ele>
        <time>2021-11-25T11:43:58.000Z</time>
      </trkpt>
      <trkpt lat="47.25905" lon="-2.34009">
        <ele>-1.7999999523163</ele>
        <time>2021-11-25T11:44:00.000Z</time>
      </trkpt>
      <trkpt lat="47.25915" lon="-2.33975">
        <ele>-1.7999999523163</ele>
        <time>2021-11-25T11:44:05.000Z</time>
      </trkpt>
      <trkpt lat="47.2592" lon="-2.33961">
        <ele>-1.7999999523163</ele>
        <time>2021-11-25T11:44:07.000Z</time>
      </trkpt>
      <trkpt lat="47.25932" lon="-2.33937">
        <ele>-1.7999999523163</ele>
        <time>2021-11-25T11:44:11.000Z</time>
      </trkpt>
      <trkpt lat="47.25939" lon="-2.33927">
        <ele>-2.4000000953674</ele>
        <time>2021-11-25T11:44:13.000Z</time>
      </trkpt>
      <trkpt lat="47.25942" lon="-2.33921">
        <ele>-2.7999999523163</ele>
        <time>2021-11-25T11:44:14.000Z</time>
      </trkpt>
      <trkpt lat="47.25945" lon="-2.33915">
        <ele>-3.2000000476837</ele>
        <time>2021-11-25T11:44:15.000Z</time>
      </trkpt>
      <trkpt lat="47.25946" lon="-2.33908">
        <ele>-3.5999999046326</ele>
        <time>2021-11-25T11:44:16.000Z</time>
      </trkpt>
      <trkpt lat="47.25948" lon="-2.33901">
        <ele>-4</ele>
        <time>2021-11-25T11:44:17.000Z</time>
      </trkpt>
      <trkpt lat="47.2595" lon="-2.33895">
        <ele>-4</ele>
        <time>2021-11-25T11:44:18.000Z</time>
      </trkpt>
      <trkpt lat="47.25959" lon="-2.33868">
        <ele>-4</ele>
        <time>2021-11-25T11:44:22.000Z</time>
      </trkpt>
      <trkpt lat="47.25974" lon="-2.3382">
        <ele>-4</ele>
        <time>2021-11-25T11:44:29.000Z</time>
      </trkpt>
      <trkpt lat="47.25993" lon="-2.33767">
        <ele>-4</ele>
        <time>2021-11-25T11:44:37.000Z</time>
      </trkpt>
      <trkpt lat="47.26009" lon="-2.33713">
        <ele>-4</ele>
        <time>2021-11-25T11:44:45.000Z</time>
      </trkpt>
      <trkpt lat="47.2602" lon="-2.3368">
        <ele>-4</ele>
        <time>2021-11-25T11:44:50.000Z</time>
      </trkpt>
      <trkpt lat="47.26021" lon="-2.33674">
        <ele>-4</ele>
        <time>2021-11-25T11:44:51.000Z</time>
      </trkpt>
      <trkpt lat="47.26023" lon="-2.33669">
        <ele>-4</ele>
        <time>2021-11-25T11:44:52.000Z</time>
      </trkpt>
      <trkpt lat="47.26031" lon="-2.33667">
        <ele>-4</ele>
        <time>2021-11-25T11:44:54.000Z</time>
      </trkpt>
      <trkpt lat="47.26041" lon="-2.33667">
        <ele>-4</ele>
        <time>2021-11-25T11:44:57.000Z</time>
      </trkpt>
      <trkpt lat="47.26045" lon="-2.33665">
        <ele>-4</ele>
        <time>2021-11-25T11:44:59.000Z</time>
      </trkpt>
      <trkpt lat="47.26051" lon="-2.33666">
        <ele>-4</ele>
        <time>2021-11-25T11:45:02.000Z</time>
      </trkpt>
      <trkpt lat="47.26054" lon="-2.33667">
        <ele>-4</ele>
        <time>2021-11-25T11:45:03.000Z</time>
      </trkpt>
      <trkpt lat="47.2606" lon="-2.33656">
        <ele>-4</ele>
        <time>2021-11-25T11:45:06.000Z</time>
      </trkpt>
      <trkpt lat="47.2607" lon="-2.33625">
        <ele>-4</ele>
        <time>2021-11-25T11:45:12.000Z</time>
      </trkpt>
      <trkpt lat="47.26073" lon="-2.3362">
        <ele>-4</ele>
        <time>2021-11-25T11:45:13.000Z</time>
      </trkpt>
      <trkpt lat="47.26084" lon="-2.33591">
        <ele>-4</ele>
        <time>2021-11-25T11:45:18.000Z</time>
      </trkpt>
      <trkpt lat="47.26103" lon="-2.33535">
        <ele>-4</ele>
        <time>2021-11-25T11:45:27.000Z</time>
      </trkpt>
      <trkpt lat="47.26106" lon="-2.3353">
        <ele>-4</ele>
        <time>2021-11-25T11:45:28.000Z</time>
      </trkpt>
      <trkpt lat="47.26112" lon="-2.33505">
        <ele>-4</ele>
        <time>2021-11-25T11:45:32.000Z</time>
      </trkpt>
      <trkpt lat="47.26118" lon="-2.33486">
        <ele>-4</ele>
        <time>2021-11-25T11:45:35.000Z</time>
      </trkpt>
      <trkpt lat="47.26124" lon="-2.3347">
        <ele>-4</ele>
        <time>2021-11-25T11:45:38.000Z</time>
      </trkpt>
      <trkpt lat="47.26133" lon="-2.33446">
        <ele>-4</ele>
        <time>2021-11-25T11:45:44.000Z</time>
      </trkpt>
      <trkpt lat="47.26132" lon="-2.33421">
        <ele>-4</ele>
        <time>2021-11-25T11:45:49.000Z</time>
      </trkpt>
      <trkpt lat="47.2612" lon="-2.33407">
        <ele>-4</ele>
        <time>2021-11-25T11:45:53.000Z</time>
      </trkpt>
      <trkpt lat="47.261" lon="-2.33379">
        <ele>-4</ele>
        <time>2021-11-25T11:45:59.000Z</time>
      </trkpt>
      <trkpt lat="47.26088" lon="-2.3336">
        <ele>-4</ele>
        <time>2021-11-25T11:46:03.000Z</time>
      </trkpt>
      <trkpt lat="47.2608" lon="-2.33343">
        <ele>-4</ele>
        <time>2021-11-25T11:46:06.000Z</time>
      </trkpt>
      <trkpt lat="47.26074" lon="-2.33332">
        <ele>-4</ele>
        <time>2021-11-25T11:46:08.000Z</time>
      </trkpt>
      <trkpt lat="47.26065" lon="-2.33307">
        <ele>-4</ele>
        <time>2021-11-25T11:46:12.000Z</time>
      </trkpt>
      <trkpt lat="47.26042" lon="-2.33244">
        <ele>-4</ele>
        <time>2021-11-25T11:46:22.000Z</time>
      </trkpt>
      <trkpt lat="47.26022" lon="-2.3319">
        <ele>-4</ele>
        <time>2021-11-25T11:46:31.000Z</time>
      </trkpt>
      <trkpt lat="47.2601" lon="-2.33152">
        <ele>-4</ele>
        <time>2021-11-25T11:46:37.000Z</time>
      </trkpt>
      <trkpt lat="47.26003" lon="-2.33134">
        <ele>-4</ele>
        <time>2021-11-25T11:46:40.000Z</time>
      </trkpt>
      <trkpt lat="47.25994" lon="-2.33102">
        <ele>-4</ele>
        <time>2021-11-25T11:46:45.000Z</time>
      </trkpt>
      <trkpt lat="47.25986" lon="-2.33077">
        <ele>-4</ele>
        <time>2021-11-25T11:46:49.000Z</time>
      </trkpt>
      <trkpt lat="47.25981" lon="-2.33066">
        <ele>-4</ele>
        <time>2021-11-25T11:46:51.000Z</time>
      </trkpt>
      <trkpt lat="47.25967" lon="-2.33024">
        <ele>-4</ele>
        <time>2021-11-25T11:46:58.000Z</time>
      </trkpt>
      <trkpt lat="47.25952" lon="-2.32975">
        <ele>-4</ele>
        <time>2021-11-25T11:47:06.000Z</time>
      </trkpt>
      <trkpt lat="47.25936" lon="-2.32933">
        <ele>-4</ele>
        <time>2021-11-25T11:47:13.000Z</time>
      </trkpt>
      <trkpt lat="47.25924" lon="-2.32894">
        <ele>-4</ele>
        <time>2021-11-25T11:47:19.000Z</time>
      </trkpt>
      <trkpt lat="47.25912" lon="-2.32858">
        <ele>-4</ele>
        <time>2021-11-25T11:47:25.000Z</time>
      </trkpt>
      <trkpt lat="47.25894" lon="-2.3281">
        <ele>-4</ele>
        <time>2021-11-25T11:47:33.000Z</time>
      </trkpt>
      <trkpt lat="47.25879" lon="-2.32766">
        <ele>-4</ele>
        <time>2021-11-25T11:47:40.000Z</time>
      </trkpt>
      <trkpt lat="47.25874" lon="-2.32737">
        <ele>-4</ele>
        <time>2021-11-25T11:47:45.000Z</time>
      </trkpt>
      <trkpt lat="47.25886" lon="-2.32717">
        <ele>-4</ele>
        <time>2021-11-25T11:47:49.000Z</time>
      </trkpt>
      <trkpt lat="47.25918" lon="-2.32688">
        <ele>-4</ele>
        <time>2021-11-25T11:47:57.000Z</time>
      </trkpt>
      <trkpt lat="47.2595" lon="-2.32666">
        <ele>-4</ele>
        <time>2021-11-25T11:48:05.000Z</time>
      </trkpt>
      <trkpt lat="47.25958" lon="-2.3266">
        <ele>-4</ele>
        <time>2021-11-25T11:48:07.000Z</time>
      </trkpt>
      <trkpt lat="47.25963" lon="-2.32648">
        <ele>-4</ele>
        <time>2021-11-25T11:48:09.000Z</time>
      </trkpt>
      <trkpt lat="47.25962" lon="-2.3262">
        <ele>-4</ele>
        <time>2021-11-25T11:48:13.000Z</time>
      </trkpt>
      <trkpt lat="47.25961" lon="-2.32613">
        <ele>-4</ele>
        <time>2021-11-25T11:48:14.000Z</time>
      </trkpt>
      <trkpt lat="47.25949" lon="-2.32565">
        <ele>-4</ele>
        <time>2021-11-25T11:48:21.000Z</time>
      </trkpt>
      <trkpt lat="47.25936" lon="-2.3252">
        <ele>-4</ele>
        <time>2021-11-25T11:48:28.000Z</time>
      </trkpt>
      <trkpt lat="47.25924" lon="-2.32484">
        <ele>-4</ele>
        <time>2021-11-25T11:48:34.000Z</time>
      </trkpt>
      <trkpt lat="47.25922" lon="-2.32479">
        <ele>-4</ele>
        <time>2021-11-25T11:48:35.000Z</time>
      </trkpt>
      <trkpt lat="47.2591" lon="-2.3247">
        <ele>-4</ele>
        <time>2021-11-25T11:48:39.000Z</time>
      </trkpt>
      <trkpt lat="47.25907" lon="-2.32469">
        <ele>-4</ele>
        <time>2021-11-25T11:48:40.000Z</time>
      </trkpt>
      <trkpt lat="47.25904" lon="-2.3246">
        <ele>-4</ele>
        <time>2021-11-25T11:48:42.000Z</time>
      </trkpt>
      <trkpt lat="47.25911" lon="-2.32446">
        <ele>-4</ele>
        <time>2021-11-25T11:48:45.000Z</time>
      </trkpt>
      <trkpt lat="47.25939" lon="-2.32409">
        <ele>-4</ele>
        <time>2021-11-25T11:48:53.000Z</time>
      </trkpt>
      <trkpt lat="47.25968" lon="-2.32368">
        <ele>-4</ele>
        <time>2021-11-25T11:49:02.000Z</time>
      </trkpt>
      <trkpt lat="47.25996" lon="-2.32332">
        <ele>-4</ele>
        <time>2021-11-25T11:49:10.000Z</time>
      </trkpt>
      <trkpt lat="47.26004" lon="-2.32323">
        <ele>-4</ele>
        <time>2021-11-25T11:49:12.000Z</time>
      </trkpt>
      <trkpt lat="47.26017" lon="-2.32307">
        <ele>-4</ele>
        <time>2021-11-25T11:49:16.000Z</time>
      </trkpt>
      <trkpt lat="47.26047" lon="-2.32272">
        <ele>-4</ele>
        <time>2021-11-25T11:49:24.000Z</time>
      </trkpt>
      <trkpt lat="47.26074" lon="-2.32244">
        <ele>-4</ele>
        <time>2021-11-25T11:49:31.000Z</time>
      </trkpt>
      <trkpt lat="47.26091" lon="-2.32222">
        <ele>-4</ele>
        <time>2021-11-25T11:49:36.000Z</time>
      </trkpt>
      <trkpt lat="47.26101" lon="-2.32207">
        <ele>-4</ele>
        <time>2021-11-25T11:49:39.000Z</time>
      </trkpt>
      <trkpt lat="47.26107" lon="-2.32195">
        <ele>-4</ele>
        <time>2021-11-25T11:49:41.000Z</time>
      </trkpt>
      <trkpt lat="47.26113" lon="-2.32177">
        <ele>-4</ele>
        <time>2021-11-25T11:49:44.000Z</time>
      </trkpt>
      <trkpt lat="47.26119" lon="-2.32158">
        <ele>-4</ele>
        <time>2021-11-25T11:49:47.000Z</time>
      </trkpt>
      <trkpt lat="47.26133" lon="-2.32114">
        <ele>-4</ele>
        <time>2021-11-25T11:49:54.000Z</time>
      </trkpt>
      <trkpt lat="47.26136" lon="-2.32102">
        <ele>-4</ele>
        <time>2021-11-25T11:49:56.000Z</time>
      </trkpt>
      <trkpt lat="47.26141" lon="-2.32084">
        <ele>-4</ele>
        <time>2021-11-25T11:49:59.000Z</time>
      </trkpt>
      <trkpt lat="47.2615" lon="-2.32055">
        <ele>-4</ele>
        <time>2021-11-25T11:50:04.000Z</time>
      </trkpt>
      <trkpt lat="47.26153" lon="-2.32049">
        <ele>-4.4000000953674</ele>
        <time>2021-11-25T11:50:05.000Z</time>
      </trkpt>
      <trkpt lat="47.26155" lon="-2.32044">
        <ele>-4.8000001907349</ele>
        <time>2021-11-25T11:50:06.000Z</time>
      </trkpt>
      <trkpt lat="47.26157" lon="-2.32039">
        <ele>-5.1999998092651</ele>
        <time>2021-11-25T11:50:07.000Z</time>
      </trkpt>
      <trkpt lat="47.26159" lon="-2.32034">
        <ele>-5.5999999046326</ele>
        <time>2021-11-25T11:50:08.000Z</time>
      </trkpt>
      <trkpt lat="47.26162" lon="-2.3203">
        <ele>-6</ele>
        <time>2021-11-25T11:50:09.000Z</time>
      </trkpt>
      <trkpt lat="47.26165" lon="-2.32026">
        <ele>-6</ele>
        <time>2021-11-25T11:50:10.000Z</time>
      </trkpt>
      <trkpt lat="47.26179" lon="-2.32019">
        <ele>-6</ele>
        <time>2021-11-25T11:50:14.000Z</time>
      </trkpt>
      <trkpt lat="47.26191" lon="-2.32023">
        <ele>-6</ele>
        <time>2021-11-25T11:50:19.000Z</time>
      </trkpt>
      <trkpt lat="47.26198" lon="-2.3202">
        <ele>-6</ele>
        <time>2021-11-25T11:50:23.000Z</time>
      </trkpt>
      <trkpt lat="47.26199" lon="-2.32018">
        <ele>-6</ele>
        <time>2021-11-25T11:50:24.000Z</time>
      </trkpt>
      <trkpt lat="47.26202" lon="-2.32007">
        <ele>-6</ele>
        <time>2021-11-25T11:50:27.000Z</time>
      </trkpt>
      <trkpt lat="47.26205" lon="-2.32002">
        <ele>-6</ele>
        <time>2021-11-25T11:50:29.000Z</time>
      </trkpt>
      <trkpt lat="47.26218" lon="-2.31986">
        <ele>-6</ele>
        <time>2021-11-25T11:50:34.000Z</time>
      </trkpt>
      <trkpt lat="47.26237" lon="-2.31967">
        <ele>-6</ele>
        <time>2021-11-25T11:50:39.000Z</time>
      </trkpt>
      <trkpt lat="47.26248" lon="-2.31953">
        <ele>-6</ele>
        <time>2021-11-25T11:50:43.000Z</time>
      </trkpt>
      <trkpt lat="47.26263" lon="-2.31926">
        <ele>-6</ele>
        <time>2021-11-25T11:50:50.000Z</time>
      </trkpt>
      <trkpt lat="47.26278" lon="-2.31904">
        <ele>-6</ele>
        <time>2021-11-25T11:50:56.000Z</time>
      </trkpt>
      <trkpt lat="47.26295" lon="-2.31885">
        <ele>-6</ele>
        <time>2021-11-25T11:51:02.000Z</time>
      </trkpt>
      <trkpt lat="47.26302" lon="-2.31863">
        <ele>-6</ele>
        <time>2021-11-25T11:51:07.000Z</time>
      </trkpt>
      <trkpt lat="47.26304" lon="-2.31837">
        <ele>-6</ele>
        <time>2021-11-25T11:51:12.000Z</time>
      </trkpt>
      <trkpt lat="47.26307" lon="-2.31798">
        <ele>-6</ele>
        <time>2021-11-25T11:51:19.000Z</time>
      </trkpt>
      <trkpt lat="47.26309" lon="-2.31763">
        <ele>-6</ele>
        <time>2021-11-25T11:51:25.000Z</time>
      </trkpt>
      <trkpt lat="47.26311" lon="-2.31723">
        <ele>-6</ele>
        <time>2021-11-25T11:51:32.000Z</time>
      </trkpt>
      <trkpt lat="47.26312" lon="-2.31718">
        <ele>-6</ele>
        <time>2021-11-25T11:51:33.000Z</time>
      </trkpt>
      <trkpt lat="47.26318" lon="-2.31713">
        <ele>-6</ele>
        <time>2021-11-25T11:51:35.000Z</time>
      </trkpt>
      <trkpt lat="47.26336" lon="-2.31702">
        <ele>-6</ele>
        <time>2021-11-25T11:51:41.000Z</time>
      </trkpt>
      <trkpt lat="47.26337" lon="-2.31697">
        <ele>-5.5999999046326</ele>
        <time>2021-11-25T11:51:42.000Z</time>
      </trkpt>
      <trkpt lat="47.26338" lon="-2.31693">
        <ele>-5.1999998092651</ele>
        <time>2021-11-25T11:51:43.000Z</time>
      </trkpt>
      <trkpt lat="47.2634" lon="-2.31689">
        <ele>-4.8000001907349</ele>
        <time>2021-11-25T11:51:44.000Z</time>
      </trkpt>
      <trkpt lat="47.26342" lon="-2.31687">
        <ele>-4.4000000953674</ele>
        <time>2021-11-25T11:51:45.000Z</time>
      </trkpt>
      <trkpt lat="47.26344" lon="-2.31685">
        <ele>-4</ele>
        <time>2021-11-25T11:51:46.000Z</time>
      </trkpt>
      <trkpt lat="47.26358" lon="-2.31677">
        <ele>-4</ele>
        <time>2021-11-25T11:51:51.000Z</time>
      </trkpt>
      <trkpt lat="47.26361" lon="-2.31676">
        <ele>-3.5999999046326</ele>
        <time>2021-11-25T11:51:52.000Z</time>
      </trkpt>
      <trkpt lat="47.26364" lon="-2.31675">
        <ele>-2.7999999523163</ele>
        <time>2021-11-25T11:51:53.000Z</time>
      </trkpt>
      <trkpt lat="47.26367" lon="-2.31673">
        <ele>-2.4000000953674</ele>
        <time>2021-11-25T11:51:54.000Z</time>
      </trkpt>
      <trkpt lat="47.2637" lon="-2.31672">
        <ele>-2</ele>
        <time>2021-11-25T11:51:55.000Z</time>
      </trkpt>
      <trkpt lat="47.26373" lon="-2.31671">
        <ele>-2</ele>
        <time>2021-11-25T11:51:56.000Z</time>
      </trkpt>
      <trkpt lat="47.26393" lon="-2.31661">
        <ele>-2</ele>
        <time>2021-11-25T11:52:02.000Z</time>
      </trkpt>
      <trkpt lat="47.26409" lon="-2.31651">
        <ele>-2</ele>
        <time>2021-11-25T11:52:08.000Z</time>
      </trkpt>
      <trkpt lat="47.2641" lon="-2.31648">
        <ele>-2</ele>
        <time>2021-11-25T11:52:09.000Z</time>
      </trkpt>
      <trkpt lat="47.26411" lon="-2.31639">
        <ele>-2</ele>
        <time>2021-11-25T11:52:11.000Z</time>
      </trkpt>
      <trkpt lat="47.26414" lon="-2.31618">
        <ele>-2</ele>
        <time>2021-11-25T11:52:16.000Z</time>
      </trkpt>
      <trkpt lat="47.26414" lon="-2.31595">
        <ele>-2</ele>
        <time>2021-11-25T11:52:21.000Z</time>
      </trkpt>
      <trkpt lat="47.26414" lon="-2.31568">
        <ele>-2</ele>
        <time>2021-11-25T11:52:27.000Z</time>
      </trkpt>
      <trkpt lat="47.26415" lon="-2.31553">
        <ele>-1.6000000238419</ele>
        <time>2021-11-25T11:52:31.000Z</time>
      </trkpt>
      <trkpt lat="47.26417" lon="-2.31552">
        <ele>-1.2000000476837</ele>
        <time>2021-11-25T11:52:32.000Z</time>
      </trkpt>
      <trkpt lat="47.26419" lon="-2.31552">
        <ele>-0.80000001192093</ele>
        <time>2021-11-25T11:52:33.000Z</time>
      </trkpt>
      <trkpt lat="47.2642" lon="-2.31553">
        <ele>-0.40000000596046</ele>
        <time>2021-11-25T11:52:34.000Z</time>
      </trkpt>
      <trkpt lat="47.2642" lon="-2.31554">
        <ele>10.3</ele>
        <time>2021-11-25T11:52:35.000Z</time>
      </trkpt>
      <trkpt lat="47.2642" lon="-2.31554">
        <ele>10.3</ele>
        <time>2021-11-25T11:52:36.000Z</time>
      </trkpt>
    </trkseg>
  </trk>
</gpx>